# Wetter Temperatur Luftdruck Luftfeuchtigkeit Sichtweite Windgeschwindigkeit Windrichtung Zeit
1 Clouds 5 1006 81 10000 7.7 260 21:57 28.01.2020
2 Rain 5 1005 81 10000 4.6 250 21:38 28.01.2020
3 Rain 5 1005 81 10000 4.6 250 21:19 28.01.2020
4 Rain 5 1005 87 10000 5.7 260 20:45 28.01.2020
5 Rain 6 1005 87 10000 5.7 260 20:26 28.01.2020
6 Drizzle 5 1005 93 10000 3.6 230 19:55 28.01.2020
7 Rain 5 1005 81 10000 4.6 250 19:37 28.01.2020
8 Rain 5 1005 81 10000 4.6 250 19:19 28.01.2020
9 Rain 5 1005 86 10000 3.6 230 18:42 28.01.2020
10 Rain 6 1005 65 10000 3.6 230 18:23 28.01.2020
11 Clouds 6 1005 65 10000 7.7 240 17:59 28.01.2020
12 Rain 6 1005 65 10000 6.7 230 17:40 28.01.2020
13 Rain 6 1005 65 10000 6.7 230 17:21 28.01.2020
14 Clouds 7 1005 65 10000 8.2 240 16:59 28.01.2020
15 Clouds 7 1005 65 10000 8.2 240 16:40 28.01.2020
16 Clouds 7 1005 65 10000 7.7 250 16:22 28.01.2020
17 Clouds 7 1005 65 10000 7.7 250 15:55 28.01.2020
18 Clouds 7 1005 65 10000 8.2 240 15:37 28.01.2020
19 Clouds 7 1005 65 10000 8.2 240 15:18 28.01.2020
20 Clouds 7 1005 70 10000 8.7 240 14:43 28.01.2020
21 Clouds 7 1005 86 10000 4.1 250 14:19 28.01.2020
22 Rain 6 1005 86 10000 5.7 270 13:42 28.01.2020
23 Rain 6 1005 65 10000 10.3 250 13:24 28.01.2020
24 Clouds 6 1004 65 10000 10.8 240 12:45 28.01.2020
25 Clouds 6 1004 65 10000 10.8 240 12:25 28.01.2020
26 Clouds 6 1003 70 10000 8.7 240 11:59 28.01.2020
27 Clouds 6 1003 70 10000 10.8 240 11:41 28.01.2020
28 Clouds 6 1003 70 10000 10.8 240 11:21 28.01.2020
29 Clouds 5 1002 70 10000 9.8 240 10:55 28.01.2020
30 Clouds 5 1002 59 10000 9.3 250 10:36 28.01.2020
31 Clouds 5 1002 59 10000 9.3 250 10:18 28.01.2020
32 Rain 5 1001 86 10000 9.8 260 09:41 28.01.2020
33 Rain 5 1001 86 10000 9.8 260 09:20 28.01.2020
34 Rain 5 1000 70 10000 8.2 240 08:45 28.01.2020
35 Rain 5 999 63 10000 11.8 250 08:26 28.01.2020
36 Rain 6 998 65 10000 10.3 230 07:56 28.01.2020
37 Rain 6 998 70 10000 8.7 230 07:34 28.01.2020
38 Clouds 6 998 70 10000 9.8 230 06:48 28.01.2020
39 Clouds 6 998 70 10000 10.3 230 06:25 28.01.2020
40 Clouds 6 997 75 10000 7.2 240 05:40 28.01.2020
41 Clouds 7 997 65 10000 8.7 230 05:21 28.01.2020
42 Clouds 8 997 75 10000 8.7 210 03:49 28.01.2020
43 Clouds 7 998 87 10000 6.7 200 02:46 28.01.2020
44 Rain 8 998 87 10000 6.2 190 02:25 28.01.2020
45 Rain 8 999 81 10000 7.7 200 01:55 28.01.2020
46 Clouds 7 999 81 10000 5.7 200 01:22 28.01.2020
47 Clouds 7 999 81 10000 9.3 210 00:45 28.01.2020
48 Clouds 7 1000 81 10000 6.7 210 00:22 28.01.2020
49 Clouds 7 1000 81 10000 7.2 200 23:44 27.01.2020
50 Clouds 8 1000 93 10000 6.7 220 23:20 27.01.2020
51 Rain 8 1001 93 10000 5.7 240 22:45 27.01.2020
52 Rain 8 1000 81 10000 7.7 210 22:20 27.01.2020
53 Rain 8 1000 81 10000 7.7 210 22:20 27.01.2020
54 Clouds 8 1000 81 10000 6.2 220 21:58 27.01.2020
55 Clouds 8 1000 81 10000 7.2 210 21:39 27.01.2020
56 Clouds 8 1000 81 10000 7.2 210 21:19 27.01.2020
57 Clouds 8 1000 81 10000 7.2 210 21:19 27.01.2020
58 Clouds 8 1000 81 10000 7.2 210 21:19 27.01.2020
59 Clouds 8 1000 81 10000 8.2 200 20:57 27.01.2020
60 Rain 8 1000 87 10000 7.2 200 20:38 27.01.2020
61 Rain 8 1000 87 10000 7.2 200 20:20 27.01.2020
62 Rain 8 1000 87 10000 8.7 190 19:57 27.01.2020
63 Rain 8 1000 87 10000 8.7 190 19:39 27.01.2020
64 Rain 8 1000 87 10000 6.2 190 19:21 27.01.2020
65 Rain 8 1001 87 10000 7.7 190 18:54 27.01.2020
66 Drizzle 8 1002 87 10000 7.7 190 18:36 27.01.2020
67 Drizzle 8 1002 87 10000 7.7 190 18:18 27.01.2020
68 Rain 8 1004 87 10000 7.7 180 17:39 27.01.2020
69 Rain 8 1004 87 10000 7.7 180 17:19 27.01.2020
70 Rain 8 1004 87 10000 7.7 180 16:57 27.01.2020
71 Clouds 8 1004 87 10000 5.7 180 16:39 27.01.2020
72 Clouds 8 1004 87 10000 5.7 180 16:21 27.01.2020
73 Clouds 8 1005 87 10000 6.7 180 15:54 27.01.2020
74 Rain 8 1006 87 10000 5.7 190 15:36 27.01.2020
75 Rain 8 1006 87 10000 5.7 190 15:18 27.01.2020
76 Rain 8 1006 87 10000 7.7 200 14:40 27.01.2020
77 Drizzle 8 1007 87 10000 7.2 200 14:21 27.01.2020
78 Clouds 9 1007 87 10000 6.7 200 13:54 27.01.2020
79 Rain 9 1008 81 10000 6.2 200 13:36 27.01.2020
80 Rain 9 1008 81 10000 6.2 200 13:18 27.01.2020
81 Clouds 9 1008 87 10000 6.2 210 12:42 27.01.2020
82 Clouds 9 1009 87 10000 6.7 210 12:22 27.01.2020
83 Clouds 8 1009 87 10000 6.2 200 11:55 27.01.2020
84 Rain 8 1009 87 5000 5.7 210 11:36 27.01.2020
85 Rain 8 1009 87 5000 5.7 210 11:18 27.01.2020
86 Drizzle 8 1009 87 7000 6.2 210 10:42 27.01.2020
87 Drizzle 8 1009 87 7000 6.2 210 10:23 27.01.2020
88 Rain 8 1009 87 10000 7.2 200 09:40 27.01.2020
89 Rain 8 1009 87 10000 7.2 200 09:19 27.01.2020
90 Drizzle 8 1009 93 10000 5.7 200 08:58 27.01.2020
91 Rain 8 1009 93 9000 5.7 190 08:40 27.01.2020
92 Rain 8 1009 93 9000 5.7 190 08:19 27.01.2020
93 Rain 8 1010 93 8000 6.2 200 07:50 27.01.2020
94 Clouds 9 1010 93 10000 6.2 190 07:32 27.01.2020
95 Clouds 9 1010 93 9000 7.2 190 06:39 27.01.2020
96 Rain 9 1010 93 10000 5.7 190 05:53 27.01.2020
97 Rain 9 1011 93 10000 7.2 190 05:18 27.01.2020
98 Rain 8 1012 87 10000 5.7 190 03:36 27.01.2020
99 Rain 8 1013 87 10000 6.7 180 01:57 27.01.2020
100 Rain 8 1013 87 8000 6.7 180 01:28 27.01.2020
101 Rain 8 1013 87 8000 6.7 180 01:28 27.01.2020
102 Rain 8 1013 87 8000 6.2 180 00:42 27.01.2020
103 Rain 8 1014 87 9000 6.2 180 00:22 27.01.2020
104 Rain 8 1014 87 9000 6.2 180 00:22 27.01.2020
105 Drizzle 8 1014 87 10000 5.1 180 23:58 26.01.2020
106 Clouds 8 1014 81 10000 5.1 180 23:39 26.01.2020
107 Clouds 8 1014 81 10000 5.1 180 23:18 26.01.2020
108 Clouds 8 1014 81 10000 5.7 170 22:39 26.01.2020
109 Clouds 8 1015 81 10000 4.6 180 22:20 26.01.2020
110 Clouds 8 1015 87 10000 4.6 180 21:59 26.01.2020
111 Clouds 8 1015 87 10000 5.7 170 21:40 26.01.2020
112 Clouds 8 1015 87 10000 5.7 170 21:22 26.01.2020
113 Clouds 8 1015 87 10000 4.6 160 20:58 26.01.2020
114 Clouds 8 1015 87 10000 4.6 160 20:40 26.01.2020
115 Clouds 8 1015 81 10000 5.1 170 20:20 26.01.2020
116 Clouds 7 1015 87 10000 4.6 180 19:59 26.01.2020
117 Clouds 7 1015 87 10000 4.1 170 19:39 26.01.2020
118 Clouds 7 1015 87 10000 4.1 170 19:21 26.01.2020
119 Clouds 7 1015 87 10000 2.6 160 18:59 26.01.2020
120 Clouds 7 1015 87 10000 2.6 160 18:39 26.01.2020
121 Clouds 7 1015 87 10000 3.6 180 18:21 26.01.2020
122 Clouds 7 1015 87 10000 3.6 180 18:21 26.01.2020
123 Clouds 8 1015 81 10000 3.6 180 17:57 26.01.2020
124 Clouds 8 1016 76 10000 4.6 190 17:38 26.01.2020
125 Clouds 8 1016 76 10000 4.6 190 17:18 26.01.2020
126 Clouds 8 1016 81 10000 2.6 200 16:57 26.01.2020
127 Clouds 8 1015 81 10000 4.6 180 16:39 26.01.2020
128 Clouds 9 1015 81 10000 4.6 180 16:20 26.01.2020
129 Clouds 8 1016 81 10000 4.1 220 15:55 26.01.2020
130 Clouds 8 1014 89 0 0.89 45 15:36 26.01.2020
131 Clouds 8 1015 90 0 0.45 125 15:18 26.01.2020
132 Clouds 8 1015 91 0 0.45 209 14:39 26.01.2020
133 Clouds 8 1015 92 0 0.89 348 14:19 26.01.2020
134 Clouds 7 1015 92 0 0.89 60 13:42 26.01.2020
135 Clouds 7 1015 92 0 0.45 173 13:20 26.01.2020
136 Clouds 7 1015 92 0 4.35 200 12:57 26.01.2020
137 Clouds 7 1015 93 0 0.45 186 12:38 26.01.2020
138 Clouds 6 1015 92 0 4.35 200 12:20 26.01.2020
139 Clouds 6 1016 93 0 0.45 224 11:57 26.01.2020
140 Mist 5 1017 100 3800 1 140 11:37 26.01.2020
141 Mist 5 1017 100 3800 1 140 11:18 26.01.2020
142 Mist 4 1017 100 3800 1 140 10:57 26.01.2020
143 Mist 4 1017 100 3800 1 140 10:38 26.01.2020
144 Mist 4 1017 100 3800 1 140 10:19 26.01.2020
145 Mist 3 1017 100 3600 2.1 140 09:56 26.01.2020
146 Rain 3 1017 100 2800 2.1 130 09:38 26.01.2020
147 Rain 3 1017 100 2800 2.1 130 09:19 26.01.2020
148 Mist 2 1016 100 2700 2.6 130 08:42 26.01.2020
149 Mist 2 1016 100 3100 1 100 08:22 26.01.2020
150 Mist 2 1016 100 3600 1.5 120 07:54 26.01.2020
151 Mist 2 1016 100 3800 1 100 07:36 26.01.2020
152 Mist 2 1016 100 3800 1 100 07:18 26.01.2020
153 Mist 2 1016 100 3200 2.1 90 06:26 26.01.2020
154 Mist 2 1016 93 3100 1.5 80 05:29 26.01.2020
155 Mist 2 1016 100 3300 1.5 90 04:43 26.01.2020
156 Mist 2 1017 93 3400 2.39 171 02:38 26.01.2020
157 Mist 2 1017 100 3300 1 0 01:46 26.01.2020
158 Mist 2 1017 100 3000 1.5 40 01:23 26.01.2020
159 Mist 2 1017 95 2900 1 360 00:44 26.01.2020
160 Mist 2 1018 100 2900 1 0 00:26 26.01.2020
161 Clouds 2 1016 91 0 2.17 156 23:40 25.01.2020
162 Clouds 2 1016 90 0 2.11 153 23:21 25.01.2020
163 Clouds 2 1016 90 0 2.11 153 22:58 25.01.2020
164 Clouds 2 1017 90 0 2.11 153 22:39 25.01.2020
165 Clouds 2 1017 90 0 2.11 153 22:18 25.01.2020
166 Clouds 3 1017 90 0 2.11 153 21:56 25.01.2020
167 Clouds 4 1019 94 0 2.11 153 21:38 25.01.2020
168 Clouds 4 1019 94 0 2.11 153 21:19 25.01.2020
169 Clouds 3 1017 89 0 2.11 153 20:43 25.01.2020
170 Clouds 5 1019 90 0 2.22 140 20:25 25.01.2020
171 Clouds 5 1019 90 0 2.22 140 19:54 25.01.2020
172 Clouds 4 1017 88 0 2.05 147 19:36 25.01.2020
173 Clouds 4 1017 86 0 2.22 140 19:18 25.01.2020
174 Clouds 4 1017 88 0 2.22 140 18:41 25.01.2020
175 Clouds 4 1017 86 0 2.22 140 18:21 25.01.2020
176 Clouds 4 1017 85 0 2.05 147 17:57 25.01.2020
177 Clouds 5 1017 85 0 2.22 140 17:37 25.01.2020
178 Clouds 5 1017 85 0 2.22 140 17:37 25.01.2020
179 Clouds 5 1017 85 0 1.72 140 17:18 25.01.2020
180 Clouds 5 1017 84 0 1.72 140 16:42 25.01.2020
181 Clouds 5 1017 84 0 1.72 140 16:42 25.01.2020
182 Clouds 5 1017 83 0 1.72 140 16:23 25.01.2020
183 Clouds 6 1018 83 0 1.72 140 15:57 25.01.2020
184 Clouds 6 1018 84 0 1.72 140 15:39 25.01.2020
185 Clouds 6 1018 95 0 1.72 140 15:20 25.01.2020
186 Clouds 6 1018 86 0 1.72 140 14:42 25.01.2020
187 Clouds 4 1018 87 0 2.03 147 14:19 25.01.2020
188 Clouds 4 1019 90 0 2.03 147 13:45 25.01.2020
189 Clouds 4 1019 92 0 1.81 160 13:27 25.01.2020
190 Mist 3 1022 100 2700 1.5 0 12:58 25.01.2020
191 Mist 3 1022 100 2700 1.5 0 12:38 25.01.2020
192 Mist 2 1022 100 2700 1.5 0 12:19 25.01.2020
193 Fog 1 1022 79 800 1.5 30 11:40 25.01.2020
194 Fog 1 1022 92 800 1.5 30 11:20 25.01.2020
195 Fog 1 1022 92 300 1.5 30 10:56 25.01.2020
196 Fog 0 1022 92 300 1.5 0 10:38 25.01.2020
197 Fog 0 1022 92 300 1.5 0 10:18 25.01.2020
198 Fog 0 1022 100 450 2.1 50 09:40 25.01.2020
199 Fog 0 1022 100 450 2.1 50 09:19 25.01.2020
200 Fog 0 1022 92 600 2.6 80 08:43 25.01.2020
201 Fog -1 1021 94 800 0.5 0 07:59 25.01.2020
202 Fog -1 1021 100 900 1.5 40 07:40 25.01.2020
203 Mist -1 1021 100 1300 2.6 50 06:44 25.01.2020
204 Mist -1 1021 92 5000 2.6 50 06:24 25.01.2020
205 Fog -1 1021 100 1200 2.6 40 05:44 25.01.2020
206 Fog -2 1021 100 450 1 0 04:25 25.01.2020
207 Fog -1 1022 92 400 2.1 30 03:50 25.01.2020
208 Fog -1 1022 92 350 0.78 104 02:40 25.01.2020
209 Fog -1 1022 92 350 1 0 01:58 25.01.2020
210 Fog -1 1023 92 350 0.86 152 01:35 25.01.2020
211 Fog -1 1023 100 350 1.5 40 00:42 25.01.2020
212 Fog -1 1023 100 350 1.5 40 00:23 25.01.2020
213 Fog -1 1023 100 400 1.5 110 23:56 24.01.2020
214 Fog -1 1023 100 500 1.5 30 23:38 24.01.2020
215 Fog -1 1023 100 500 1.5 30 23:19 24.01.2020
216 Fog -1 1023 71 450 1.5 20 22:42 24.01.2020
217 Fog -1 1023 71 350 1 0 22:23 24.01.2020
218 Fog 0 1023 71 900 1.5 80 21:41 24.01.2020
219 Fog 0 1023 71 900 1.5 80 21:20 24.01.2020
220 Fog 0 1023 71 1000 2.1 60 20:56 24.01.2020
221 Mist 0 1023 71 2200 1.5 70 20:37 24.01.2020
222 Mist 0 1023 59 2200 1.5 70 20:18 24.01.2020
223 Mist 1 1023 59 3200 2.1 60 19:55 24.01.2020
224 Mist 1 1023 86 3800 1.5 80 19:37 24.01.2020
225 Mist 1 1023 86 3800 1.5 80 19:19 24.01.2020
226 Mist 2 1022 59 4300 2.1 70 18:42 24.01.2020
227 Mist 2 1022 59 4300 2.1 70 18:22 24.01.2020
228 Mist 2 1023 86 3500 1.5 70 17:46 24.01.2020
229 Mist 3 1023 86 3600 2.1 20 17:23 24.01.2020
230 Mist 3 1023 86 3700 1.5 50 16:58 24.01.2020
231 Mist 3 1023 86 3600 2.1 40 16:39 24.01.2020
232 Mist 3 1023 86 3600 2.1 40 16:19 24.01.2020
233 Mist 4 1023 86 3400 1.5 10 15:42 24.01.2020
234 Mist 4 1023 86 3800 1.5 0 15:22 24.01.2020
235 Mist 3 1023 86 3300 1.5 30 14:56 24.01.2020
236 Mist 3 1023 86 3200 1.5 10 14:38 24.01.2020
237 Mist 3 1023 86 3200 1.5 10 14:19 24.01.2020
238 Mist 3 1023 86 3100 2.6 20 13:42 24.01.2020
239 Mist 2 1024 86 3200 1.5 0 13:22 24.01.2020
240 Mist 2 1024 86 3200 2.1 20 12:44 24.01.2020
241 Mist 2 1024 86 3200 2.1 20 12:44 24.01.2020
242 Mist 1 1024 44 3300 1.5 0 12:22 24.01.2020
243 Mist 0 1024 44 3200 2.1 120 11:45 24.01.2020
244 Mist 0 1024 56 3200 2.1 120 11:20 24.01.2020
245 Mist 0 1024 56 3200 2.6 130 10:59 24.01.2020
246 Mist 0 1024 56 3400 1.5 70 10:41 24.01.2020
247 Mist 0 1024 56 3400 1.5 70 10:41 24.01.2020
248 Mist 0 1024 56 3400 1.5 70 10:19 24.01.2020
249 Mist -1 1024 56 3500 1.5 80 09:42 24.01.2020
250 Mist -1 1024 56 3500 1.5 80 09:42 24.01.2020
251 Mist -1 1024 56 3700 2.1 90 09:24 24.01.2020
252 Mist -1 1024 56 4500 3.1 70 08:59 24.01.2020
253 Mist -1 1024 56 4700 2.6 70 08:38 24.01.2020
254 Mist -1 1024 68 4700 2.6 70 08:18 24.01.2020
255 Mist -1 1023 68 4700 2.6 60 07:43 24.01.2020
256 Mist -1 1023 68 4700 2.6 40 07:22 24.01.2020
257 Mist -1 1024 68 4500 2.6 40 06:43 24.01.2020
258 Mist -1 1023 68 4500 2.1 30 06:23 24.01.2020
259 Mist -1 1023 92 4600 1.5 10 05:22 24.01.2020
260 Mist 0 1024 100 5000 1.5 20 03:34 24.01.2020
261 Mist 0 1024 92 4800 1.5 80 02:40 24.01.2020
262 Mist 0 1024 92 4800 1.5 80 02:20 24.01.2020
263 Mist 0 1025 75 4900 3.6 30 01:38 24.01.2020
264 Mist 0 1025 75 5000 2.6 20 00:49 24.01.2020
265 Mist 0 1025 100 4500 1.5 10 00:19 24.01.2020
266 Mist 0 1025 92 3600 1 50 23:42 23.01.2020
267 Mist 0 1025 76 3800 2.1 20 23:22 23.01.2020
268 Mist 0 1026 76 5000 2.6 10 22:58 23.01.2020
269 Mist 0 1026 92 5000 1 350 22:37 23.01.2020
270 Mist 0 1026 92 5000 1 350 22:37 23.01.2020
271 Mist 0 1026 92 5000 1 350 22:18 23.01.2020
272 Mist 0 1026 76 5000 0.5 0 21:55 23.01.2020
273 Mist 0 1026 76 5000 1 60 21:37 23.01.2020
274 Mist 0 1026 76 5000 1 60 21:19 23.01.2020
275 Mist 0 1026 76 5000 1 60 21:19 23.01.2020
276 Clear 0 1026 76 7000 1.5 40 20:55 23.01.2020
277 Clear 0 1026 76 8000 1 0 20:37 23.01.2020
278 Clear 1 1026 78 8000 1 0 20:18 23.01.2020
279 Clear 1 1026 86 9000 2.6 10 19:42 23.01.2020
280 Clear 1 1026 86 10000 2.6 360 19:23 23.01.2020
281 Clear 1 1026 80 10000 2.6 10 18:58 23.01.2020
282 Clouds 1 1026 78 10000 3.1 360 18:39 23.01.2020
283 Clouds 1 1026 78 10000 3.1 360 18:20 23.01.2020
284 Clouds 2 1027 78 10000 3.6 30 17:56 23.01.2020
285 Clouds 2 1027 78 10000 3.6 40 17:37 23.01.2020
286 Clouds 2 1027 63 10000 3.6 40 17:18 23.01.2020
287 Clouds 3 1027 63 10000 4.6 50 16:39 23.01.2020
288 Clouds 3 1027 63 10000 4.6 50 16:20 23.01.2020
289 Clouds 3 1027 63 10000 4.1 20 15:58 23.01.2020
290 Clouds 3 1027 63 10000 4.1 20 15:40 23.01.2020
291 Clouds 3 1027 63 10000 4.1 20 15:19 23.01.2020
292 Clouds 3 1028 63 10000 4.6 20 14:59 23.01.2020
293 Clouds 3 1028 63 10000 4.6 30 14:41 23.01.2020
294 Clouds 3 1028 58 10000 4.6 30 14:23 23.01.2020
295 Clouds 3 1028 58 10000 4.6 20 13:59 23.01.2020
296 Clouds 3 1029 58 10000 5.1 40 13:37 23.01.2020
297 Clouds 3 1029 61 10000 5.1 40 13:19 23.01.2020
298 Clouds 3 1029 61 10000 4.6 40 12:44 23.01.2020
299 Clouds 2 1030 61 10000 4.6 40 12:25 23.01.2020
300 Clouds 2 1030 61 10000 3.6 40 11:56 23.01.2020
301 Clouds 1 1030 64 9000 3.6 40 11:37 23.01.2020
302 Clouds 1 1030 77 9000 3.6 40 11:18 23.01.2020
303 Clouds 0 1031 86 9000 3.6 30 10:44 23.01.2020
304 Clouds 0 1031 86 9000 3.6 30 10:44 23.01.2020
305 Clouds 0 1031 86 8000 4.6 40 10:22 23.01.2020
306 Clouds 0 1031 86 8000 4.6 40 10:22 23.01.2020
307 Clouds 0 1031 86 7000 4.6 30 09:57 23.01.2020
308 Clouds 0 1031 77 7000 4.1 20 09:36 23.01.2020
309 Clouds -1 1031 77 7000 4.1 20 09:18 23.01.2020
310 Clouds -1 1031 77 6000 4.6 30 08:41 23.01.2020
311 Clouds -1 1031 92 6000 3.1 20 08:22 23.01.2020
312 Clouds -1 1031 92 6000 3.1 20 07:45 23.01.2020
313 Clouds -1 1031 92 6000 3.1 20 07:26 23.01.2020
314 Mist -1 1031 92 5000 2.1 10 06:52 23.01.2020
315 Mist -1 1031 92 4500 4.1 40 06:23 23.01.2020
316 Mist -1 1031 86 5000 2.1 10 05:57 23.01.2020
317 Clear -1 1031 63 6000 3.1 20 04:24 23.01.2020
318 Mist -1 1033 92 5000 3.1 20 02:34 23.01.2020
319 Mist -1 1033 92 5000 2.1 20 01:41 23.01.2020
320 Mist -1 1034 92 4700 2.6 10 00:28 23.01.2020
321 Mist -1 1034 92 4900 2.1 30 23:48 22.01.2020
322 Mist -1 1034 92 4600 2.6 10 23:30 22.01.2020
323 Mist 0 1034 59 4400 3.1 10 22:59 22.01.2020
324 Mist 0 1034 59 4900 3.1 20 22:41 22.01.2020
325 Mist 0 1034 59 4900 3.1 20 22:41 22.01.2020
326 Mist 0 1034 59 4900 3.1 20 22:22 22.01.2020
327 Mist 0 1034 59 4000 2.1 10 21:41 22.01.2020
328 Mist 0 1034 59 4000 2.1 10 21:22 22.01.2020
329 Mist 0 1034 59 4400 3.6 20 20:58 22.01.2020
330 Mist 0 1034 65 3800 3.6 20 20:39 22.01.2020
331 Mist 0 1034 61 3800 3.6 20 20:21 22.01.2020
332 Mist 0 1034 61 5000 2.6 10 19:57 22.01.2020
333 Clear 0 1034 61 6000 2.6 20 19:39 22.01.2020
334 Clear 0 1034 61 6000 2.6 20 19:19 22.01.2020
335 Clear 1 1034 61 7000 1.5 360 18:57 22.01.2020
336 Clear 1 1034 86 8000 2.1 20 18:38 22.01.2020
337 Clear 1 1034 61 7000 1.5 360 18:38 22.01.2020
338 Clear 1 1034 86 8000 2.1 20 18:19 22.01.2020
339 Clear 1 1034 80 10000 2.6 20 17:55 22.01.2020
340 Clear 2 1034 74 10000 3.1 360 17:36 22.01.2020
341 Clear 2 1034 74 10000 3.1 360 17:18 22.01.2020
342 Clear 2 1034 74 10000 1.5 0 16:43 22.01.2020
343 Clear 2 1034 74 10000 1.5 0 16:23 22.01.2020
344 Clear 3 1034 80 10000 2.6 30 15:58 22.01.2020
345 Clear 3 1035 86 6000 4.6 10 15:40 22.01.2020
346 Clear 3 1035 86 6000 4.6 10 15:22 22.01.2020
347 Clear 3 1034 74 9000 4.1 30 14:56 22.01.2020
348 Clouds 3 1035 52 7000 4.6 360 14:36 22.01.2020
349 Clouds 3 1035 54 7000 4.6 360 14:18 22.01.2020
350 Mist 3 1036 80 5000 3.6 350 13:54 22.01.2020
351 Mist 3 1036 54 5000 3.6 360 13:36 22.01.2020
352 Mist 3 1036 54 5000 3.6 360 13:36 22.01.2020
353 Mist 3 1036 56 5000 3.6 360 13:18 22.01.2020
354 Clear 3 1035 74 8000 3.6 30 12:54 22.01.2020
355 Clear 2 1036 56 6000 3.6 360 12:36 22.01.2020
356 Clear 2 1036 56 6000 3.6 360 12:18 22.01.2020
357 Mist 1 1036 92 5000 2.6 10 11:55 22.01.2020
358 Mist 1 1036 86 4700 3.6 10 11:36 22.01.2020
359 Mist 0 1036 86 4700 3.6 10 11:18 22.01.2020
360 Mist -1 1036 92 4400 2.6 10 10:43 22.01.2020
361 Mist -1 1036 92 2900 1 340 10:20 22.01.2020
362 Mist -2 1036 92 3200 2.6 20 09:43 22.01.2020
363 Mist -2 1036 92 3200 2.6 20 09:25 22.01.2020
364 Mist -3 1036 92 3800 3.1 10 08:57 22.01.2020
365 Mist -3 1036 92 3800 3.1 10 08:39 22.01.2020
366 Clouds -3 1036 92 6000 2.1 360 08:21 22.01.2020
367 Clouds -3 1036 86 6000 2.1 20 07:54 22.01.2020
368 Clouds -3 1036 92 6000 1.5 30 07:36 22.01.2020
369 Clouds -3 1036 92 6000 1.5 30 07:18 22.01.2020
370 Clouds -2 1036 92 7000 1 0 06:30 22.01.2020
371 Clouds -2 1036 86 7000 3.1 350 05:41 22.01.2020
372 Clouds -2 1037 92 7000 2.1 350 04:18 22.01.2020
373 Mist -2 1037 92 5000 2.1 350 03:22 22.01.2020
374 Clear -2 1037 86 6000 1.38 62 01:44 22.01.2020
375 Clear -1 1038 80 7000 2.1 360 00:44 22.01.2020
376 Clear -1 1038 80 7000 3.1 350 00:26 22.01.2020
377 Clear -1 1038 80 7000 1.5 340 23:39 21.01.2020
378 Clear -1 1038 77 7000 1.5 340 23:21 21.01.2020
379 Clear -1 1038 86 7000 2.04 37 22:59 21.01.2020
380 Clear 0 1039 77 8000 1.5 350 22:39 21.01.2020
381 Clear 0 1039 77 8000 1.5 350 22:20 21.01.2020
382 Clear 0 1039 77 8000 2.6 360 21:56 21.01.2020
383 Clear 0 1039 77 9000 2.1 10 21:37 21.01.2020
384 Clear 0 1039 77 9000 2.1 10 21:19 21.01.2020
385 Clear 0 1039 77 9000 2.1 10 21:19 21.01.2020
386 Clear 0 1039 77 9000 2.1 360 20:55 21.01.2020
387 Clear 0 1039 77 9000 2.1 360 20:37 21.01.2020
388 Clear 0 1039 86 10000 1.5 30 20:18 21.01.2020
389 Clear 1 1039 86 10000 1.5 30 19:55 21.01.2020
390 Clear 1 1039 80 10000 2.1 360 19:37 21.01.2020
391 Clear 1 1039 80 10000 2.1 360 19:18 21.01.2020
392 Clear 1 1039 80 10000 2.1 360 18:55 21.01.2020
393 Clear 2 1039 74 10000 1.5 20 18:36 21.01.2020
394 Clear 2 1039 74 10000 1.5 20 18:18 21.01.2020
395 Clear 3 1039 74 10000 2.6 20 17:42 21.01.2020
396 Clear 3 1039 59 10000 3.1 30 17:19 21.01.2020
397 Clear 4 1039 59 10000 2.6 30 16:57 21.01.2020
398 Clear 4 1039 59 10000 3.6 20 16:36 21.01.2020
399 Clear 4 1039 59 10000 3.6 20 16:36 21.01.2020
400 Clear 4 1039 59 10000 3.6 20 16:18 21.01.2020
401 Clear 4 1039 80 10000 3.6 360 15:40 21.01.2020
402 Clear 5 1040 59 10000 3.1 360 15:20 21.01.2020
403 Clear 4 1040 59 10000 2.6 350 14:58 21.01.2020
404 Clear 4 1040 59 10000 3.1 360 14:37 21.01.2020
405 Clear 4 1040 59 10000 3.1 360 14:19 21.01.2020
406 Clear 4 1041 59 10000 2.6 340 13:39 21.01.2020
407 Clear 3 1041 60 10000 3.1 350 13:19 21.01.2020
408 Clear 3 1042 74 10000 2.1 50 12:43 21.01.2020
409 Clear 3 1042 74 10000 2.1 50 12:25 21.01.2020
410 Clear 2 1042 80 10000 2.1 60 11:57 21.01.2020
411 Clear 2 1042 86 10000 1.5 30 11:38 21.01.2020
412 Clear 1 1042 86 10000 1.5 30 11:20 21.01.2020
413 Clear 0 1042 79 8000 1.5 350 10:44 21.01.2020
414 Clear 0 1042 79 8000 1.5 350 10:24 21.01.2020
415 Clear -1 1042 100 7000 1.5 360 09:59 21.01.2020
416 Clear -1 1042 100 7000 1.5 360 09:41 21.01.2020
417 Clear -1 1041 92 8000 2.1 340 09:22 21.01.2020
418 Clear -1 1041 92 8000 2.1 340 09:22 21.01.2020
419 Mist -1 1041 92 5000 1.5 350 08:48 21.01.2020
420 Clear -1 1041 92 7000 1 360 08:29 21.01.2020
421 Clear -1 1041 92 8000 2.1 350 07:57 21.01.2020
422 Clear -1 1042 86 10000 1 0 07:38 21.01.2020
423 Clear -1 1042 86 10000 1 0 07:20 21.01.2020
424 Clear -1 1041 92 9000 1 350 06:45 21.01.2020
425 Clear 0 1041 92 8000 0.5 0 06:25 21.01.2020
426 Clear -1 1041 92 7000 0.5 0 05:41 21.01.2020
427 Mist 0 1042 84 5000 2.1 20 04:39 21.01.2020
428 Mist 1 1043 93 5000 3.1 10 02:56 21.01.2020
429 Mist 1 1043 93 5000 3.6 20 01:51 21.01.2020
430 Mist 2 1043 93 5000 3.6 20 00:57 21.01.2020
431 Mist 2 1044 93 5000 4.1 10 00:35 21.01.2020
432 Mist 2 1044 93 5000 3.1 20 23:58 20.01.2020
433 Mist 2 1044 93 5000 3.6 20 23:38 20.01.2020
434 Mist 2 1044 93 5000 3.6 20 23:19 20.01.2020
435 Clouds 2 1044 93 6000 4.1 10 22:56 20.01.2020
436 Clear 2 1044 93 6000 2.6 350 22:37 20.01.2020
437 Clear 2 1044 93 6000 2.6 350 22:19 20.01.2020
438 Clear 2 1044 93 8000 1.5 340 21:57 20.01.2020
439 Clear 2 1044 93 9000 2.1 10 21:37 20.01.2020
440 Clear 2 1044 93 9000 2.1 10 21:37 20.01.2020
441 Clear 2 1044 93 9000 2.1 10 21:19 20.01.2020
442 Clear 2 1044 93 8000 2.1 360 20:55 20.01.2020
443 Clear 2 1044 93 9000 2.6 360 20:36 20.01.2020
444 Clear 2 1044 93 9000 2.6 360 20:18 20.01.2020
445 Clear 2 1044 93 9000 2.6 360 20:18 20.01.2020
446 Clear 2 1044 93 9000 2.6 360 19:56 20.01.2020
447 Clear 2 1044 93 10000 2.6 350 19:37 20.01.2020
448 Clear 2 1044 93 10000 2.6 350 19:18 20.01.2020
449 Clear 3 1044 86 10000 2.1 350 18:43 20.01.2020
450 Clear 3 1044 86 10000 2.6 360 18:22 20.01.2020
451 Clouds 4 1044 80 10000 3.6 360 17:41 20.01.2020
452 Clouds 4 1044 80 10000 3.6 360 17:19 20.01.2020
453 Clouds 5 1044 75 10000 4.1 360 16:58 20.01.2020
454 Clear 5 1045 75 10000 2.6 10 16:37 20.01.2020
455 Clear 5 1045 75 10000 2.6 10 16:18 20.01.2020
456 Clear 5 1045 75 10000 2.6 10 16:18 20.01.2020
457 Clear 5 1045 75 10000 2.6 10 16:18 20.01.2020
458 Clear 5 1045 75 10000 3.6 10 15:54 20.01.2020
459 Clear 5 1045 75 10000 4.1 360 15:36 20.01.2020
460 Clear 5 1045 75 10000 4.1 360 15:18 20.01.2020
461 Clear 5 1045 75 10000 4.6 360 14:41 20.01.2020
462 Clear 5 1046 75 9000 5.1 10 14:22 20.01.2020
463 Clear 5 1046 80 9000 5.1 10 13:58 20.01.2020
464 Clear 5 1047 80 9000 3.6 20 13:40 20.01.2020
465 Clear 5 1047 80 9000 3.6 20 13:21 20.01.2020
466 Clouds 4 1047 86 9000 2.6 360 12:46 20.01.2020
467 Clouds 4 1047 86 9000 2.6 360 12:28 20.01.2020
468 Clouds 4 1048 67 8000 3.1 360 11:57 20.01.2020
469 Clouds 3 1046 86 9000 4.6 30 11:38 20.01.2020
470 Clouds 3 1047 86 8000 3.1 30 11:20 20.01.2020
471 Clouds 2 1047 86 6000 2.6 10 10:48 20.01.2020
472 Mist 2 1047 86 4400 2.6 360 10:22 20.01.2020
473 Mist 2 1047 86 4400 2.6 360 10:22 20.01.2020
474 Clouds 1 1047 86 7000 1.5 20 09:57 20.01.2020
475 Clear 1 1047 86 9000 1 0 09:38 20.01.2020
476 Clear 1 1047 86 9000 1 0 09:19 20.01.2020
477 Clear 1 1046 86 10000 1.5 20 08:43 20.01.2020
478 Clear 1 1046 87 10000 1.5 20 08:25 20.01.2020
479 Clear 1 1046 88 10000 2.1 30 07:45 20.01.2020
480 Clear 1 1046 86 10000 1.5 0 07:24 20.01.2020
481 Clear 1 1046 86 10000 1 0 06:48 20.01.2020
482 Clear 1 1046 88 10000 2.1 10 06:27 20.01.2020
483 Clear 1 1045 88 10000 3.71 36 05:42 20.01.2020
484 Clear 2 1045 86 10000 1 0 05:22 20.01.2020
485 Clear 2 1045 84 10000 2.1 360 04:47 20.01.2020
486 Clear 2 1046 84 10000 3.1 10 02:58 20.01.2020
487 Clear 3 1046 81 10000 3.6 10 01:55 20.01.2020
488 Clear 3 1046 81 10000 3.6 10 01:37 20.01.2020
489 Clear 3 1046 80 10000 3.1 360 00:45 20.01.2020
490 Clear 3 1046 80 10000 4.6 10 00:24 20.01.2020
491 Clouds 4 1045 86 10000 3.1 360 23:39 19.01.2020
492 Clouds 4 1045 86 10000 3.1 360 23:20 19.01.2020
493 Clouds 4 1045 86 10000 3.1 360 23:20 19.01.2020
494 Clear 4 1045 86 10000 3.6 10 22:57 19.01.2020
495 Clear 4 1045 80 10000 3.1 10 22:39 19.01.2020
496 Clear 4 1045 80 10000 3.1 10 22:20 19.01.2020
497 Clear 4 1045 80 10000 3.1 360 21:57 19.01.2020
498 Clouds 4 1045 80 10000 3.1 360 21:38 19.01.2020
499 Clouds 4 1045 80 10000 3.1 360 21:20 19.01.2020
500 Clouds 4 1044 80 10000 3.6 360 20:57 19.01.2020
501 Clear 5 1044 75 10000 3.1 360 20:39 19.01.2020
502 Clear 5 1044 75 10000 3.1 360 20:21 19.01.2020
503 Clouds 5 1043 75 10000 2.6 350 19:57 19.01.2020
504 Clouds 5 1043 75 10000 3.1 350 19:39 19.01.2020
505 Clouds 5 1043 75 10000 3.1 350 19:21 19.01.2020
506 Clear 5 1043 75 10000 2.6 360 18:59 19.01.2020
507 Clear 5 1043 75 10000 2.6 360 18:41 19.01.2020
508 Clouds 5 1042 75 10000 3.1 350 18:21 19.01.2020
509 Clouds 6 1042 70 10000 3.1 10 17:59 19.01.2020
510 Clouds 6 1042 65 10000 5.1 20 17:40 19.01.2020
511 Clouds 6 1042 65 10000 5.1 20 17:22 19.01.2020
512 Clouds 6 1041 65 10000 5.1 10 17:00 19.01.2020
513 Clouds 7 1041 65 10000 5.1 20 16:40 19.01.2020
514 Clouds 7 1041 65 10000 5.1 20 16:40 19.01.2020
515 -273 0 0 0 0 0 16:22 19.01.2020
516 Clouds 7 1041 65 10000 5.7 10 16:00 19.01.2020
517 Clouds 7 1041 65 10000 5.1 20 15:40 19.01.2020
518 Clouds 7 1041 65 10000 5.1 20 15:22 19.01.2020
519 Clouds 7 1040 70 10000 5.1 10 14:59 19.01.2020
520 Clouds 7 1040 70 10000 5.1 10 14:59 19.01.2020
521 Clouds 7 1040 65 10000 5.7 10 14:40 19.01.2020
522 Clouds 7 1040 65 10000 5.7 10 14:19 19.01.2020
523 Clouds 6 1040 70 10000 5.1 10 13:58 19.01.2020
524 Clouds 6 1040 70 10000 4.6 360 13:39 19.01.2020
525 Clouds 6 1040 70 10000 5.1 10 13:39 19.01.2020
526 Clouds 6 1040 70 10000 4.6 360 13:20 19.01.2020
527 Clouds 6 1040 75 10000 4.6 350 12:58 19.01.2020
528 Clouds 6 1040 75 10000 4.6 350 12:58 19.01.2020
529 Clouds 6 1040 75 10000 4.6 350 12:58 19.01.2020
530 Clouds 5 1041 80 10000 4.6 350 12:40 19.01.2020
531 Clouds 5 1041 80 10000 4.6 350 12:40 19.01.2020
532 Clouds 5 1041 80 10000 4.6 350 12:21 19.01.2020
533 Clouds 5 1041 80 10000 3.6 350 11:57 19.01.2020
534 Clouds 4 1040 80 10000 3.6 350 11:37 19.01.2020
535 Clouds 4 1040 80 10000 3.6 350 11:18 19.01.2020
536 Clouds 2 1040 86 10000 3.6 340 10:39 19.01.2020
537 Clouds 2 1039 86 10000 3.1 340 10:20 19.01.2020
538 Clouds 1 1039 80 10000 3.6 340 09:57 19.01.2020
539 Clouds 1 1039 80 10000 3.6 340 09:38 19.01.2020
540 Clouds 1 1038 80 10000 3.6 330 09:20 19.01.2020
541 Clouds 1 1038 80 10000 3.1 330 08:55 19.01.2020
542 Clouds 1 1037 88 10000 2.6 340 08:33 19.01.2020
543 Clouds 1 1037 88 10000 2.1 350 07:55 19.01.2020
544 Clouds 1 1037 88 10000 2.1 340 07:29 19.01.2020
545 Clouds 1 1036 88 10000 2.6 340 06:55 19.01.2020
546 Clouds 1 1036 88 10000 1.5 350 06:22 19.01.2020
547 Clouds 0 1035 88 10000 1 320 04:18 19.01.2020
548 Clouds 0 1034 88 10000 2.1 340 02:34 19.01.2020
549 Clouds 1 1034 83 10000 1.5 330 01:43 19.01.2020
550 Clouds 1 1034 84 10000 1.5 350 01:21 19.01.2020
551 Clouds 1 1033 84 10000 1.5 340 00:45 19.01.2020
552 Clouds 1 1033 93 9000 1.5 350 00:25 19.01.2020
553 Clouds 1 1032 93 7000 1.5 350 23:55 18.01.2020
554 Clouds 1 1032 93 7000 2.1 340 23:36 18.01.2020
555 Clouds 1 1032 93 7000 2.1 340 23:18 18.01.2020
556 Clouds 2 1032 93 7000 2.1 340 22:54 18.01.2020
557 Clouds 2 1031 93 7000 2.1 350 22:36 18.01.2020
558 Clouds 2 1031 93 7000 2.1 350 22:18 18.01.2020
559 Clouds 3 1031 93 8000 1.5 340 21:55 18.01.2020
560 Clouds 3 1031 93 10000 1.5 360 21:36 18.01.2020
561 Clouds 3 1031 93 10000 1.5 360 21:18 18.01.2020
562 Clouds 3 1030 86 10000 1.5 10 20:41 18.01.2020
563 Clouds 3 1030 86 10000 1 340 20:19 18.01.2020
564 Clear 4 1030 86 10000 1.5 360 19:54 18.01.2020
565 Clear 4 1030 80 10000 2.1 10 19:36 18.01.2020
566 Clear 4 1030 80 10000 2.1 10 19:18 18.01.2020
567 Clear 5 1029 81 10000 2.1 340 18:40 18.01.2020
568 Clear 5 1029 81 10000 2.1 340 18:21 18.01.2020
569 Clouds 6 1029 81 10000 3.1 360 17:41 18.01.2020
570 Clouds 6 1028 75 10000 2.6 350 17:21 18.01.2020
571 Clear 7 1028 70 10000 3.1 340 16:57 18.01.2020
572 Clouds 7 1027 75 10000 3.1 360 16:39 18.01.2020
573 Clouds 8 1027 75 10000 3.1 360 16:21 18.01.2020
574 Clouds 8 1028 75 10000 2.6 360 15:57 18.01.2020
575 Clouds 8 1027 66 10000 3.6 320 15:39 18.01.2020
576 Clouds 8 1027 66 10000 3.6 320 15:20 18.01.2020
577 Clouds 8 1028 66 10000 1.5 0 14:42 18.01.2020
578 Clouds 8 1028 66 10000 1.5 0 14:20 18.01.2020
579 Clear 8 1028 70 10000 2.6 240 13:59 18.01.2020
580 Clear 8 1028 70 10000 2.6 240 13:41 18.01.2020
581 Clear 7 1028 70 10000 2.1 220 13:20 18.01.2020
582 Clouds 7 1028 75 10000 2.1 220 12:55 18.01.2020
583 Clouds 6 1028 75 10000 2.6 240 12:36 18.01.2020
584 Clouds 6 1028 75 10000 2.6 240 12:18 18.01.2020
585 Clouds 5 1028 80 10000 3.1 260 11:43 18.01.2020
586 Clear 5 1028 80 10000 3.1 260 11:21 18.01.2020
587 Clear 4 1028 80 10000 2.6 250 10:45 18.01.2020
588 Clear 3 1028 86 10000 3.1 230 10:23 18.01.2020
589 Clear 2 1028 86 10000 2.1 240 09:59 18.01.2020
590 Clear 2 1028 86 10000 2.1 240 09:41 18.01.2020
591 Clear 2 1027 81 10000 1 100 09:20 18.01.2020
592 Clear 2 1027 81 10000 1 220 08:42 18.01.2020
593 Clouds 2 1027 86 10000 2.6 240 08:20 18.01.2020
594 Clouds 2 1026 86 10000 2.6 230 07:59 18.01.2020
595 Clouds 2 1026 86 10000 2.6 230 07:40 18.01.2020
596 Clouds 2 1026 86 10000 3.1 240 07:20 18.01.2020
597 Clouds 2 1026 80 10000 4.1 240 06:45 18.01.2020
598 Clouds 3 1026 80 10000 3.6 230 05:52 18.01.2020
599 Clouds 4 1026 80 10000 3.6 260 04:28 18.01.2020
600 Clouds 4 1025 75 10000 5.1 230 02:49 18.01.2020
601 Clouds 4 1025 75 10000 3.6 210 01:40 18.01.2020
602 Clouds 4 1025 75 10000 3.6 210 00:39 18.01.2020
603 Clouds 4 1024 75 10000 4.6 210 00:20 18.01.2020
604 Clouds 4 1024 75 10000 2.1 190 23:59 17.01.2020
605 Clouds 4 1024 75 10000 2.1 190 23:40 17.01.2020
606 Clouds 4 1024 75 10000 2.6 240 23:18 17.01.2020
607 Clouds 4 1024 80 10000 2.6 240 22:42 17.01.2020
608 Clouds 5 1024 80 10000 3.1 240 22:20 17.01.2020
609 Clouds 5 1023 80 10000 3.6 230 21:57 17.01.2020
610 Clouds 5 1023 80 10000 3.6 230 21:39 17.01.2020
611 Clouds 5 1023 75 10000 4.1 240 21:20 17.01.2020
612 Clouds 5 1023 75 10000 5.1 240 20:55 17.01.2020
613 Clouds 5 1023 75 10000 5.7 240 20:36 17.01.2020
614 Clouds 6 1022 75 10000 4.1 240 20:18 17.01.2020
615 Clouds 6 1022 75 10000 4.1 240 19:54 17.01.2020
616 Clouds 6 1022 75 10000 4.1 240 19:54 17.01.2020
617 Rain 6 1023 75 10000 7.2 250 19:36 17.01.2020
618 Rain 6 1023 75 10000 7.2 250 19:18 17.01.2020
619 Rain 7 1021 70 10000 4.1 240 18:44 17.01.2020
620 Rain 8 1021 70 10000 4.1 240 18:26 17.01.2020
621 Rain 8 1021 70 10000 5.1 250 17:56 17.01.2020
622 Rain 8 1020 66 10000 3.6 280 17:38 17.01.2020
623 Clouds 8 1020 66 10000 3.6 280 17:20 17.01.2020
624 Clouds 9 1020 66 10000 6.2 270 16:42 17.01.2020
625 Rain 10 1019 61 10000 8.2 260 16:20 17.01.2020
626 Clouds 10 1019 57 10000 7.7 250 15:48 17.01.2020
627 Clouds 10 1018 57 10000 6.7 270 15:28 17.01.2020
628 Clouds 10 1018 71 10000 7.7 290 14:57 17.01.2020
629 Clouds 11 1018 58 10000 7.2 260 14:38 17.01.2020
630 Clouds 11 1017 62 10000 6.2 260 14:20 17.01.2020
631 Clouds 11 1017 66 10000 6.2 250 13:41 17.01.2020
632 Clouds 11 1017 62 10000 7.7 230 13:22 17.01.2020
633 Clouds 11 1017 62 10000 7.7 230 13:22 17.01.2020
634 Clouds 11 1018 71 10000 5.7 240 12:46 17.01.2020
635 Clouds 10 1017 76 10000 6.2 220 12:23 17.01.2020
636 Clouds 10 1017 81 10000 6.2 210 11:41 17.01.2020
637 Clouds 10 1017 87 10000 6.2 210 11:20 17.01.2020
638 Rain 9 1017 87 10000 5.7 210 10:56 17.01.2020
639 Rain 9 1016 87 10000 4.6 190 10:37 17.01.2020
640 Rain 9 1016 87 10000 4.6 190 10:19 17.01.2020
641 Clouds 9 1016 93 10000 5.7 190 09:43 17.01.2020
642 Clouds 9 1016 93 10000 5.7 190 09:21 17.01.2020
643 Clouds 9 1016 87 10000 5.7 180 08:58 17.01.2020
644 Drizzle 9 1015 87 10000 6.7 190 08:40 17.01.2020
645 Drizzle 8 1015 87 10000 6.7 190 08:21 17.01.2020
646 Rain 9 1015 93 7000 4.1 200 07:46 17.01.2020
647 Clouds 9 1015 93 10000 5.1 190 07:28 17.01.2020
648 Rain 9 1015 87 10000 6.2 190 06:55 17.01.2020
649 Rain 9 1015 93 10000 5.1 200 06:35 17.01.2020
650 Clouds 10 1016 71 10000 6.2 180 04:32 17.01.2020
651 Clouds 11 1016 66 10000 6.2 180 03:19 17.01.2020
652 Clouds 10 1015 77 0 0.45 346 02:39 17.01.2020
653 Clouds 11 1015 75 0 0.89 6 01:44 17.01.2020
654 Clouds 11 1015 76 0 1.34 45 01:25 17.01.2020
655 Clouds 11 1015 78 0 0.45 59 00:40 17.01.2020
656 Clouds 10 1017 76 10000 3.1 160 00:19 17.01.2020
657 Clouds 10 1017 76 10000 3.1 160 23:41 16.01.2020
658 Clouds 10 1017 76 10000 3.1 160 23:22 16.01.2020
659 Clouds 10 1017 71 10000 4.6 150 22:43 16.01.2020
660 Clouds 10 1018 71 10000 3.6 150 22:22 16.01.2020
661 Clouds 10 1018 71 10000 4.6 150 21:57 16.01.2020
662 Clouds 10 1018 66 10000 5.7 150 21:38 16.01.2020
663 Clouds 10 1018 66 10000 5.7 150 21:19 16.01.2020
664 Clouds 10 1018 66 10000 6.7 150 20:58 16.01.2020
665 Clouds 10 1018 66 10000 6.7 150 20:39 16.01.2020
666 Clouds 11 1018 71 10000 5.1 150 20:20 16.01.2020
667 Clouds 11 1019 71 10000 5.7 150 19:56 16.01.2020
668 Clouds 11 1018 71 10000 5.1 150 19:38 16.01.2020
669 Clouds 11 1018 71 10000 5.1 150 19:38 16.01.2020
670 Clouds 11 1018 71 10000 5.1 150 19:20 16.01.2020
671 Clouds 11 1018 66 10000 5.1 140 18:55 16.01.2020
672 Clouds 11 1019 66 10000 5.7 140 18:37 16.01.2020
673 Clouds 11 1019 66 10000 5.7 140 18:18 16.01.2020
674 Clouds 12 1019 66 10000 5.7 140 17:55 16.01.2020
675 Clouds 12 1019 62 10000 6.7 160 17:37 16.01.2020
676 Clear 12 1019 62 10000 6.7 160 17:18 16.01.2020
677 Clear 13 1020 58 10000 6.7 170 16:40 16.01.2020
678 Clear 13 1020 58 10000 6.7 170 16:21 16.01.2020
679 Clear 14 1020 62 10000 6.7 160 15:56 16.01.2020
680 Clear 14 1020 58 10000 7.2 170 15:38 16.01.2020
681 Clear 14 1020 58 10000 7.2 170 15:19 16.01.2020
682 Clear 14 1020 62 10000 7.7 160 14:42 16.01.2020
683 Clouds 13 1021 67 10000 6.7 160 14:23 16.01.2020
684 Clouds 13 1021 71 10000 7.7 150 13:47 16.01.2020
685 Clouds 12 1022 76 10000 7.7 160 13:29 16.01.2020
686 Clouds 11 1023 81 10000 7.2 160 12:59 16.01.2020
687 Clouds 11 1023 81 10000 6.2 170 12:40 16.01.2020
688 Clouds 10 1023 81 10000 6.2 170 12:21 16.01.2020
689 Clouds 9 1023 87 10000 5.7 170 11:43 16.01.2020
690 Clouds 8 1024 93 10000 4.1 150 11:24 16.01.2020
691 Clouds 7 1024 93 10000 3.6 140 10:57 16.01.2020
692 Clouds 6 1024 100 10000 2.1 140 10:37 16.01.2020
693 Clouds 6 1024 100 10000 2.1 140 10:19 16.01.2020
694 Mist 5 1024 93 3700 3.6 130 09:44 16.01.2020
695 Mist 5 1024 93 3700 3.6 130 09:24 16.01.2020
696 Mist 5 1025 93 1500 2.6 130 08:59 16.01.2020
697 Mist 5 1025 100 1000 3.1 140 08:41 16.01.2020
698 Mist 5 1025 100 1000 3.1 140 08:20 16.01.2020
699 Fog 5 1025 100 1000 2.6 140 07:43 16.01.2020
700 Fog 4 1024 100 550 3.1 140 07:24 16.01.2020
701 Mist 4 1025 100 2500 2.6 90 06:55 16.01.2020
702 Mist 4 1025 93 1400 3.6 70 06:35 16.01.2020
703 Fog 4 1025 93 1000 3.6 70 05:56 16.01.2020
704 Mist 3 1025 100 1200 3.1 60 05:25 16.01.2020
705 Fog 3 1025 100 700 1.5 120 04:23 16.01.2020
706 Mist 4 1024 100 3200 1.5 130 03:27 16.01.2020
707 Clouds 4 1024 100 6000 1 0 02:24 16.01.2020
708 Fog 4 1024 93 6000 2.02 180 00:44 16.01.2020
709 Clear 5 1024 93 7000 0.5 130 00:24 16.01.2020
710 Clear 5 1023 87 10000 2.02 180 23:46 15.01.2020
711 Clear 5 1023 87 10000 2.02 180 23:46 15.01.2020
712 Clear 6 1023 93 10000 1.91 236 23:22 15.01.2020
713 Clear 6 1023 93 10000 1 260 22:57 15.01.2020
714 Clear 7 1022 93 10000 2.1 250 22:39 15.01.2020
715 Clear 7 1022 93 10000 2.1 250 22:19 15.01.2020
716 Clear 7 1022 87 10000 2.1 260 21:57 15.01.2020
717 Clouds 8 1021 87 10000 2.1 270 21:37 15.01.2020
718 Clouds 8 1021 87 10000 2.1 270 21:37 15.01.2020
719 Clouds 8 1021 87 10000 2.1 270 21:19 15.01.2020
720 Clouds 8 1021 87 10000 2.6 240 20:57 15.01.2020
721 Clouds 9 1021 87 10000 2.6 240 20:39 15.01.2020
722 Clear 9 1020 87 10000 2.1 240 20:39 15.01.2020
723 Rain 9 1020 87 10000 2.1 240 20:20 15.01.2020
724 Clouds 9 1019 87 10000 3.6 230 19:55 15.01.2020
725 Drizzle 10 1019 87 10000 3.1 220 19:37 15.01.2020
726 Drizzle 10 1019 87 10000 3.1 220 19:18 15.01.2020
727 Rain 10 1018 87 10000 3.6 210 18:56 15.01.2020
728 Rain 11 1018 87 8000 5.1 230 18:38 15.01.2020
729 Rain 11 1018 87 8000 5.1 230 18:19 15.01.2020
730 Rain 11 1018 87 8000 5.1 230 18:19 15.01.2020
731 Rain 11 1017 66 10000 5.7 230 17:56 15.01.2020
732 Rain 12 1017 66 10000 5.7 230 17:37 15.01.2020
733 Clouds 12 1016 66 10000 6.2 220 17:18 15.01.2020
734 Clouds 12 1015 66 10000 8.2 210 16:40 15.01.2020
735 Clouds 12 1015 66 10000 8.2 210 16:22 15.01.2020
736 Rain 12 1014 66 10000 8.7 210 15:57 15.01.2020
737 Clouds 12 1013 62 10000 9.3 200 15:39 15.01.2020
738 Clouds 12 1013 62 10000 9.3 200 15:19 15.01.2020
739 Rain 12 1013 62 10000 8.2 200 14:43 15.01.2020
740 Clouds 12 1013 58 10000 9.3 200 14:20 15.01.2020
741 Clouds 12 1013 58 10000 9.3 200 13:55 15.01.2020
742 Clouds 12 1013 62 10000 10.8 200 13:37 15.01.2020
743 Clouds 12 1013 62 10000 10.8 200 13:18 15.01.2020
744 Clouds 11 1012 58 10000 9.3 200 12:41 15.01.2020
745 Clouds 11 1012 62 10000 10.8 190 12:20 15.01.2020
746 Clouds 11 1012 62 10000 10.3 190 11:58 15.01.2020
747 Clouds 11 1012 62 10000 9.3 190 11:38 15.01.2020
748 Clouds 11 1012 62 10000 9.3 190 11:19 15.01.2020
749 Clouds 10 1011 62 10000 9.3 180 10:46 15.01.2020
750 Clouds 10 1011 66 10000 8.7 180 10:28 15.01.2020
751 Clouds 9 1011 66 10000 8.2 180 09:55 15.01.2020
752 Clouds 9 1011 66 10000 8.2 180 09:37 15.01.2020
753 Clouds 9 1011 66 10000 8.2 180 09:19 15.01.2020
754 Clouds 9 1011 66 10000 8.2 190 08:44 15.01.2020
755 Clouds 9 1011 66 10000 8.2 190 08:24 15.01.2020
756 Clouds 9 1011 70 10000 8.7 180 07:54 15.01.2020
757 Clouds 9 1011 70 10000 9.3 180 07:33 15.01.2020
758 Clouds 9 1011 70 10000 8.7 180 06:49 15.01.2020
759 Clouds 9 1011 70 10000 8.7 190 06:26 15.01.2020
760 Clouds 9 1011 71 10000 7.2 180 04:56 15.01.2020
761 Clouds 10 1011 66 10000 7.7 180 02:48 15.01.2020
762 Clouds 10 1011 71 10000 6.7 190 01:48 15.01.2020
763 Clouds 10 1011 71 10000 6.2 180 01:20 15.01.2020
764 Clouds 10 1012 66 10000 6.7 180 00:37 15.01.2020
765 Clouds 10 1012 66 10000 6.7 180 00:19 15.01.2020
766 Clouds 10 1012 71 10000 7.7 180 23:46 14.01.2020
767 Clouds 10 1011 76 10000 8.2 190 23:24 14.01.2020
768 Clouds 10 1012 76 10000 8.2 190 22:57 14.01.2020
769 Clouds 10 1012 76 10000 8.2 190 22:38 14.01.2020
770 Clouds 10 1011 76 10000 8.2 200 22:18 14.01.2020
771 Clouds 10 1011 76 10000 8.2 200 21:56 14.01.2020
772 Rain 10 1011 81 10000 6.7 210 21:37 14.01.2020
773 Clouds 10 1011 66 10000 9.3 200 21:19 14.01.2020
774 Clouds 11 1011 66 10000 8.2 210 20:42 14.01.2020
775 Clouds 11 1010 58 10000 11.8 200 20:23 14.01.2020
776 Clouds 11 1010 58 10000 11.8 200 19:57 14.01.2020
777 Clouds 11 1010 58 10000 10.3 200 19:39 14.01.2020
778 Clouds 11 1010 58 10000 10.3 200 19:21 14.01.2020
779 Clouds 12 1010 62 10000 9.3 200 18:59 14.01.2020
780 Clouds 12 1010 62 10000 11.3 200 18:40 14.01.2020
781 Clouds 12 1010 71 10000 7.7 210 18:20 14.01.2020
782 Clouds 11 1010 71 10000 7.7 210 17:55 14.01.2020
783 Clouds 11 1010 62 10000 10.3 200 17:36 14.01.2020
784 Clouds 11 1010 62 10000 10.3 200 17:18 14.01.2020
785 Clouds 11 1009 66 10000 9.8 200 16:42 14.01.2020
786 Clouds 11 1009 66 10000 9.3 200 16:22 14.01.2020
787 Clouds 11 1009 71 10000 10.3 200 15:56 14.01.2020
788 Rain 11 1009 81 10000 9.3 210 15:38 14.01.2020
789 Rain 11 1009 81 10000 9.3 210 15:18 14.01.2020
790 Clouds 11 1009 71 10000 8.7 200 15:18 14.01.2020
791 Clouds 11 1009 81 10000 9.8 220 14:43 14.01.2020
792 Clouds 11 1009 81 10000 9.8 210 14:20 14.01.2020
793 Rain 11 1009 76 10000 9.3 200 13:54 14.01.2020
794 Clouds 10 1009 71 10000 9.3 200 13:36 14.01.2020
795 Clouds 11 1009 71 10000 9.3 200 13:18 14.01.2020
796 Clouds 10 1009 66 10000 9.3 200 12:41 14.01.2020
797 Clouds 10 1009 66 10000 9.3 200 12:20 14.01.2020
798 Clouds 10 1009 66 10000 8.7 190 11:43 14.01.2020
799 Clouds 10 1009 66 10000 8.7 190 11:23 14.01.2020
800 Clouds 10 1009 70 10000 7.7 210 10:59 14.01.2020
801 Clouds 10 1009 62 10000 9.3 190 10:40 14.01.2020
802 Clouds 10 1009 62 10000 9.3 190 10:20 14.01.2020
803 Clouds 10 1009 62 10000 9.8 190 09:58 14.01.2020
804 Clouds 9 1009 70 10000 7.2 210 09:40 14.01.2020
805 Clouds 9 1009 70 10000 7.2 210 09:20 14.01.2020
806 Clouds 9 1008 71 10000 9.8 200 08:48 14.01.2020
807 Clouds 9 1008 66 10000 8.2 200 08:25 14.01.2020
808 Clouds 9 1008 66 10000 8.2 210 07:53 14.01.2020
809 Clouds 10 1008 62 10000 9.3 200 07:33 14.01.2020
810 Clouds 10 1007 62 10000 9.3 200 06:56 14.01.2020
811 Clouds 10 1007 62 10000 9.8 200 06:33 14.01.2020
812 Clouds 9 1007 70 10000 8.7 210 05:28 14.01.2020
813 Clouds 9 1008 70 10000 7.7 210 03:52 14.01.2020
814 Clouds 9 1008 70 10000 7.7 210 03:52 14.01.2020
815 Clouds 9 1008 66 10000 9.3 190 02:50 14.01.2020
816 Clouds 9 1009 66 10000 9.3 190 01:56 14.01.2020
817 Clouds 9 1009 70 10000 7.2 200 00:53 14.01.2020
818 Clouds 9 1009 71 10000 7.7 180 00:35 14.01.2020
819 Clouds 9 1009 71 10000 8.2 180 23:56 13.01.2020
820 Clouds 10 1010 76 10000 7.7 190 23:37 13.01.2020
821 Clouds 10 1010 76 10000 7.7 190 23:18 13.01.2020
822 Clouds 10 1010 81 10000 6.7 190 22:43 13.01.2020
823 Clouds 10 1010 76 10000 7.2 190 22:22 13.01.2020
824 Clouds 10 1011 76 10000 7.2 190 21:58 13.01.2020
825 Clouds 9 1011 76 10000 7.2 180 21:38 13.01.2020
826 Clouds 9 1011 76 10000 7.2 180 21:19 13.01.2020
827 Clouds 9 1011 81 10000 7.7 180 20:59 13.01.2020
828 Clouds 9 1011 81 10000 7.7 180 20:41 13.01.2020
829 Clouds 9 1011 81 10000 9.3 180 20:22 13.01.2020
830 Clouds 9 1011 81 10000 9.3 180 20:22 13.01.2020
831 Clouds 9 1011 81 10000 9.3 180 20:22 13.01.2020
832 Clouds 10 1011 87 10000 8.7 180 19:59 13.01.2020
833 Clouds 10 1012 87 10000 8.2 180 19:40 13.01.2020
834 Clouds 10 1012 87 10000 8.2 180 19:20 13.01.2020
835 Clouds 10 1012 87 10000 7.7 180 18:58 13.01.2020
836 Clouds 10 1012 81 10000 7.2 180 18:37 13.01.2020
837 Clouds 10 1012 81 10000 7.2 180 18:19 13.01.2020
838 Clouds 10 1013 81 10000 7.7 190 17:55 13.01.2020
839 Clouds 10 1013 81 10000 7.2 190 17:36 13.01.2020
840 Clouds 10 1013 81 10000 7.2 190 17:18 13.01.2020
841 Clouds 9 1013 81 10000 6.7 180 16:40 13.01.2020
842 Clouds 9 1013 90 0 0.45 336 16:22 13.01.2020
843 Clouds 9 1013 91 0 2.24 20 15:56 13.01.2020
844 Clouds 9 1013 91 0 2.24 346 15:38 13.01.2020
845 Clouds 9 1014 92 0 1.34 11 15:19 13.01.2020
846 Clouds 9 1014 92 0 0.89 90 14:43 13.01.2020
847 Clouds 9 1014 92 0 0.89 5 14:24 13.01.2020
848 Clouds 8 1014 92 0 0.45 286 13:59 13.01.2020
849 Clouds 8 1015 92 0 0.89 321 13:40 13.01.2020
850 Rain 8 1015 92 0 0.45 27 13:21 13.01.2020
851 Clouds 8 1019 87 10000 6.2 180 12:56 13.01.2020
852 Clouds 8 1019 87 10000 6.2 180 12:38 13.01.2020
853 Clouds 8 1019 87 10000 6.2 180 12:20 13.01.2020
854 Clouds 8 1019 87 10000 6.2 180 12:19 13.01.2020
855 Clouds 8 1019 87 10000 6.2 180 12:19 13.01.2020
856 Clouds 8 1019 87 10000 6.2 180 11:39 13.01.2020
857 Clouds 8 1020 87 10000 5.1 190 11:20 13.01.2020
858 Clouds 8 1020 87 10000 5.7 190 10:57 13.01.2020
859 Clouds 7 1020 87 10000 3.6 170 10:39 13.01.2020
860 Clouds 7 1020 87 10000 3.6 170 10:20 13.01.2020
861 Clouds 7 1020 87 10000 3.6 170 10:20 13.01.2020
862 Clouds 7 1020 87 10000 4.6 190 09:58 13.01.2020
863 Clouds 7 1020 87 10000 3.6 170 09:40 13.01.2020
864 Clouds 7 1020 93 10000 3.6 200 09:21 13.01.2020
865 Clouds 7 1020 87 10000 3.6 170 08:41 13.01.2020
866 Clouds 7 1020 87 10000 3.6 170 08:20 13.01.2020
867 Clouds 6 1021 87 10000 3.6 160 07:52 13.01.2020
868 Clouds 7 1021 87 10000 4.1 180 07:33 13.01.2020
869 Clouds 7 1021 87 10000 2.6 170 06:43 13.01.2020
870 Clouds 7 1022 81 10000 2.6 210 06:22 13.01.2020
871 Clouds 7 1022 100 10000 2.6 220 05:36 13.01.2020
872 Clouds 8 1023 81 10000 3.1 200 03:57 13.01.2020
873 Clouds 8 1024 87 10000 4.1 190 03:26 13.01.2020
874 Clouds 8 1024 87 10000 3.6 190 02:47 13.01.2020
875 Clouds 8 1024 87 10000 3.1 200 02:29 13.01.2020
876 Clouds 8 1025 87 10000 1.5 200 01:22 13.01.2020
877 Clouds 8 1025 87 10000 1.5 200 01:22 13.01.2020
878 Clouds 8 1025 87 10000 3.1 210 00:42 13.01.2020
879 Clouds 8 1025 87 10000 4.1 190 00:24 13.01.2020
880 Clouds 8 1025 87 10000 1.5 170 23:55 12.01.2020
881 Rain 8 1025 87 10000 2.6 180 23:36 12.01.2020
882 Rain 8 1025 87 10000 2.6 180 23:18 12.01.2020
883 Rain 8 1025 87 10000 2.6 180 23:18 12.01.2020
884 Clouds 8 1025 93 8000 3.1 220 22:42 12.01.2020
885 Clouds 8 1025 93 8000 3.1 220 22:24 12.01.2020
886 Clouds 8 1025 93 10000 2.6 220 21:57 12.01.2020
887 Clouds 8 1026 87 10000 3.1 190 21:38 12.01.2020
888 Clouds 8 1026 87 10000 3.1 190 21:19 12.01.2020
889 Clouds 8 1026 87 10000 1.5 230 20:56 12.01.2020
890 Clouds 8 1026 87 10000 3.1 210 20:38 12.01.2020
891 Clouds 8 1026 87 10000 3.1 210 20:20 12.01.2020
892 Clouds 8 1026 87 10000 4.1 190 19:56 12.01.2020
893 Clouds 8 1026 87 10000 4.1 190 19:38 12.01.2020
894 Clouds 8 1026 87 10000 3.6 210 19:18 12.01.2020
895 Rain 8 1025 81 10000 4.1 210 18:57 12.01.2020
896 Rain 8 1025 81 10000 4.1 210 18:57 12.01.2020
897 Rain 8 1025 81 10000 4.1 210 18:39 12.01.2020
898 Clouds 8 1025 81 10000 2.6 200 18:21 12.01.2020
899 Clouds 9 1025 81 10000 4.1 200 17:55 12.01.2020
900 Clouds 9 1025 81 10000 4.6 200 17:37 12.01.2020
901 Clouds 9 1025 81 10000 4.6 200 17:18 12.01.2020
902 Clouds 9 1025 81 10000 4.1 190 16:54 12.01.2020
903 Clouds 9 1025 81 10000 3.6 200 16:36 12.01.2020
904 Clouds 9 1025 81 10000 3.6 200 16:18 12.01.2020
905 Clouds 9 1025 76 10000 3.6 190 15:42 12.01.2020
906 Clouds 9 1024 76 10000 4.1 190 15:23 12.01.2020
907 Clouds 9 1025 81 10000 5.7 210 14:55 12.01.2020
908 Clouds 9 1025 81 10000 5.1 210 14:36 12.01.2020
909 Clouds 9 1025 81 10000 5.1 210 14:18 12.01.2020
910 Clouds 9 1025 76 10000 5.1 210 13:42 12.01.2020
911 Clouds 8 1025 76 10000 5.1 210 13:23 12.01.2020
912 Clouds 8 1025 76 10000 4.1 200 12:58 12.01.2020
913 Clouds 8 1026 81 10000 4.6 190 12:38 12.01.2020
914 Clouds 8 1026 81 10000 4.6 190 12:19 12.01.2020
915 Clouds 7 1026 75 10000 4.1 190 11:55 12.01.2020
916 Clouds 7 1026 75 10000 5.1 200 11:36 12.01.2020
917 Clouds 7 1026 75 10000 5.1 200 11:18 12.01.2020
918 Clouds 6 1025 75 10000 5.1 190 10:41 12.01.2020
919 Clouds 6 1025 75 10000 5.1 190 10:21 12.01.2020
920 Clouds 6 1025 81 10000 4.1 170 09:56 12.01.2020
921 Clouds 5 1025 80 10000 4.6 160 09:38 12.01.2020
922 Clouds 5 1025 80 10000 4.6 160 09:18 12.01.2020
923 Clouds 5 1025 80 10000 5.7 180 08:42 12.01.2020
924 Clouds 4 1025 86 10000 4.1 170 08:19 12.01.2020
925 Clouds 4 1026 80 10000 3.1 160 07:40 12.01.2020
926 Clouds 4 1026 80 10000 3.1 160 07:21 12.01.2020
927 Clouds 4 1026 80 10000 4.1 180 06:43 12.01.2020
928 Clouds 5 1026 80 10000 5.1 180 06:24 12.01.2020
929 Clouds 5 1027 75 10000 4.1 180 05:23 12.01.2020
930 Clouds 4 1027 70 10000 5.1 190 03:55 12.01.2020
931 Clouds 4 1027 75 10000 4.1 190 03:22 12.01.2020
932 Clouds 4 1028 80 10000 3.1 200 02:33 12.01.2020
933 Clouds 3 1028 80 10000 3.1 180 01:43 12.01.2020
934 Clouds 3 1028 86 10000 3.6 160 01:22 12.01.2020
935 Clouds 3 1028 86 10000 3.1 170 00:41 12.01.2020
936 Clouds 3 1029 80 10000 3.6 170 00:20 12.01.2020
937 Clouds 3 1029 80 10000 3.1 170 23:42 11.01.2020
938 Clouds 3 1029 80 10000 3.1 170 23:42 11.01.2020
939 Clouds 3 1029 80 10000 2.1 150 23:19 11.01.2020
940 Clouds 3 1030 80 10000 2.6 150 22:58 11.01.2020
941 Clouds 3 1030 80 10000 2.6 150 22:40 11.01.2020
942 Clouds 4 1030 80 10000 3.1 170 22:20 11.01.2020
943 Clouds 4 1030 75 10000 3.1 180 21:58 11.01.2020
944 Clouds 4 1030 75 10000 3.1 180 21:40 11.01.2020
945 Clouds 4 1030 75 10000 2.6 200 21:18 11.01.2020
946 Clouds 4 1031 70 10000 3.6 180 20:41 11.01.2020
947 Clouds 4 1031 70 10000 3.6 180 20:22 11.01.2020
948 Clouds 4 1031 70 10000 3.1 190 19:58 11.01.2020
949 Clouds 4 1031 70 10000 3.1 190 19:39 11.01.2020
950 Clouds 5 1031 75 10000 3.1 190 19:21 11.01.2020
951 Clouds 5 1031 70 10000 3.6 180 18:59 11.01.2020
952 Clouds 5 1031 70 10000 3.6 180 18:39 11.01.2020
953 Clouds 5 1031 65 10000 3.6 180 18:20 11.01.2020
954 Clouds 6 1031 65 10000 4.1 190 17:58 11.01.2020
955 Clouds 6 1031 65 10000 4.1 190 17:39 11.01.2020
956 Clouds 6 1031 65 10000 4.1 190 17:19 11.01.2020
957 Clouds 7 1031 61 10000 5.1 190 16:46 11.01.2020
958 Clouds 7 1031 61 10000 4.6 190 16:46 11.01.2020
959 Clouds 7 1031 61 10000 5.1 190 16:27 11.01.2020
960 Clouds 8 1031 61 10000 3.6 200 15:59 11.01.2020
961 Clouds 8 1031 61 10000 3.6 200 15:41 11.01.2020
962 Clouds 8 1031 61 10000 5.1 210 15:22 11.01.2020
963 Clouds 8 1031 61 10000 5.1 210 14:58 11.01.2020
964 Clouds 8 1031 61 10000 5.1 210 14:58 11.01.2020
965 Clouds 8 1032 61 10000 4.6 200 14:39 11.01.2020
966 Clouds 8 1032 61 10000 4.6 200 14:39 11.01.2020
967 Clouds 8 1032 61 10000 4.6 200 14:21 11.01.2020
968 Clouds 8 1032 61 10000 5.7 200 13:55 11.01.2020
969 Clouds 8 1032 57 10000 6.2 190 13:36 11.01.2020
970 Clouds 8 1032 57 10000 6.2 190 13:18 11.01.2020
971 Clouds 7 1033 61 10000 4.6 190 12:41 11.01.2020
972 Clouds 7 1033 61 10000 4.6 190 12:23 11.01.2020
973 Clouds 6 1033 65 10000 5.7 190 11:48 11.01.2020
974 Clouds 6 1034 65 10000 4.6 190 11:27 11.01.2020
975 Clouds 5 1034 70 10000 4.1 190 10:59 11.01.2020
976 Clouds 4 1034 80 10000 2.1 170 10:40 11.01.2020
977 Clouds 4 1034 80 10000 2.1 170 10:40 11.01.2020
978 Clouds 4 1034 80 10000 2.1 170 10:22 11.01.2020
979 Clouds 3 1033 80 10000 2.1 180 09:39 11.01.2020
980 Clouds 3 1033 80 10000 2.1 180 09:21 11.01.2020
981 Clouds 3 1033 80 10000 2.6 160 08:43 11.01.2020
982 Clouds 3 1033 86 10000 2.6 160 08:22 11.01.2020
983 Clouds 3 1033 86 10000 3.6 150 07:44 11.01.2020
984 Clouds 3 1033 86 10000 3.6 150 07:26 11.01.2020
985 Clouds 3 1033 86 10000 2.6 150 06:55 11.01.2020
986 Clouds 3 1033 93 10000 2.1 130 06:22 11.01.2020
987 Clouds 4 1034 86 10000 0.5 0 04:48 11.01.2020
988 Clouds 4 1034 93 10000 1.55 238 04:30 11.01.2020
989 Clouds 3 1034 86 10000 1 240 03:58 11.01.2020
990 Clouds 4 1034 86 10000 1 150 02:43 11.01.2020
991 Clouds 5 1034 75 10000 1.5 260 01:44 11.01.2020
992 Clouds 5 1034 75 10000 1.5 290 01:21 11.01.2020
993 Clouds 5 1033 75 10000 1 0 00:46 11.01.2020
994 Clouds 5 1033 75 10000 1 0 00:20 11.01.2020
995 Clouds 6 1033 75 10000 1.5 0 23:41 10.01.2020
996 Clouds 6 1033 75 10000 2.1 290 23:22 10.01.2020
997 Clouds 6 1033 75 10000 2.1 270 22:59 10.01.2020
998 Clouds 6 1032 75 10000 2.6 270 22:41 10.01.2020
999 Clouds 6 1032 75 10000 2.6 270 22:21 10.01.2020
1000 Clouds 6 1032 81 10000 1 250 21:58 10.01.2020
1001 Clouds 6 1031 81 10000 0.5 130 21:39 10.01.2020
1002 Clouds 6 1031 81 10000 0.5 130 21:20 10.01.2020
1003 Clouds 6 1031 81 10000 1.05 278 20:56 10.01.2020
1004 Clouds 6 1031 81 10000 1 0 20:38 10.01.2020
1005 Clouds 6 1031 81 10000 1 0 20:19 10.01.2020
1006 Clouds 7 1031 75 10000 2.6 320 19:40 10.01.2020
1007 Clouds 7 1030 81 10000 3.6 320 19:20 10.01.2020
1008 Clouds 7 1030 81 10000 2.6 320 18:55 10.01.2020
1009 Clouds 7 1030 75 10000 2.6 290 18:36 10.01.2020
1010 Clouds 7 1030 75 10000 2.6 290 18:18 10.01.2020
1011 Clouds 7 1029 70 10000 2.6 310 18:18 10.01.2020
1012 Clouds 7 1029 70 10000 2.6 310 17:56 10.01.2020
1013 Clouds 7 1029 70 10000 3.1 320 17:37 10.01.2020
1014 Clouds 7 1029 70 10000 3.1 320 17:19 10.01.2020
1015 Clouds 7 1028 75 10000 2.6 320 16:41 10.01.2020
1016 Clouds 7 1028 75 10000 2.6 320 16:21 10.01.2020
1017 Clouds 8 1027 75 10000 3.1 340 15:56 10.01.2020
1018 Clouds 8 1026 70 10000 4.1 310 15:38 10.01.2020
1019 Clouds 8 1026 70 10000 4.1 310 15:19 10.01.2020
1020 Clouds 8 1026 75 10000 4.1 300 14:58 10.01.2020
1021 Clouds 8 1026 75 10000 3.6 300 14:40 10.01.2020
1022 Clouds 8 1026 75 10000 4.1 300 14:19 10.01.2020
1023 Clouds 8 1026 75 10000 4.1 300 13:56 10.01.2020
1024 Clouds 8 1025 75 10000 4.1 310 13:37 10.01.2020
1025 Clouds 8 1025 75 10000 4.1 310 13:18 10.01.2020
1026 Clouds 8 1025 75 10000 3.6 310 12:56 10.01.2020
1027 Clouds 7 1024 81 10000 3.1 300 12:38 10.01.2020
1028 Clouds 8 1024 81 10000 3.1 300 12:18 10.01.2020
1029 Rain 7 1024 81 10000 3.6 290 11:42 10.01.2020
1030 Rain 7 1023 81 10000 4.1 300 11:22 10.01.2020
1031 Rain 7 1022 81 10000 5.1 290 10:59 10.01.2020
1032 Clouds 7 1021 81 10000 4.6 290 10:38 10.01.2020
1033 Clouds 7 1021 81 10000 4.6 290 10:20 10.01.2020
1034 Rain 8 1020 81 10000 4.6 290 09:55 10.01.2020
1035 Rain 8 1019 76 10000 5.7 310 09:36 10.01.2020
1036 Rain 8 1019 76 10000 5.7 310 09:18 10.01.2020
1037 Clouds 8 1017 87 10000 4.6 290 08:40 10.01.2020
1038 Clouds 8 1017 87 10000 4.6 290 08:21 10.01.2020
1039 Clouds 9 1016 93 10000 6.2 300 07:44 10.01.2020
1040 Clouds 9 1015 81 10000 4.6 290 07:23 10.01.2020
1041 Clouds 9 1014 93 10000 3.1 280 06:45 10.01.2020
1042 Rain 9 1013 87 10000 3.1 270 06:25 10.01.2020
1043 Rain 9 1012 93 10000 2.6 220 05:46 10.01.2020
1044 Rain 9 1011 87 10000 5.7 180 03:35 10.01.2020
1045 Rain 9 1011 87 10000 6.2 180 02:59 10.01.2020
1046 Rain 9 1011 87 10000 6.2 180 02:39 10.01.2020
1047 Clouds 10 1010 87 10000 5.7 180 01:38 10.01.2020
1048 Clouds 10 1010 87 10000 5.7 180 01:19 10.01.2020
1049 Clouds 10 1011 76 10000 6.2 180 00:39 10.01.2020
1050 Clouds 10 1011 76 10000 5.7 190 23:58 09.01.2020
1051 Clouds 10 1011 76 10000 7.2 200 23:38 09.01.2020
1052 Clouds 10 1011 76 10000 7.2 200 23:20 09.01.2020
1053 Rain 10 1011 81 10000 7.7 200 22:57 09.01.2020
1054 Rain 10 1011 81 10000 7.2 190 22:38 09.01.2020
1055 Rain 10 1011 81 10000 7.2 190 22:19 09.01.2020
1056 Clouds 10 1011 87 10000 6.7 190 21:57 09.01.2020
1057 Clouds 10 1011 93 10000 6.7 200 21:37 09.01.2020
1058 Clouds 10 1011 93 10000 6.7 200 21:37 09.01.2020
1059 Clouds 10 1011 93 10000 6.7 200 21:37 09.01.2020
1060 Clouds 10 1011 93 10000 6.7 200 21:19 09.01.2020
1061 Clouds 10 1010 87 10000 7.2 180 20:57 09.01.2020
1062 Clouds 10 1010 87 10000 7.2 180 20:39 09.01.2020
1063 Rain 11 1011 81 10000 7.2 190 20:19 09.01.2020
1064 Rain 11 1011 81 10000 7.2 190 19:57 09.01.2020
1065 Rain 11 1011 93 10000 6.2 180 19:37 09.01.2020
1066 Drizzle 11 1011 93 10000 6.2 180 19:19 09.01.2020
1067 Drizzle 11 1011 93 10000 6.2 180 18:55 09.01.2020
1068 Drizzle 11 1012 93 10000 6.7 190 18:36 09.01.2020
1069 Rain 11 1012 93 10000 7.7 180 18:18 09.01.2020
1070 Rain 11 1012 93 5000 7.7 200 17:41 09.01.2020
1071 Clouds 11 1012 81 10000 7.7 190 17:18 09.01.2020
1072 Clouds 11 1012 87 10000 7.2 190 16:49 09.01.2020
1073 Clouds 11 1012 87 10000 7.2 190 16:24 09.01.2020
1074 Clouds 12 1013 82 10000 8.7 200 15:59 09.01.2020
1075 Clouds 12 1012 82 10000 7.7 190 15:40 09.01.2020
1076 Clouds 12 1012 82 10000 7.2 190 15:19 09.01.2020
1077 Clouds 12 1013 82 10000 8.2 190 14:43 09.01.2020
1078 -273 0 0 0 0 0 14:22 09.01.2020
1079 Clouds 12 1014 82 10000 7.7 200 13:57 09.01.2020
1080 Clouds 12 1014 82 10000 6.7 200 13:39 09.01.2020
1081 Clouds 12 1014 82 10000 8.2 180 13:21 09.01.2020
1082 Clouds 12 1014 82 10000 8.2 180 12:59 09.01.2020
1083 Clouds 12 1015 87 10000 7.2 190 12:40 09.01.2020
1084 Clouds 12 1016 87 10000 7.2 190 12:22 09.01.2020
1085 Clouds 12 1016 87 10000 7.2 190 11:57 09.01.2020
1086 Clouds 11 1016 87 10000 6.7 190 11:38 09.01.2020
1087 Clouds 11 1016 87 10000 6.7 190 11:20 09.01.2020
1088 Drizzle 11 1016 87 10000 7.2 190 10:44 09.01.2020
1089 Clouds 11 1016 87 10000 6.7 180 10:23 09.01.2020
1090 Clouds 11 1016 87 10000 6.7 180 09:59 09.01.2020
1091 Rain 11 1017 87 10000 6.2 180 09:39 09.01.2020
1092 Rain 11 1017 87 10000 6.2 180 09:21 09.01.2020
1093 Clouds 11 1017 87 10000 5.7 190 08:55 09.01.2020
1094 Clouds 11 1017 87 10000 6.7 190 08:37 09.01.2020
1095 Clouds 11 1017 87 10000 6.7 190 08:19 09.01.2020
1096 Clouds 11 1018 87 10000 6.7 190 07:42 09.01.2020
1097 Rain 11 1018 87 10000 6.2 180 07:24 09.01.2020
1098 Clouds 11 1019 87 10000 6.2 190 06:39 09.01.2020
1099 Clouds 11 1019 87 10000 6.7 180 06:20 09.01.2020
1100 Clouds 11 1019 87 10000 7.7 190 05:50 09.01.2020
1101 Clouds 11 1019 87 10000 7.7 190 05:50 09.01.2020
1102 Clouds 11 1020 87 10000 7.2 190 04:44 09.01.2020
1103 Clouds 11 1021 87 10000 5.1 190 03:54 09.01.2020
1104 Clouds 11 1021 87 10000 6.7 180 02:55 09.01.2020
1105 Clouds 11 1021 87 10000 6.7 180 02:30 09.01.2020
1106 Clouds 11 1022 87 10000 5.1 190 01:40 09.01.2020
1107 Clouds 11 1023 87 10000 5.1 190 00:44 09.01.2020
1108 Clouds 11 1023 87 10000 5.7 190 00:22 09.01.2020
1109 Clouds 11 1023 87 10000 5.7 190 23:56 08.01.2020
1110 Clouds 11 1024 87 10000 4.6 190 23:37 08.01.2020
1111 Clouds 11 1024 87 10000 4.6 190 23:19 08.01.2020
1112 Clouds 11 1024 93 10000 5.1 190 22:40 08.01.2020
1113 Clouds 11 1024 93 10000 5.1 190 22:21 08.01.2020
1114 Clouds 11 1025 87 10000 5.7 200 21:58 08.01.2020
1115 Clouds 11 1025 93 10000 4.6 200 21:39 08.01.2020
1116 Clouds 11 1025 93 10000 4.6 190 21:20 08.01.2020
1117 Clouds 11 1025 93 10000 4.6 190 20:58 08.01.2020
1118 Clouds 11 1025 93 10000 3.6 180 20:40 08.01.2020
1119 Clouds 11 1026 93 7000 4.1 200 20:20 08.01.2020
1120 Clouds 11 1025 93 10000 3.6 180 20:20 08.01.2020
1121 Clouds 11 1026 93 7000 4.1 200 19:57 08.01.2020
1122 Mist 11 1026 100 2600 3.6 220 19:38 08.01.2020
1123 Mist 11 1026 100 3600 3.6 210 19:19 08.01.2020
1124 Mist 11 1026 100 3600 3.6 210 18:57 08.01.2020
1125 Clouds 11 1026 93 10000 3.6 200 18:38 08.01.2020
1126 Clouds 12 1026 93 10000 2.6 200 18:18 08.01.2020
1127 Clouds 12 1026 93 10000 2.6 200 17:56 08.01.2020
1128 Clouds 12 1026 93 10000 2.6 220 17:37 08.01.2020
1129 Clouds 12 1026 93 10000 2.6 200 17:18 08.01.2020
1130 Clouds 12 1026 93 10000 2.6 200 17:18 08.01.2020
1131 Clouds 12 1026 93 10000 2.6 200 16:55 08.01.2020
1132 Clouds 12 1026 93 10000 3.6 210 16:37 08.01.2020
1133 Drizzle 12 1026 93 4300 3.1 200 16:18 08.01.2020
1134 Clouds 12 1026 93 10000 2.6 210 15:42 08.01.2020
1135 Clouds 12 1026 93 10000 2.6 210 15:21 08.01.2020
1136 Drizzle 12 1026 100 2200 3.6 220 14:57 08.01.2020
1137 Clouds 12 1026 93 8000 3.1 220 14:39 08.01.2020
1138 Clouds 12 1026 93 10000 3.6 230 14:20 08.01.2020
1139 Clouds 12 1026 93 10000 3.6 230 14:20 08.01.2020
1140 Clouds 12 1027 87 10000 4.1 220 13:41 08.01.2020
1141 Clouds 12 1027 87 10000 3.1 220 13:20 08.01.2020
1142 Clouds 12 1027 87 10000 4.1 220 12:43 08.01.2020
1143 Clouds 12 1027 87 10000 4.1 210 12:20 08.01.2020
1144 Clouds 12 1027 100 8000 3.1 220 11:59 08.01.2020
1145 Clouds 11 1027 93 10000 4.1 200 11:41 08.01.2020
1146 Clouds 11 1027 93 10000 4.1 200 11:19 08.01.2020
1147 Clouds 11 1027 87 10000 3.6 200 10:57 08.01.2020
1148 Clouds 11 1027 87 10000 3.6 210 10:39 08.01.2020
1149 Clouds 11 1026 87 10000 3.1 210 10:19 08.01.2020
1150 Clouds 11 1026 87 10000 3.1 220 09:42 08.01.2020
1151 Clouds 11 1026 87 10000 3.1 210 09:20 08.01.2020
1152 Clouds 11 1026 87 10000 3.1 210 08:58 08.01.2020
1153 Clouds 11 1026 87 10000 3.1 230 08:38 08.01.2020
1154 Clouds 11 1025 87 10000 3.1 210 08:20 08.01.2020
1155 Clouds 11 1025 87 10000 3.6 230 07:51 08.01.2020
1156 Clouds 11 1025 87 10000 3.6 230 07:33 08.01.2020
1157 Clouds 11 1025 87 10000 3.6 200 06:58 08.01.2020
1158 Clouds 11 1026 87 10000 5.1 220 06:40 08.01.2020
1159 Clouds 11 1026 87 10000 4.1 220 05:54 08.01.2020
1160 Clouds 11 1026 87 10000 4.1 220 05:25 08.01.2020
1161 Clouds 11 1025 93 10000 6.7 210 04:35 08.01.2020
1162 Clouds 11 1026 93 10000 3.6 190 02:46 08.01.2020
1163 Clouds 11 1026 93 10000 2.6 180 02:28 08.01.2020
1164 Clouds 10 1026 100 9000 3.6 160 01:52 08.01.2020
1165 Clouds 10 1026 100 9000 3.6 160 01:29 08.01.2020
1166 Clouds 10 1027 93 10000 2.6 190 00:42 08.01.2020
1167 Clouds 10 1027 93 9000 3.1 180 00:21 08.01.2020
1168 Clouds 10 1027 93 7000 3.1 180 23:45 07.01.2020
1169 Clouds 10 1027 93 7000 3.6 180 23:20 07.01.2020
1170 Clouds 9 1027 100 7000 3.1 180 22:41 07.01.2020
1171 Clouds 9 1027 100 7000 4.1 190 22:21 07.01.2020
1172 Clouds 9 1027 100 7000 4.1 190 21:59 07.01.2020
1173 Clouds 9 1027 100 7000 4.1 190 21:59 07.01.2020
1174 Clouds 9 1027 100 8000 4.1 180 21:41 07.01.2020
1175 Clouds 9 1027 100 8000 4.1 180 21:21 07.01.2020
1176 Clouds 9 1028 93 8000 5.1 180 21:21 07.01.2020
1177 Clouds 9 1028 93 8000 5.1 180 20:58 07.01.2020
1178 Clouds 9 1028 93 6000 4.6 180 20:39 07.01.2020
1179 Clouds 9 1028 93 8000 3.6 180 20:21 07.01.2020
1180 Clouds 9 1028 93 8000 3.6 180 19:57 07.01.2020
1181 Mist 8 1028 93 4900 4.1 170 19:37 07.01.2020
1182 Clouds 8 1028 93 6000 4.1 160 19:19 07.01.2020
1183 Clouds 9 1028 93 6000 4.1 160 18:56 07.01.2020
1184 Clouds 8 1028 93 7000 3.6 160 18:37 07.01.2020
1185 Clouds 8 1028 93 10000 4.1 170 18:18 07.01.2020
1186 Clouds 9 1028 93 10000 4.1 170 17:54 07.01.2020
1187 Clouds 9 1028 93 10000 4.6 180 17:36 07.01.2020
1188 Clouds 9 1028 87 10000 4.1 180 17:18 07.01.2020
1189 Clouds 9 1028 87 10000 4.1 180 16:54 07.01.2020
1190 Clouds 9 1028 93 10000 4.6 180 16:36 07.01.2020
1191 Clouds 9 1028 93 10000 4.6 180 16:18 07.01.2020
1192 Clouds 9 1028 93 10000 3.6 170 15:42 07.01.2020
1193 Clouds 8 1028 87 10000 3.6 160 15:23 07.01.2020
1194 Clouds 8 1028 87 10000 3.6 160 14:58 07.01.2020
1195 Clouds 8 1028 87 10000 4.1 170 14:38 07.01.2020
1196 Clouds 8 1029 87 10000 3.6 170 14:19 07.01.2020
1197 Clouds 8 1029 87 10000 4.6 190 13:46 07.01.2020
1198 Clouds 8 1029 87 10000 4.6 190 13:20 07.01.2020
1199 Clouds 8 1029 93 10000 4.1 180 13:20 07.01.2020
1200 Clouds 8 1029 93 10000 4.1 180 12:56 07.01.2020
1201 Clouds 8 1030 87 10000 3.6 180 12:37 07.01.2020
1202 Clouds 8 1030 93 10000 4.6 190 12:18 07.01.2020
1203 Clouds 7 1030 93 10000 4.6 170 11:41 07.01.2020
1204 Clouds 7 1030 93 10000 4.6 170 11:23 07.01.2020
1205 Clouds 7 1030 93 10000 3.1 180 10:57 07.01.2020
1206 Clouds 7 1030 87 10000 3.1 180 10:57 07.01.2020
1207 Clouds 7 1030 93 10000 3.1 180 10:39 07.01.2020
1208 Clouds 6 1030 93 10000 2.6 210 10:20 07.01.2020
1209 Rain 6 1029 93 7000 2.2 216 09:39 07.01.2020
1210 Clouds 6 1029 93 10000 0.5 0 09:21 07.01.2020
1211 Rain 6 1029 93 7000 2.2 216 09:21 07.01.2020
1212 Clouds 6 1029 93 10000 0.5 0 09:21 07.01.2020
1213 Clouds 6 1029 93 10000 0.5 0 08:59 07.01.2020
1214 Clouds 6 1028 100 10000 1 0 08:41 07.01.2020
1215 Clouds 6 1028 100 10000 1.5 230 08:18 07.01.2020
1216 Clouds 6 1028 93 8000 1 0 07:47 07.01.2020
1217 Clouds 6 1028 93 8000 1 0 07:20 07.01.2020
1218 Clouds 6 1028 93 10000 3.1 230 06:50 07.01.2020
1219 Clouds 6 1028 93 10000 3.1 230 06:30 07.01.2020
1220 Clouds 5 1028 93 10000 1 190 05:41 07.01.2020
1221 Clouds 6 1028 93 8000 1 0 03:51 07.01.2020
1222 Clouds 7 1027 93 10000 3.6 230 03:25 07.01.2020
1223 Clouds 7 1027 93 10000 2.1 240 02:20 07.01.2020
1224 Clouds 7 1026 87 10000 1.5 280 01:40 07.01.2020
1225 Clouds 7 1026 87 10000 1.5 280 01:40 07.01.2020
1226 Clouds 7 1026 87 10000 1.5 280 01:40 07.01.2020
1227 Clouds 7 1026 93 10000 3.1 240 00:59 07.01.2020
1228 Clouds 6 1025 93 9000 1.5 0 00:21 07.01.2020
1229 Clouds 6 1025 93 9000 1.5 0 23:58 06.01.2020
1230 Drizzle 6 1025 93 5000 2.6 200 23:38 06.01.2020
1231 Drizzle 6 1025 93 3300 2.6 190 23:20 06.01.2020
1232 Drizzle 6 1025 93 3300 2.6 190 22:56 06.01.2020
1233 Drizzle 6 1025 93 5000 3.6 190 22:37 06.01.2020
1234 Clouds 6 1025 87 10000 4.1 190 22:19 06.01.2020
1235 Clouds 6 1025 87 10000 4.1 190 21:54 06.01.2020
1236 Clouds 5 1025 81 10000 3.1 190 21:36 06.01.2020
1237 Clouds 5 1025 81 10000 4.1 220 21:18 06.01.2020
1238 Clouds 5 1024 80 10000 4.6 210 20:54 06.01.2020
1239 Clouds 5 1025 81 10000 4.1 220 20:54 06.01.2020
1240 Clouds 5 1024 80 10000 4.6 210 20:36 06.01.2020
1241 Clouds 5 1025 75 10000 5.7 230 20:18 06.01.2020
1242 Clouds 5 1026 75 10000 8.2 250 19:55 06.01.2020
1243 Clouds 5 1026 75 10000 8.2 250 19:36 06.01.2020
1244 Clouds 5 1024 80 10000 7.7 240 19:18 06.01.2020
1245 Clear 5 1024 81 10000 3.6 240 18:43 06.01.2020
1246 Clear 5 1024 81 10000 3.6 240 18:20 06.01.2020
1247 Clear 6 1023 81 10000 4.6 220 17:39 06.01.2020
1248 Clear 6 1023 75 10000 4.1 210 17:20 06.01.2020
1249 Clear 7 1023 65 10000 3.6 190 16:57 06.01.2020
1250 Clear 7 1023 65 10000 4.6 190 16:39 06.01.2020
1251 Clear 7 1023 65 10000 5.7 170 16:21 06.01.2020
1252 Clear 7 1023 65 10000 5.7 170 15:59 06.01.2020
1253 Clear 7 1023 70 10000 4.6 160 15:36 06.01.2020
1254 Clear 7 1023 70 10000 5.1 170 15:18 06.01.2020
1255 Clear 7 1023 75 10000 4.6 160 14:41 06.01.2020
1256 Clear 7 1024 70 10000 5.1 160 14:22 06.01.2020
1257 Clear 6 1024 70 10000 5.1 160 13:59 06.01.2020
1258 Clear 6 1025 70 10000 5.1 160 13:39 06.01.2020
1259 Clear 5 1025 70 10000 5.1 160 13:21 06.01.2020
1260 Clear 5 1025 70 10000 5.1 160 12:55 06.01.2020
1261 Clear 5 1026 75 10000 3.1 160 12:37 06.01.2020
1262 Clear 4 1026 80 10000 4.6 160 12:18 06.01.2020
1263 Clear 3 1027 80 10000 3.6 150 11:42 06.01.2020
1264 Clear 3 1027 80 10000 3.6 150 11:24 06.01.2020
1265 Clear 2 1027 86 9000 4.1 130 10:59 06.01.2020
1266 Clear 1 1027 93 8000 1.5 0 10:40 06.01.2020
1267 Clear 1 1027 82 7000 1.5 90 10:20 06.01.2020
1268 Clear 0 1027 82 7000 1.5 90 10:20 06.01.2020
1269 Clear 0 1028 100 7000 2.1 80 09:39 06.01.2020
1270 Clear 0 1028 92 7000 2.1 90 09:21 06.01.2020
1271 Clear 0 1028 92 7000 2.1 90 08:52 06.01.2020
1272 Clear 0 1028 92 7000 2.1 90 08:34 06.01.2020
1273 Clear 0 1029 89 8000 2.1 90 07:57 06.01.2020
1274 Clear 0 1029 89 8000 1 90 07:38 06.01.2020
1275 Clear 0 1029 89 7000 2.1 60 06:49 06.01.2020
1276 Clear 0 1029 89 7000 2.6 50 06:30 06.01.2020
1277 Clear 0 1030 89 8000 2.1 50 05:48 06.01.2020
1278 Clear 0 1030 86 9000 2.1 50 04:58 06.01.2020
1279 Clear 1 1030 86 10000 1.5 40 04:22 06.01.2020
1280 Clear 1 1031 86 10000 2.1 60 03:26 06.01.2020
1281 Clouds 2 1031 86 10000 1.5 90 02:26 06.01.2020
1282 Clouds 3 1032 86 10000 2.1 120 01:49 06.01.2020
1283 Clouds 3 1032 86 10000 2.1 120 01:29 06.01.2020
1284 Clouds 4 1032 75 10000 2.6 120 00:45 06.01.2020
1285 Clouds 4 1032 75 10000 2.6 120 00:26 06.01.2020
1286 Clouds 5 1033 70 10000 3.1 130 23:57 05.01.2020
1287 Clouds 5 1033 65 10000 2.1 120 23:38 05.01.2020
1288 Clouds 6 1033 65 10000 2.1 120 23:19 05.01.2020
1289 Clouds 6 1034 70 10000 1.5 110 22:40 05.01.2020
1290 Clouds 6 1034 70 10000 1.5 110 22:20 05.01.2020
1291 Clouds 6 1034 70 10000 1.5 110 22:20 05.01.2020
1292 Clouds 7 1034 65 10000 1.5 110 21:57 05.01.2020
1293 Clouds 7 1034 65 10000 1.5 110 21:39 05.01.2020
1294 Clouds 7 1034 70 10000 1.5 100 21:20 05.01.2020
1295 Clouds 7 1034 75 10000 1.5 90 20:56 05.01.2020
1296 Clouds 7 1034 75 10000 1.5 90 20:38 05.01.2020
1297 Clouds 7 1034 70 10000 1 0 20:19 05.01.2020
1298 Clouds 7 1034 70 10000 1 0 19:58 05.01.2020
1299 Clouds 7 1035 75 10000 1.5 80 19:38 05.01.2020
1300 Clouds 7 1035 75 10000 2.1 80 19:20 05.01.2020
1301 Clouds 7 1035 75 10000 2.1 80 19:20 05.01.2020
1302 Clouds 7 1035 75 10000 2.1 80 18:55 05.01.2020
1303 Clouds 7 1035 75 10000 1 0 18:37 05.01.2020
1304 Clouds 7 1035 75 10000 1 0 18:37 05.01.2020
1305 Clouds 7 1035 81 10000 1 80 18:19 05.01.2020
1306 Clouds 8 1035 81 10000 1 80 17:57 05.01.2020
1307 Clouds 8 1035 81 10000 0.5 0 17:38 05.01.2020
1308 Clouds 8 1035 81 10000 0.5 0 17:38 05.01.2020
1309 Clouds 8 1035 81 10000 0.5 0 17:38 05.01.2020
1310 Clouds 8 1035 81 10000 1 60 17:19 05.01.2020
1311 Clouds 8 1035 81 10000 1 60 16:56 05.01.2020
1312 Clouds 8 1035 87 10000 1 90 16:38 05.01.2020
1313 Clouds 8 1035 81 10000 0.31 111 16:19 05.01.2020
1314 Clouds 8 1035 81 10000 0.31 111 16:19 05.01.2020
1315 Clouds 8 1035 76 10000 1 70 15:38 05.01.2020
1316 Clouds 8 1035 76 10000 1 70 15:20 05.01.2020
1317 Clouds 8 1035 76 10000 0.31 111 14:56 05.01.2020
1318 Clouds 8 1035 76 10000 0.31 111 14:37 05.01.2020
1319 Clouds 8 1035 76 10000 0.85 242 14:19 05.01.2020
1320 Clouds 8 1035 76 10000 0.85 242 13:56 05.01.2020
1321 Clouds 8 1036 81 10000 1 0 13:37 05.01.2020
1322 Clouds 8 1036 87 10000 1 0 13:18 05.01.2020
1323 Clouds 8 1036 87 10000 1 0 13:18 05.01.2020
1324 Clouds 8 1036 87 10000 1 0 12:55 05.01.2020
1325 Clouds 8 1036 81 10000 1 0 12:37 05.01.2020
1326 Clouds 7 1037 87 10000 1 0 12:18 05.01.2020
1327 Clouds 7 1037 87 10000 1 0 11:43 05.01.2020
1328 Clouds 7 1037 93 10000 1.5 0 11:20 05.01.2020
1329 Clouds 7 1037 93 10000 1.5 0 10:58 05.01.2020
1330 Clouds 6 1037 87 10000 1.5 0 10:39 05.01.2020
1331 Clouds 6 1037 87 10000 1.5 0 10:39 05.01.2020
1332 Clouds 6 1037 87 10000 1.5 230 10:19 05.01.2020
1333 Clouds 6 1037 87 10000 1 260 09:42 05.01.2020
1334 Clouds 6 1037 87 10000 1 260 09:42 05.01.2020
1335 Clouds 6 1037 87 10000 1 0 09:22 05.01.2020
1336 Clouds 6 1037 87 10000 1 0 08:51 05.01.2020
1337 Clouds 6 1037 87 10000 1 0 08:32 05.01.2020
1338 Clouds 6 1037 87 10000 1 240 07:59 05.01.2020
1339 Clouds 6 1037 93 10000 1.5 0 07:39 05.01.2020
1340 Clouds 6 1037 93 10000 1.5 0 07:20 05.01.2020
1341 Clouds 6 1037 93 10000 0.48 220 06:40 05.01.2020
1342 Clouds 6 1037 87 10000 1.5 250 05:34 05.01.2020
1343 Clouds 6 1037 87 10000 1.5 250 05:34 05.01.2020
1344 Clouds 6 1037 87 10000 1.5 240 04:49 05.01.2020
1345 Clouds 6 1037 87 10000 2.1 260 04:18 05.01.2020
1346 Clouds 6 1037 87 10000 2.1 260 04:18 05.01.2020
1347 Clouds 6 1037 81 10000 1 0 02:50 05.01.2020
1348 Clouds 6 1037 81 10000 1 0 02:32 05.01.2020
1349 Clouds 6 1037 81 10000 2.1 260 01:49 05.01.2020
1350 Clouds 7 1037 75 10000 0.5 0 01:20 05.01.2020
1351 Clouds 7 1037 75 10000 0.5 0 00:56 05.01.2020
1352 Clouds 7 1037 93 10000 2.1 280 00:37 05.01.2020
1353 Clouds 7 1037 93 10000 2.1 280 00:19 05.01.2020
1354 Clouds 7 1037 75 10000 2.1 300 23:40 04.01.2020
1355 Clouds 7 1037 75 10000 2.1 290 23:20 04.01.2020
1356 Clouds 7 1037 75 10000 2.6 290 22:55 04.01.2020
1357 Clouds 7 1037 75 10000 2.6 290 22:37 04.01.2020
1358 Clouds 7 1036 70 10000 3.1 290 22:19 04.01.2020
1359 Clouds 7 1036 70 10000 3.1 290 21:55 04.01.2020
1360 Clouds 7 1037 75 10000 2.1 290 21:36 04.01.2020
1361 Clouds 7 1037 75 10000 2.1 290 21:18 04.01.2020
1362 Clouds 7 1036 75 10000 2.6 270 20:41 04.01.2020
1363 Clouds 7 1036 75 10000 1.5 260 20:22 04.01.2020
1364 Clouds 7 1036 75 10000 1.5 260 19:57 04.01.2020
1365 Clouds 7 1036 75 10000 2.1 260 19:39 04.01.2020
1366 Clouds 7 1036 75 10000 2.1 260 19:21 04.01.2020
1367 Clouds 7 1036 75 10000 2.1 260 18:57 04.01.2020
1368 Clouds 7 1036 75 10000 1.5 270 18:38 04.01.2020
1369 Clouds 7 1036 75 10000 1.5 270 18:19 04.01.2020
1370 Clouds 8 1036 75 10000 2.6 270 17:55 04.01.2020
1371 Clouds 8 1036 75 10000 2.6 270 17:37 04.01.2020
1372 Clouds 8 1036 75 10000 3.6 260 17:18 04.01.2020
1373 Clouds 8 1036 70 10000 3.1 260 16:41 04.01.2020
1374 Clouds 8 1036 70 10000 3.1 260 16:23 04.01.2020
1375 Clouds 8 1036 70 10000 3.6 270 15:57 04.01.2020
1376 Clouds 8 1035 70 10000 3.6 260 15:38 04.01.2020
1377 Clouds 8 1036 70 10000 3.1 270 15:19 04.01.2020
1378 Clouds 8 1036 70 10000 4.1 270 14:56 04.01.2020
1379 Clouds 8 1036 70 10000 4.1 270 14:38 04.01.2020
1380 Clouds 8 1036 75 10000 4.1 260 14:19 04.01.2020
1381 Clouds 8 1036 75 10000 4.1 260 14:19 04.01.2020
1382 Clouds 8 1036 75 10000 3.1 260 13:55 04.01.2020
1383 Clouds 8 1036 75 10000 3.1 260 13:36 04.01.2020
1384 Clouds 8 1036 81 10000 3.1 260 13:18 04.01.2020
1385 Clouds 7 1036 81 10000 4.6 250 12:41 04.01.2020
1386 Clouds 6 1036 81 10000 3.6 240 12:20 04.01.2020
1387 Clouds 6 1036 81 10000 3.6 240 11:58 04.01.2020
1388 Clouds 6 1036 86 10000 3.1 250 11:39 04.01.2020
1389 Clouds 6 1036 86 10000 3.1 250 11:39 04.01.2020
1390 Clouds 5 1036 86 10000 3.1 250 11:19 04.01.2020
1391 Clouds 4 1036 86 10000 3.1 250 10:55 04.01.2020
1392 Clouds 4 1036 86 10000 2.1 260 10:36 04.01.2020
1393 Clouds 3 1036 93 10000 2.1 260 10:18 04.01.2020
1394 Clouds 2 1035 93 10000 1.5 0 09:41 04.01.2020
1395 Clouds 2 1035 93 10000 2.1 240 09:22 04.01.2020
1396 Clouds 2 1035 93 10000 1.5 270 08:42 04.01.2020
1397 Clouds 2 1035 93 10000 1.5 270 08:21 04.01.2020
1398 Clouds 2 1035 93 10000 1.5 240 07:44 04.01.2020
1399 Clouds 2 1035 93 10000 1.5 240 07:26 04.01.2020
1400 Clouds 3 1035 86 10000 2.6 260 06:36 04.01.2020
1401 Clouds 3 1034 86 10000 2.6 250 05:45 04.01.2020
1402 Clear 3 1034 80 10000 1.5 260 04:44 04.01.2020
1403 Clear 3 1034 80 10000 1.5 260 04:26 04.01.2020
1404 Clear 5 1033 81 10000 1.5 300 03:19 04.01.2020
1405 Clear 5 1033 81 10000 2.1 320 02:36 04.01.2020
1406 Clouds 6 1032 75 10000 2.6 330 01:58 04.01.2020
1407 Clouds 6 1033 87 10000 3.1 340 01:32 04.01.2020
1408 Clouds 7 1032 87 10000 3.1 330 00:56 04.01.2020
1409 Clouds 7 1032 81 10000 3.6 320 00:28 04.01.2020
1410 Clouds 7 1032 87 10000 3.1 330 23:52 03.01.2020
1411 Clouds 8 1031 87 10000 4.6 340 23:27 03.01.2020
1412 Clouds 8 1031 87 10000 4.6 340 22:55 03.01.2020
1413 Clouds 8 1030 81 10000 3.6 330 22:37 03.01.2020
1414 Clouds 8 1030 81 10000 3.1 330 22:18 03.01.2020
1415 Clouds 8 1030 81 10000 3.1 330 21:56 03.01.2020
1416 Clouds 8 1029 87 10000 3.6 330 21:37 03.01.2020
1417 Clouds 9 1029 87 10000 5.7 330 21:18 03.01.2020
1418 Rain 9 1029 87 10000 5.7 330 20:54 03.01.2020
1419 Rain 9 1028 81 10000 5.7 320 20:36 03.01.2020
1420 Rain 9 1027 93 10000 3.6 280 20:18 03.01.2020
1421 Drizzle 10 1027 93 6000 3.6 250 19:42 03.01.2020
1422 Drizzle 10 1027 93 6000 3.6 250 19:23 03.01.2020
1423 Rain 10 1026 87 10000 4.1 250 18:54 03.01.2020
1424 Rain 10 1026 87 10000 4.1 250 18:36 03.01.2020
1425 Clouds 10 1025 87 10000 5.1 240 18:18 03.01.2020
1426 Clouds 10 1025 87 10000 3.6 250 17:41 03.01.2020
1427 Rain 11 1025 87 10000 5.7 250 17:21 03.01.2020
1428 Rain 11 1024 93 10000 4.6 260 16:58 03.01.2020
1429 Rain 11 1024 93 10000 4.6 260 16:39 03.01.2020
1430 Clouds 11 1024 93 10000 4.6 260 16:20 03.01.2020
1431 Clouds 11 1023 76 10000 7.2 230 15:41 03.01.2020
1432 Clouds 11 1023 76 10000 6.7 230 15:19 03.01.2020
1433 Clouds 11 1023 76 10000 7.2 240 14:40 03.01.2020
1434 Clouds 11 1023 76 10000 7.2 240 14:40 03.01.2020
1435 Rain 11 1023 76 10000 7.2 240 14:20 03.01.2020
1436 Rain 11 1023 76 10000 7.7 240 13:59 03.01.2020
1437 Clouds 11 1023 76 10000 7.2 240 13:40 03.01.2020
1438 Clouds 11 1023 76 10000 7.2 240 13:22 03.01.2020
1439 Clouds 11 1023 76 10000 7.2 230 12:41 03.01.2020
1440 Clouds 11 1023 76 10000 5.1 230 12:22 03.01.2020
1441 Clouds 11 1023 76 10000 5.1 230 11:57 03.01.2020
1442 Clouds 11 1023 76 10000 5.1 230 11:57 03.01.2020
1443 Clouds 10 1023 81 10000 6.2 210 11:39 03.01.2020
1444 Clouds 10 1023 87 10000 5.1 210 10:59 03.01.2020
1445 Clouds 10 1023 87 10000 5.1 210 10:59 03.01.2020
1446 Clouds 9 1022 87 10000 3.6 200 10:40 03.01.2020
1447 Clouds 9 1022 87 10000 6.2 200 10:22 03.01.2020
1448 Clouds 9 1022 87 10000 6.2 200 09:56 03.01.2020
1449 Clouds 9 1022 87 10000 5.1 210 09:38 03.01.2020
1450 Clouds 9 1022 87 10000 5.1 210 09:20 03.01.2020
1451 Clouds 9 1022 87 10000 5.1 210 08:54 03.01.2020
1452 Clouds 9 1021 93 10000 6.2 210 08:36 03.01.2020
1453 Clouds 8 1021 87 10000 5.7 210 08:18 03.01.2020
1454 Clouds 8 1021 87 10000 6.2 200 07:39 03.01.2020
1455 Clouds 8 1021 87 10000 5.7 200 07:18 03.01.2020
1456 Clouds 8 1021 81 10000 6.2 200 06:42 03.01.2020
1457 Clouds 8 1021 81 10000 6.2 200 06:23 03.01.2020
1458 Clouds 8 1021 81 10000 5.7 190 05:20 03.01.2020
1459 Clouds 8 1022 87 10000 5.1 190 03:45 03.01.2020
1460 Clouds 9 1022 81 10000 5.1 190 02:55 03.01.2020
1461 Clouds 9 1023 93 10000 5.1 220 01:57 03.01.2020
1462 Clouds 9 1023 81 10000 6.2 200 01:38 03.01.2020
1463 Clouds 9 1023 81 10000 5.1 190 00:46 03.01.2020
1464 Clouds 9 1023 81 10000 5.1 190 00:26 03.01.2020
1465 Clouds 9 1023 81 10000 5.1 180 23:55 02.01.2020
1466 Clouds 9 1023 81 10000 5.1 180 23:37 02.01.2020
1467 Clouds 9 1023 93 10000 5.1 180 23:18 02.01.2020
1468 Clouds 9 1023 93 10000 4.6 180 22:44 02.01.2020
1469 Clouds 9 1023 93 10000 4.6 180 22:21 02.01.2020
1470 Clouds 9 1024 87 10000 5.7 180 21:57 02.01.2020
1471 Clouds 9 1024 87 10000 5.7 180 21:39 02.01.2020
1472 Clouds 9 1024 87 10000 6.2 180 21:21 02.01.2020
1473 Clouds 9 1024 87 10000 6.2 180 20:57 02.01.2020
1474 Clouds 9 1024 87 10000 5.1 180 20:39 02.01.2020
1475 Clouds 9 1024 87 10000 5.1 180 20:20 02.01.2020
1476 Clouds 8 1024 87 10000 5.1 180 19:55 02.01.2020
1477 Clouds 8 1024 87 10000 5.1 180 19:37 02.01.2020
1478 Clouds 8 1024 87 10000 5.1 180 19:37 02.01.2020
1479 Clouds 8 1024 87 10000 5.1 180 19:19 02.01.2020
1480 Clouds 8 1024 87 10000 5.1 180 18:56 02.01.2020
1481 Clouds 8 1024 87 10000 4.6 180 18:37 02.01.2020
1482 Clouds 8 1024 87 10000 4.1 190 18:19 02.01.2020
1483 Clouds 8 1024 87 10000 4.1 200 17:55 02.01.2020
1484 Clouds 8 1024 87 10000 4.1 200 17:36 02.01.2020
1485 Clouds 8 1024 87 10000 4.1 190 17:18 02.01.2020
1486 Clouds 8 1024 87 10000 4.1 190 17:18 02.01.2020
1487 Clouds 8 1024 87 10000 4.1 180 16:54 02.01.2020
1488 Clouds 8 1024 87 10000 4.1 180 16:36 02.01.2020
1489 Clouds 8 1024 87 10000 4.1 190 16:18 02.01.2020
1490 Clouds 8 1024 87 10000 5.1 210 15:42 02.01.2020
1491 Clouds 8 1025 93 10000 3.1 190 15:24 02.01.2020
1492 Clouds 9 1025 93 10000 3.6 190 14:58 02.01.2020
1493 Clouds 8 1025 93 10000 3.6 190 14:37 02.01.2020
1494 Clouds 8 1025 93 6000 3.1 180 14:19 02.01.2020
1495 Drizzle 8 1026 93 2700 2.6 200 13:58 02.01.2020
1496 Drizzle 8 1026 93 2700 2.6 200 13:38 02.01.2020
1497 Clouds 8 1026 93 10000 2.6 170 13:18 02.01.2020
1498 Clouds 8 1026 100 10000 2.1 160 12:42 02.01.2020
1499 Clouds 8 1027 93 10000 2.1 160 12:21 02.01.2020
1500 Clouds 7 1027 93 10000 2.1 160 11:42 02.01.2020
1501 Clouds 7 1026 100 9000 1.5 150 11:21 02.01.2020
1502 Clouds 7 1026 93 7000 1.5 140 10:46 02.01.2020
1503 Clouds 7 1026 93 7000 1.5 140 10:28 02.01.2020
1504 Clouds 6 1026 100 6000 1.5 130 09:58 02.01.2020
1505 Mist 6 1026 100 2200 0.5 0 09:35 02.01.2020
1506 Drizzle 6 1026 100 1800 0.5 0 08:59 02.01.2020
1507 Mist 6 1026 100 1300 1.5 70 08:40 02.01.2020
1508 Fog 6 1026 100 900 1.5 70 08:21 02.01.2020
1509 Mist 5 1026 93 1100 1.5 70 07:47 02.01.2020
1510 Mist 5 1026 93 1800 2.1 70 07:27 02.01.2020
1511 Mist 5 1027 100 1600 1.5 60 06:43 02.01.2020
1512 Mist 5 1027 100 1200 1.5 60 05:42 02.01.2020
1513 Mist 5 1027 100 4900 1.5 50 04:36 02.01.2020
1514 Mist 5 1027 100 4900 1.5 60 03:54 02.01.2020
1515 Mist 4 1028 93 5000 2.1 40 02:21 02.01.2020
1516 Clouds 4 1028 100 6000 2.1 100 01:57 02.01.2020
1517 Clouds 4 1028 100 6000 2.1 100 01:30 02.01.2020
1518 Clouds 4 1029 93 7000 2.1 110 00:52 02.01.2020
1519 Clouds 4 1029 93 7000 2.1 110 00:26 02.01.2020
1520 Clouds 4 1029 93 6000 1.5 110 23:44 01.01.2020
1521 Clouds 4 1029 93 6000 1.5 110 23:23 01.01.2020
1522 Mist 4 1029 93 5000 2.6 100 22:39 01.01.2020
1523 Mist 4 1029 93 5000 2.6 100 22:21 01.01.2020
1524 Mist 4 1030 93 3800 2.1 80 21:59 01.01.2020
1525 Mist 4 1030 100 2800 2.1 100 21:40 01.01.2020
1526 Rain 4 1030 100 2800 2.1 110 21:21 01.01.2020
1527 Rain 4 1030 100 2800 2.1 110 20:58 01.01.2020
1528 Rain 4 1030 100 3300 2.6 140 20:39 01.01.2020
1529 Mist 4 1030 100 3800 2.1 120 20:20 01.01.2020
1530 Mist 4 1030 100 3800 2.1 120 19:57 01.01.2020
1531 Mist 4 1030 100 3300 2.1 100 19:39 01.01.2020
1532 Mist 4 1030 100 2700 1.5 120 19:20 01.01.2020
1533 Mist 4 1030 100 2700 1.5 120 18:57 01.01.2020
1534 Mist 4 1030 100 2600 2.6 140 18:38 01.01.2020
1535 Mist 4 1030 100 3200 2.6 130 18:20 01.01.2020
1536 Mist 4 1030 100 3200 2.6 130 17:58 01.01.2020
1537 Mist 4 1030 100 2400 2.6 120 17:40 01.01.2020
1538 Mist 4 1030 100 3400 2.6 120 17:20 01.01.2020
1539 Mist 4 1030 100 3400 2.6 120 16:58 01.01.2020
1540 Mist 4 1030 100 3700 2.6 130 16:38 01.01.2020
1541 Mist 4 1030 100 3700 2.6 130 16:38 01.01.2020
1542 Mist 4 1030 100 2500 3.1 140 16:19 01.01.2020
1543 Mist 4 1030 100 2500 3.1 140 15:57 01.01.2020
1544 Mist 4 1030 100 2500 3.1 140 15:57 01.01.2020
1545 Mist 4 1030 100 1600 2.6 130 15:37 01.01.2020
1546 Mist 4 1030 93 4200 3.1 130 15:19 01.01.2020
1547 Mist 4 1030 93 4200 3.1 130 14:56 01.01.2020
1548 Mist 4 1030 93 2700 3.6 130 14:37 01.01.2020
1549 Mist 4 1031 100 2500 2.6 110 14:19 01.01.2020
1550 Mist 3 1031 100 2000 2.6 130 13:55 01.01.2020
1551 Mist 3 1031 100 2500 2.6 110 13:55 01.01.2020
1552 Mist 3 1031 100 2000 2.6 130 13:36 01.01.2020
1553 Mist 3 1031 100 3100 2.6 140 13:18 01.01.2020
1554 Mist 3 1032 93 4300 3.6 130 12:40 01.01.2020
1555 Mist 2 1032 93 5000 2.6 140 12:19 01.01.2020
1556 Mist 2 1032 93 5000 2.6 140 11:57 01.01.2020
1557 Mist 2 1032 93 5000 2.6 140 11:57 01.01.2020
1558 Mist 2 1032 100 3300 3.1 150 11:39 01.01.2020
1559 Mist 1 1032 100 1800 2.6 160 11:20 01.01.2020
1560 Mist 1 1032 93 1700 2.6 190 10:55 01.01.2020
1561 Mist 1 1032 93 1700 2.6 190 10:37 01.01.2020
1562 Mist 1 1032 100 2400 2.6 180 10:18 01.01.2020
1563 Mist 1 1031 100 2100 2.6 150 09:40 01.01.2020
1564 Mist 0 1031 100 3300 3.1 140 09:20 01.01.2020
1565 Mist 0 1031 100 4100 3.1 140 08:57 01.01.2020
1566 Mist 0 1031 100 3300 3.1 140 08:57 01.01.2020
1567 Mist 0 1031 100 4100 3.1 140 08:38 01.01.2020
1568 Mist 0 1031 87 5000 1.5 100 08:19 01.01.2020
1569 Clouds 0 1031 87 10000 1 0 07:57 01.01.2020
1570 Clouds 0 1031 87 10000 1 0 07:39 01.01.2020
1571 Clouds 0 1031 87 7000 1.5 130 06:55 01.01.2020
1572 Clouds 0 1031 87 6000 1.5 160 06:36 01.01.2020
1573 Mist 0 1031 87 1700 2.6 160 05:51 01.01.2020
1574 Mist -1 1031 85 3300 2.6 190 04:28 01.01.2020
1575 Mist -1 1031 92 4100 2.1 160 03:39 01.01.2020
1576 Mist -1 1031 92 4100 2.1 160 03:21 01.01.2020
1577 Mist -1 1031 100 4000 1 0 02:42 01.01.2020
1578 Mist -1 1031 92 4300 2.1 80 02:23 01.01.2020
1579 Mist -1 1032 92 4800 2.01 109 01:42 01.01.2020
1580 Mist -1 1032 92 4400 2.6 80 01:23 01.01.2020
1581 Mist -1 1032 92 4100 2.1 80 00:45 01.01.2020
1582 Mist -1 1032 92 4100 2.1 80 00:26 01.01.2020
1583 Mist -1 1032 92 4300 2.1 90 23:58 31.12.2019
1584 Mist -1 1032 92 3800 2.6 40 23:38 31.12.2019
1585 Mist -1 1032 92 3900 1.5 10 23:18 31.12.2019
1586 Mist -1 1032 92 3900 1.5 10 22:56 31.12.2019
1587 Mist -1 1032 65 3800 1 350 22:37 31.12.2019
1588 Mist 0 1032 65 4400 3.1 40 22:18 31.12.2019
1589 Mist 0 1032 65 5000 1 0 21:43 31.12.2019
1590 Mist 0 1031 65 4800 2.04 118 21:25 31.12.2019
1591 Mist 1 1031 65 4800 2.04 118 20:57 31.12.2019
1592 Mist 1 1031 66 5000 1.5 80 20:39 31.12.2019
1593 Mist 1 1031 70 5000 1.5 80 20:21 31.12.2019
1594 Mist 1 1032 70 5000 2.1 70 19:58 31.12.2019
1595 Clouds 1 1032 70 6000 2.6 90 19:40 31.12.2019
1596 Clouds 1 1032 70 6000 3.1 80 19:21 31.12.2019
1597 Clouds 1 1032 70 6000 3.1 80 18:57 31.12.2019
1598 Clouds 2 1032 93 6000 3.1 70 18:38 31.12.2019
1599 Clouds 2 1031 70 6000 3.1 60 18:19 31.12.2019
1600 Mist 3 1032 86 5000 2.6 50 17:56 31.12.2019
1601 Mist 3 1032 86 5000 2.6 50 17:37 31.12.2019
1602 Clouds 3 1031 80 6000 2.6 50 17:18 31.12.2019
1603 Clouds 4 1032 80 7000 2.1 50 16:56 31.12.2019
1604 Clouds 4 1032 80 7000 2.1 50 16:37 31.12.2019
1605 Clouds 5 1032 80 7000 2.1 50 16:19 31.12.2019
1606 Clouds 5 1031 80 8000 2.6 80 15:56 31.12.2019
1607 Clouds 5 1031 80 7000 3.1 70 15:38 31.12.2019
1608 Clouds 5 1032 80 7000 3.6 70 15:20 31.12.2019
1609 Clouds 5 1032 80 6000 3.6 60 14:56 31.12.2019
1610 Clouds 5 1032 80 6000 3.6 60 14:37 31.12.2019
1611 Clouds 5 1032 80 6000 3.1 40 14:19 31.12.2019
1612 Clouds 4 1032 80 6000 2.6 50 13:56 31.12.2019
1613 Clouds 4 1032 80 6000 2.6 50 13:38 31.12.2019
1614 Mist 3 1033 86 5000 1 0 13:20 31.12.2019
1615 Mist 3 1033 86 5000 1 0 12:56 31.12.2019
1616 Mist 3 1033 86 5000 1.5 110 12:38 31.12.2019
1617 Mist 2 1033 93 4500 3.1 70 12:19 31.12.2019
1618 Mist 1 1033 93 4500 3.1 70 11:56 31.12.2019
1619 Mist 1 1033 53 4500 1.5 70 11:37 31.12.2019
1620 Mist 0 1032 63 3400 3.1 80 11:19 31.12.2019
1621 Mist -1 1032 92 3700 2.6 100 10:56 31.12.2019
1622 Mist -1 1032 92 3700 2.6 100 10:37 31.12.2019
1623 Mist -2 1032 100 3200 1.5 90 10:19 31.12.2019
1624 Mist -2 1032 100 3200 1.5 90 09:58 31.12.2019
1625 Mist -2 1032 100 3200 1.5 90 09:58 31.12.2019
1626 Mist -2 1032 92 3100 0.5 0 09:38 31.12.2019
1627 Mist -2 1031 100 4900 2.1 100 09:19 31.12.2019
1628 Mist -2 1031 100 5000 1.5 120 08:57 31.12.2019
1629 Mist -2 1031 100 5000 1.5 120 08:37 31.12.2019
1630 Mist -2 1031 92 4600 2.6 100 08:18 31.12.2019
1631 Fog -2 1031 100 1900 1.5 50 07:41 31.12.2019
1632 Fog -2 1031 100 1900 1.5 50 07:19 31.12.2019
1633 Mist -2 1031 92 4900 2.1 90 06:48 31.12.2019
1634 Mist -1 1031 92 5000 1.5 90 05:55 31.12.2019
1635 Mist -2 1031 92 5000 1.5 70 04:27 31.12.2019
1636 Mist -1 1031 92 5000 1.5 90 03:27 31.12.2019
1637 Clouds -1 1031 92 6000 1 110 02:49 31.12.2019
1638 Clear -1 1031 86 6000 1.5 110 01:55 31.12.2019
1639 Clear -1 1031 92 6000 1.5 90 01:34 31.12.2019
1640 Clouds -1 1032 92 6000 1 0 00:59 31.12.2019
1641 Clouds -1 1031 53 7000 1 110 00:41 31.12.2019
1642 Clouds 0 1032 53 7000 1 0 00:21 31.12.2019
1643 Clouds 0 1032 53 7000 1 0 23:56 30.12.2019
1644 Clouds 0 1031 86 7000 2.6 120 23:38 30.12.2019
1645 Clear 0 1031 86 7000 2.6 120 23:19 30.12.2019
1646 Clear 0 1031 51 7000 1.5 110 22:57 30.12.2019
1647 Clear 0 1031 51 7000 1.5 110 22:57 30.12.2019
1648 Clear 1 1031 86 7000 2.1 130 22:38 30.12.2019
1649 Clear 1 1031 86 7000 2.09 186 22:19 30.12.2019
1650 Clear 1 1031 86 7000 2.09 186 21:56 30.12.2019
1651 Clear 1 1031 80 7000 2.1 110 21:38 30.12.2019
1652 Clear 1 1031 80 8000 1.5 100 21:18 30.12.2019
1653 Clear 2 1031 80 9000 1 0 20:56 30.12.2019
1654 Clear 2 1031 80 9000 1 0 20:38 30.12.2019
1655 Clear 1 1031 46 9000 1.5 110 20:20 30.12.2019
1656 Clear 2 1031 46 9000 1.5 110 19:57 30.12.2019
1657 Clear 2 1031 74 9000 0.5 110 19:37 30.12.2019
1658 Clear 2 1031 74 9000 1.5 150 19:19 30.12.2019
1659 Clear 3 1031 74 9000 1.5 150 18:56 30.12.2019
1660 Clear 3 1031 69 10000 1.5 140 18:38 30.12.2019
1661 Clear 3 1031 65 10000 1.5 140 18:20 30.12.2019
1662 Clear 4 1031 65 10000 1.5 140 17:55 30.12.2019
1663 Clear 4 1031 46 10000 2.1 130 17:36 30.12.2019
1664 Clear 4 1031 46 10000 2.1 130 17:36 30.12.2019
1665 Clear 5 1031 39 10000 1.5 130 17:18 30.12.2019
1666 Clear 6 1031 39 10000 1.5 130 16:55 30.12.2019
1667 Clear 6 1031 39 10000 2.1 150 16:55 30.12.2019
1668 Clear 7 1031 39 10000 2.1 150 16:36 30.12.2019
1669 Clear 7 1031 39 10000 1.5 150 16:18 30.12.2019
1670 Clear 7 1031 39 10000 2.1 150 15:54 30.12.2019
1671 Clear 7 1031 39 10000 2.1 150 15:36 30.12.2019
1672 Clear 7 1032 39 10000 1.5 150 15:18 30.12.2019
1673 Clear 7 1032 39 10000 1.5 150 15:18 30.12.2019
1674 Clear 7 1032 52 10000 1 0 14:42 30.12.2019
1675 Clouds 6 1032 56 10000 1.5 150 14:19 30.12.2019
1676 Clouds 6 1033 60 10000 2.1 160 13:56 30.12.2019
1677 Clouds 6 1033 60 10000 2.1 160 13:37 30.12.2019
1678 Clouds 6 1033 60 10000 2.6 150 13:19 30.12.2019
1679 Clouds 5 1033 38 10000 2.6 160 12:43 30.12.2019
1680 Clouds 4 1034 38 9000 2.1 130 12:20 30.12.2019
1681 Clouds 4 1034 38 9000 2.1 130 11:59 30.12.2019
1682 Clouds 3 1034 38 9000 1.5 100 11:40 30.12.2019
1683 Clouds 2 1034 51 7000 1 100 11:19 30.12.2019
1684 Clouds 1 1034 51 6000 2.1 100 10:44 30.12.2019
1685 Clouds 0 1033 51 6000 1.5 70 10:22 30.12.2019
1686 Clouds 0 1033 51 6000 1.5 70 10:22 30.12.2019
1687 Clouds -1 1033 51 6000 1.5 70 09:59 30.12.2019
1688 Clouds -1 1033 92 6000 1.5 70 09:41 30.12.2019
1689 Clouds -1 1033 92 6000 1.5 70 09:20 30.12.2019
1690 Clouds -1 1033 92 6000 1 100 08:54 30.12.2019
1691 Clouds -1 1033 92 6000 1 80 08:36 30.12.2019
1692 Clouds -1 1033 92 6000 1 80 08:18 30.12.2019
1693 Clouds -1 1033 92 6000 1.5 70 07:39 30.12.2019
1694 Clouds -1 1033 92 6000 1.5 50 06:52 30.12.2019
1695 Clear -1 1034 92 6000 1 20 05:24 30.12.2019
1696 Clear -1 1034 92 6000 1.5 20 03:58 30.12.2019
1697 Clear -1 1034 62 6000 1.5 50 03:32 30.12.2019
1698 Clear 0 1034 62 6000 2.1 70 02:40 30.12.2019
1699 Clouds 0 1034 62 6000 2.1 60 01:56 30.12.2019
1700 Clouds 0 1034 62 6000 2.1 60 01:25 30.12.2019
1701 Clouds 0 1035 62 6000 2.1 60 00:46 30.12.2019
1702 Clouds 0 1035 86 6000 1.5 50 00:23 30.12.2019
1703 Clouds 1 1035 86 6000 2.1 70 23:40 29.12.2019
1704 Clear 0 1035 86 6000 2.1 80 23:22 29.12.2019
1705 Clear 1 1035 86 6000 2.1 80 22:56 29.12.2019
1706 Clear 1 1035 60 6000 1 60 22:38 29.12.2019
1707 Clear 1 1035 60 6000 1 60 22:19 29.12.2019
1708 Clear 1 1035 60 6000 1.5 70 21:45 29.12.2019
1709 Clear 2 1035 60 7000 1 0 21:21 29.12.2019
1710 Clear 1 1035 60 6000 1.5 70 21:21 29.12.2019
1711 Clear 2 1035 60 7000 1 0 20:59 29.12.2019
1712 Clear 2 1035 60 7000 2.1 70 20:39 29.12.2019
1713 Clear 2 1035 60 7000 2.1 70 20:39 29.12.2019
1714 Clouds 2 1035 63 7000 2.1 70 20:21 29.12.2019
1715 Clouds 2 1035 63 8000 1.5 80 19:59 29.12.2019
1716 Clouds 2 1035 93 8000 1.5 80 19:40 29.12.2019
1717 Clouds 2 1035 93 8000 1.5 80 19:21 29.12.2019
1718 Clouds 2 1035 63 9000 2.6 80 18:59 29.12.2019
1719 Clouds 3 1035 86 10000 2.1 50 18:40 29.12.2019
1720 Clouds 3 1035 86 10000 2.1 50 18:21 29.12.2019
1721 Clouds 3 1035 63 10000 2.1 80 17:58 29.12.2019
1722 Clouds 4 1035 80 10000 2.6 70 17:39 29.12.2019
1723 Clouds 4 1035 75 10000 2.6 50 17:20 29.12.2019
1724 Clouds 5 1035 75 10000 2.6 50 16:57 29.12.2019
1725 Clouds 5 1035 75 10000 2.6 60 16:39 29.12.2019
1726 Clouds 5 1035 75 10000 2.6 60 16:39 29.12.2019
1727 Clouds 5 1035 75 10000 2.6 60 16:21 29.12.2019
1728 Clouds 6 1035 80 10000 2.6 40 15:59 29.12.2019
1729 Clouds 6 1035 75 10000 2.6 80 15:40 29.12.2019
1730 Clouds 5 1035 75 10000 2.6 50 15:20 29.12.2019
1731 Clouds 5 1035 75 10000 2.6 50 14:58 29.12.2019
1732 Clouds 5 1035 58 10000 1 0 14:39 29.12.2019
1733 Clouds 5 1035 56 10000 1.5 0 14:18 29.12.2019
1734 Clouds 5 1035 56 10000 1.5 0 13:58 29.12.2019
1735 Clouds 5 1036 55 10000 1.5 0 13:39 29.12.2019
1736 Clouds 4 1036 55 10000 1 0 13:21 29.12.2019
1737 Clouds 4 1036 55 10000 1 0 12:56 29.12.2019
1738 Clouds 4 1036 55 10000 1 0 12:38 29.12.2019
1739 Clouds 3 1037 55 10000 2.1 90 12:20 29.12.2019
1740 Clouds 2 1037 55 7000 2.1 40 11:41 29.12.2019
1741 Mist 1 1037 69 5000 1.5 60 11:21 29.12.2019
1742 Mist 1 1037 69 5000 1.5 60 10:57 29.12.2019
1743 Clouds 0 1037 69 6000 1 10 10:38 29.12.2019
1744 Clouds 0 1037 92 6000 2.6 80 10:18 29.12.2019
1745 Clouds -1 1037 92 7000 2.1 80 09:45 29.12.2019
1746 Clouds -1 1037 92 7000 2.1 80 09:27 29.12.2019
1747 Clouds -1 1037 100 7000 1 20 08:55 29.12.2019
1748 Clouds -1 1037 100 7000 1 20 08:37 29.12.2019
1749 Clouds -1 1037 100 6000 1 10 08:18 29.12.2019
1750 Clouds -1 1036 75 7000 1 0 07:43 29.12.2019
1751 Clouds -1 1036 75 7000 1 0 07:25 29.12.2019
1752 Clouds -1 1037 75 6000 1.5 20 06:28 29.12.2019
1753 Clouds 0 1037 75 6000 1.5 360 05:55 29.12.2019
1754 Clouds 0 1037 79 7000 2.1 40 04:59 29.12.2019
1755 Clouds 0 1037 79 8000 1.5 10 04:30 29.12.2019
1756 Clouds 0 1037 86 7000 2.1 30 03:32 29.12.2019
1757 Clouds 1 1036 79 7000 1.5 50 02:27 29.12.2019
1758 Clouds 1 1036 80 7000 1.5 50 01:52 29.12.2019
1759 Clouds 1 1036 78 7000 2.1 70 01:29 29.12.2019
1760 Clouds 2 1037 93 7000 1.5 50 00:45 29.12.2019
1761 Clouds 2 1037 93 7000 2.1 30 00:24 29.12.2019
1762 Clouds 2 1037 93 8000 2.1 30 23:55 28.12.2019
1763 Clouds 2 1037 93 8000 2.1 30 23:37 28.12.2019
1764 Clouds 2 1037 93 10000 1.5 80 23:18 28.12.2019
1765 Clouds 3 1037 86 10000 2.1 70 22:37 28.12.2019
1766 Clouds 3 1038 86 10000 2.6 60 22:18 28.12.2019
1767 Clouds 3 1038 86 10000 2.6 60 21:56 28.12.2019
1768 Clouds 3 1038 86 10000 2.6 60 21:56 28.12.2019
1769 Clouds 3 1038 93 10000 2.1 60 21:37 28.12.2019
1770 Clouds 4 1038 93 10000 2.6 90 21:19 28.12.2019
1771 Clouds 4 1038 93 10000 2.6 90 20:54 28.12.2019
1772 Clouds 4 1038 86 10000 2.6 70 20:36 28.12.2019
1773 Clouds 4 1038 86 10000 2.1 50 20:18 28.12.2019
1774 Clouds 5 1038 86 10000 2.6 60 19:41 28.12.2019
1775 Clouds 5 1038 86 10000 2.6 60 19:23 28.12.2019
1776 Clouds 6 1038 81 10000 3.1 70 18:59 28.12.2019
1777 Clouds 6 1038 81 10000 3.1 70 18:40 28.12.2019
1778 Clouds 6 1038 81 10000 3.1 70 18:20 28.12.2019
1779 Clouds 6 1038 75 10000 2.6 70 17:58 28.12.2019
1780 Clouds 6 1038 75 10000 2.6 70 17:39 28.12.2019
1781 Clouds 7 1037 75 10000 3.6 60 17:20 28.12.2019
1782 Clouds 7 1037 75 10000 3.6 60 16:48 28.12.2019
1783 Clouds 7 1037 75 10000 3.6 60 16:26 28.12.2019
1784 Clouds 7 1037 75 10000 4.1 80 15:57 28.12.2019
1785 Clouds 8 1037 70 10000 3.1 50 15:39 28.12.2019
1786 Clouds 8 1037 70 10000 3.1 50 15:21 28.12.2019
1787 Clouds 8 1037 75 10000 3.1 70 14:46 28.12.2019
1788 Clouds 8 1037 75 10000 3.1 70 14:24 28.12.2019
1789 Clouds 8 1037 75 10000 3.1 80 13:58 28.12.2019
1790 Clouds 8 1037 75 10000 3.1 80 13:58 28.12.2019
1791 Clouds 8 1038 75 10000 2.6 90 13:39 28.12.2019
1792 Clouds 8 1038 75 10000 3.6 80 13:19 28.12.2019
1793 Clouds 8 1038 75 10000 3.6 80 12:55 28.12.2019
1794 Clouds 8 1038 75 10000 4.6 90 12:36 28.12.2019
1795 Clouds 8 1038 75 10000 3.1 100 12:18 28.12.2019
1796 Clouds 8 1038 75 10000 4.1 120 11:39 28.12.2019
1797 Clouds 7 1038 75 10000 3.1 90 11:21 28.12.2019
1798 Clouds 7 1038 87 10000 3.1 90 10:47 28.12.2019
1799 Clouds 7 1038 87 10000 3.1 90 10:23 28.12.2019
1800 Clouds 7 1037 93 10000 2.6 80 09:59 28.12.2019
1801 Clouds 7 1037 93 10000 3.1 80 09:59 28.12.2019
1802 Clouds 7 1037 93 10000 2.6 80 09:41 28.12.2019
1803 Clouds 7 1037 93 10000 2.6 70 09:23 28.12.2019
1804 Clouds 7 1037 93 10000 2.1 60 08:57 28.12.2019
1805 Clouds 7 1037 93 10000 2.1 60 08:38 28.12.2019
1806 Clouds 7 1037 93 10000 1.5 70 08:19 28.12.2019
1807 Clouds 7 1037 93 10000 1.5 50 07:41 28.12.2019
1808 Clouds 7 1036 87 10000 1.5 0 06:55 28.12.2019
1809 Clouds 7 1036 81 10000 1.5 20 05:40 28.12.2019
1810 Clouds 8 1036 87 10000 2.6 60 03:48 28.12.2019
1811 Clouds 8 1035 87 10000 1.5 0 02:50 28.12.2019
1812 Clouds 8 1035 87 10000 1.5 0 02:19 28.12.2019
1813 Clouds 8 1035 87 10000 1.5 50 01:50 28.12.2019
1814 Clouds 8 1035 87 10000 1.5 60 01:21 28.12.2019
1815 Clouds 8 1035 81 10000 1.5 360 00:42 28.12.2019
1816 Clouds 8 1035 81 10000 1 50 00:23 28.12.2019
1817 Clouds 8 1035 81 10000 1 50 23:56 27.12.2019
1818 Clouds 8 1035 81 10000 1.5 20 23:36 27.12.2019
1819 Clouds 8 1035 81 10000 1.5 30 23:18 27.12.2019
1820 Clouds 8 1034 81 10000 1 10 22:55 27.12.2019
1821 Clouds 8 1034 81 10000 1 10 22:37 27.12.2019
1822 Clouds 8 1034 81 10000 1 10 22:19 27.12.2019
1823 Clouds 8 1034 81 10000 1.5 360 21:41 27.12.2019
1824 Clouds 8 1034 81 10000 0.5 360 21:23 27.12.2019
1825 Clouds 8 1033 81 10000 1 40 20:44 27.12.2019
1826 Clouds 8 1033 81 10000 1.5 40 20:26 27.12.2019
1827 Clouds 8 1033 81 10000 1 0 19:57 27.12.2019
1828 Clouds 8 1033 81 10000 1 0 19:38 27.12.2019
1829 Clouds 8 1032 81 10000 2.1 10 19:19 27.12.2019
1830 Clouds 8 1032 81 10000 2.1 10 18:55 27.12.2019
1831 Clouds 9 1032 87 10000 1.5 10 18:36 27.12.2019
1832 Clouds 9 1032 87 10000 1.5 10 18:18 27.12.2019
1833 Clouds 9 1032 87 10000 1.5 10 17:55 27.12.2019
1834 Clouds 9 1031 87 10000 2.6 330 17:36 27.12.2019
1835 Clouds 9 1031 81 10000 2.6 330 17:18 27.12.2019
1836 Clouds 9 1031 81 10000 2.6 330 16:41 27.12.2019
1837 Clouds 9 1030 87 10000 2.1 340 16:23 27.12.2019
1838 Clouds 9 1030 87 10000 2.1 330 15:58 27.12.2019
1839 Clouds 9 1030 87 10000 2.1 330 15:37 27.12.2019
1840 Clouds 9 1030 87 10000 2.1 330 15:37 27.12.2019
1841 Clouds 9 1029 87 10000 2.6 340 15:19 27.12.2019
1842 Clouds 9 1029 87 10000 3.1 310 14:56 27.12.2019
1843 Clouds 9 1029 87 10000 3.1 310 14:38 27.12.2019
1844 Clouds 9 1029 87 10000 3.1 310 14:19 27.12.2019
1845 Clouds 9 1029 81 10000 2.6 300 13:47 27.12.2019
1846 Clouds 9 1029 81 10000 2.6 300 13:24 27.12.2019
1847 Clouds 9 1028 81 10000 2.6 310 12:56 27.12.2019
1848 Clouds 9 1028 81 10000 3.1 300 12:37 27.12.2019
1849 Clouds 8 1028 81 10000 3.6 300 12:18 27.12.2019
1850 Clouds 8 1028 81 10000 3.6 300 11:42 27.12.2019
1851 Clouds 8 1027 81 10000 4.1 310 11:20 27.12.2019
1852 Clouds 8 1026 81 10000 3.6 310 10:54 27.12.2019
1853 Clouds 8 1026 81 10000 3.6 310 10:36 27.12.2019
1854 Clouds 8 1026 81 10000 4.6 330 10:18 27.12.2019
1855 Clouds 9 1025 87 10000 6.2 340 09:40 27.12.2019
1856 Clouds 9 1025 87 10000 6.2 340 09:21 27.12.2019
1857 Clouds 9 1024 87 10000 3.1 300 08:55 27.12.2019
1858 Clouds 9 1023 76 10000 4.6 310 08:35 27.12.2019
1859 Clouds 9 1022 87 10000 2.6 290 07:50 27.12.2019
1860 Clouds 9 1022 87 10000 2.6 290 07:31 27.12.2019
1861 Clouds 9 1022 93 10000 3.1 260 06:36 27.12.2019
1862 Rain 9 1021 87 10000 3.6 280 05:28 27.12.2019
1863 Rain 11 1019 93 5000 5.7 260 03:26 27.12.2019
1864 Rain 10 1019 87 10000 6.2 230 02:20 27.12.2019
1865 Rain 10 1020 87 10000 5.7 230 01:37 27.12.2019
1866 Rain 10 1020 87 6000 5.1 240 01:18 27.12.2019
1867 Drizzle 10 1020 87 10000 6.2 240 00:41 27.12.2019
1868 Drizzle 10 1020 87 10000 6.2 240 00:23 27.12.2019
1869 Rain 10 1021 93 10000 5.1 220 23:41 26.12.2019
1870 Rain 10 1021 87 10000 4.1 200 23:22 26.12.2019
1871 Rain 9 1021 87 8000 4.1 200 22:47 26.12.2019
1872 Rain 9 1022 87 8000 3.6 190 22:23 26.12.2019
1873 Rain 9 1022 87 8000 3.6 190 21:59 26.12.2019
1874 Rain 9 1022 87 4800 3.1 200 21:39 26.12.2019
1875 Rain 9 1022 87 6000 5.1 230 21:20 26.12.2019
1876 Rain 9 1022 81 10000 4.6 230 20:46 26.12.2019
1877 Rain 10 1022 87 10000 3.1 220 20:23 26.12.2019
1878 Clouds 10 1022 87 10000 3.1 220 19:59 26.12.2019
1879 Clouds 9 1022 87 10000 3.1 210 19:40 26.12.2019
1880 Clouds 9 1022 87 10000 3.6 220 19:22 26.12.2019
1881 Clouds 9 1022 87 10000 3.6 220 18:58 26.12.2019
1882 Rain 9 1022 87 5000 3.6 210 18:40 26.12.2019
1883 Rain 9 1022 93 10000 2.6 220 18:20 26.12.2019
1884 Rain 10 1022 93 10000 2.6 220 17:58 26.12.2019
1885 Clouds 10 1021 81 10000 3.1 170 17:40 26.12.2019
1886 Clouds 10 1021 76 10000 4.1 200 17:19 26.12.2019
1887 Clouds 10 1021 76 10000 5.1 200 16:46 26.12.2019
1888 Clouds 10 1021 71 10000 4.1 210 16:26 26.12.2019
1889 Clouds 10 1021 71 10000 4.1 210 15:56 26.12.2019
1890 Clouds 10 1021 71 10000 4.1 210 15:56 26.12.2019
1891 Clouds 9 1021 76 10000 3.6 210 15:38 26.12.2019
1892 Clouds 9 1021 76 10000 2.6 210 15:18 26.12.2019
1893 Clouds 9 1021 76 10000 2.6 180 14:41 26.12.2019
1894 Clouds 9 1022 75 10000 3.6 180 14:23 26.12.2019
1895 Clouds 8 1022 75 10000 3.6 190 13:45 26.12.2019
1896 Clouds 8 1022 75 10000 3.6 190 13:24 26.12.2019
1897 Clouds 8 1022 81 10000 4.1 170 12:59 26.12.2019
1898 Clouds 7 1021 81 10000 3.6 160 12:41 26.12.2019
1899 Clouds 6 1022 81 10000 3.6 140 12:23 26.12.2019
1900 Clouds 6 1022 81 10000 3.6 140 11:58 26.12.2019
1901 Clouds 6 1022 81 10000 4.1 140 11:40 26.12.2019
1902 Rain 5 1023 86 10000 3.1 160 11:21 26.12.2019
1903 Clouds 5 1023 80 10000 2.6 160 10:50 26.12.2019
1904 Clouds 5 1023 80 10000 2.6 160 10:25 26.12.2019
1905 Clouds 4 1022 80 10000 4.1 140 09:55 26.12.2019
1906 Clouds 4 1022 80 10000 3.6 120 09:33 26.12.2019
1907 Clouds 4 1022 80 10000 2.6 110 08:59 26.12.2019
1908 Clouds 4 1022 80 10000 2.6 110 08:39 26.12.2019
1909 Clouds 4 1022 80 10000 2.6 110 08:20 26.12.2019
1910 Clouds 3 1022 86 10000 1 0 07:41 26.12.2019
1911 Clouds 3 1022 86 10000 3.1 110 07:19 26.12.2019
1912 Clouds 3 1022 93 10000 2.1 80 06:38 26.12.2019
1913 Clouds 3 1022 93 10000 2.1 80 06:20 26.12.2019
1914 Clouds 3 1023 93 10000 2.6 60 05:42 26.12.2019
1915 Clouds 2 1024 93 10000 2.6 80 04:33 26.12.2019
1916 Clouds 2 1024 93 10000 2.1 60 03:31 26.12.2019
1917 Clouds 2 1025 86 10000 1 0 02:46 26.12.2019
1918 Clouds 2 1025 86 10000 1 0 02:27 26.12.2019
1919 Clouds 2 1025 86 10000 2.1 70 01:44 26.12.2019
1920 Clouds 3 1025 86 10000 1 100 01:25 26.12.2019
1921 Clouds 3 1025 86 10000 1.5 60 00:44 26.12.2019
1922 Clouds 3 1025 86 10000 1.5 60 00:23 26.12.2019
1923 Clouds 3 1025 86 10000 1.5 80 23:57 25.12.2019
1924 Clouds 3 1025 86 10000 2.6 110 23:37 25.12.2019
1925 Clouds 3 1025 86 10000 2.6 110 23:19 25.12.2019
1926 Clouds 3 1026 86 10000 1.5 120 22:56 25.12.2019
1927 Clouds 3 1026 86 10000 2.1 100 22:37 25.12.2019
1928 Clouds 4 1026 80 10000 2.6 80 22:19 25.12.2019
1929 Clouds 4 1026 80 10000 2.6 80 21:57 25.12.2019
1930 Clouds 4 1026 86 10000 2.6 90 21:39 25.12.2019
1931 Clouds 4 1026 80 10000 2.6 80 21:19 25.12.2019
1932 Clouds 5 1026 86 10000 3.6 80 20:41 25.12.2019
1933 Clouds 5 1026 86 10000 3.6 80 20:21 25.12.2019
1934 Clouds 5 1026 86 10000 2.1 70 19:59 25.12.2019
1935 Clouds 5 1026 80 10000 2.6 110 19:41 25.12.2019
1936 Clouds 5 1026 80 10000 2.6 110 19:22 25.12.2019
1937 Clouds 6 1026 81 10000 3.6 70 18:41 25.12.2019
1938 Clouds 7 1026 65 10000 2.6 50 18:21 25.12.2019
1939 Clouds 7 1026 65 10000 2.6 50 17:59 25.12.2019
1940 Clouds 7 1026 65 10000 1.5 40 17:39 25.12.2019
1941 Clear 8 1026 65 10000 1 340 17:18 25.12.2019
1942 Clear 8 1026 65 10000 1 340 16:55 25.12.2019
1943 Clouds 9 1026 66 10000 1 0 16:36 25.12.2019
1944 Clouds 9 1025 66 10000 1.5 0 16:18 25.12.2019
1945 Clouds 9 1025 66 10000 1.5 0 15:56 25.12.2019
1946 Clouds 9 1025 66 10000 2.1 10 15:37 25.12.2019
1947 Clouds 9 1025 61 10000 2.1 350 15:18 25.12.2019
1948 Clouds 10 1025 61 10000 2.1 350 14:55 25.12.2019
1949 Clouds 10 1025 61 10000 1.5 350 14:37 25.12.2019
1950 Clouds 10 1025 66 10000 2.1 340 14:18 25.12.2019
1951 Clouds 10 1025 61 10000 2.6 330 13:42 25.12.2019
1952 Clouds 10 1025 61 10000 2.6 330 13:21 25.12.2019
1953 Clouds 9 1025 66 10000 3.1 290 12:44 25.12.2019
1954 Clouds 9 1025 66 10000 3.1 290 12:22 25.12.2019
1955 Clouds 9 1025 61 10000 3.1 310 11:58 25.12.2019
1956 Clouds 9 1025 57 10000 4.1 320 11:40 25.12.2019
1957 Clouds 8 1025 66 10000 2.6 290 11:21 25.12.2019
1958 Clouds 8 1024 75 10000 2.6 270 10:41 25.12.2019
1959 Clouds 8 1024 75 10000 2.6 270 10:21 25.12.2019
1960 Clouds 8 1023 70 10000 3.6 290 09:59 25.12.2019
1961 Clouds 8 1023 70 10000 3.6 290 09:41 25.12.2019
1962 Clouds 7 1022 76 10000 3.6 310 09:23 25.12.2019
1963 Clouds 8 1022 76 10000 2.6 290 08:44 25.12.2019
1964 Clouds 8 1022 76 10000 2.6 290 08:24 25.12.2019
1965 Rain 8 1021 76 10000 4.6 270 07:45 25.12.2019
1966 Clouds 9 1021 81 10000 4.6 260 07:23 25.12.2019
1967 Rain 9 1021 76 10000 3.6 260 06:41 25.12.2019
1968 Rain 9 1021 76 10000 3.6 260 06:21 25.12.2019
1969 Clouds 9 1020 81 10000 4.6 260 04:49 25.12.2019
1970 Clouds 10 1020 81 10000 5.1 260 04:25 25.12.2019
1971 Clouds 10 1019 87 10000 5.1 240 03:57 25.12.2019
1972 Drizzle 10 1019 87 10000 4.6 250 03:39 25.12.2019
1973 Clouds 10 1018 87 10000 5.7 240 02:32 25.12.2019
1974 Clouds 10 1018 76 10000 6.2 230 01:55 25.12.2019
1975 Clouds 10 1018 87 10000 4.6 260 01:24 25.12.2019
1976 Clouds 10 1018 76 10000 6.2 240 00:48 25.12.2019
1977 Clouds 10 1018 76 10000 6.2 240 00:28 25.12.2019
1978 Clouds 10 1017 76 10000 5.7 240 23:55 24.12.2019
1979 Clouds 10 1017 76 10000 3.1 230 23:37 24.12.2019
1980 Clouds 10 1017 81 10000 5.1 240 23:19 24.12.2019
1981 Clouds 10 1017 81 10000 6.7 250 22:39 24.12.2019
1982 Clouds 10 1017 81 10000 6.2 250 22:20 24.12.2019
1983 Clouds 10 1016 81 10000 5.1 240 21:42 24.12.2019
1984 Clouds 10 1016 81 10000 5.1 240 21:22 24.12.2019
1985 Rain 10 1017 76 10000 5.1 230 20:54 24.12.2019
1986 Rain 10 1016 76 10000 5.1 250 20:36 24.12.2019
1987 Clouds 11 1016 66 10000 6.2 240 20:18 24.12.2019
1988 Clouds 11 1016 66 10000 5.1 230 19:43 24.12.2019
1989 Clouds 11 1016 66 10000 5.1 230 19:19 24.12.2019
1990 Clouds 11 1016 81 10000 4.1 240 18:43 24.12.2019
1991 Clouds 11 1016 81 10000 4.1 240 18:23 24.12.2019
1992 Rain 11 1016 76 10000 4.1 240 17:58 24.12.2019
1993 Clouds 11 1016 71 10000 4.6 260 17:37 24.12.2019
1994 Clouds 11 1016 66 10000 5.7 240 17:19 24.12.2019
1995 Clouds 11 1016 66 10000 5.7 240 16:55 24.12.2019
1996 Clouds 12 1015 62 10000 7.2 250 16:36 24.12.2019
1997 Clouds 12 1015 66 10000 7.7 240 16:18 24.12.2019
1998 Clouds 12 1015 66 10000 7.7 260 15:54 24.12.2019
1999 Clouds 12 1015 62 10000 6.2 250 15:36 24.12.2019
2000 Clouds 12 1015 62 10000 6.2 250 15:18 24.12.2019
2001 Clouds 12 1015 62 10000 6.2 250 14:54 24.12.2019
2002 Clouds 12 1014 62 10000 7.2 250 14:36 24.12.2019
2003 Clouds 13 1014 62 10000 8.2 250 14:18 24.12.2019
2004 Clouds 12 1015 66 10000 7.7 250 13:54 24.12.2019
2005 Clouds 12 1015 66 10000 7.7 250 13:36 24.12.2019
2006 Clouds 12 1014 66 10000 7.2 250 13:18 24.12.2019
2007 Clouds 12 1014 66 10000 7.2 250 12:54 24.12.2019
2008 Clouds 12 1015 76 10000 6.7 260 12:36 24.12.2019
2009 Clouds 12 1015 76 10000 6.7 250 12:18 24.12.2019
2010 Clouds 12 1015 76 10000 6.7 250 11:54 24.12.2019
2011 Clouds 11 1014 76 10000 6.2 250 11:36 24.12.2019
2012 Clouds 11 1014 76 10000 5.1 260 11:18 24.12.2019
2013 Clouds 11 1014 76 10000 5.1 260 10:54 24.12.2019
2014 Clouds 11 1013 81 10000 4.6 250 10:36 24.12.2019
2015 Clouds 11 1013 87 10000 5.7 260 10:18 24.12.2019
2016 Clouds 11 1012 81 10000 5.1 260 09:54 24.12.2019
2017 Clouds 11 1012 81 10000 5.1 260 09:36 24.12.2019
2018 Clouds 11 1012 87 10000 4.6 260 09:18 24.12.2019
2019 Clouds 11 1012 93 10000 3.6 250 08:42 24.12.2019
2020 Clouds 11 1011 100 10000 4.1 230 08:19 24.12.2019
2021 Clouds 11 1011 93 10000 3.1 220 07:44 24.12.2019
2022 Clouds 11 1011 93 10000 3.1 220 07:22 24.12.2019
2023 Drizzle 10 1011 93 10000 4.6 180 06:41 24.12.2019
2024 Drizzle 10 1011 93 10000 4.6 180 06:22 24.12.2019
2025 Drizzle 8 1012 100 5000 5.1 160 05:56 24.12.2019
2026 Drizzle 8 1013 93 5000 4.6 170 05:20 24.12.2019
2027 Drizzle 8 1013 93 7000 6.2 160 04:22 24.12.2019
2028 Clouds 8 1014 93 10000 5.7 160 03:50 24.12.2019
2029 Drizzle 7 1014 93 10000 5.7 160 02:59 24.12.2019
2030 Rain 7 1015 87 10000 3.6 180 02:18 24.12.2019
2031 Rain 8 1016 81 10000 4.6 180 01:42 24.12.2019
2032 Rain 8 1016 81 10000 4.6 180 01:19 24.12.2019
2033 Rain 8 1017 76 10000 4.6 190 00:41 24.12.2019
2034 Rain 8 1017 76 10000 4.6 190 00:22 24.12.2019
2035 Rain 8 1017 70 10000 3.6 190 23:55 23.12.2019
2036 Rain 8 1017 70 10000 3.6 190 23:37 23.12.2019
2037 Clouds 8 1017 70 10000 4.1 200 23:19 23.12.2019
2038 Clouds 8 1017 70 10000 4.1 210 22:54 23.12.2019
2039 Clouds 8 1017 70 10000 4.1 210 22:36 23.12.2019
2040 Clouds 8 1017 70 10000 5.1 210 22:18 23.12.2019
2041 Clouds 8 1018 70 10000 4.1 220 21:54 23.12.2019
2042 Clouds 8 1018 70 10000 4.1 220 21:36 23.12.2019
2043 Clouds 8 1018 75 10000 3.6 230 21:18 23.12.2019
2044 Clouds 8 1018 75 10000 3.6 230 20:55 23.12.2019
2045 Clouds 8 1018 75 10000 3.6 230 20:37 23.12.2019
2046 Clouds 9 1017 71 10000 5.1 220 20:18 23.12.2019
2047 Clouds 9 1017 71 10000 5.1 220 19:54 23.12.2019
2048 Clouds 9 1017 71 10000 4.6 230 19:36 23.12.2019
2049 Clouds 9 1017 71 10000 4.6 230 19:18 23.12.2019
2050 Clouds 9 1017 71 10000 4.6 230 18:54 23.12.2019
2051 Clouds 9 1017 71 10000 4.6 230 18:36 23.12.2019
2052 Clouds 9 1017 71 10000 6.2 230 18:18 23.12.2019
2053 Clouds 9 1016 71 10000 4.6 230 17:55 23.12.2019
2054 Clouds 9 1016 71 10000 4.6 230 17:37 23.12.2019
2055 Clouds 9 1016 71 10000 4.6 230 17:18 23.12.2019
2056 Clouds 10 1016 71 10000 6.2 240 16:42 23.12.2019
2057 Clouds 10 1016 76 10000 4.6 240 16:19 23.12.2019
2058 Clouds 10 1016 76 10000 4.6 240 15:58 23.12.2019
2059 Clouds 10 1016 71 10000 5.1 260 15:37 23.12.2019
2060 Clouds 10 1015 71 10000 5.7 240 15:19 23.12.2019
2061 Clouds 10 1014 71 10000 6.2 250 14:58 23.12.2019
2062 Clouds 10 1014 71 10000 6.2 250 14:39 23.12.2019
2063 Clouds 10 1014 71 10000 6.2 250 14:21 23.12.2019
2064 Clouds 10 1014 71 10000 7.2 250 13:58 23.12.2019
2065 Clouds 10 1014 71 10000 7.2 250 13:40 23.12.2019
2066 Clouds 10 1014 76 10000 6.7 250 13:21 23.12.2019
2067 Clouds 10 1014 76 10000 6.7 250 12:56 23.12.2019
2068 Clouds 10 1013 76 10000 6.2 260 12:37 23.12.2019
2069 Clouds 10 1013 76 10000 6.2 250 12:19 23.12.2019
2070 Clouds 9 1013 76 10000 6.7 250 11:44 23.12.2019
2071 Clouds 9 1013 76 10000 6.7 250 11:25 23.12.2019
2072 Clouds 9 1012 81 10000 5.7 260 10:57 23.12.2019
2073 Clouds 9 1012 81 10000 5.7 260 10:57 23.12.2019
2074 Rain 9 1012 81 10000 4.6 250 10:39 23.12.2019
2075 Rain 8 1011 81 10000 5.1 260 10:20 23.12.2019
2076 Rain 8 1011 81 10000 5.1 260 09:59 23.12.2019
2077 Rain 8 1011 81 10000 5.7 250 09:39 23.12.2019
2078 Rain 8 1011 81 10000 5.7 250 09:20 23.12.2019
2079 Rain 8 1010 81 10000 4.1 260 08:56 23.12.2019
2080 Rain 8 1009 81 10000 5.1 250 08:38 23.12.2019
2081 Rain 8 1009 81 10000 5.1 250 08:19 23.12.2019
2082 Rain 8 1008 81 10000 5.7 250 07:43 23.12.2019
2083 Rain 8 1008 81 10000 5.7 250 07:20 23.12.2019
2084 Rain 8 1006 76 10000 5.7 240 06:52 23.12.2019
2085 Rain 8 1006 76 10000 6.7 240 06:25 23.12.2019
2086 Clouds 8 1006 76 10000 6.2 240 05:50 23.12.2019
2087 Clouds 8 1005 76 10000 7.2 230 05:27 23.12.2019
2088 Clouds 8 1005 76 10000 7.2 240 04:31 23.12.2019
2089 Clouds 8 1004 76 10000 6.7 230 02:58 23.12.2019
2090 Clouds 8 1003 76 10000 6.7 230 02:40 23.12.2019
2091 Clouds 8 1003 76 10000 6.7 240 02:18 23.12.2019
2092 Clouds 8 1003 76 10000 6.7 240 02:18 23.12.2019
2093 Clouds 8 1002 76 10000 6.7 240 01:41 23.12.2019
2094 Clouds 8 1002 76 10000 7.2 240 01:19 23.12.2019
2095 Clouds 8 1002 76 10000 6.7 240 00:43 23.12.2019
2096 Clouds 8 1001 76 10000 7.2 240 00:21 23.12.2019
2097 Clouds 8 1000 70 10000 6.7 240 23:39 22.12.2019
2098 Clouds 8 1000 70 10000 6.7 240 23:21 22.12.2019
2099 Clouds 7 1000 70 10000 7.7 240 22:58 22.12.2019
2100 Clouds 7 999 75 10000 6.2 230 22:39 22.12.2019
2101 Clouds 7 999 75 10000 6.2 230 22:19 22.12.2019
2102 Clouds 7 999 81 10000 5.1 240 21:57 22.12.2019
2103 Clouds 7 998 75 10000 5.7 240 21:39 22.12.2019
2104 Clouds 7 998 75 10000 6.7 230 21:21 22.12.2019
2105 Clouds 7 998 81 10000 4.6 240 20:58 22.12.2019
2106 Clouds 7 998 81 10000 4.6 240 20:38 22.12.2019
2107 Clouds 7 997 87 10000 2.1 240 20:18 22.12.2019
2108 Rain 8 997 81 10000 4.6 280 19:56 22.12.2019
2109 Rain 8 997 81 10000 4.6 280 19:37 22.12.2019
2110 Rain 8 997 81 10000 4.6 280 19:19 22.12.2019
2111 Rain 8 995 66 10000 7.2 230 18:41 22.12.2019
2112 Rain 9 995 66 10000 7.2 230 18:23 22.12.2019
2113 Rain 9 995 66 10000 7.2 230 17:56 22.12.2019
2114 Clouds 9 994 66 10000 6.2 240 17:37 22.12.2019
2115 Clouds 9 994 71 10000 6.2 240 17:19 22.12.2019
2116 Clouds 9 994 71 10000 6.2 240 17:19 22.12.2019
2117 Clouds 9 994 71 10000 6.2 240 16:57 22.12.2019
2118 Clouds 9 993 76 10000 5.1 250 16:38 22.12.2019
2119 Clouds 10 993 71 10000 5.7 240 16:20 22.12.2019
2120 Clouds 10 993 71 10000 5.7 240 15:56 22.12.2019
2121 Clouds 10 993 71 10000 8.7 250 15:37 22.12.2019
2122 Clouds 10 993 76 10000 7.7 260 15:19 22.12.2019
2123 Clouds 10 993 76 10000 7.7 260 14:55 22.12.2019
2124 Clouds 10 992 71 10000 8.2 250 14:36 22.12.2019
2125 Clouds 10 992 71 10000 7.7 240 14:18 22.12.2019
2126 Rain 10 992 76 10000 8.2 240 13:55 22.12.2019
2127 Rain 10 992 76 10000 8.2 240 13:36 22.12.2019
2128 Rain 10 991 76 10000 8.2 250 13:18 22.12.2019
2129 Rain 10 991 76 10000 8.2 250 13:18 22.12.2019
2130 Rain 10 991 76 10000 8.2 250 13:18 22.12.2019
2131 Rain 10 991 76 10000 8.2 250 12:55 22.12.2019
2132 Rain 10 991 71 10000 8.7 240 12:37 22.12.2019
2133 Clouds 9 990 76 10000 7.2 250 12:18 22.12.2019
2134 Clouds 9 990 76 10000 7.2 250 12:18 22.12.2019
2135 Clouds 9 990 76 10000 7.2 250 11:55 22.12.2019
2136 Clouds 9 990 71 10000 7.7 250 11:36 22.12.2019
2137 Clouds 9 989 76 10000 7.7 250 11:18 22.12.2019
2138 Drizzle 9 988 87 10000 6.7 250 10:54 22.12.2019
2139 Drizzle 9 988 87 10000 6.7 250 10:36 22.12.2019
2140 Clouds 9 987 87 10000 7.7 250 10:18 22.12.2019
2141 Clouds 9 987 87 10000 7.7 250 09:56 22.12.2019
2142 Rain 9 986 87 10000 7.7 260 09:37 22.12.2019
2143 Rain 9 985 81 10000 7.2 250 09:19 22.12.2019
2144 Rain 9 984 93 10000 6.7 250 08:39 22.12.2019
2145 Clouds 9 984 93 10000 6.7 250 08:21 22.12.2019
2146 Drizzle 9 982 93 10000 5.1 240 07:40 22.12.2019
2147 Rain 9 981 93 10000 4.1 230 07:21 22.12.2019
2148 Clouds 9 980 87 10000 4.1 220 06:41 22.12.2019
2149 Drizzle 9 980 93 6000 4.1 230 05:56 22.12.2019
2150 Clouds 9 978 87 10000 5.7 210 05:24 22.12.2019
2151 Rain 9 978 87 10000 5.1 230 04:31 22.12.2019
2152 Rain 9 977 87 7000 3.6 200 03:58 22.12.2019
2153 Clouds 9 977 87 10000 8.2 180 02:43 22.12.2019
2154 Clouds 9 977 87 10000 8.2 180 02:43 22.12.2019
2155 Clouds 9 977 87 10000 8.2 180 02:43 22.12.2019
2156 Rain 9 978 87 10000 8.2 170 01:57 22.12.2019
2157 Clouds 9 978 87 10000 8.7 180 01:31 22.12.2019
2158 Rain 9 979 93 5000 8.2 170 00:48 22.12.2019
2159 Rain 9 979 93 5000 8.2 170 00:28 22.12.2019
2160 Clouds 9 979 87 10000 5.7 170 23:59 21.12.2019
2161 Rain 9 980 87 10000 5.7 190 23:40 21.12.2019
2162 Clouds 9 980 87 10000 5.7 200 23:20 21.12.2019
2163 Clouds 9 980 87 10000 4.6 210 22:46 21.12.2019
2164 Clouds 9 980 81 10000 5.7 220 22:20 21.12.2019
2165 Clouds 9 980 76 10000 6.7 200 21:58 21.12.2019
2166 Clouds 9 979 81 10000 8.2 180 21:40 21.12.2019
2167 Clouds 9 980 87 10000 8.7 180 21:21 21.12.2019
2168 Clouds 8 980 81 10000 8.2 160 20:59 21.12.2019
2169 Clouds 8 980 81 10000 8.2 160 20:41 21.12.2019
2170 Clouds 8 980 81 10000 8.2 160 20:22 21.12.2019
2171 Rain 8 981 81 10000 7.7 140 19:59 21.12.2019
2172 Rain 8 981 81 10000 7.7 140 19:41 21.12.2019
2173 Rain 8 981 81 10000 7.7 140 19:41 21.12.2019
2174 Rain 8 982 81 10000 7.2 150 19:20 21.12.2019
2175 Rain 9 982 76 10000 7.2 150 18:59 21.12.2019
2176 Rain 9 982 76 10000 7.2 150 18:40 21.12.2019
2177 Clouds 9 983 76 10000 7.7 150 18:22 21.12.2019
2178 Clouds 10 984 76 10000 8.2 160 17:55 21.12.2019
2179 Clouds 10 984 76 10000 8.2 160 17:37 21.12.2019
2180 Clouds 10 984 76 10000 8.2 160 17:18 21.12.2019
2181 Clouds 10 984 76 10000 8.2 160 16:54 21.12.2019
2182 Clouds 10 985 87 10000 6.7 180 16:36 21.12.2019
2183 Clouds 10 985 87 10000 6.7 180 16:36 21.12.2019
2184 Clouds 10 986 87 10000 5.7 170 16:18 21.12.2019
2185 Clouds 10 986 87 10000 5.1 180 15:55 21.12.2019
2186 Clouds 10 987 81 10000 5.7 190 15:36 21.12.2019
2187 Clouds 10 987 81 10000 6.2 200 15:18 21.12.2019
2188 Clouds 10 988 71 10000 6.2 180 14:41 21.12.2019
2189 Clouds 10 988 71 10000 6.2 180 14:22 21.12.2019
2190 Clouds 10 988 71 10000 7.2 190 13:58 21.12.2019
2191 Clouds 10 988 71 10000 7.2 190 13:58 21.12.2019
2192 Clouds 10 989 71 10000 7.2 180 13:39 21.12.2019
2193 Clouds 10 989 76 10000 6.7 190 13:19 21.12.2019
2194 Clouds 10 990 81 10000 6.7 180 12:56 21.12.2019
2195 Clouds 10 990 81 10000 6.7 180 12:38 21.12.2019
2196 Clouds 9 990 81 10000 6.7 180 12:20 21.12.2019
2197 Clouds 9 991 81 10000 6.7 200 11:46 21.12.2019
2198 Clouds 9 991 81 10000 6.7 200 11:27 21.12.2019
2199 Clouds 8 991 87 10000 5.1 190 10:59 21.12.2019
2200 Clouds 8 991 87 10000 5.1 190 10:40 21.12.2019
2201 Clouds 8 991 81 10000 5.1 190 10:21 21.12.2019
2202 Clouds 7 991 81 10000 4.6 190 09:58 21.12.2019
2203 Clouds 7 991 81 10000 4.6 190 09:39 21.12.2019
2204 Clouds 7 991 81 10000 4.6 190 09:39 21.12.2019
2205 Clouds 7 991 81 10000 4.6 200 09:19 21.12.2019
2206 Clouds 7 991 81 10000 5.1 200 08:47 21.12.2019
2207 Clouds 7 991 81 10000 5.7 210 08:27 21.12.2019
2208 Clouds 7 991 87 10000 5.1 190 07:47 21.12.2019
2209 Clouds 7 991 87 10000 5.1 190 07:23 21.12.2019
2210 Clouds 7 991 81 10000 6.2 200 06:58 21.12.2019
2211 Clouds 7 990 81 10000 5.1 190 06:40 21.12.2019
2212 Rain 7 990 87 10000 5.1 190 06:21 21.12.2019
2213 Clouds 7 990 81 10000 5.1 180 05:25 21.12.2019
2214 Clouds 7 991 81 10000 4.6 170 04:34 21.12.2019
2215 Clouds 7 991 87 10000 3.6 150 03:56 21.12.2019
2216 Clouds 7 991 87 10000 4.6 160 02:25 21.12.2019
2217 Clouds 7 991 87 10000 5.1 190 01:48 21.12.2019
2218 Clouds 7 991 87 10000 5.1 190 01:25 21.12.2019
2219 Clouds 7 991 81 10000 5.1 190 00:45 21.12.2019
2220 Clouds 8 991 81 10000 5.7 200 00:26 21.12.2019
2221 Clouds 8 991 81 10000 4.6 190 23:39 20.12.2019
2222 Clouds 8 991 81 10000 4.6 190 23:39 20.12.2019
2223 Clouds 8 991 81 10000 6.7 190 23:21 20.12.2019
2224 Clouds 8 991 81 10000 6.7 190 22:59 20.12.2019
2225 Clouds 8 991 81 10000 5.7 190 22:39 20.12.2019
2226 Clouds 8 991 81 10000 5.7 180 22:19 20.12.2019
2227 Clouds 8 991 81 10000 5.7 180 21:54 20.12.2019
2228 Clouds 9 991 76 10000 6.7 180 21:36 20.12.2019
2229 Clouds 9 991 76 10000 7.2 190 21:18 20.12.2019
2230 Clouds 9 991 76 10000 7.2 190 21:18 20.12.2019
2231 Clouds 9 991 76 10000 7.2 190 21:18 20.12.2019
2232 Clouds 9 991 81 10000 5.7 180 20:39 20.12.2019
2233 Clouds 8 990 81 10000 5.7 180 20:19 20.12.2019
2234 Clouds 8 990 81 10000 5.7 180 19:57 20.12.2019
2235 Clouds 8 990 76 10000 6.2 180 19:38 20.12.2019
2236 Clouds 8 990 76 10000 5.7 190 19:19 20.12.2019
2237 Clear 8 990 76 10000 5.1 190 18:42 20.12.2019
2238 Clear 8 990 76 10000 5.1 190 18:23 20.12.2019
2239 Clear 8 990 70 10000 4.6 190 17:58 20.12.2019
2240 Clear 8 990 70 10000 3.6 220 17:40 20.12.2019
2241 Clouds 8 990 70 10000 3.6 220 17:20 20.12.2019
2242 Rain 9 989 71 10000 9.3 240 16:59 20.12.2019
2243 Rain 9 989 71 10000 9.3 240 16:59 20.12.2019
2244 Rain 9 988 62 10000 6.7 220 16:38 20.12.2019
2245 Rain 9 988 62 10000 6.7 220 16:20 20.12.2019
2246 Rain 9 988 62 10000 6.7 220 16:20 20.12.2019
2247 Rain 10 988 62 10000 8.7 220 15:56 20.12.2019
2248 Clouds 10 987 58 10000 8.7 230 15:38 20.12.2019
2249 Clouds 11 987 58 10000 8.7 230 15:19 20.12.2019
2250 Clouds 11 986 66 10000 9.3 230 14:43 20.12.2019
2251 Clouds 11 986 66 10000 9.3 230 14:25 20.12.2019
2252 Clouds 11 987 66 10000 10.3 230 13:59 20.12.2019
2253 Clouds 11 987 76 10000 7.7 240 13:41 20.12.2019
2254 Clouds 11 987 76 10000 7.7 240 13:20 20.12.2019
2255 Clouds 11 987 81 10000 7.2 230 12:57 20.12.2019
2256 Clouds 11 986 76 10000 8.2 220 12:37 20.12.2019
2257 Clouds 11 986 76 10000 8.2 220 12:19 20.12.2019
2258 Clouds 11 985 76 10000 8.7 220 11:58 20.12.2019
2259 Clouds 11 985 76 10000 8.7 220 11:39 20.12.2019
2260 Clouds 11 985 81 10000 6.7 210 11:19 20.12.2019
2261 Rain 11 984 81 10000 7.2 210 10:57 20.12.2019
2262 Rain 11 984 81 10000 7.2 210 10:57 20.12.2019
2263 Rain 11 984 81 10000 7.7 210 10:38 20.12.2019
2264 Rain 11 984 81 10000 7.7 210 10:20 20.12.2019
2265 Clouds 12 983 82 10000 7.7 200 09:44 20.12.2019
2266 Rain 12 983 82 10000 10.3 190 09:22 20.12.2019
2267 Rain 12 982 82 10000 10.8 160 08:59 20.12.2019
2268 Rain 12 982 93 10000 10.8 160 08:41 20.12.2019
2269 Rain 12 982 93 10000 10.8 160 08:22 20.12.2019
2270 Rain 12 982 87 7000 7.7 150 07:58 20.12.2019
2271 Rain 11 983 87 6000 9.3 150 07:39 20.12.2019
2272 Rain 11 983 87 6000 9.3 150 07:18 20.12.2019
2273 Rain 11 983 87 7000 9.8 140 06:48 20.12.2019
2274 Rain 11 983 87 7000 9.8 140 06:48 20.12.2019
2275 Rain 11 984 87 9000 9.8 140 06:30 20.12.2019
2276 Rain 11 985 87 10000 8.2 130 05:49 20.12.2019
2277 Rain 11 986 93 8000 7.7 130 05:25 20.12.2019
2278 Rain 11 988 81 10000 5.1 120 03:50 20.12.2019
2279 Rain 11 989 81 9000 4.1 130 03:29 20.12.2019
2280 Rain 11 991 81 10000 3.6 140 02:38 20.12.2019
2281 Rain 12 992 76 10000 5.7 140 01:36 20.12.2019
2282 Rain 12 993 76 10000 5.7 140 00:59 20.12.2019
2283 Clouds 12 993 76 10000 5.7 140 00:40 20.12.2019
2284 Clouds 12 994 76 10000 4.6 140 23:59 19.12.2019
2285 Clouds 12 994 76 10000 4.6 140 23:40 19.12.2019
2286 Rain 13 995 76 10000 4.1 150 23:22 19.12.2019
2287 Rain 13 996 76 10000 5.7 160 22:56 19.12.2019
2288 Rain 13 996 71 10000 6.2 150 22:36 19.12.2019
2289 Rain 13 996 71 10000 6.2 150 22:18 19.12.2019
2290 Rain 13 996 71 10000 6.2 150 22:18 19.12.2019
2291 Clouds 13 997 76 10000 5.1 150 21:42 19.12.2019
2292 Clouds 13 997 76 10000 5.1 150 21:20 19.12.2019
2293 Clouds 13 997 76 10000 5.1 150 20:58 19.12.2019
2294 Clouds 13 998 76 10000 4.1 130 20:38 19.12.2019
2295 Clouds 13 998 76 10000 4.1 130 20:20 19.12.2019
2296 Clouds 13 998 76 10000 4.1 130 20:20 19.12.2019
2297 Clouds 13 998 81 10000 4.1 130 19:59 19.12.2019
2298 Clouds 12 999 76 10000 4.1 130 19:40 19.12.2019
2299 Clouds 13 999 76 10000 4.1 130 19:20 19.12.2019
2300 Clouds 13 999 81 10000 5.1 130 19:00 19.12.2019
2301 Clouds 13 1000 76 10000 5.1 140 18:40 19.12.2019
2302 Clouds 13 1000 76 10000 5.1 140 18:20 19.12.2019
2303 Clouds 13 1000 71 10000 5.1 150 17:57 19.12.2019
2304 Clouds 13 1000 71 10000 5.1 140 17:38 19.12.2019
2305 Clouds 13 1000 71 10000 5.1 140 17:38 19.12.2019
2306 Clouds 13 1000 71 10000 5.1 140 17:38 19.12.2019
2307 Rain 13 1000 71 10000 5.1 140 17:19 19.12.2019
2308 Rain 14 1001 71 10000 4.6 140 16:57 19.12.2019
2309 Rain 14 1001 71 10000 4.6 150 16:38 19.12.2019
2310 Rain 14 1001 71 10000 4.6 150 16:20 19.12.2019
2311 Rain 14 1001 71 10000 5.1 150 15:58 19.12.2019
2312 Rain 14 1001 71 10000 5.1 150 15:39 19.12.2019
2313 Rain 14 1001 71 10000 6.7 140 15:19 19.12.2019
2314 Rain 14 1002 76 10000 5.7 140 14:58 19.12.2019
2315 Rain 13 1002 76 10000 6.7 130 14:40 19.12.2019
2316 Rain 13 1002 76 10000 6.7 130 14:18 19.12.2019
2317 Rain 13 1004 76 10000 6.2 140 13:54 19.12.2019
2318 Rain 13 1004 76 10000 5.7 140 13:36 19.12.2019
2319 Rain 13 1004 76 10000 5.7 140 13:18 19.12.2019
2320 Rain 13 1004 76 10000 5.1 130 12:54 19.12.2019
2321 Rain 13 1005 76 10000 3.6 130 12:36 19.12.2019
2322 Rain 13 1005 76 10000 3.6 130 12:18 19.12.2019
2323 Rain 13 1005 76 10000 3.6 130 12:18 19.12.2019
2324 Rain 13 1005 76 10000 3.6 130 12:18 19.12.2019
2325 Rain 13 1005 76 10000 3.6 130 12:18 19.12.2019
2326 Rain 12 1006 81 10000 3.1 150 11:42 19.12.2019
2327 Clouds 12 1006 76 10000 3.6 160 11:20 19.12.2019
2328 Clouds 12 1006 76 10000 3.6 160 10:59 19.12.2019
2329 Clouds 12 1006 76 10000 5.1 160 10:38 19.12.2019
2330 Clouds 12 1006 76 10000 5.1 160 10:20 19.12.2019
2331 Clouds 12 1006 76 10000 4.1 170 09:57 19.12.2019
2332 Clouds 12 1006 76 10000 4.1 160 09:38 19.12.2019
2333 Clouds 11 1006 81 10000 4.1 160 09:19 19.12.2019
2334 Clouds 11 1006 81 10000 4.1 160 08:55 19.12.2019
2335 Clouds 11 1006 81 10000 4.1 160 08:55 19.12.2019
2336 Clouds 11 1007 76 10000 3.6 150 08:37 19.12.2019
2337 Clouds 11 1007 76 10000 3.6 150 08:18 19.12.2019
2338 Clouds 11 1007 81 10000 2.6 150 07:54 19.12.2019
2339 Clouds 10 1007 81 10000 3.6 140 07:36 19.12.2019
2340 Clouds 10 1007 81 10000 3.6 140 07:18 19.12.2019
2341 Clouds 10 1007 81 10000 4.1 140 06:42 19.12.2019
2342 Clouds 10 1007 81 10000 4.1 140 06:24 19.12.2019
2343 Clouds 10 1007 81 10000 4.6 140 05:47 19.12.2019
2344 Clouds 10 1008 87 10000 2.6 120 05:27 19.12.2019
2345 Clouds 10 1009 81 10000 2.6 130 03:58 19.12.2019
2346 Clouds 10 1009 81 10000 4.1 140 02:30 19.12.2019
2347 Clouds 10 1009 87 10000 4.1 150 01:43 19.12.2019
2348 Clear 10 1010 87 10000 4.6 150 01:21 19.12.2019
2349 Clear 10 1010 81 10000 4.1 150 00:39 19.12.2019
2350 Clear 10 1010 81 10000 4.1 150 00:19 19.12.2019
2351 Clear 10 1010 81 10000 5.1 150 23:45 18.12.2019
2352 Clear 10 1010 87 10000 4.6 150 23:19 18.12.2019
2353 Clear 10 1010 87 10000 4.1 150 22:58 18.12.2019
2354 Clear 9 1010 87 10000 4.1 140 22:40 18.12.2019
2355 Clear 10 1010 87 10000 4.1 140 22:22 18.12.2019
2356 Clouds 9 1011 87 10000 2.6 160 21:59 18.12.2019
2357 Clear 10 1011 93 10000 4.1 150 21:41 18.12.2019
2358 Clear 9 1011 93 10000 4.1 150 21:21 18.12.2019
2359 Clear 9 1011 93 10000 4.1 150 21:21 18.12.2019
2360 Clear 10 1011 87 10000 5.1 150 20:58 18.12.2019
2361 Clear 10 1011 87 10000 5.1 140 20:39 18.12.2019
2362 Clouds 9 1011 100 10000 4.6 150 20:20 18.12.2019
2363 Clouds 9 1011 87 10000 4.6 140 19:57 18.12.2019
2364 Clouds 9 1011 87 10000 5.7 140 19:39 18.12.2019
2365 Clouds 9 1011 87 10000 5.7 140 19:19 18.12.2019
2366 Clouds 9 1011 87 10000 4.6 140 18:59 18.12.2019
2367 Clouds 9 1011 87 10000 4.6 140 18:41 18.12.2019
2368 Clouds 9 1011 87 10000 5.1 140 18:22 18.12.2019
2369 Clouds 10 1012 81 10000 3.6 140 17:56 18.12.2019
2370 Clouds 10 1012 81 10000 4.6 130 17:38 18.12.2019
2371 Clouds 10 1012 81 10000 4.6 130 17:19 18.12.2019
2372 Clouds 10 1012 76 10000 4.6 130 16:43 18.12.2019
2373 Clouds 10 1012 76 10000 4.6 130 16:43 18.12.2019
2374 Clouds 11 1012 76 10000 4.6 130 16:24 18.12.2019
2375 Clouds 11 1011 81 10000 4.6 130 15:59 18.12.2019
2376 Clouds 11 1012 71 10000 5.7 120 15:40 18.12.2019
2377 Clouds 11 1013 62 10000 5.7 130 15:21 18.12.2019
2378 Clouds 11 1013 71 10000 5.1 130 14:59 18.12.2019
2379 Clouds 11 1013 71 10000 5.1 130 14:40 18.12.2019
2380 Clouds 10 1014 71 10000 5.1 130 14:20 18.12.2019
2381 Clouds 10 1014 71 10000 5.1 130 13:56 18.12.2019
2382 Clouds 10 1014 76 10000 4.1 150 13:37 18.12.2019
2383 Clouds 9 1014 76 10000 4.1 150 13:19 18.12.2019
2384 Clouds 9 1015 81 10000 4.1 140 12:57 18.12.2019
2385 Clouds 8 1015 81 10000 2.6 130 12:37 18.12.2019
2386 Clouds 8 1015 81 10000 2.6 130 12:19 18.12.2019
2387 Clouds 7 1016 93 10000 4.1 150 11:55 18.12.2019
2388 Clouds 7 1016 93 10000 4.1 150 11:37 18.12.2019
2389 Clouds 6 1015 100 10000 2.6 150 11:18 18.12.2019
2390 Clouds 6 1015 100 10000 2.6 150 10:55 18.12.2019
2391 Clouds 5 1015 100 10000 2.6 150 10:37 18.12.2019
2392 Clouds 5 1016 100 7000 2.1 110 10:18 18.12.2019
2393 Clouds 5 1015 93 10000 2.6 150 09:42 18.12.2019
2394 Clouds 5 1015 93 8000 2.6 140 09:18 18.12.2019
2395 Clouds 5 1015 100 9000 1.5 0 08:40 18.12.2019
2396 Clouds 5 1015 93 10000 2.6 170 08:21 18.12.2019
2397 Clouds 5 1014 93 10000 3.1 140 07:43 18.12.2019
2398 Clouds 5 1014 93 10000 3.1 140 07:22 18.12.2019
2399 Clouds 5 1014 93 10000 2.1 120 06:55 18.12.2019
2400 Clouds 5 1014 93 10000 2.1 120 06:27 18.12.2019
2401 Clouds 6 1014 87 10000 1 0 05:44 18.12.2019
2402 Clouds 6 1013 87 10000 3.1 180 04:52 18.12.2019
2403 Clouds 7 1013 81 10000 2.6 210 02:55 18.12.2019
2404 Clouds 7 1012 81 10000 3.1 220 02:36 18.12.2019
2405 Clouds 7 1012 93 10000 3.1 220 02:18 18.12.2019
2406 Clouds 7 1012 87 10000 2.6 210 01:40 18.12.2019
2407 Rain 7 1011 81 10000 2.6 230 01:21 18.12.2019
2408 Rain 7 1011 87 10000 2.6 210 00:40 18.12.2019
2409 Rain 8 1010 81 10000 3.6 230 00:22 18.12.2019
2410 Rain 8 1010 81 10000 3.6 230 23:56 17.12.2019
2411 Rain 8 1010 81 10000 4.1 220 23:38 17.12.2019
2412 Rain 8 1009 81 10000 4.1 240 23:18 17.12.2019
2413 Rain 8 1009 81 10000 4.1 240 22:56 17.12.2019
2414 Rain 8 1009 87 10000 3.1 240 22:37 17.12.2019
2415 Rain 8 1008 87 10000 2.1 210 22:18 17.12.2019
2416 Rain 8 1008 87 10000 2.1 210 21:55 17.12.2019
2417 Clouds 8 1007 81 10000 2.6 210 21:37 17.12.2019
2418 Clouds 8 1007 87 10000 3.1 260 21:19 17.12.2019
2419 Clouds 9 1007 87 10000 3.1 260 20:56 17.12.2019
2420 Clouds 9 1007 87 10000 3.1 270 20:38 17.12.2019
2421 Clouds 9 1006 81 10000 2.6 270 20:18 17.12.2019
2422 Clouds 9 1006 81 10000 2.6 270 19:55 17.12.2019
2423 Rain 9 1005 81 10000 3.6 260 19:37 17.12.2019
2424 Clouds 10 1005 81 10000 4.1 270 19:18 17.12.2019
2425 Drizzle 10 1004 87 10000 3.1 280 18:42 17.12.2019
2426 Drizzle 10 1004 87 10000 3.1 280 18:42 17.12.2019
2427 Drizzle 10 1004 87 10000 3.1 280 18:22 17.12.2019
2428 Drizzle 11 1003 87 10000 3.1 280 17:59 17.12.2019
2429 Rain 11 1003 71 10000 4.6 220 17:41 17.12.2019
2430 Rain 11 1003 71 10000 4.6 220 17:41 17.12.2019
2431 Clouds 12 1002 71 10000 5.1 210 17:19 17.12.2019
2432 Clouds 12 1002 71 10000 5.7 200 16:56 17.12.2019
2433 Clouds 13 1002 71 10000 5.7 200 16:38 17.12.2019
2434 Clouds 13 1002 71 10000 5.7 200 16:19 17.12.2019
2435 Clouds 14 1002 67 10000 6.7 200 15:58 17.12.2019
2436 Rain 14 1002 67 10000 6.2 210 15:37 17.12.2019
2437 Clouds 14 1001 67 10000 5.7 200 15:19 17.12.2019
2438 Clouds 14 1001 67 10000 5.7 200 14:55 17.12.2019
2439 Rain 14 1001 63 10000 5.7 190 14:55 17.12.2019
2440 Rain 14 1001 63 10000 5.7 190 14:37 17.12.2019
2441 Clouds 14 1001 67 10000 6.7 180 14:18 17.12.2019
2442 Clouds 14 1001 63 10000 5.7 190 14:18 17.12.2019
2443 Clouds 15 1001 67 10000 6.7 180 13:56 17.12.2019
2444 Clouds 15 1001 67 10000 6.7 180 13:37 17.12.2019
2445 Rain 15 1001 67 10000 6.7 180 13:18 17.12.2019
2446 Rain 15 1001 67 10000 6.7 180 12:55 17.12.2019
2447 Rain 14 1001 67 10000 6.2 180 12:37 17.12.2019
2448 Rain 14 1001 67 10000 6.2 170 12:18 17.12.2019
2449 Rain 14 1001 67 10000 6.2 170 11:54 17.12.2019
2450 Rain 14 1001 71 10000 6.2 160 11:36 17.12.2019
2451 Clouds 13 1001 71 10000 3.6 170 11:18 17.12.2019
2452 Clouds 13 1000 76 10000 3.1 170 10:55 17.12.2019
2453 Clouds 12 1000 76 10000 3.1 170 10:36 17.12.2019
2454 Clouds 12 1000 71 10000 2.6 180 10:18 17.12.2019
2455 Clouds 12 1000 71 10000 4.1 170 09:42 17.12.2019
2456 Clouds 12 1000 71 10000 4.1 170 09:21 17.12.2019
2457 Clouds 12 999 76 10000 4.1 170 08:58 17.12.2019
2458 Clouds 11 999 81 10000 3.6 160 08:39 17.12.2019
2459 Clouds 11 998 81 10000 3.1 160 08:21 17.12.2019
2460 Clouds 11 998 81 10000 3.1 160 07:57 17.12.2019
2461 Clouds 11 998 81 10000 3.6 150 07:39 17.12.2019
2462 Clouds 11 998 81 10000 3.6 140 07:19 17.12.2019
2463 Clouds 10 998 81 10000 3.6 130 06:41 17.12.2019
2464 Clouds 10 998 81 10000 3.6 150 06:22 17.12.2019
2465 Clouds 10 998 81 10000 4.1 150 05:40 17.12.2019
2466 Clouds 10 998 81 10000 4.1 160 04:48 17.12.2019
2467 Clouds 10 998 81 10000 4.6 160 03:31 17.12.2019
2468 Clouds 9 998 87 10000 3.96 167 02:22 17.12.2019
2469 Clouds 9 998 87 10000 1 0 01:21 17.12.2019
2470 Clouds 9 998 93 10000 2.6 120 00:39 17.12.2019
2471 Clouds 8 998 87 10000 1.5 110 00:21 17.12.2019
2472 Clouds 8 998 93 10000 1 0 23:43 16.12.2019
2473 Clouds 8 998 93 10000 1.5 60 23:20 16.12.2019
2474 Clouds 8 998 93 10000 1.5 80 22:58 16.12.2019
2475 Clouds 8 998 93 10000 1.5 80 22:39 16.12.2019
2476 Clouds 8 998 93 10000 2.1 60 22:21 16.12.2019
2477 Clouds 8 998 93 10000 2.1 60 21:57 16.12.2019
2478 Clouds 8 999 93 10000 1.5 60 21:57 16.12.2019
2479 Clouds 8 999 93 10000 1.5 60 21:39 16.12.2019
2480 Clouds 8 999 93 10000 2.1 40 21:20 16.12.2019
2481 Clouds 8 999 93 10000 2.1 40 20:58 16.12.2019
2482 Clouds 8 999 93 10000 1.5 50 20:39 16.12.2019
2483 Clouds 8 999 93 10000 2.1 50 20:19 16.12.2019
2484 Clouds 9 1000 93 10000 2.1 60 19:57 16.12.2019
2485 Clouds 9 1000 93 10000 2.1 60 19:37 16.12.2019
2486 Clouds 9 1000 93 10000 1 0 19:19 16.12.2019
2487 Clouds 9 1000 93 10000 1 0 18:59 16.12.2019
2488 Clouds 9 1000 93 10000 1.5 0 18:41 16.12.2019
2489 Clouds 9 1000 93 10000 2.6 110 18:20 16.12.2019
2490 Clouds 9 1000 93 10000 2.6 110 17:59 16.12.2019
2491 Clouds 9 1001 93 10000 1.5 90 17:40 16.12.2019
2492 Clouds 9 1001 93 10000 1.5 90 17:40 16.12.2019
2493 Clouds 10 1001 87 10000 2.6 80 17:21 16.12.2019
2494 Clouds 10 1001 87 10000 2.1 100 16:57 16.12.2019
2495 Clouds 10 1001 87 10000 2.1 100 16:39 16.12.2019
2496 Clouds 10 1001 93 10000 2.1 60 16:20 16.12.2019
2497 Clouds 10 1001 93 10000 2.1 60 15:59 16.12.2019
2498 Clouds 10 1002 93 10000 2.1 70 15:39 16.12.2019
2499 Clouds 11 1002 93 10000 2.1 110 15:21 16.12.2019
2500 Clouds 10 1002 93 10000 2.1 110 14:57 16.12.2019
2501 Clouds 10 1002 93 10000 2.1 110 14:37 16.12.2019
2502 Clouds 10 1002 93 10000 2.1 110 14:37 16.12.2019
2503 Clouds 10 1002 93 10000 2.1 110 14:37 16.12.2019
2504 Clouds 10 1003 87 10000 2.1 120 14:19 16.12.2019
2505 Clouds 10 1003 87 10000 2.1 120 13:56 16.12.2019
2506 Clouds 10 1003 93 10000 3.1 130 13:38 16.12.2019
2507 Clouds 10 1003 93 10000 3.1 130 13:38 16.12.2019
2508 Clouds 10 1004 93 10000 2.6 130 13:19 16.12.2019
2509 Drizzle 10 1004 93 10000 2.6 120 12:58 16.12.2019
2510 Drizzle 9 1004 93 10000 2.6 120 12:39 16.12.2019
2511 Clouds 9 1005 93 10000 2.6 140 12:19 16.12.2019
2512 Clouds 9 1005 93 10000 2.6 140 11:59 16.12.2019
2513 Rain 9 1005 100 10000 2.1 110 11:40 16.12.2019
2514 Drizzle 9 1005 100 10000 2.1 90 11:20 16.12.2019
2515 Drizzle 9 1005 100 10000 2.1 90 10:58 16.12.2019
2516 Rain 9 1005 100 10000 1.5 130 10:39 16.12.2019
2517 Drizzle 8 1005 93 10000 1 130 10:20 16.12.2019
2518 Drizzle 8 1005 93 9000 1.5 70 09:45 16.12.2019
2519 Rain 8 1005 93 3900 0.5 110 09:27 16.12.2019
2520 Rain 8 1005 93 3900 0.5 110 08:57 16.12.2019
2521 Rain 8 1005 93 7000 1 0 08:38 16.12.2019
2522 Rain 8 1005 93 9000 1.5 130 08:18 16.12.2019
2523 Rain 8 1005 93 7000 3.6 160 07:47 16.12.2019
2524 Rain 8 1005 93 7000 2.1 170 07:29 16.12.2019
2525 Rain 8 1005 93 10000 2.6 160 06:46 16.12.2019
2526 Rain 8 1005 93 10000 2.6 190 06:26 16.12.2019
2527 Rain 8 1005 93 10000 4.1 150 05:54 16.12.2019
2528 Rain 8 1005 93 10000 4.1 150 05:35 16.12.2019
2529 Clouds 8 1006 87 10000 4.1 180 04:27 16.12.2019
2530 Clouds 8 1006 87 10000 4.6 180 02:36 16.12.2019
2531 Clouds 8 1006 87 10000 4.1 180 01:45 16.12.2019
2532 Clouds 9 1006 93 10000 3.6 170 00:54 16.12.2019
2533 Clouds 8 1006 93 10000 3.6 170 00:36 16.12.2019
2534 Clouds 8 1006 93 10000 4.1 180 00:18 16.12.2019
2535 Clouds 8 1006 93 10000 3.6 170 23:40 15.12.2019
2536 Clouds 8 1006 93 10000 3.1 180 23:21 15.12.2019
2537 Clouds 8 1006 93 10000 3.1 180 22:56 15.12.2019
2538 Clouds 8 1006 87 10000 2.6 170 22:38 15.12.2019
2539 Clouds 8 1006 87 10000 3.1 170 22:18 15.12.2019
2540 Clouds 8 1006 87 10000 3.1 170 21:57 15.12.2019
2541 Clouds 8 1006 87 10000 3.1 190 21:38 15.12.2019
2542 Clouds 8 1006 87 10000 2.1 180 21:19 15.12.2019
2543 Clouds 8 1006 87 10000 2.1 180 20:57 15.12.2019
2544 Clouds 8 1006 87 10000 2.6 170 20:38 15.12.2019
2545 Clouds 8 1006 81 10000 3.1 180 20:19 15.12.2019
2546 Clouds 7 1006 81 10000 3.1 180 19:57 15.12.2019
2547 Clouds 8 1006 81 10000 1.5 190 19:39 15.12.2019
2548 Clouds 8 1006 81 10000 2.6 180 19:18 15.12.2019
2549 Clouds 8 1006 81 10000 2.6 180 18:56 15.12.2019
2550 Clouds 8 1006 81 10000 2.1 160 18:38 15.12.2019
2551 Clouds 8 1006 70 10000 2.6 180 18:18 15.12.2019
2552 Clouds 8 1006 76 10000 2.1 200 17:56 15.12.2019
2553 Clouds 8 1006 76 10000 2.1 200 17:37 15.12.2019
2554 Clouds 9 1006 66 10000 3.6 210 17:19 15.12.2019
2555 Clouds 9 1006 66 10000 5.1 200 16:57 15.12.2019
2556 Clouds 10 1006 66 10000 5.1 200 16:39 15.12.2019
2557 Clouds 10 1006 61 10000 4.6 210 16:20 15.12.2019
2558 Clouds 10 1006 61 10000 4.6 210 15:55 15.12.2019
2559 Clouds 10 1006 61 10000 3.1 220 15:37 15.12.2019
2560 Clouds 10 1006 61 10000 5.1 220 15:18 15.12.2019
2561 Clouds 10 1006 57 10000 4.1 230 14:55 15.12.2019
2562 Clouds 10 1006 57 10000 4.1 230 14:55 15.12.2019
2563 Clouds 10 1006 57 10000 4.1 230 14:36 15.12.2019
2564 Clouds 10 1006 61 10000 4.6 230 14:18 15.12.2019
2565 Clouds 10 1006 61 10000 4.6 230 13:55 15.12.2019
2566 Clouds 10 1005 61 10000 5.1 230 13:37 15.12.2019
2567 Clouds 10 1005 66 10000 5.1 230 13:19 15.12.2019
2568 Clouds 10 1005 66 10000 5.1 230 13:19 15.12.2019
2569 Clouds 9 1005 70 10000 4.6 240 12:56 15.12.2019
2570 Clouds 9 1005 70 10000 4.6 240 12:38 15.12.2019
2571 Clouds 9 1005 76 10000 4.6 230 12:20 15.12.2019
2572 Clouds 8 1005 70 10000 4.1 210 11:39 15.12.2019
2573 Clouds 8 1004 70 10000 6.2 230 11:20 15.12.2019
2574 Clouds 8 1004 70 10000 5.1 220 10:58 15.12.2019
2575 Clouds 8 1004 70 10000 5.1 220 10:40 15.12.2019
2576 Clouds 8 1003 75 10000 5.1 230 10:20 15.12.2019
2577 Clouds 8 1003 75 10000 5.1 230 09:59 15.12.2019
2578 Clouds 8 1003 76 10000 4.6 240 09:39 15.12.2019
2579 Clouds 8 1003 76 10000 4.6 240 09:20 15.12.2019
2580 Clouds 8 1002 81 10000 4.6 240 08:56 15.12.2019
2581 Clouds 8 1002 81 10000 4.1 230 08:38 15.12.2019
2582 Clouds 8 1002 81 10000 4.1 230 08:20 15.12.2019
2583 Rain 9 1001 76 10000 5.7 240 07:55 15.12.2019
2584 Rain 9 1000 81 10000 5.1 230 07:33 15.12.2019
2585 Clouds 9 999 87 10000 7.2 240 06:39 15.12.2019
2586 Rain 9 998 87 10000 8.7 230 06:19 15.12.2019
2587 Rain 10 998 81 10000 8.7 210 05:25 15.12.2019
2588 Rain 10 998 81 10000 8.7 210 05:25 15.12.2019
2589 Clouds 11 997 81 10000 8.7 210 04:24 15.12.2019
2590 Clouds 10 997 81 10000 9.3 210 03:22 15.12.2019
2591 Clouds 10 997 81 10000 8.7 200 02:33 15.12.2019
2592 Rain 10 997 81 10000 8.2 190 01:46 15.12.2019
2593 Rain 10 997 81 10000 8.2 190 01:28 15.12.2019
2594 Rain 10 998 81 10000 7.7 190 00:54 15.12.2019
2595 Rain 10 998 81 10000 7.7 190 00:35 15.12.2019
2596 Drizzle 10 998 87 10000 5.7 180 23:58 14.12.2019
2597 Clouds 10 999 81 10000 6.2 180 23:39 14.12.2019
2598 Rain 9 999 76 10000 7.2 190 23:19 14.12.2019
2599 Clouds 9 999 76 10000 6.7 180 22:57 14.12.2019
2600 Clouds 9 999 76 10000 6.7 180 22:39 14.12.2019
2601 Clouds 9 999 76 10000 6.7 180 22:20 14.12.2019
2602 Clouds 9 1000 76 10000 5.1 180 21:56 14.12.2019
2603 Clouds 8 1001 76 10000 4.1 190 21:37 14.12.2019
2604 Clouds 8 1001 76 10000 5.1 190 21:18 14.12.2019
2605 Clouds 8 1001 76 10000 5.1 190 20:56 14.12.2019
2606 Clouds 8 1002 76 10000 4.6 190 20:37 14.12.2019
2607 Clouds 8 1002 70 10000 3.6 190 20:19 14.12.2019
2608 Clouds 8 1002 70 10000 3.6 190 20:19 14.12.2019
2609 Clouds 8 1002 70 10000 3.1 190 19:54 14.12.2019
2610 Clouds 8 1002 70 10000 3.1 190 19:36 14.12.2019
2611 Clouds 8 1002 66 10000 2.6 190 19:18 14.12.2019
2612 Clouds 8 1002 66 10000 3.1 220 18:55 14.12.2019
2613 Clouds 8 1002 66 10000 3.1 220 18:36 14.12.2019
2614 Clouds 8 1002 70 10000 4.1 210 18:18 14.12.2019
2615 Clouds 9 1002 66 10000 5.1 240 17:42 14.12.2019
2616 Clouds 9 1001 71 10000 6.7 240 17:22 14.12.2019
2617 Rain 10 1001 71 10000 6.2 250 16:55 14.12.2019
2618 Rain 10 1001 71 10000 6.2 250 16:37 14.12.2019
2619 Clouds 10 1001 71 10000 6.2 240 16:18 14.12.2019
2620 Clouds 10 1000 66 10000 7.7 240 15:41 14.12.2019
2621 Clouds 10 1000 76 10000 8.7 240 15:20 14.12.2019
2622 Clouds 10 1000 76 10000 7.7 220 14:58 14.12.2019
2623 Clouds 10 1000 76 10000 7.7 220 14:38 14.12.2019
2624 Rain 10 1000 81 10000 7.2 230 14:19 14.12.2019
2625 Rain 9 1000 66 10000 8.2 220 13:45 14.12.2019
2626 Clouds 9 999 66 10000 8.2 220 13:20 14.12.2019
2627 Clouds 9 999 66 10000 8.2 220 12:59 14.12.2019
2628 Clouds 9 1000 61 10000 8.7 210 12:41 14.12.2019
2629 Clouds 9 1000 57 10000 7.2 210 12:21 14.12.2019
2630 Clouds 9 1000 57 10000 7.2 210 12:21 14.12.2019
2631 Clouds 9 1000 57 10000 7.2 210 12:21 14.12.2019
2632 Clouds 9 1000 70 10000 6.7 230 11:59 14.12.2019
2633 Clouds 9 1000 70 10000 6.7 230 11:40 14.12.2019
2634 Clouds 8 999 66 10000 6.7 220 11:20 14.12.2019
2635 Clouds 8 999 66 10000 6.7 220 10:59 14.12.2019
2636 Clouds 8 999 70 10000 7.2 230 10:40 14.12.2019
2637 Clouds 8 999 66 10000 7.2 230 10:22 14.12.2019
2638 Clouds 8 999 70 10000 5.7 240 09:59 14.12.2019
2639 Clouds 8 998 70 10000 5.7 230 09:40 14.12.2019
2640 Clouds 8 997 70 10000 5.7 240 09:20 14.12.2019
2641 Clouds 8 997 70 10000 7.2 260 08:43 14.12.2019
2642 Clouds 8 996 70 10000 8.2 260 08:20 14.12.2019
2643 Clouds 8 996 70 10000 8.2 260 07:55 14.12.2019
2644 Clouds 8 995 81 10000 8.7 260 07:36 14.12.2019
2645 Rain 8 994 81 10000 9.8 250 07:18 14.12.2019
2646 Clouds 9 993 76 10000 6.7 250 06:39 14.12.2019
2647 Rain 9 992 76 10000 6.7 260 06:18 14.12.2019
2648 Clouds 9 991 61 10000 12.9 280 05:20 14.12.2019
2649 Drizzle 10 986 87 8000 7.7 240 02:44 14.12.2019
2650 Drizzle 10 986 93 6000 5.7 220 02:22 14.12.2019
2651 Rain 9 986 87 10000 5.7 230 01:43 14.12.2019
2652 Rain 8 987 87 7000 5.7 190 00:50 14.12.2019
2653 Rain 8 987 87 7000 5.7 190 00:29 14.12.2019
2654 Rain 7 988 93 6000 6.2 180 23:58 13.12.2019
2655 Rain 7 990 93 7000 5.1 190 23:39 13.12.2019
2656 Rain 7 990 87 10000 6.2 200 23:19 13.12.2019
2657 Rain 7 990 87 10000 6.2 200 22:55 13.12.2019
2658 Drizzle 6 990 93 10000 5.1 210 22:36 13.12.2019
2659 Clouds 7 990 81 10000 7.2 200 22:18 13.12.2019
2660 Drizzle 6 992 87 10000 5.1 230 21:40 13.12.2019
2661 Rain 7 992 81 10000 5.7 240 21:21 13.12.2019
2662 Rain 7 992 81 10000 5.7 240 20:57 13.12.2019
2663 Clouds 7 992 81 10000 4.1 240 20:39 13.12.2019
2664 Clouds 6 992 70 10000 5.1 230 20:19 13.12.2019
2665 Clouds 7 992 70 10000 5.1 230 19:56 13.12.2019
2666 Clouds 6 992 70 10000 4.1 240 19:38 13.12.2019
2667 Clouds 6 992 70 10000 4.1 240 19:18 13.12.2019
2668 Clouds 6 992 70 10000 4.1 240 18:42 13.12.2019
2669 Clouds 7 992 65 10000 3.6 230 18:42 13.12.2019
2670 Clouds 7 992 65 10000 5.7 250 18:20 13.12.2019
2671 Clouds 7 992 65 10000 5.7 250 17:59 13.12.2019
2672 Clouds 7 991 61 10000 8.2 250 17:39 13.12.2019
2673 Clouds 7 991 61 10000 8.2 250 17:18 13.12.2019
2674 Rain 8 990 61 10000 8.2 260 16:56 13.12.2019
2675 Clouds 8 990 61 10000 7.7 250 16:38 13.12.2019
2676 Clouds 8 990 61 10000 7.7 250 16:38 13.12.2019
2677 Clouds 8 990 61 10000 7.7 250 16:20 13.12.2019
2678 Clouds 8 989 61 10000 7.7 260 15:42 13.12.2019
2679 Clouds 8 989 61 10000 7.7 260 15:42 13.12.2019
2680 Clouds 8 989 61 10000 7.7 260 15:21 13.12.2019
2681 Clouds 9 988 61 10000 8.2 260 14:57 13.12.2019
2682 Clouds 8 988 61 10000 8.7 280 14:38 13.12.2019
2683 Clouds 9 988 61 10000 8.7 280 14:19 13.12.2019
2684 Clouds 9 987 66 10000 8.2 260 13:44 13.12.2019
2685 Clouds 8 987 66 10000 8.2 270 13:26 13.12.2019
2686 Rain 8 986 75 10000 7.7 260 12:58 13.12.2019
2687 Rain 8 985 81 10000 6.7 260 12:40 13.12.2019
2688 Rain 8 985 81 10000 6.7 260 12:19 13.12.2019
2689 Rain 7 985 81 10000 8.2 260 11:45 13.12.2019
2690 Rain 7 984 75 10000 10.8 260 11:26 13.12.2019
2691 Rain 7 983 81 10000 8.2 250 10:58 13.12.2019
2692 Drizzle 6 983 87 10000 8.2 250 10:40 13.12.2019
2693 Drizzle 6 983 87 10000 8.2 250 10:21 13.12.2019
2694 Rain 6 982 81 10000 8.7 250 09:43 13.12.2019
2695 Rain 5 981 81 10000 8.7 260 09:22 13.12.2019
2696 Rain 5 980 81 10000 8.7 250 08:55 13.12.2019
2697 Rain 5 980 81 10000 9.8 260 08:37 13.12.2019
2698 Rain 6 980 81 10000 9.8 260 08:19 13.12.2019
2699 Rain 6 978 81 10000 8.7 250 07:43 13.12.2019
2700 Rain 6 978 81 10000 8.7 250 07:19 13.12.2019
2701 Rain 7 978 81 10000 7.2 250 06:46 13.12.2019
2702 Rain 7 977 75 10000 6.7 250 06:27 13.12.2019
2703 Clouds 7 977 81 10000 6.7 250 05:41 13.12.2019
2704 Clouds 7 977 81 10000 6.7 260 05:20 13.12.2019
2705 Rain 8 977 81 10000 9.3 250 04:33 13.12.2019
2706 Rain 8 977 87 10000 5.7 200 03:29 13.12.2019
2707 Rain 8 979 93 10000 4.1 210 02:31 13.12.2019
2708 Rain 8 980 93 9000 5.1 190 01:40 13.12.2019
2709 Clouds 8 981 87 10000 5.7 190 00:51 13.12.2019
2710 Clouds 7 982 87 10000 5.7 200 00:32 13.12.2019
2711 Clouds 7 983 87 10000 5.7 200 23:47 12.12.2019
2712 Clouds 7 984 93 10000 4.6 210 23:27 12.12.2019
2713 Clouds 7 984 93 10000 1.5 200 22:59 12.12.2019
2714 Clouds 7 984 93 10000 1.5 200 22:41 12.12.2019
2715 Clouds 7 984 93 10000 1.5 200 22:41 12.12.2019
2716 Rain 7 985 93 10000 2.1 220 22:22 12.12.2019
2717 Clouds 7 985 93 10000 3.1 190 21:56 12.12.2019
2718 Clouds 7 985 93 10000 3.1 190 21:56 12.12.2019
2719 Rain 6 985 93 10000 3.6 180 21:38 12.12.2019
2720 Rain 6 985 93 10000 3.6 180 21:20 12.12.2019
2721 Rain 6 986 87 8000 8.2 160 20:59 12.12.2019
2722 Rain 6 987 93 10000 7.2 150 20:41 12.12.2019
2723 Rain 6 987 93 10000 7.2 150 20:23 12.12.2019
2724 Rain 6 987 93 3500 4.1 160 19:59 12.12.2019
2725 Rain 6 988 87 10000 7.7 160 19:41 12.12.2019
2726 Rain 6 988 87 10000 7.7 160 19:21 12.12.2019
2727 Rain 6 989 87 9000 8.2 160 18:58 12.12.2019
2728 Rain 6 989 87 7000 8.7 160 18:39 12.12.2019
2729 Rain 6 989 87 7000 8.7 160 18:20 12.12.2019
2730 Rain 6 990 87 10000 8.2 160 17:57 12.12.2019
2731 Drizzle 6 991 93 10000 8.2 160 17:39 12.12.2019
2732 Drizzle 6 991 93 10000 8.2 160 17:20 12.12.2019
2733 Drizzle 6 991 93 10000 8.2 160 17:20 12.12.2019
2734 Clouds 6 992 93 10000 9.3 160 16:57 12.12.2019
2735 Clouds 6 993 93 10000 8.7 160 16:39 12.12.2019
2736 Clouds 6 993 93 10000 8.7 160 16:20 12.12.2019
2737 Clouds 6 994 87 10000 9.3 170 15:56 12.12.2019
2738 Clouds 5 995 87 10000 8.7 170 15:37 12.12.2019
2739 Clouds 5 995 87 10000 8.7 170 15:18 12.12.2019
2740 Rain 5 997 93 10000 7.2 160 14:38 12.12.2019
2741 Rain 5 997 93 10000 7.2 160 14:38 12.12.2019
2742 Rain 5 997 93 10000 7.2 160 14:20 12.12.2019
2743 Clouds 5 998 86 10000 7.2 160 13:58 12.12.2019
2744 Drizzle 4 999 86 10000 7.2 160 13:40 12.12.2019
2745 Drizzle 4 999 86 10000 7.2 160 13:21 12.12.2019
2746 Rain 4 1001 93 10000 6.2 160 12:59 12.12.2019
2747 Rain 4 1002 86 10000 6.2 170 12:40 12.12.2019
2748 Rain 4 1002 86 10000 6.2 170 12:21 12.12.2019
2749 Clouds 4 1002 86 10000 6.7 170 11:57 12.12.2019
2750 Clouds 3 1003 86 10000 7.2 160 11:38 12.12.2019
2751 Clouds 3 1003 86 10000 7.2 160 11:19 12.12.2019
2752 Clouds 3 1004 93 10000 7.7 170 10:56 12.12.2019
2753 Clouds 3 1004 93 10000 5.1 170 10:38 12.12.2019
2754 Clouds 3 1004 93 10000 5.1 170 10:20 12.12.2019
2755 Clouds 2 1005 93 10000 5.1 180 09:55 12.12.2019
2756 Clouds 2 1005 86 10000 4.6 180 09:37 12.12.2019
2757 Clouds 2 1005 86 10000 4.6 180 09:18 12.12.2019
2758 Clouds 2 1005 86 10000 3.1 170 08:43 12.12.2019
2759 Clouds 2 1005 86 10000 4.6 180 08:43 12.12.2019
2760 Clouds 2 1005 86 10000 3.1 170 08:25 12.12.2019
2761 Clouds 2 1006 86 10000 3.1 190 07:49 12.12.2019
2762 Clouds 2 1006 86 10000 3.6 210 07:27 12.12.2019
2763 Clouds 2 1006 93 10000 2.1 200 06:56 12.12.2019
2764 Clouds 2 1006 86 10000 4.1 220 06:35 12.12.2019
2765 Clouds 2 1007 86 10000 4.6 230 05:42 12.12.2019
2766 Clouds 3 1007 86 10000 4.6 240 04:55 12.12.2019
2767 Clouds 3 1007 86 10000 4.6 240 04:28 12.12.2019
2768 Clouds 4 1006 86 10000 5.7 250 02:41 12.12.2019
2769 Clouds 4 1006 86 10000 5.7 250 02:22 12.12.2019
2770 Clouds 4 1006 86 10000 5.1 250 01:54 12.12.2019
2771 Clouds 4 1006 81 10000 5.7 240 01:35 12.12.2019
2772 Clouds 4 1006 87 10000 4.6 240 00:48 12.12.2019
2773 Clouds 4 1006 87 10000 5.1 240 00:21 12.12.2019
2774 Clouds 5 1006 87 10000 4.6 230 23:54 11.12.2019
2775 Rain 5 1006 87 10000 3.6 240 23:36 11.12.2019
2776 Rain 5 1006 87 10000 4.6 240 23:18 11.12.2019
2777 Rain 5 1006 87 10000 4.6 240 22:55 11.12.2019
2778 Rain 5 1006 93 10000 2.6 250 22:36 11.12.2019
2779 Rain 5 1006 93 10000 2.6 250 22:36 11.12.2019
2780 Rain 5 1006 93 10000 2.6 250 22:18 11.12.2019
2781 Rain 5 1006 93 10000 3.6 230 21:39 11.12.2019
2782 Clouds 5 1006 75 10000 4.1 220 21:20 11.12.2019
2783 Rain 6 1006 75 10000 5.1 210 20:58 11.12.2019
2784 Rain 6 1006 81 10000 4.1 190 20:40 11.12.2019
2785 Clouds 6 1006 81 10000 4.1 190 20:19 11.12.2019
2786 Clouds 6 1006 87 10000 5.7 180 19:59 11.12.2019
2787 Clouds 6 1006 87 10000 4.6 170 19:40 11.12.2019
2788 Clouds 6 1006 87 10000 4.6 170 19:21 11.12.2019
2789 Clouds 6 1007 81 10000 4.6 180 18:58 11.12.2019
2790 Clouds 6 1007 81 10000 4.1 180 18:39 11.12.2019
2791 Clouds 6 1007 81 10000 4.1 180 18:19 11.12.2019
2792 Clouds 6 1007 81 10000 5.7 200 17:56 11.12.2019
2793 Clouds 7 1007 81 10000 4.1 210 17:37 11.12.2019
2794 Clouds 7 1007 81 10000 4.1 210 17:18 11.12.2019
2795 Clouds 7 1007 75 10000 4.6 200 16:55 11.12.2019
2796 Clouds 7 1008 75 10000 5.7 210 16:37 11.12.2019
2797 Clouds 7 1008 75 10000 5.7 210 16:18 11.12.2019
2798 Clouds 7 1008 75 10000 5.7 220 15:55 11.12.2019
2799 Clouds 7 1008 75 10000 5.1 220 15:36 11.12.2019
2800 Clouds 7 1008 75 10000 5.1 220 15:18 11.12.2019
2801 Clouds 7 1008 87 10000 4.1 230 14:54 11.12.2019
2802 Clouds 8 1009 81 10000 4.1 230 14:36 11.12.2019
2803 Clouds 8 1009 81 10000 4.1 230 14:18 11.12.2019
2804 Clouds 7 1009 81 10000 3.1 250 13:42 11.12.2019
2805 Clouds 7 1009 81 10000 3.1 250 13:42 11.12.2019
2806 Clouds 7 1009 81 10000 4.6 240 13:22 11.12.2019
2807 Rain 7 1009 87 10000 3.6 250 12:58 11.12.2019
2808 Rain 7 1010 87 10000 3.6 250 12:39 11.12.2019
2809 Rain 7 1010 87 10000 3.6 250 12:21 11.12.2019
2810 Clouds 7 1010 87 10000 3.6 240 11:58 11.12.2019
2811 Clouds 7 1010 100 10000 4.1 250 11:39 11.12.2019
2812 Clouds 7 1010 100 10000 4.1 250 11:19 11.12.2019
2813 Clouds 7 1010 93 10000 1.5 230 10:59 11.12.2019
2814 Clouds 7 1010 93 10000 1.5 230 10:39 11.12.2019
2815 Clouds 6 1010 93 10000 1.5 240 10:21 11.12.2019
2816 Clouds 6 1010 100 10000 2.1 240 09:56 11.12.2019
2817 Drizzle 6 1010 93 10000 2.1 240 09:38 11.12.2019
2818 Drizzle 6 1010 93 10000 2.1 240 09:19 11.12.2019
2819 Rain 6 1010 93 10000 1.5 210 08:55 11.12.2019
2820 Rain 6 1011 93 10000 1 220 08:36 11.12.2019
2821 Rain 6 1011 93 10000 1.5 220 08:18 11.12.2019
2822 Rain 6 1011 93 10000 1.5 220 07:42 11.12.2019
2823 Rain 6 1011 93 10000 3.1 220 07:22 11.12.2019
2824 Rain 6 1011 93 8000 2.6 190 06:46 11.12.2019
2825 Rain 6 1011 93 8000 2.6 190 06:24 11.12.2019
2826 Drizzle 6 1011 93 10000 3.1 190 05:53 11.12.2019
2827 Rain 6 1012 93 6000 4.6 200 05:33 11.12.2019
2828 Drizzle 6 1012 93 10000 4.6 200 04:49 11.12.2019
2829 Clouds 6 1013 87 10000 4.6 170 03:19 11.12.2019
2830 Clouds 7 1013 87 10000 6.2 180 02:31 11.12.2019
2831 Clouds 7 1014 81 10000 6.2 180 01:21 11.12.2019
2832 Rain 7 1015 81 10000 6.2 180 00:37 11.12.2019
2833 Rain 7 1015 81 10000 6.2 180 00:18 11.12.2019
2834 Rain 7 1015 81 10000 6.7 180 23:43 10.12.2019
2835 Clouds 7 1016 75 10000 6.7 190 23:23 10.12.2019
2836 Clouds 7 1016 75 10000 7.2 180 22:56 10.12.2019
2837 Clouds 6 1017 75 10000 7.2 180 22:38 10.12.2019
2838 Clouds 7 1017 75 10000 7.2 180 22:20 10.12.2019
2839 Clouds 6 1017 81 10000 6.7 170 21:54 10.12.2019
2840 Clouds 6 1018 81 10000 5.7 170 21:36 10.12.2019
2841 Clouds 6 1018 81 10000 5.7 170 21:18 10.12.2019
2842 Rain 6 1018 75 10000 6.2 180 20:55 10.12.2019
2843 Rain 6 1019 75 10000 6.7 180 20:36 10.12.2019
2844 Rain 6 1019 75 10000 6.7 180 20:18 10.12.2019
2845 Rain 6 1019 75 10000 6.7 180 20:18 10.12.2019
2846 Rain 6 1019 70 10000 7.2 180 19:44 10.12.2019
2847 Rain 6 1019 70 10000 6.7 180 19:25 10.12.2019
2848 Rain 6 1019 70 10000 6.7 180 18:59 10.12.2019
2849 Clouds 6 1020 70 10000 7.7 180 18:39 10.12.2019
2850 Clouds 6 1020 70 10000 7.7 180 18:19 10.12.2019
2851 Clouds 6 1020 70 10000 7.2 180 17:55 10.12.2019
2852 Clouds 6 1021 70 10000 6.7 180 17:36 10.12.2019
2853 Clouds 6 1021 70 10000 6.7 180 17:18 10.12.2019
2854 Clouds 7 1022 70 10000 7.7 180 16:42 10.12.2019
2855 Clouds 7 1022 70 10000 7.7 180 16:20 10.12.2019
2856 Clouds 7 1022 81 10000 5.7 190 15:55 10.12.2019
2857 Clouds 7 1023 70 10000 7.2 170 15:37 10.12.2019
2858 Clouds 7 1023 70 10000 7.2 170 15:18 10.12.2019
2859 Clouds 7 1023 70 10000 7.2 170 15:18 10.12.2019
2860 Clouds 7 1023 70 10000 7.2 180 14:55 10.12.2019
2861 Clouds 7 1024 70 10000 6.2 180 14:36 10.12.2019
2862 Clouds 7 1024 70 10000 6.2 180 14:18 10.12.2019
2863 Clouds 7 1025 70 10000 5.1 190 13:56 10.12.2019
2864 Clouds 7 1025 70 10000 5.1 190 13:56 10.12.2019
2865 Clouds 7 1025 70 10000 6.2 190 13:37 10.12.2019
2866 Clouds 6 1025 70 10000 5.7 170 13:18 10.12.2019
2867 Clouds 6 1026 75 10000 5.1 170 12:40 10.12.2019
2868 Clouds 6 1026 75 10000 5.1 170 12:21 10.12.2019
2869 Clouds 5 1027 80 10000 4.1 180 11:42 10.12.2019
2870 Clouds 4 1027 80 10000 4.1 180 11:23 10.12.2019
2871 Clouds 3 1027 86 10000 4.1 170 10:56 10.12.2019
2872 Clouds 2 1027 76 10000 3.1 160 10:37 10.12.2019
2873 Clouds 2 1027 76 10000 3.1 160 10:19 10.12.2019
2874 Clouds 1 1027 76 10000 3.1 140 09:55 10.12.2019
2875 Clouds 0 1028 76 10000 1.5 130 09:37 10.12.2019
2876 Clouds 0 1028 76 10000 1.5 130 09:19 10.12.2019
2877 Clouds 0 1028 92 10000 1.5 120 08:54 10.12.2019
2878 Clouds 0 1028 76 10000 1 120 08:36 10.12.2019
2879 Clouds 0 1028 76 10000 1 120 08:36 10.12.2019
2880 Clouds -1 1028 80 10000 1 120 08:18 10.12.2019
2881 Clouds -1 1028 80 10000 1.5 110 07:44 10.12.2019
2882 Clouds -1 1028 80 10000 1.5 110 07:44 10.12.2019
2883 Clouds -1 1028 80 10000 1.5 110 07:44 10.12.2019
2884 Clouds -1 1028 80 10000 1 50 07:25 10.12.2019
2885 Clouds -1 1028 80 10000 1 30 06:48 10.12.2019
2886 Clouds -1 1028 80 10000 1 70 06:21 10.12.2019
2887 Clouds -1 1028 92 10000 2.47 204 05:55 10.12.2019
2888 Clear -1 1028 80 10000 1.16 211 04:56 10.12.2019
2889 Clear 0 1028 80 10000 1 80 03:40 10.12.2019
2890 Clear 1 1028 80 10000 1 0 02:47 10.12.2019
2891 Clear 1 1027 86 10000 1 210 01:50 10.12.2019
2892 Clear 1 1027 80 10000 0.5 200 01:25 10.12.2019
2893 Clear 2 1026 78 10000 1.5 0 00:43 10.12.2019
2894 Clear 2 1026 78 10000 1.5 0 00:24 10.12.2019
2895 Clear 2 1026 78 10000 2.1 250 23:43 09.12.2019
2896 Clear 3 1025 69 10000 1.5 260 23:24 09.12.2019
2897 Clear 3 1025 71 10000 2.1 270 22:58 09.12.2019
2898 Clear 4 1024 71 10000 1.5 310 22:40 09.12.2019
2899 Clear 4 1024 71 10000 1.5 310 22:21 09.12.2019
2900 Clear 4 1024 71 10000 2.1 310 21:58 09.12.2019
2901 Clear 4 1023 71 10000 3.1 310 21:39 09.12.2019
2902 Clear 5 1023 71 10000 3.1 310 21:19 09.12.2019
2903 Clear 5 1023 70 10000 3.1 340 20:57 09.12.2019
2904 Clear 6 1022 71 10000 3.6 320 20:39 09.12.2019
2905 Clouds 6 1022 68 10000 3.6 320 20:20 09.12.2019
2906 Clouds 6 1021 68 10000 3.6 310 19:57 09.12.2019
2907 Clouds 6 1020 65 10000 5.1 320 19:39 09.12.2019
2908 Clouds 7 1020 68 10000 3.6 300 19:20 09.12.2019
2909 Clouds 7 1020 61 10000 3.1 300 18:59 09.12.2019
2910 Clouds 7 1019 61 10000 3.6 310 18:40 09.12.2019
2911 Clouds 7 1019 61 10000 3.6 310 18:20 09.12.2019
2912 Clouds 8 1018 61 10000 7.7 310 17:59 09.12.2019
2913 Clouds 8 1018 61 10000 7.7 310 17:59 09.12.2019
2914 Clouds 8 1017 57 10000 5.7 310 17:41 09.12.2019
2915 Clouds 8 1017 57 10000 5.7 310 17:21 09.12.2019
2916 Rain 8 1016 57 10000 6.2 310 16:57 09.12.2019
2917 Clouds 9 1015 57 10000 6.7 310 16:39 09.12.2019
2918 Clouds 9 1015 57 10000 6.7 310 16:21 09.12.2019
2919 Clouds 9 1014 57 10000 7.7 310 15:57 09.12.2019
2920 Clouds 9 1013 81 10000 7.7 330 15:38 09.12.2019
2921 Clouds 9 1013 81 10000 7.7 330 15:19 09.12.2019
2922 Rain 9 1012 70 10000 5.1 310 14:59 09.12.2019
2923 Rain 9 1011 81 10000 7.2 320 14:41 09.12.2019
2924 Rain 9 1011 81 10000 7.2 320 14:41 09.12.2019
2925 Rain 9 1011 81 10000 7.2 320 14:18 09.12.2019
2926 Clouds 9 1010 66 10000 7.2 310 13:56 09.12.2019
2927 Rain 9 1009 70 10000 8.2 300 13:37 09.12.2019
2928 Rain 9 1009 70 10000 8.2 300 13:19 09.12.2019
2929 Rain 9 1008 70 10000 8.2 310 12:55 09.12.2019
2930 Rain 9 1007 71 10000 6.7 300 12:37 09.12.2019
2931 Rain 9 1007 71 10000 6.7 300 12:18 09.12.2019
2932 Rain 9 1005 81 10000 7.2 300 11:41 09.12.2019
2933 Rain 9 1005 81 10000 7.2 300 11:22 09.12.2019
2934 Rain 9 1005 81 10000 7.2 300 11:22 09.12.2019
2935 Rain 8 1004 87 10000 6.2 280 10:59 09.12.2019
2936 Rain 8 1003 93 10000 6.2 260 10:39 09.12.2019
2937 Rain 8 1003 93 10000 6.2 260 10:20 09.12.2019
2938 Rain 8 1002 93 3800 5.1 230 09:56 09.12.2019
2939 Rain 7 1002 93 5000 6.2 240 09:37 09.12.2019
2940 Rain 7 1002 93 5000 6.2 240 09:19 09.12.2019
2941 Rain 7 1002 87 10000 7.7 230 08:40 09.12.2019
2942 Rain 7 1002 87 10000 7.7 230 08:22 09.12.2019
2943 Rain 6 1001 81 10000 5.7 230 07:53 09.12.2019
2944 Rain 6 1001 81 10000 6.2 220 07:34 09.12.2019
2945 Rain 6 1002 87 10000 8.2 230 06:59 09.12.2019
2946 Rain 7 1002 87 7000 8.7 240 06:37 09.12.2019
2947 Rain 7 1002 87 7000 8.7 240 06:19 09.12.2019
2948 Rain 8 1002 75 10000 9.8 230 05:25 09.12.2019
2949 Clouds 8 1002 75 10000 9.3 220 04:29 09.12.2019
2950 Clouds 7 1003 75 10000 8.7 210 03:18 09.12.2019
2951 Rain 7 1004 75 10000 8.7 210 02:18 09.12.2019
2952 Clouds 7 1005 70 10000 7.7 220 01:40 09.12.2019
2953 Clouds 7 1005 70 10000 7.2 230 00:45 09.12.2019
2954 Clouds 7 1006 81 10000 6.7 240 00:24 09.12.2019
2955 Clouds 8 1006 70 10000 7.2 220 23:39 08.12.2019
2956 Clouds 8 1006 70 10000 7.2 220 23:21 08.12.2019
2957 Clouds 8 1006 70 10000 6.2 220 22:56 08.12.2019
2958 Clouds 8 1006 76 10000 7.2 220 22:38 08.12.2019
2959 Clouds 8 1006 76 10000 7.2 220 22:18 08.12.2019
2960 Rain 8 1007 70 10000 6.2 230 21:57 08.12.2019
2961 Clouds 8 1006 76 10000 6.2 220 21:39 08.12.2019
2962 Clouds 8 1006 76 10000 6.2 220 21:39 08.12.2019
2963 Clouds 8 1006 76 10000 6.2 220 21:19 08.12.2019
2964 Rain 8 1007 76 10000 5.7 230 20:57 08.12.2019
2965 Rain 8 1007 76 10000 5.7 230 20:38 08.12.2019
2966 Rain 8 1007 76 10000 5.7 230 20:38 08.12.2019
2967 Clouds 8 1007 76 10000 6.2 230 20:20 08.12.2019
2968 Clouds 9 1007 76 10000 8.2 220 19:57 08.12.2019
2969 Clouds 9 1007 71 10000 6.7 210 19:39 08.12.2019
2970 Clouds 9 1007 71 10000 6.7 210 19:21 08.12.2019
2971 Clouds 9 1007 71 10000 6.2 220 18:55 08.12.2019
2972 Clouds 9 1007 71 10000 6.7 220 18:36 08.12.2019
2973 Clouds 9 1007 71 10000 6.7 220 18:18 08.12.2019
2974 Clouds 9 1007 71 10000 5.7 230 17:56 08.12.2019
2975 Clouds 9 1007 71 10000 5.7 230 17:56 08.12.2019
2976 Clouds 9 1007 76 10000 5.1 230 17:38 08.12.2019
2977 Rain 9 1007 76 10000 5.1 230 17:19 08.12.2019
2978 Clouds 10 1007 71 10000 6.7 230 16:56 08.12.2019
2979 Rain 10 1007 71 10000 5.1 230 16:38 08.12.2019
2980 Rain 10 1007 71 10000 5.1 230 16:20 08.12.2019
2981 Rain 11 1007 76 10000 4.6 230 15:54 08.12.2019
2982 Clouds 11 1007 76 10000 4.6 250 15:36 08.12.2019
2983 Clouds 11 1007 76 10000 4.6 250 15:18 08.12.2019
2984 Clouds 11 1007 76 10000 6.7 270 14:41 08.12.2019
2985 Clouds 11 1008 76 10000 3.6 260 14:22 08.12.2019
2986 Rain 11 1008 81 10000 2.6 250 13:57 08.12.2019
2987 Rain 11 1008 81 10000 7.2 260 13:39 08.12.2019
2988 Rain 11 1008 81 10000 7.2 260 13:21 08.12.2019
2989 Drizzle 12 1008 93 8000 6.7 210 12:55 08.12.2019
2990 Drizzle 12 1008 93 8000 6.2 210 12:37 08.12.2019
2991 Drizzle 12 1008 93 8000 6.2 210 12:18 08.12.2019
2992 Rain 12 1008 93 10000 6.7 210 11:55 08.12.2019
2993 Rain 11 1009 93 10000 8.2 210 11:37 08.12.2019
2994 Rain 11 1009 93 10000 8.2 210 11:18 08.12.2019
2995 Rain 11 1009 87 10000 6.7 210 10:39 08.12.2019
2996 Rain 11 1009 87 10000 6.7 210 10:21 08.12.2019
2997 Rain 11 1009 93 10000 6.7 200 09:58 08.12.2019
2998 Rain 10 1009 87 4900 8.2 200 09:39 08.12.2019
2999 Rain 10 1009 87 4900 8.2 200 09:20 08.12.2019
3000 Rain 10 1009 87 8000 7.2 200 08:59 08.12.2019
3001 Rain 10 1010 87 7000 7.7 200 08:39 08.12.2019
3002 Rain 10 1010 87 7000 7.7 200 08:21 08.12.2019
3003 Clouds 10 1010 81 10000 7.7 210 07:45 08.12.2019
3004 Clouds 10 1010 76 10000 6.7 210 07:20 08.12.2019
3005 Clouds 10 1010 76 10000 7.7 210 06:52 08.12.2019
3006 Clouds 10 1011 81 10000 8.7 200 06:23 08.12.2019
3007 Clouds 10 1011 81 10000 8.7 210 05:52 08.12.2019
3008 Clouds 10 1011 81 10000 8.7 200 05:18 08.12.2019
3009 Clouds 10 1013 76 10000 9.3 210 03:54 08.12.2019
3010 Clouds 10 1013 76 10000 7.7 200 03:36 08.12.2019
3011 Clouds 10 1014 81 10000 5.7 190 02:40 08.12.2019
3012 Clouds 10 1014 81 10000 4.1 190 01:56 08.12.2019
3013 Clouds 10 1015 87 10000 5.1 190 01:33 08.12.2019
3014 Clouds 10 1016 81 10000 6.2 190 00:43 08.12.2019
3015 Clouds 10 1016 81 10000 6.2 190 00:21 08.12.2019
3016 Clouds 10 1016 76 10000 4.6 180 23:55 07.12.2019
3017 Clouds 10 1017 87 10000 4.1 180 23:36 07.12.2019
3018 Clouds 10 1017 87 10000 4.1 180 23:18 07.12.2019
3019 Clouds 10 1017 76 10000 3.6 200 22:54 07.12.2019
3020 Clouds 9 1017 76 10000 3.6 190 22:36 07.12.2019
3021 Clouds 10 1017 76 10000 3.6 190 22:18 07.12.2019
3022 Clouds 9 1018 76 10000 4.1 190 21:54 07.12.2019
3023 Clouds 9 1018 76 10000 4.6 200 21:36 07.12.2019
3024 Clouds 9 1018 76 10000 4.6 200 21:18 07.12.2019
3025 Clouds 9 1018 76 10000 4.1 200 20:38 07.12.2019
3026 Clouds 9 1018 76 10000 4.1 200 20:20 07.12.2019
3027 Clouds 9 1018 76 10000 3.6 200 19:57 07.12.2019
3028 Clouds 10 1018 71 10000 3.6 190 19:39 07.12.2019
3029 Clouds 10 1018 71 10000 3.6 190 19:21 07.12.2019
3030 Clouds 10 1018 66 10000 2.6 210 18:58 07.12.2019
3031 Clouds 10 1018 71 10000 3.6 200 18:39 07.12.2019
3032 Clouds 10 1018 71 10000 3.6 200 18:18 07.12.2019
3033 Clouds 10 1018 71 10000 3.6 200 17:55 07.12.2019
3034 Clouds 10 1018 76 10000 3.1 210 17:37 07.12.2019
3035 Clouds 10 1018 76 10000 3.1 210 17:18 07.12.2019
3036 Clouds 10 1018 76 10000 3.1 210 16:55 07.12.2019
3037 Clouds 10 1018 87 10000 1.5 230 16:36 07.12.2019
3038 Clouds 10 1018 87 10000 1.5 230 16:18 07.12.2019
3039 Clouds 11 1018 76 10000 3.1 260 15:41 07.12.2019
3040 Clouds 11 1018 76 10000 3.1 260 15:22 07.12.2019
3041 Clouds 11 1018 71 10000 3.6 270 14:56 07.12.2019
3042 Clouds 11 1018 76 10000 4.1 250 14:38 07.12.2019
3043 Clouds 11 1018 76 10000 4.6 240 14:18 07.12.2019
3044 Clouds 11 1018 81 10000 3.1 230 13:40 07.12.2019
3045 Clouds 11 1018 81 10000 3.1 230 13:20 07.12.2019
3046 Clouds 10 1018 81 10000 4.6 230 12:55 07.12.2019
3047 Clouds 10 1018 81 10000 3.6 220 12:37 07.12.2019
3048 Clouds 10 1018 81 10000 3.6 220 12:19 07.12.2019
3049 Clouds 9 1019 87 10000 3.1 240 11:42 07.12.2019
3050 Clouds 9 1019 87 10000 3.1 240 11:24 07.12.2019
3051 Clouds 9 1018 87 10000 3.1 240 10:59 07.12.2019
3052 Clouds 9 1018 87 10000 3.1 220 10:37 07.12.2019
3053 Clouds 9 1018 87 10000 3.1 220 10:19 07.12.2019
3054 Clouds 8 1017 93 10000 2.6 220 09:40 07.12.2019
3055 Clouds 8 1017 93 10000 2.6 220 09:21 07.12.2019
3056 Clouds 8 1017 87 10000 2.6 240 08:47 07.12.2019
3057 Clouds 8 1017 93 10000 2.6 240 08:25 07.12.2019
3058 Clouds 8 1017 93 10000 2.6 240 07:57 07.12.2019
3059 Clouds 8 1016 87 10000 2.6 240 07:38 07.12.2019
3060 Clouds 9 1016 87 10000 2.6 240 07:19 07.12.2019
3061 Clouds 9 1016 87 10000 3.6 240 06:45 07.12.2019
3062 Clouds 9 1016 87 10000 3.6 240 06:24 07.12.2019
3063 Clouds 9 1015 87 10000 3.1 240 04:49 07.12.2019
3064 Clouds 9 1015 87 10000 4.1 240 03:53 07.12.2019
3065 Clouds 9 1014 87 10000 3.1 240 02:50 07.12.2019
3066 Clouds 9 1014 87 10000 3.6 240 02:19 07.12.2019
3067 Clouds 9 1014 93 10000 4.1 240 01:31 07.12.2019
3068 Drizzle 9 1014 87 6000 5.1 230 00:43 07.12.2019
3069 Clouds 9 1014 100 10000 4.6 230 00:19 07.12.2019
3070 Clouds 9 1013 93 10000 4.1 240 23:47 06.12.2019
3071 Clouds 9 1013 93 10000 4.1 240 23:24 06.12.2019
3072 Clouds 9 1013 87 10000 3.6 220 22:58 06.12.2019
3073 Clouds 9 1012 93 10000 4.1 210 22:37 06.12.2019
3074 Drizzle 9 1012 93 5000 5.1 220 22:19 06.12.2019
3075 Drizzle 9 1012 93 5000 5.1 220 21:56 06.12.2019
3076 Drizzle 9 1012 93 5000 5.1 220 21:56 06.12.2019
3077 Clouds 9 1012 87 10000 7.2 210 21:38 06.12.2019
3078 Clouds 9 1012 87 10000 7.2 210 21:19 06.12.2019
3079 Clouds 9 1012 87 10000 7.2 210 21:19 06.12.2019
3080 Clouds 9 1012 93 10000 6.7 210 20:42 06.12.2019
3081 Clouds 9 1012 93 10000 6.2 210 20:42 06.12.2019
3082 Clouds 9 1012 93 10000 6.7 210 20:22 06.12.2019
3083 Clouds 8 1012 87 10000 6.7 210 19:58 06.12.2019
3084 Drizzle 8 1012 93 5000 6.7 200 19:39 06.12.2019
3085 Drizzle 8 1012 93 5000 6.7 200 19:21 06.12.2019
3086 Drizzle 7 1012 93 5000 6.7 200 18:55 06.12.2019
3087 Drizzle 7 1012 87 6000 6.7 200 18:36 06.12.2019
3088 Drizzle 7 1012 87 6000 6.7 200 18:18 06.12.2019
3089 Clouds 7 1012 93 10000 5.7 190 17:55 06.12.2019
3090 Rain 6 1013 87 10000 5.1 200 17:37 06.12.2019
3091 Rain 6 1013 87 10000 5.1 200 17:19 06.12.2019
3092 Clouds 6 1013 87 10000 7.7 200 16:42 06.12.2019
3093 Clouds 5 1013 87 10000 7.7 200 16:23 06.12.2019
3094 Clouds 5 1013 93 10000 6.2 190 15:57 06.12.2019
3095 Clouds 5 1013 93 10000 6.2 190 15:39 06.12.2019
3096 Clouds 4 1014 93 10000 6.7 190 15:18 06.12.2019
3097 Rain 4 1014 93 10000 6.2 190 14:55 06.12.2019
3098 Rain 4 1015 93 5000 5.1 190 14:37 06.12.2019
3099 Rain 4 1015 93 5000 5.1 190 14:18 06.12.2019
3100 Rain 4 1016 93 6000 5.1 190 13:42 06.12.2019
3101 Rain 4 1016 93 6000 5.1 190 13:23 06.12.2019
3102 Rain 3 1016 93 5000 5.1 190 12:42 06.12.2019
3103 Rain 3 1017 93 4400 5.1 190 12:22 06.12.2019
3104 Rain 3 1017 93 5000 5.1 190 11:57 06.12.2019
3105 Rain 3 1018 93 7000 5.1 190 11:39 06.12.2019
3106 Rain 3 1018 93 7000 5.1 190 11:19 06.12.2019
3107 Rain 3 1018 93 7000 4.6 180 10:43 06.12.2019
3108 Drizzle 3 1018 86 9000 4.1 190 10:21 06.12.2019
3109 Rain 3 1018 86 9000 3.6 180 09:57 06.12.2019
3110 Rain 2 1018 93 10000 3.1 180 09:37 06.12.2019
3111 Rain 2 1018 93 10000 3.1 180 09:19 06.12.2019
3112 Clouds 2 1018 86 10000 4.1 180 08:45 06.12.2019
3113 Rain 2 1018 86 10000 3.6 170 08:27 06.12.2019
3114 Clouds 1 1018 80 10000 3.1 170 07:56 06.12.2019
3115 Clouds 1 1018 80 10000 3.6 170 07:36 06.12.2019
3116 Clouds 1 1018 80 10000 3.6 170 07:18 06.12.2019
3117 Clouds 1 1019 80 9000 4.1 180 06:29 06.12.2019
3118 Clouds 1 1019 80 8000 4.1 180 05:53 06.12.2019
3119 Clouds 0 1019 80 7000 3.1 170 05:33 06.12.2019
3120 Clouds 0 1021 72 6000 4.1 170 02:19 06.12.2019
3121 Mist 0 1022 78 3500 4.1 160 01:30 06.12.2019
3122 Mist 0 1022 78 3400 4.1 160 00:46 06.12.2019
3123 Mist 0 1022 78 5000 4.1 160 00:21 06.12.2019
3124 Mist 0 1022 78 5000 2.1 150 23:47 05.12.2019
3125 Mist 0 1022 73 5000 2.1 170 23:19 05.12.2019
3126 Mist 0 1023 73 5000 2.6 170 22:57 05.12.2019
3127 Mist 0 1023 73 4800 3.6 180 22:38 05.12.2019
3128 Mist 0 1023 73 4800 3.6 180 22:18 05.12.2019
3129 Mist 0 1023 73 4800 3.6 180 22:18 05.12.2019
3130 Mist 0 1023 73 4400 4.1 170 21:55 05.12.2019
3131 Mist 0 1023 73 4700 4.1 160 21:36 05.12.2019
3132 Mist 0 1023 73 4700 4.1 160 21:18 05.12.2019
3133 Clouds 0 1023 73 7000 3.6 160 20:40 05.12.2019
3134 Clouds 0 1023 76 6000 2.1 220 20:21 05.12.2019
3135 Clouds 0 1023 76 6000 2.1 220 19:58 05.12.2019
3136 Clouds 0 1023 76 6000 2.1 230 19:40 05.12.2019
3137 Clouds 0 1023 76 6000 2.1 230 19:21 05.12.2019
3138 Clouds 0 1023 76 6000 2.1 220 18:57 05.12.2019
3139 Clouds 0 1023 76 6000 2.1 220 18:38 05.12.2019
3140 Clouds 1 1023 76 6000 2.1 250 18:20 05.12.2019
3141 Mist 1 1023 93 5000 2.1 170 17:40 05.12.2019
3142 Mist 1 1023 93 4700 2.6 180 17:20 05.12.2019
3143 Mist 1 1023 93 4700 2.6 180 16:58 05.12.2019
3144 Mist 1 1023 93 4800 2.6 200 16:39 05.12.2019
3145 Mist 1 1023 93 4100 1.5 220 16:21 05.12.2019
3146 Mist 1 1023 93 4100 1.5 220 15:58 05.12.2019
3147 Mist 1 1023 93 3200 1.5 240 15:38 05.12.2019
3148 Mist 1 1023 93 3200 1.5 240 15:20 05.12.2019
3149 Mist 1 1023 100 2400 1 0 14:56 05.12.2019
3150 Mist 1 1023 100 3100 1 0 14:56 05.12.2019
3151 Mist 1 1023 100 2400 1 0 14:37 05.12.2019
3152 Mist 1 1024 100 1700 1 0 14:19 05.12.2019
3153 Mist 1 1024 100 1700 1 0 14:19 05.12.2019
3154 Mist 1 1024 100 1700 1 0 13:56 05.12.2019
3155 Mist 1 1024 93 1400 1.5 240 13:38 05.12.2019
3156 Mist 1 1024 93 1400 1.5 240 13:19 05.12.2019
3157 Mist 1 1024 93 1400 2.1 170 12:57 05.12.2019
3158 Fog 1 1024 100 600 1.5 0 12:38 05.12.2019
3159 Fog 0 1024 100 500 1 0 12:20 05.12.2019
3160 Fog 0 1024 100 500 1 0 12:20 05.12.2019
3161 Fog 0 1025 63 600 1 0 11:39 05.12.2019
3162 Fog 0 1024 70 600 1 0 11:21 05.12.2019
3163 Fog 0 1024 70 600 1 0 10:58 05.12.2019
3164 Fog 0 1024 70 550 1 0 10:40 05.12.2019
3165 Fog 0 1024 100 1500 2.6 290 10:19 05.12.2019
3166 Fog 0 1024 100 1500 2.6 290 09:55 05.12.2019
3167 Mist 0 1024 100 1800 2.6 330 09:37 05.12.2019
3168 Mist 0 1023 100 1500 1.5 340 09:18 05.12.2019
3169 Mist 0 1023 100 3000 2.1 290 08:54 05.12.2019
3170 Mist 0 1023 100 3000 2.1 290 08:36 05.12.2019
3171 Mist -1 1023 100 2300 1 0 08:18 05.12.2019
3172 Mist -1 1022 100 2200 0.74 262 07:41 05.12.2019
3173 Mist -1 1023 100 3900 0.5 0 07:21 05.12.2019
3174 Mist -1 1023 100 1300 1.5 330 06:47 05.12.2019
3175 Fog -1 1023 92 800 1.5 330 06:23 05.12.2019
3176 Fog -1 1022 100 700 2.1 330 05:53 05.12.2019
3177 Fog -1 1022 100 700 2.1 330 05:24 05.12.2019
3178 Fog -1 1022 100 550 2.1 320 04:37 05.12.2019
3179 Fog -2 1022 100 450 1 0 03:35 05.12.2019
3180 Fog -2 1022 100 400 2.1 280 02:41 05.12.2019
3181 Fog -2 1022 100 400 2.1 280 02:21 05.12.2019
3182 Fog -2 1021 100 350 1 0 01:50 05.12.2019
3183 Fog -2 1021 100 350 1 0 01:50 05.12.2019
3184 Fog -1 1021 100 500 2.1 330 01:23 05.12.2019
3185 Fog -1 1021 92 450 0.5 0 00:43 05.12.2019
3186 Fog -1 1021 92 450 0.5 0 00:20 05.12.2019
3187 Fog -1 1021 92 550 1.5 340 23:47 04.12.2019
3188 Mist -1 1021 92 4500 1.5 0 23:22 04.12.2019
3189 Mist 0 1021 92 3300 1.5 350 22:59 04.12.2019
3190 Mist 0 1021 92 3300 1.5 350 22:38 04.12.2019
3191 Mist 0 1021 92 3300 1.5 350 22:20 04.12.2019
3192 Mist 0 1021 92 4000 1.5 0 21:57 04.12.2019
3193 Mist 0 1021 100 4600 2.1 350 21:38 04.12.2019
3194 Mist 0 1020 78 4100 1.5 360 21:19 04.12.2019
3195 Mist 0 1020 78 5000 1.5 0 20:57 04.12.2019
3196 Mist 0 1020 78 5000 1.5 0 20:39 04.12.2019
3197 Mist 0 1020 75 5000 1.5 360 20:21 04.12.2019
3198 Mist 0 1020 76 5000 1.5 360 19:55 04.12.2019
3199 Mist 0 1020 76 5000 1.5 360 19:55 04.12.2019
3200 Clouds 1 1020 76 6000 1.5 360 19:37 04.12.2019
3201 Clouds 1 1020 76 6000 2.1 350 19:19 04.12.2019
3202 Clouds 1 1019 76 9000 1.5 350 18:42 04.12.2019
3203 Clouds 1 1019 76 10000 1.5 80 18:24 04.12.2019
3204 Clouds 1 1019 76 10000 1.5 80 17:59 04.12.2019
3205 Clouds 2 1019 76 10000 2.1 60 17:39 04.12.2019
3206 Clouds 2 1019 76 10000 2.1 60 17:39 04.12.2019
3207 Clouds 2 1019 76 10000 2.1 60 17:39 04.12.2019
3208 Clouds 4 1019 80 10000 2.1 40 17:20 04.12.2019
3209 Clouds 4 1019 75 10000 3.1 30 16:56 04.12.2019
3210 Clouds 4 1019 75 10000 3.1 30 16:38 04.12.2019
3211 Clouds 4 1019 75 10000 3.1 30 16:19 04.12.2019
3212 Clouds 4 1019 75 10000 3.1 30 16:19 04.12.2019
3213 Clouds 4 1019 75 10000 2.1 30 15:55 04.12.2019
3214 Clouds 5 1019 75 10000 2.1 30 15:36 04.12.2019
3215 Clouds 4 1019 63 10000 2.1 40 15:18 04.12.2019
3216 Clouds 5 1019 75 10000 2.1 30 14:43 04.12.2019
3217 Clear 5 1019 75 10000 2.1 30 14:23 04.12.2019
3218 Clear 5 1019 75 10000 2.1 30 14:23 04.12.2019
3219 Clear 4 1020 75 10000 1.5 0 13:58 04.12.2019
3220 Clear 4 1020 75 10000 1.5 0 13:38 04.12.2019
3221 Clear 4 1020 80 10000 2.1 70 13:19 04.12.2019
3222 Clear 3 1020 86 10000 2.6 60 12:44 04.12.2019
3223 Clear 3 1021 86 10000 2.1 80 12:24 04.12.2019
3224 Clear 3 1021 86 10000 2.1 80 11:56 04.12.2019
3225 Clouds 2 1021 93 7000 1 0 11:38 04.12.2019
3226 Mist 1 1021 100 5000 1.5 360 11:20 04.12.2019
3227 Clear 1 1021 78 6000 1.5 340 10:44 04.12.2019
3228 Mist 0 1021 78 5000 1 0 10:23 04.12.2019
3229 Mist 0 1021 78 5000 1 0 09:57 04.12.2019
3230 Clear 0 1021 100 6000 1.5 360 09:38 04.12.2019
3231 Clear 0 1020 78 6000 4.1 70 09:19 04.12.2019
3232 Fog 0 1021 92 900 1 10 08:40 04.12.2019
3233 Fog -1 1021 92 900 1 10 08:22 04.12.2019
3234 Fog 0 1021 100 400 2.26 93 07:48 04.12.2019
3235 Fog 0 1021 100 400 2.26 93 07:30 04.12.2019
3236 Fog 0 1021 92 450 2.26 93 06:43 04.12.2019
3237 Fog 0 1021 92 600 1.5 80 06:24 04.12.2019
3238 Fog 0 1022 100 450 1.5 70 05:42 04.12.2019
3239 Fog 0 1022 88 400 2.1 50 04:31 04.12.2019
3240 Mist 0 1023 88 3200 0.5 0 02:59 04.12.2019
3241 Fog 1 1024 100 450 1.5 360 01:21 04.12.2019
3242 Fog 2 1024 93 500 1 0 00:40 04.12.2019
3243 Fog 2 1024 100 700 1 0 00:18 04.12.2019
3244 Mist 2 1025 93 1800 1.5 10 23:41 03.12.2019
3245 Mist 2 1025 93 1800 1.5 10 23:19 03.12.2019
3246 -273 0 0 0 0 0 22:54 03.12.2019
3247 Mist 3 1025 100 4000 2.6 30 22:36 03.12.2019
3248 Mist 3 1025 100 4300 3.1 40 22:18 03.12.2019
3249 Mist 3 1025 100 4300 3.1 40 22:18 03.12.2019
3250 Mist 3 1025 100 4300 3.1 40 21:54 03.12.2019
3251 Mist 3 1026 100 2500 2.6 30 21:36 03.12.2019
3252 Mist 3 1026 100 1900 2.1 20 21:18 03.12.2019
3253 Mist 3 1026 100 1600 2.6 40 20:41 03.12.2019
3254 Fog 3 1026 93 500 4.6 50 20:19 03.12.2019
3255 Mist 3 1026 93 2300 3.1 30 19:56 03.12.2019
3256 Mist 3 1026 93 1200 1.5 10 19:37 03.12.2019
3257 Mist 3 1026 100 1400 3.1 20 19:19 03.12.2019
3258 Mist 3 1026 100 1400 3.1 20 18:57 03.12.2019
3259 Mist 3 1026 93 2100 2.6 10 18:39 03.12.2019
3260 Mist 3 1026 93 3200 3.1 30 18:21 03.12.2019
3261 Mist 3 1026 93 3200 3.1 30 18:21 03.12.2019
3262 Mist 3 1026 93 3200 3.1 30 17:57 03.12.2019
3263 Clouds 3 1026 100 6000 3.1 20 17:38 03.12.2019
3264 Clouds 3 1026 100 6000 3.1 20 17:38 03.12.2019
3265 Clouds 4 1027 93 7000 2.6 20 17:18 03.12.2019
3266 Clouds 4 1027 93 7000 2.6 20 16:57 03.12.2019
3267 Clouds 4 1027 93 8000 2.1 40 16:38 03.12.2019
3268 Clouds 4 1027 93 9000 2.6 30 16:20 03.12.2019
3269 Clouds 5 1027 93 9000 2.6 30 15:56 03.12.2019
3270 Clouds 5 1027 93 7000 2.6 30 15:38 03.12.2019
3271 Clouds 4 1027 93 8000 2.6 20 15:19 03.12.2019
3272 Clouds 5 1028 93 8000 2.1 10 14:42 03.12.2019
3273 Clouds 4 1028 93 6000 2.1 30 14:20 03.12.2019
3274 Mist 4 1029 93 4500 1.5 20 13:56 03.12.2019
3275 Mist 4 1029 93 4500 1.5 20 13:37 03.12.2019
3276 Mist 4 1029 93 3300 1 0 13:19 03.12.2019
3277 Mist 4 1030 100 3900 1 0 12:41 03.12.2019
3278 Mist 4 1030 100 3900 1 0 12:19 03.12.2019
3279 Mist 4 1030 100 5000 1 0 11:58 03.12.2019
3280 Mist 4 1030 100 5000 1 0 11:39 03.12.2019
3281 Mist 3 1030 100 2000 1.5 30 11:21 03.12.2019
3282 Mist 3 1030 100 2000 1.5 30 10:59 03.12.2019
3283 Mist 3 1030 100 2200 0.5 0 10:41 03.12.2019
3284 Mist 3 1030 93 1400 1.5 0 10:20 03.12.2019
3285 Fog 2 1030 100 600 1 10 09:46 03.12.2019
3286 Fog 2 1030 100 600 1 10 09:46 03.12.2019
3287 Fog 2 1030 100 600 1 10 09:25 03.12.2019
3288 Fog 2 1030 100 700 1.5 70 08:59 03.12.2019
3289 Fog 2 1030 100 700 1.5 70 08:59 03.12.2019
3290 Mist 2 1030 100 2300 1.5 30 08:40 03.12.2019
3291 Mist 1 1030 100 2300 1.5 30 08:22 03.12.2019
3292 Mist 1 1030 89 4400 1 360 07:54 03.12.2019
3293 Mist 2 1030 100 4100 1 10 07:54 03.12.2019
3294 Mist 1 1030 89 4400 1 360 07:30 03.12.2019
3295 Mist 1 1030 89 3700 1.5 350 06:59 03.12.2019
3296 Fog 1 1030 100 2000 1 110 06:21 03.12.2019
3297 Mist 1 1030 92 4400 1 140 05:57 03.12.2019
3298 Mist 1 1030 100 4000 2.1 160 04:48 03.12.2019
3299 Fog 1 1030 89 2700 2.19 14 03:36 03.12.2019
3300 Mist 1 1030 100 5000 1 0 03:18 03.12.2019
3301 Mist 1 1030 100 5000 0.5 0 02:43 03.12.2019
3302 Mist 1 1030 89 5000 2.1 100 02:24 03.12.2019
3303 Clear 1 1030 89 6000 1.5 0 01:41 03.12.2019
3304 Clear 2 1030 93 7000 3.1 340 01:21 03.12.2019
3305 Clear 2 1030 93 7000 2.1 350 00:44 03.12.2019
3306 Clear 2 1030 93 7000 2.1 350 00:26 03.12.2019
3307 Clear 2 1030 93 6000 2.1 340 23:57 02.12.2019
3308 Mist 2 1030 100 5000 1 0 23:39 02.12.2019
3309 -273 0 0 0 0 0 23:19 02.12.2019
3310 -273 0 0 0 0 0 23:19 02.12.2019
3311 Clear 2 1030 93 8000 1.5 340 22:40 02.12.2019
3312 Clear 2 1030 93 8000 1.5 340 22:22 02.12.2019
3313 Clear 3 1030 86 7000 1.5 20 21:58 02.12.2019
3314 Clear 2 1030 93 7000 1.5 360 21:37 02.12.2019
3315 Clear 2 1030 93 7000 1.5 360 21:37 02.12.2019
3316 Clear 2 1030 86 6000 1 350 21:18 02.12.2019
3317 Clear 2 1030 86 6000 1 350 20:56 02.12.2019
3318 Clear 3 1030 93 8000 1.5 350 20:38 02.12.2019
3319 Clear 3 1030 93 10000 1 350 20:19 02.12.2019
3320 Clouds 3 1030 86 10000 1.5 0 19:43 02.12.2019
3321 Clouds 4 1030 86 10000 1.5 0 19:22 02.12.2019
3322 Clouds 4 1030 86 10000 1.5 0 18:59 02.12.2019
3323 Clouds 4 1030 86 10000 1.5 0 18:59 02.12.2019
3324 Clouds 4 1030 86 10000 1.5 360 18:39 02.12.2019
3325 Clouds 4 1030 86 10000 1.5 360 18:19 02.12.2019
3326 Clouds 5 1030 86 10000 1.5 350 17:58 02.12.2019
3327 Clouds 5 1030 81 10000 1 0 17:39 02.12.2019
3328 Clouds 6 1030 81 10000 2.1 30 17:19 02.12.2019
3329 Clouds 6 1030 75 10000 2.6 360 16:42 02.12.2019
3330 Clouds 6 1029 81 10000 3.1 340 16:19 02.12.2019
3331 Clouds 6 1029 81 10000 3.1 340 15:59 02.12.2019
3332 Clouds 6 1029 75 10000 2.6 350 15:40 02.12.2019
3333 Clouds 6 1029 75 10000 2.6 360 15:22 02.12.2019
3334 Clouds 6 1029 75 10000 2.6 340 14:59 02.12.2019
3335 Clouds 6 1029 75 10000 2.6 340 14:38 02.12.2019
3336 Clouds 6 1030 80 10000 2.6 360 14:20 02.12.2019
3337 Clouds 6 1030 80 10000 2.6 360 13:57 02.12.2019
3338 Clouds 6 1030 75 10000 2.1 360 13:39 02.12.2019
3339 Clouds 6 1030 75 10000 2.1 360 13:19 02.12.2019
3340 Clouds 5 1030 70 10000 3.1 30 12:56 02.12.2019
3341 Clouds 5 1030 74 10000 1.5 340 12:37 02.12.2019
3342 Clouds 4 1030 74 10000 1.5 360 12:19 02.12.2019
3343 Clouds 4 1030 74 10000 2.1 340 11:55 02.12.2019
3344 Clouds 3 1030 74 10000 2.1 340 11:36 02.12.2019
3345 Clouds 2 1029 80 10000 2.1 340 11:18 02.12.2019
3346 Clouds 2 1029 80 10000 2.1 340 10:54 02.12.2019
3347 Clouds 2 1029 80 10000 1.5 340 10:36 02.12.2019
3348 Clouds 1 1029 86 10000 2.1 330 10:18 02.12.2019
3349 Clouds 0 1028 83 9000 2.1 340 09:39 02.12.2019
3350 Clouds 0 1028 83 9000 2.1 340 09:19 02.12.2019
3351 Clouds 0 1028 83 9000 2.1 340 09:19 02.12.2019
3352 Clouds 0 1028 83 9000 2.1 340 09:19 02.12.2019
3353 Clouds 0 1028 83 9000 2.1 340 08:56 02.12.2019
3354 Clouds 0 1028 84 9000 2.1 340 08:38 02.12.2019
3355 Clear -1 1028 84 9000 2.6 340 08:20 02.12.2019
3356 Clear 0 1027 84 10000 2.6 350 07:42 02.12.2019
3357 Clear 0 1027 84 10000 3.1 340 07:21 02.12.2019
3358 Clear 0 1026 84 9000 2.6 350 06:52 02.12.2019
3359 Clear 0 1026 84 9000 2.6 350 06:34 02.12.2019
3360 Clear 0 1026 77 10000 3.1 350 05:24 02.12.2019
3361 Clear 0 1025 80 10000 3.6 360 04:20 02.12.2019
3362 Clear 1 1024 80 10000 3.1 360 02:51 02.12.2019
3363 Clouds 1 1024 80 10000 3.1 360 02:23 02.12.2019
3364 Clouds 1 1023 86 10000 2.6 360 01:24 02.12.2019
3365 Clouds 2 1023 80 10000 2.6 350 00:55 02.12.2019
3366 Clouds 2 1023 80 10000 2.6 350 00:24 02.12.2019
3367 Clouds 2 1022 74 10000 4.1 360 23:45 01.12.2019
3368 Clouds 2 1022 74 10000 4.1 360 23:23 01.12.2019
3369 Clouds 2 1022 74 10000 4.1 360 22:58 01.12.2019
3370 Clouds 3 1021 75 10000 3.1 360 22:39 01.12.2019
3371 Clouds 3 1021 75 10000 3.1 360 22:20 01.12.2019
3372 Clouds 3 1021 75 10000 3.1 360 21:58 01.12.2019
3373 Clouds 3 1021 75 10000 3.1 360 21:40 01.12.2019
3374 Clouds 3 1020 75 10000 3.6 360 21:22 01.12.2019
3375 Clouds 3 1020 75 10000 3.6 360 20:59 01.12.2019
3376 Clouds 3 1020 75 10000 3.6 360 20:59 01.12.2019
3377 Clouds 3 1020 86 10000 4.6 10 20:41 01.12.2019
3378 Clouds 3 1020 80 10000 4.6 360 20:23 01.12.2019
3379 Clouds 3 1020 80 10000 4.6 360 19:59 01.12.2019
3380 Clouds 3 1020 80 10000 4.6 350 19:40 01.12.2019
3381 Clouds 3 1019 86 10000 3.1 360 19:21 01.12.2019
3382 Clouds 3 1019 86 10000 3.1 360 18:58 01.12.2019
3383 Clouds 3 1019 86 10000 3.6 360 18:39 01.12.2019
3384 Clouds 3 1018 80 10000 4.1 360 18:20 01.12.2019
3385 Clouds 3 1018 80 10000 4.1 360 17:59 01.12.2019
3386 Clouds 3 1018 80 10000 3.6 360 17:41 01.12.2019
3387 Clouds 3 1018 80 10000 3.6 360 17:23 01.12.2019
3388 Clouds 3 1017 80 10000 4.6 340 16:57 01.12.2019
3389 Clouds 4 1017 80 10000 3.6 340 16:39 01.12.2019
3390 Clouds 4 1017 80 10000 3.6 360 16:20 01.12.2019
3391 Clouds 4 1016 80 10000 3.6 20 15:50 01.12.2019
3392 Clouds 4 1016 80 10000 3.6 20 15:31 01.12.2019
3393 Clouds 4 1017 80 10000 4.1 10 14:44 01.12.2019
3394 Clouds 4 1017 80 10000 3.6 20 14:20 01.12.2019
3395 Clouds 4 1017 80 10000 3.6 20 13:59 01.12.2019
3396 Clouds 3 1017 86 10000 4.6 20 13:39 01.12.2019
3397 Clouds 3 1016 86 10000 4.1 360 13:20 01.12.2019
3398 Rain 3 1016 86 10000 4.1 10 12:44 01.12.2019
3399 Rain 3 1016 86 9000 3.6 360 11:59 01.12.2019
3400 Rain 3 1016 86 9000 3.6 360 11:40 01.12.2019
3401 Rain 3 1016 93 10000 3.6 360 11:22 01.12.2019
3402 Rain 3 1015 86 10000 3.1 360 10:44 01.12.2019
3403 Drizzle 3 1015 86 10000 3.1 360 10:22 01.12.2019
3404 Drizzle 3 1015 86 10000 3.1 360 09:59 01.12.2019
3405 Rain 3 1014 86 10000 3.1 360 09:39 01.12.2019
3406 Rain 3 1014 86 10000 3.1 360 09:20 01.12.2019
3407 Rain 3 1013 93 10000 4.6 30 08:48 01.12.2019
3408 Clouds 3 1013 86 10000 2.6 20 08:20 01.12.2019
3409 Rain 3 1013 93 9000 2.6 20 07:52 01.12.2019
3410 Rain 3 1013 93 9000 2.6 20 07:31 01.12.2019
3411 Rain 3 1013 86 10000 2.1 20 06:57 01.12.2019
3412 Rain 3 1013 93 10000 2.6 10 06:35 01.12.2019
3413 Rain 3 1013 86 10000 4.1 10 05:49 01.12.2019
3414 Rain 4 1013 80 10000 3.1 60 04:51 01.12.2019
3415 Clouds 4 1014 80 10000 3.6 50 03:31 01.12.2019
3416 Clouds 4 1014 80 10000 3.6 60 02:37 01.12.2019
3417 Clouds 4 1015 80 10000 4.1 60 02:18 01.12.2019
3418 Clouds 4 1015 80 10000 4.1 60 01:52 01.12.2019
3419 Clouds 4 1015 80 10000 4.6 60 01:25 01.12.2019
3420 Clouds 4 1015 80 10000 4.6 60 00:42 01.12.2019
3421 Clouds 4 1015 80 10000 4.6 60 00:24 01.12.2019
3422 Clouds 5 1015 75 10000 5.1 50 23:43 30.11.2019
3423 Clouds 5 1016 75 10000 4.1 60 23:24 30.11.2019
3424 Clouds 5 1016 75 10000 4.1 60 22:57 30.11.2019
3425 Clouds 5 1016 75 10000 5.1 70 22:38 30.11.2019
3426 Clouds 5 1016 75 10000 4.6 60 22:19 30.11.2019
3427 Clouds 5 1016 75 10000 5.7 60 21:44 30.11.2019
3428 Clouds 5 1016 80 10000 5.1 50 21:25 30.11.2019
3429 Clouds 5 1016 80 10000 5.1 50 20:57 30.11.2019
3430 Clouds 5 1017 80 10000 6.2 50 20:38 30.11.2019
3431 Clouds 5 1018 80 10000 4.1 40 20:19 30.11.2019
3432 Clouds 5 1018 80 10000 3.6 50 19:56 30.11.2019
3433 Clouds 5 1018 80 10000 3.6 50 19:38 30.11.2019
3434 Clouds 5 1018 80 10000 4.1 50 19:19 30.11.2019
3435 Clouds 5 1018 80 10000 4.1 50 18:57 30.11.2019
3436 Clouds 5 1018 73 10000 3.6 70 18:38 30.11.2019
3437 Clouds 5 1018 73 10000 4.6 60 18:19 30.11.2019
3438 Clouds 6 1018 73 10000 5.1 70 17:57 30.11.2019
3439 Clouds 6 1018 73 10000 5.1 70 17:38 30.11.2019
3440 Clouds 6 1018 73 10000 5.1 70 17:38 30.11.2019
3441 Clouds 6 1018 65 10000 4.6 80 17:19 30.11.2019
3442 Clouds 6 1018 65 10000 4.6 80 16:56 30.11.2019
3443 Clouds 7 1018 65 10000 4.6 70 16:38 30.11.2019
3444 Clouds 7 1018 65 10000 5.7 90 16:19 30.11.2019
3445 Clouds 7 1018 61 10000 5.7 80 15:42 30.11.2019
3446 Clouds 7 1019 61 10000 5.1 110 15:19 30.11.2019
3447 Clouds 8 1019 61 10000 5.1 110 14:57 30.11.2019
3448 Clouds 8 1019 65 10000 6.2 90 14:38 30.11.2019
3449 Clouds 8 1019 61 10000 5.7 100 14:19 30.11.2019
3450 Clouds 8 1019 61 10000 5.7 100 13:57 30.11.2019
3451 Clouds 8 1020 65 10000 5.7 90 13:57 30.11.2019
3452 Clouds 8 1020 65 10000 5.7 90 13:37 30.11.2019
3453 Clouds 8 1020 66 10000 3.6 80 13:19 30.11.2019
3454 Clouds 8 1021 75 10000 4.1 100 12:46 30.11.2019
3455 Clouds 7 1021 75 10000 3.6 80 12:27 30.11.2019
3456 Clouds 7 1021 75 10000 3.6 80 11:57 30.11.2019
3457 Clouds 6 1021 81 10000 4.1 90 11:38 30.11.2019
3458 Clear 6 1021 86 10000 4.1 90 11:18 30.11.2019
3459 Clear 5 1021 93 10000 4.1 80 10:44 30.11.2019
3460 Clouds 4 1021 93 10000 3.1 60 10:21 30.11.2019
3461 Clouds 4 1021 93 10000 1 0 09:50 30.11.2019
3462 Clouds 3 1021 93 10000 1 0 09:30 30.11.2019
3463 Clear 3 1021 76 10000 1 0 08:56 30.11.2019
3464 Clouds 3 1021 93 10000 3.1 60 08:56 30.11.2019
3465 Clear 3 1021 73 10000 1 0 08:38 30.11.2019
3466 Clouds 3 1021 93 10000 3.6 60 08:18 30.11.2019
3467 Clouds 4 1021 93 10000 2.1 40 07:42 30.11.2019
3468 Clouds 4 1021 93 10000 2.1 40 07:23 30.11.2019
3469 Clouds 4 1022 93 10000 1.5 50 06:45 30.11.2019
3470 Clouds 4 1022 93 10000 1.5 50 06:27 30.11.2019
3471 Clouds 5 1022 86 10000 2.1 70 04:59 30.11.2019
3472 Clouds 5 1022 86 10000 1.5 0 03:38 30.11.2019
3473 Clouds 5 1022 86 10000 1.5 40 02:25 30.11.2019
3474 Clouds 6 1022 86 10000 1.5 40 01:50 30.11.2019
3475 Clouds 6 1022 86 10000 1.5 40 01:24 30.11.2019
3476 Clouds 6 1022 81 10000 1 0 00:45 30.11.2019
3477 Clouds 6 1022 81 10000 1 0 00:21 30.11.2019
3478 Clouds 6 1021 81 10000 1.5 10 23:44 29.11.2019
3479 Clouds 7 1021 81 10000 1.5 10 23:25 29.11.2019
3480 Clouds 7 1021 81 10000 2.6 30 23:25 29.11.2019
3481 Clouds 7 1021 81 10000 1.5 10 23:25 29.11.2019
3482 Clouds 7 1021 81 10000 1.5 30 22:49 29.11.2019
3483 Clouds 7 1021 81 10000 1.5 30 22:27 29.11.2019
3484 Clouds 7 1020 81 10000 1.5 20 21:59 29.11.2019
3485 Clouds 7 1020 81 10000 1.5 20 21:41 29.11.2019
3486 Clouds 7 1020 81 10000 1.5 20 21:22 29.11.2019
3487 Clouds 7 1020 81 10000 1.5 20 20:56 29.11.2019
3488 Clouds 7 1020 81 10000 0.5 0 20:37 29.11.2019
3489 Clouds 7 1019 76 10000 1 0 20:18 29.11.2019
3490 Clouds 7 1019 76 10000 1 0 19:55 29.11.2019
3491 Clouds 8 1019 76 10000 1.5 330 19:37 29.11.2019
3492 Clouds 8 1019 76 10000 1.5 330 19:37 29.11.2019
3493 Clouds 8 1019 76 10000 1.5 0 19:19 29.11.2019
3494 Clouds 8 1019 76 10000 1.5 320 18:42 29.11.2019
3495 Clouds 8 1018 70 10000 1.5 0 18:24 29.11.2019
3496 Clouds 8 1018 70 10000 1.5 0 18:00 29.11.2019
3497 Clouds 8 1018 76 10000 2.1 320 17:41 29.11.2019
3498 Clouds 8 1017 70 10000 1.5 0 17:22 29.11.2019
3499 Clouds 8 1017 70 10000 1 0 16:44 29.11.2019
3500 Clouds 8 1016 66 10000 2.6 360 16:21 29.11.2019
3501 Clouds 8 1016 66 10000 2.6 360 15:59 29.11.2019
3502 Clouds 8 1016 66 10000 2.6 360 15:59 29.11.2019
3503 Clouds 8 1016 70 10000 2.6 40 15:39 29.11.2019
3504 Clouds 8 1015 70 10000 3.1 20 15:21 29.11.2019
3505 Clouds 9 1015 70 10000 4.1 20 14:42 29.11.2019
3506 Clouds 9 1015 70 10000 4.1 10 14:22 29.11.2019
3507 Clouds 9 1015 70 10000 4.1 10 13:59 29.11.2019
3508 Clouds 9 1014 76 10000 4.1 20 13:39 29.11.2019
3509 Rain 9 1014 87 10000 3.6 360 13:20 29.11.2019
3510 Clouds 9 1014 87 10000 4.1 360 12:45 29.11.2019
3511 Clouds 9 1014 87 10000 4.1 360 12:25 29.11.2019
3512 Clouds 9 1013 87 10000 2.6 350 11:59 29.11.2019
3513 Clouds 9 1013 87 10000 3.6 340 11:41 29.11.2019
3514 Rain 9 1012 87 10000 3.1 310 11:19 29.11.2019
3515 Rain 9 1012 87 10000 3.1 310 11:19 29.11.2019
3516 Rain 9 1012 87 10000 3.1 310 10:59 29.11.2019
3517 Rain 9 1012 87 10000 3.1 310 10:59 29.11.2019
3518 Clouds 9 1011 87 10000 3.1 270 10:40 29.11.2019
3519 Clouds 9 1011 87 10000 3.6 270 10:22 29.11.2019
3520 Rain 8 1011 87 10000 3.6 270 09:59 29.11.2019
3521 Rain 8 1010 93 10000 3.6 260 09:40 29.11.2019
3522 -273 0 0 0 0 0 09:40 29.11.2019
3523 Rain 8 1010 87 10000 3.6 260 09:22 29.11.2019
3524 Rain 8 1010 87 10000 3.6 260 08:59 29.11.2019
3525 Rain 8 1009 87 10000 3.1 260 08:38 29.11.2019
3526 Rain 8 1009 87 10000 2.6 260 08:20 29.11.2019
3527 Rain 8 1009 87 10000 2.6 260 07:55 29.11.2019
3528 Clouds 8 1008 87 10000 3.6 260 07:36 29.11.2019
3529 Rain 8 1008 87 10000 3.6 250 07:18 29.11.2019
3530 Rain 8 1007 87 10000 4.1 240 06:41 29.11.2019
3531 Rain 9 1007 87 10000 3.1 260 05:47 29.11.2019
3532 Clouds 9 1006 87 10000 3.6 250 05:23 29.11.2019
3533 Clouds 9 1006 87 10000 3.1 250 04:20 29.11.2019
3534 Clouds 9 1005 81 10000 4.1 230 03:21 29.11.2019
3535 Clouds 9 1005 81 10000 2.6 260 02:29 29.11.2019
3536 Clouds 9 1005 87 10000 4.1 270 01:51 29.11.2019
3537 Clouds 9 1005 87 10000 4.1 270 01:26 29.11.2019
3538 Clouds 9 1004 81 10000 4.1 250 00:42 29.11.2019
3539 Clouds 9 1004 81 10000 4.1 250 00:42 29.11.2019
3540 Clouds 9 1004 81 10000 4.1 230 00:21 29.11.2019
3541 Clouds 9 1004 81 10000 4.1 230 23:55 28.11.2019
3542 Clouds 9 1004 81 10000 4.1 240 23:36 28.11.2019
3543 Rain 9 1003 87 10000 3.6 250 23:18 28.11.2019
3544 Rain 9 1003 81 10000 3.6 250 22:38 28.11.2019
3545 Rain 9 1003 81 10000 3.6 250 22:38 28.11.2019
3546 Clouds 9 1003 81 10000 4.6 240 22:20 28.11.2019
3547 Clouds 9 1003 81 10000 4.6 240 21:58 28.11.2019
3548 Clouds 9 1003 81 10000 4.6 240 21:40 28.11.2019
3549 Clouds 10 1003 81 10000 4.6 240 21:20 28.11.2019
3550 Rain 10 1002 81 10000 4.1 240 20:56 28.11.2019
3551 Clouds 10 1002 81 10000 4.6 240 20:38 28.11.2019
3552 Clouds 10 1002 76 10000 5.7 240 20:18 28.11.2019
3553 Clouds 10 1002 76 10000 5.7 240 19:55 28.11.2019
3554 Clouds 10 1001 76 10000 6.7 240 19:36 28.11.2019
3555 Clouds 10 1001 71 10000 5.1 230 19:18 28.11.2019
3556 Clouds 10 1001 71 10000 5.1 230 18:55 28.11.2019
3557 Clouds 11 1001 71 10000 6.2 230 18:37 28.11.2019
3558 Clouds 11 1000 71 10000 5.1 220 18:18 28.11.2019
3559 Clouds 11 1000 71 10000 5.1 220 18:18 28.11.2019
3560 Clouds 11 1000 71 10000 6.2 230 17:42 28.11.2019
3561 Clouds 11 1000 71 10000 5.1 230 17:23 28.11.2019
3562 Clouds 11 1000 71 10000 5.1 230 17:23 28.11.2019
3563 Clouds 11 1000 71 10000 5.1 230 16:58 28.11.2019
3564 Clouds 11 1000 71 10000 6.7 230 16:38 28.11.2019
3565 Clouds 11 1000 71 10000 6.2 230 16:19 28.11.2019
3566 Clouds 12 1000 71 10000 6.2 230 15:56 28.11.2019
3567 Clouds 12 1000 71 10000 6.2 230 15:56 28.11.2019
3568 Clouds 12 1000 76 10000 7.7 240 15:37 28.11.2019
3569 Clouds 12 1000 71 10000 6.7 230 15:19 28.11.2019
3570 Clouds 12 999 71 10000 7.7 240 14:42 28.11.2019
3571 Clouds 11 999 71 10000 6.7 230 14:24 28.11.2019
3572 Clouds 11 999 71 10000 6.7 230 13:59 28.11.2019
3573 Clouds 12 999 71 10000 7.7 230 13:41 28.11.2019
3574 Clouds 12 999 71 10000 7.7 230 13:22 28.11.2019
3575 Clouds 11 999 71 10000 8.2 230 12:49 28.11.2019
3576 Clouds 11 999 71 10000 8.2 230 12:30 28.11.2019
3577 Clouds 11 999 71 10000 7.2 230 11:59 28.11.2019
3578 Clouds 11 999 71 10000 7.2 230 11:59 28.11.2019
3579 Clouds 11 999 71 10000 8.7 230 11:41 28.11.2019
3580 Clouds 11 999 71 10000 8.7 230 11:41 28.11.2019
3581 Clouds 11 998 71 10000 7.7 240 11:21 28.11.2019
3582 Clouds 11 999 87 10000 6.7 240 10:59 28.11.2019
3583 -273 0 0 0 0 0 10:41 28.11.2019
3584 Clouds 10 997 76 10000 6.2 220 10:20 28.11.2019
3585 Clouds 10 997 76 10000 5.1 220 09:42 28.11.2019
3586 Clouds 10 997 87 10000 5.7 230 09:24 28.11.2019
3587 Clouds 10 997 87 10000 5.7 230 08:59 28.11.2019
3588 Rain 10 997 81 10000 7.2 220 08:40 28.11.2019
3589 Clouds 10 996 76 10000 6.7 220 08:21 28.11.2019
3590 Clouds 10 996 87 10000 6.2 230 07:43 28.11.2019
3591 Clouds 10 996 87 10000 6.2 230 07:25 28.11.2019
3592 Clouds 10 996 76 10000 6.7 210 06:58 28.11.2019
3593 Clouds 10 996 81 10000 6.2 210 06:37 28.11.2019
3594 Clouds 10 996 76 10000 7.2 210 05:53 28.11.2019
3595 Clouds 10 996 76 10000 7.2 210 05:33 28.11.2019
3596 Clouds 10 996 87 10000 6.2 230 03:43 28.11.2019
3597 Clouds 11 995 87 10000 6.7 230 02:18 28.11.2019
3598 Clouds 11 995 76 10000 7.2 210 01:21 28.11.2019
3599 Clouds 11 995 76 10000 7.2 230 00:37 28.11.2019
3600 Clouds 11 995 81 10000 6.7 230 00:18 28.11.2019
3601 Clouds 11 995 81 10000 6.2 240 23:38 27.11.2019
3602 Clouds 11 995 81 10000 6.7 230 23:20 27.11.2019
3603 Clouds 11 995 81 10000 7.7 230 22:56 27.11.2019
3604 Clouds 11 995 81 10000 7.7 230 22:37 27.11.2019
3605 Clouds 11 994 81 10000 7.7 230 22:18 27.11.2019
3606 Clouds 11 994 71 10000 9.3 210 21:55 27.11.2019
3607 Clouds 11 994 71 10000 7.7 220 21:36 27.11.2019
3608 Clouds 11 993 76 10000 7.7 210 21:18 27.11.2019
3609 Clouds 11 993 76 10000 7.7 210 20:56 27.11.2019
3610 Clouds 11 993 76 10000 8.2 210 20:36 27.11.2019
3611 Clouds 11 993 76 10000 9.3 210 20:18 27.11.2019
3612 Clouds 11 993 76 10000 9.3 210 20:18 27.11.2019
3613 Clouds 11 993 76 10000 9.3 210 19:55 27.11.2019
3614 Clouds 11 992 76 10000 8.7 200 19:37 27.11.2019
3615 Clouds 11 992 76 10000 7.7 210 19:18 27.11.2019
3616 Clouds 11 992 81 10000 6.7 230 18:54 27.11.2019
3617 Clouds 11 992 81 10000 6.7 230 18:36 27.11.2019
3618 Clouds 12 992 76 10000 7.7 230 18:18 27.11.2019
3619 Clouds 12 991 71 10000 7.2 210 17:41 27.11.2019
3620 Clouds 12 991 81 10000 6.7 210 17:23 27.11.2019
3621 -273 0 0 0 0 0 17:23 27.11.2019
3622 Clouds 12 991 81 10000 6.7 210 16:58 27.11.2019
3623 Clouds 12 991 81 10000 6.7 210 16:58 27.11.2019
3624 Clouds 12 991 87 10000 5.1 210 16:40 27.11.2019
3625 Clouds 12 991 87 10000 5.1 210 16:21 27.11.2019
3626 Clouds 12 991 81 10000 7.7 210 16:21 27.11.2019
3627 Rain 11 991 81 10000 7.7 210 15:59 27.11.2019
3628 Rain 11 991 81 10000 8.2 220 15:41 27.11.2019
3629 Rain 11 991 81 10000 8.2 220 15:40 27.11.2019
3630 Rain 11 990 81 10000 9.3 210 15:21 27.11.2019
3631 Rain 11 990 81 10000 9.3 210 14:59 27.11.2019
3632 Clouds 11 990 81 10000 8.7 210 14:41 27.11.2019
3633 Clouds 11 990 81 10000 8.7 210 14:41 27.11.2019
3634 Rain 11 991 81 10000 7.7 230 14:23 27.11.2019
3635 Rain 11 991 81 10000 7.7 230 13:58 27.11.2019
3636 Clouds 11 990 81 10000 6.7 200 13:40 27.11.2019
3637 Clouds 11 990 81 10000 7.2 200 13:19 27.11.2019
3638 Clouds 11 990 81 10000 7.2 200 12:59 27.11.2019
3639 Rain 11 991 87 10000 7.7 200 12:40 27.11.2019
3640 Rain 11 991 87 10000 7.7 200 12:40 27.11.2019
3641 Rain 11 991 87 10000 7.2 190 12:20 27.11.2019
3642 Rain 10 991 87 10000 6.7 190 11:54 27.11.2019
3643 Rain 10 991 87 10000 6.7 190 11:36 27.11.2019
3644 Clouds 10 991 81 10000 6.7 190 11:18 27.11.2019
3645 Clouds 10 991 81 10000 7.7 190 10:42 27.11.2019
3646 Clouds 10 991 81 10000 7.7 200 10:23 27.11.2019
3647 Clouds 10 991 81 10000 9.3 190 09:48 27.11.2019
3648 Clouds 10 990 81 10000 8.2 190 09:26 27.11.2019
3649 Clouds 10 990 81 10000 8.2 190 08:59 27.11.2019
3650 Clouds 10 990 81 10000 7.7 190 08:41 27.11.2019
3651 Clouds 10 990 81 10000 7.7 190 08:22 27.11.2019
3652 Clouds 10 990 81 10000 7.7 190 08:22 27.11.2019
3653 Clouds 10 990 81 10000 8.7 200 07:47 27.11.2019
3654 Clouds 10 990 81 10000 8.2 200 07:28 27.11.2019
3655 Clouds 10 990 81 10000 6.7 210 06:54 27.11.2019
3656 Clouds 10 990 81 10000 6.7 210 06:35 27.11.2019
3657 Clouds 10 990 87 10000 7.7 190 05:46 27.11.2019
3658 Clouds 10 990 81 10000 7.2 190 05:20 27.11.2019
3659 Clouds 10 990 81 10000 7.2 200 04:48 27.11.2019
3660 Clouds 10 990 81 10000 7.2 200 04:29 27.11.2019
3661 Clouds 11 990 87 10000 5.7 230 03:40 27.11.2019
3662 Clouds 11 990 87 10000 6.7 180 03:19 27.11.2019
3663 Rain 11 991 93 6000 6.7 150 02:21 27.11.2019
3664 Clouds 11 992 93 10000 5.1 120 00:50 27.11.2019
3665 Clouds 11 992 93 10000 5.1 120 00:30 27.11.2019
3666 Rain 11 994 100 3600 4.1 150 23:55 26.11.2019
3667 Rain 11 994 100 3600 4.1 150 23:37 26.11.2019
3668 Rain 11 995 100 4500 5.7 140 23:18 26.11.2019
3669 Rain 11 996 93 6000 8.2 160 22:39 26.11.2019
3670 Rain 11 996 93 6000 8.2 160 22:20 26.11.2019
3671 Rain 11 996 93 6000 8.2 160 22:20 26.11.2019
3672 Rain 11 996 87 9000 7.7 160 21:59 26.11.2019
3673 Rain 11 997 87 9000 5.7 160 21:38 26.11.2019
3674 Rain 11 997 87 10000 3.6 160 21:20 26.11.2019
3675 Rain 11 997 87 10000 3.6 170 20:57 26.11.2019
3676 Rain 11 997 87 10000 3.6 170 20:37 26.11.2019
3677 Clouds 12 998 87 10000 4.6 150 20:19 26.11.2019
3678 Clouds 12 998 87 10000 4.6 150 19:55 26.11.2019
3679 Clouds 12 999 87 10000 4.1 150 19:37 26.11.2019
3680 Clouds 12 999 87 10000 3.1 140 19:19 26.11.2019
3681 Clouds 12 999 87 10000 3.1 140 18:57 26.11.2019
3682 Clouds 12 999 87 10000 3.6 160 18:39 26.11.2019
3683 Clouds 12 1000 82 10000 3.6 180 18:21 26.11.2019
3684 Clouds 12 1000 82 10000 3.1 180 17:58 26.11.2019
3685 Clouds 12 1000 82 10000 3.1 180 17:40 26.11.2019
3686 Clouds 12 1000 82 10000 5.1 180 17:21 26.11.2019
3687 Clouds 12 1001 82 10000 6.2 190 16:57 26.11.2019
3688 Clouds 12 1001 82 10000 6.2 190 16:37 26.11.2019
3689 Clouds 12 1001 82 10000 5.1 190 16:19 26.11.2019
3690 Clouds 12 1001 82 10000 5.1 190 16:19 26.11.2019
3691 Clouds 12 1001 82 10000 5.1 190 15:59 26.11.2019
3692 Clouds 12 1001 82 10000 5.1 190 15:59 26.11.2019
3693 Clouds 12 1001 82 10000 3.6 180 15:38 26.11.2019
3694 Clouds 12 1001 82 10000 4.6 190 15:20 26.11.2019
3695 Clouds 12 1002 87 10000 6.2 180 14:51 26.11.2019
3696 Clouds 12 1002 87 10000 6.2 180 14:26 26.11.2019
3697 Clouds 12 1002 87 10000 6.2 180 13:57 26.11.2019
3698 Clouds 12 1002 87 10000 6.7 190 13:38 26.11.2019
3699 Clouds 12 1003 87 10000 5.7 180 13:19 26.11.2019
3700 Clouds 12 1003 87 10000 5.7 180 13:19 26.11.2019
3701 Clouds 11 1003 93 10000 6.2 170 12:39 26.11.2019
3702 Rain 11 1004 93 10000 6.2 180 12:21 26.11.2019
3703 Rain 11 1004 93 10000 6.2 180 11:58 26.11.2019
3704 Rain 11 1004 93 10000 5.1 180 11:39 26.11.2019
3705 Rain 11 1004 93 10000 5.1 180 11:39 26.11.2019
3706 Rain 11 1004 93 3300 5.7 180 11:20 26.11.2019
3707 Rain 11 1004 87 3000 5.1 190 10:58 26.11.2019
3708 Rain 11 1004 87 3000 5.1 190 10:40 26.11.2019
3709 Clouds 11 1004 87 10000 5.7 180 10:21 26.11.2019
3710 Clouds 11 1004 87 10000 5.7 180 09:57 26.11.2019
3711 Clouds 11 1004 87 10000 5.1 180 09:38 26.11.2019
3712 Clouds 10 1004 87 10000 5.7 180 09:19 26.11.2019
3713 Clouds 10 1004 87 10000 4.1 180 08:44 26.11.2019
3714 Clouds 10 1004 87 10000 4.1 180 08:24 26.11.2019
3715 Clouds 10 1004 87 10000 4.6 190 07:46 26.11.2019
3716 Clouds 10 1004 87 10000 4.6 190 07:27 26.11.2019
3717 Clouds 10 1004 87 10000 5.1 180 06:55 26.11.2019
3718 Clouds 10 1005 87 10000 4.1 190 06:35 26.11.2019
3719 Clouds 10 1005 87 10000 4.1 190 06:35 26.11.2019
3720 Clouds 10 1005 93 10000 4.1 210 05:52 26.11.2019
3721 Clouds 10 1005 93 10000 3.6 190 04:46 26.11.2019
3722 Rain 11 1006 93 2800 3.1 210 02:52 26.11.2019
3723 Clouds 11 1006 87 10000 3.6 180 01:33 26.11.2019
3724 Clouds 11 1006 87 10000 3.6 180 00:53 26.11.2019
3725 Clouds 11 1006 87 10000 3.6 180 00:30 26.11.2019
3726 Clouds 11 1006 87 10000 3.1 180 23:54 25.11.2019
3727 Clouds 11 1007 87 10000 4.1 190 23:36 25.11.2019
3728 Clouds 11 1006 87 10000 3.6 180 23:18 25.11.2019
3729 Clouds 11 1006 93 10000 3.6 180 22:39 25.11.2019
3730 Clouds 11 1006 93 10000 4.1 170 22:19 25.11.2019
3731 Clouds 11 1006 93 10000 4.1 170 21:59 25.11.2019
3732 Clouds 11 1007 93 10000 4.1 170 21:40 25.11.2019
3733 Clouds 10 1007 93 9000 5.1 170 21:21 25.11.2019
3734 Clouds 10 1007 93 10000 4.6 170 20:57 25.11.2019
3735 Clouds 10 1007 93 10000 4.6 170 20:57 25.11.2019
3736 Clouds 10 1007 93 10000 4.6 170 20:39 25.11.2019
3737 Clouds 10 1007 93 10000 4.1 160 20:20 25.11.2019
3738 Clouds 10 1006 93 10000 4.6 170 19:56 25.11.2019
3739 Clouds 10 1006 93 10000 4.6 170 19:38 25.11.2019
3740 Clouds 10 1007 93 10000 5.1 160 19:19 25.11.2019
3741 Clouds 10 1007 93 10000 5.1 160 18:57 25.11.2019
3742 Clouds 10 1007 93 10000 3.6 170 18:39 25.11.2019
3743 Clouds 10 1006 87 10000 5.1 170 18:21 25.11.2019
3744 Clouds 10 1006 87 10000 5.1 170 17:58 25.11.2019
3745 Rain 10 1006 93 6000 5.1 170 17:39 25.11.2019
3746 Clouds 10 1006 87 10000 6.7 170 17:20 25.11.2019
3747 Clouds 10 1006 87 10000 6.7 170 16:58 25.11.2019
3748 Clouds 11 1006 81 10000 6.7 180 16:40 25.11.2019
3749 Clouds 11 1006 71 10000 5.7 170 16:22 25.11.2019
3750 Clouds 11 1006 66 10000 6.2 170 15:56 25.11.2019
3751 Clouds 11 1006 66 10000 6.2 170 15:37 25.11.2019
3752 Clouds 11 1006 66 10000 6.7 180 15:18 25.11.2019
3753 Clouds 11 1006 66 10000 6.2 160 14:43 25.11.2019
3754 Clouds 12 1006 66 10000 5.7 160 14:25 25.11.2019
3755 Clouds 12 1006 66 10000 5.7 160 13:57 25.11.2019
3756 Clouds 12 1006 66 10000 6.7 170 13:57 25.11.2019
3757 Clouds 12 1006 66 10000 5.7 160 13:57 25.11.2019
3758 Clouds 12 1006 66 10000 6.7 170 13:37 25.11.2019
3759 Clouds 12 1007 71 10000 6.7 160 13:18 25.11.2019
3760 Clouds 11 1007 71 10000 6.7 160 12:58 25.11.2019
3761 Clouds 11 1007 76 10000 5.7 160 12:39 25.11.2019
3762 Clouds 11 1007 81 10000 4.6 160 12:19 25.11.2019
3763 Clouds 10 1007 87 10000 5.1 160 11:40 25.11.2019
3764 Clouds 10 1008 87 10000 4.6 160 11:21 25.11.2019
3765 Clouds 9 1008 87 10000 4.6 160 10:59 25.11.2019
3766 Clouds 9 1008 81 10000 4.1 160 10:41 25.11.2019
3767 Clouds 8 1008 87 10000 3.6 140 10:20 25.11.2019
3768 Clouds 8 1008 87 10000 4.1 150 09:44 25.11.2019
3769 Clouds 8 1008 87 10000 4.1 150 09:26 25.11.2019
3770 Clouds 8 1008 87 10000 4.1 150 08:58 25.11.2019
3771 Clouds 8 1008 87 10000 4.1 160 08:38 25.11.2019
3772 Clouds 8 1008 87 10000 5.1 150 08:19 25.11.2019
3773 Clouds 8 1007 87 10000 4.6 140 07:40 25.11.2019
3774 Clouds 8 1007 93 10000 4.1 140 07:18 25.11.2019
3775 Clouds 8 1007 87 10000 4.1 140 06:43 25.11.2019
3776 Clouds 8 1008 87 10000 4.1 150 06:19 25.11.2019
3777 Clouds 8 1007 87 10000 4.1 150 05:37 25.11.2019
3778 Clouds 8 1007 87 10000 4.1 140 04:50 25.11.2019
3779 Clouds 8 1008 87 10000 4.1 160 02:48 25.11.2019
3780 Clouds 8 1008 87 10000 3.1 150 02:18 25.11.2019
3781 Clouds 8 1008 93 10000 2.6 140 01:38 25.11.2019
3782 Clouds 8 1008 93 10000 3.1 160 01:19 25.11.2019
3783 Clouds 8 1008 87 10000 3.1 160 00:21 25.11.2019
3784 Clouds 8 1008 87 10000 3.6 150 23:57 24.11.2019
3785 Clouds 8 1008 87 10000 3.6 150 23:37 24.11.2019
3786 Clouds 8 1008 87 10000 3.6 160 23:18 24.11.2019
3787 Clouds 8 1008 93 10000 4.1 150 22:42 24.11.2019
3788 Clouds 8 1008 93 10000 4.1 150 22:21 24.11.2019
3789 Clouds 8 1008 87 10000 3.1 150 21:59 24.11.2019
3790 Clouds 8 1007 93 10000 3.1 130 21:41 24.11.2019
3791 Clouds 8 1008 87 10000 2.1 110 21:21 24.11.2019
3792 Clouds 8 1008 87 10000 2.1 110 20:59 24.11.2019
3793 Clouds 8 1008 93 9000 1 350 20:39 24.11.2019
3794 Clouds 8 1008 93 10000 1.5 50 20:19 24.11.2019
3795 Clouds 7 1008 93 10000 1.5 50 19:57 24.11.2019
3796 Clouds 7 1008 93 10000 2.6 80 19:38 24.11.2019
3797 Clear 7 1008 86 10000 3.1 100 19:20 24.11.2019
3798 Clouds 7 1008 87 10000 0.5 180 18:59 24.11.2019
3799 Clouds 7 1008 87 10000 0.5 180 18:38 24.11.2019
3800 Clouds 7 1008 81 10000 1 180 18:20 24.11.2019
3801 Clouds 7 1008 81 10000 1 180 17:58 24.11.2019
3802 Clouds 8 1008 81 10000 2.1 220 17:40 24.11.2019
3803 Clouds 8 1008 76 10000 4.1 190 17:21 24.11.2019
3804 Clouds 8 1008 76 10000 4.1 190 16:57 24.11.2019
3805 Clouds 9 1008 76 10000 4.1 190 16:39 24.11.2019
3806 Clouds 9 1008 76 10000 4.1 190 16:21 24.11.2019
3807 Clouds 9 1008 76 10000 4.1 190 15:46 24.11.2019
3808 Clouds 9 1008 71 10000 5.7 200 15:27 24.11.2019
3809 Clouds 9 1008 71 10000 5.7 200 14:59 24.11.2019
3810 Clouds 9 1007 87 10000 4.1 220 14:39 24.11.2019
3811 Clouds 10 1007 71 10000 5.1 200 14:19 24.11.2019
3812 Clouds 9 1007 71 10000 5.1 200 13:56 24.11.2019
3813 Clouds 10 1007 71 10000 4.1 210 13:37 24.11.2019
3814 Clouds 10 1007 76 10000 4.6 200 13:19 24.11.2019
3815 Clouds 10 1007 76 10000 4.6 200 12:55 24.11.2019
3816 Clouds 10 1007 87 10000 3.1 210 12:37 24.11.2019
3817 Clouds 10 1007 93 10000 2.1 150 12:18 24.11.2019
3818 Clouds 10 1008 93 8000 2.1 0 11:38 24.11.2019
3819 Mist 9 1007 100 5000 2.54 234 11:19 24.11.2019
3820 Mist 9 1007 100 5000 2.54 234 10:55 24.11.2019
3821 Mist 9 1007 100 5000 2.54 234 10:37 24.11.2019
3822 Mist 9 1006 93 1500 0.5 0 10:19 24.11.2019
3823 Fog 8 1006 100 450 1 0 09:38 24.11.2019
3824 Fog 8 1006 100 450 2.54 234 09:20 24.11.2019
3825 Fog 8 1006 100 450 2.54 234 08:57 24.11.2019
3826 Fog 8 1005 93 650 1 30 08:39 24.11.2019
3827 Fog 8 1005 93 500 1 290 08:20 24.11.2019
3828 Fog 8 1005 100 600 1.5 50 07:47 24.11.2019
3829 Fog 8 1004 100 700 1 170 07:21 24.11.2019
3830 Fog 8 1004 100 600 2.31 231 06:51 24.11.2019
3831 Fog 8 1003 93 550 0.5 0 05:39 24.11.2019
3832 Fog 7 1002 100 700 1.5 70 04:41 24.11.2019
3833 Mist 7 1001 93 5000 1.5 360 02:42 24.11.2019
3834 Mist 6 1001 100 5000 1.5 10 01:56 24.11.2019
3835 Mist 6 1001 93 4800 1.5 10 01:34 24.11.2019
3836 Clouds 7 1000 93 6000 1.5 40 00:53 24.11.2019
3837 Clouds 7 1000 93 6000 2.6 70 00:25 24.11.2019
3838 Clouds 7 1000 93 6000 2.6 70 00:25 24.11.2019
3839 Clouds 7 999 93 7000 1.5 40 23:57 23.11.2019
3840 Clouds 7 999 93 7000 1.5 40 23:39 23.11.2019
3841 Clouds 7 999 93 7000 1.5 30 23:20 23.11.2019
3842 Clouds 7 999 93 7000 1.5 30 23:20 23.11.2019
3843 Clouds 7 998 93 7000 1.5 60 22:57 23.11.2019
3844 Clouds 7 998 93 7000 1.5 60 22:37 23.11.2019
3845 Clouds 8 998 87 8000 2.6 60 22:19 23.11.2019
3846 Clouds 8 997 87 10000 1.5 50 21:56 23.11.2019
3847 Clouds 8 997 87 10000 1.5 50 21:37 23.11.2019
3848 Clouds 8 997 93 9000 2.6 70 21:19 23.11.2019
3849 Clouds 9 996 87 10000 2.1 60 20:38 23.11.2019
3850 Clouds 9 996 87 10000 2.1 60 20:38 23.11.2019
3851 Clouds 9 996 87 10000 1 70 20:20 23.11.2019
3852 Clouds 9 995 87 10000 2.1 50 19:57 23.11.2019
3853 Clouds 9 995 87 10000 2.1 50 19:39 23.11.2019
3854 Clouds 9 995 87 9000 3.6 70 19:19 23.11.2019
3855 Clouds 9 995 87 9000 3.6 70 19:19 23.11.2019
3856 Clouds 9 995 87 9000 3.6 70 18:57 23.11.2019
3857 Clouds 9 995 87 10000 0.5 0 18:38 23.11.2019
3858 Clouds 9 994 81 10000 1.5 120 18:19 23.11.2019
3859 Clouds 9 994 81 10000 1.5 120 18:19 23.11.2019
3860 Clouds 9 994 81 10000 1.5 50 17:43 23.11.2019
3861 Clouds 9 993 81 10000 3.6 80 17:21 23.11.2019
3862 Clouds 9 993 81 10000 3.6 80 16:57 23.11.2019
3863 Clouds 9 993 76 10000 3.6 80 16:38 23.11.2019
3864 Clouds 9 993 76 10000 3.6 80 16:38 23.11.2019
3865 Clouds 10 993 76 10000 4.6 90 16:20 23.11.2019
3866 Clouds 10 993 76 10000 5.1 100 15:58 23.11.2019
3867 Clouds 10 993 76 10000 5.1 100 15:39 23.11.2019
3868 Clouds 10 993 81 10000 5.1 100 15:19 23.11.2019
3869 Clouds 10 992 81 10000 5.1 80 14:57 23.11.2019
3870 Clouds 10 992 81 10000 5.1 80 14:39 23.11.2019
3871 Rain 10 992 81 10000 5.1 80 14:20 23.11.2019
3872 -273 0 0 0 0 0 13:54 23.11.2019
3873 Rain 10 992 87 10000 4.1 70 13:36 23.11.2019
3874 Rain 10 992 81 10000 7.7 110 13:18 23.11.2019
3875 Rain 10 992 81 10000 8.7 110 12:41 23.11.2019
3876 Rain 10 992 87 10000 8.7 100 12:22 23.11.2019
3877 Rain 10 992 93 10000 5.1 110 11:44 23.11.2019
3878 Rain 10 991 87 10000 3.6 90 11:22 23.11.2019
3879 Rain 10 991 93 8000 5.7 100 10:45 23.11.2019
3880 Rain 9 991 87 6000 5.7 100 10:23 23.11.2019
3881 Rain 9 991 87 6000 5.7 100 09:58 23.11.2019
3882 Rain 9 991 87 10000 7.2 110 09:39 23.11.2019
3883 Rain 9 991 87 10000 4.6 100 09:18 23.11.2019
3884 Clouds 9 991 87 10000 5.1 110 08:41 23.11.2019
3885 Clouds 9 991 93 10000 3.6 110 08:18 23.11.2019
3886 Clouds 9 991 87 10000 5.7 110 07:41 23.11.2019
3887 Clouds 9 991 87 10000 5.7 110 06:52 23.11.2019
3888 Clouds 9 990 87 10000 4.6 110 06:26 23.11.2019
3889 Rain 9 990 87 10000 4.6 110 05:57 23.11.2019
3890 Rain 9 990 87 10000 4.6 110 05:32 23.11.2019
3891 Rain 9 990 87 10000 5.1 110 04:57 23.11.2019
3892 Rain 9 990 87 10000 5.1 110 04:32 23.11.2019
3893 Rain 9 990 87 10000 6.2 110 03:27 23.11.2019
3894 Rain 9 991 87 10000 5.7 110 02:38 23.11.2019
3895 Rain 9 991 87 10000 5.1 110 01:40 23.11.2019
3896 Rain 9 991 76 10000 6.2 110 00:48 23.11.2019
3897 Rain 9 991 76 10000 6.2 110 00:20 23.11.2019
3898 Rain 9 991 76 10000 6.2 110 23:56 22.11.2019
3899 Rain 10 992 76 10000 7.2 110 23:37 22.11.2019
3900 Rain 10 992 76 10000 7.2 110 23:37 22.11.2019
3901 Clouds 10 992 71 10000 6.2 110 23:18 22.11.2019
3902 Rain 10 991 76 10000 5.7 100 22:55 22.11.2019
3903 Rain 10 991 76 10000 5.7 100 22:37 22.11.2019
3904 Clouds 10 992 71 10000 6.7 120 22:18 22.11.2019
3905 Clouds 10 992 71 10000 6.7 120 22:18 22.11.2019
3906 Clouds 11 992 62 10000 7.7 110 21:41 22.11.2019
3907 Clouds 11 992 62 10000 7.7 110 21:21 22.11.2019
3908 Clouds 11 993 62 10000 7.2 110 20:56 22.11.2019
3909 Clouds 10 993 66 10000 6.7 110 20:38 22.11.2019
3910 Clouds 10 993 66 10000 6.7 110 20:20 22.11.2019
3911 Clouds 10 994 76 10000 5.1 90 19:40 22.11.2019
3912 Clouds 10 994 81 10000 4.1 80 19:21 22.11.2019
3913 Clouds 10 994 81 10000 4.1 80 18:59 22.11.2019
3914 Clouds 9 994 81 10000 4.6 80 18:38 22.11.2019
3915 Clouds 9 994 81 10000 4.6 80 18:20 22.11.2019
3916 Clouds 9 995 76 10000 4.6 80 17:43 22.11.2019
3917 Clouds 10 995 76 10000 5.7 90 17:24 22.11.2019
3918 Clouds 10 995 76 10000 5.7 90 16:58 22.11.2019
3919 Clouds 10 995 66 10000 6.7 100 16:40 22.11.2019
3920 Clouds 10 996 66 10000 7.2 100 16:21 22.11.2019
3921 Clouds 11 996 62 10000 6.7 110 15:40 22.11.2019
3922 Clouds 11 996 58 10000 7.2 110 15:22 22.11.2019
3923 Clouds 12 996 58 10000 7.2 110 14:55 22.11.2019
3924 Clouds 11 997 58 10000 7.7 110 14:55 22.11.2019
3925 Clouds 11 997 58 10000 7.7 110 14:37 22.11.2019
3926 Clouds 11 998 58 10000 6.2 120 14:19 22.11.2019
3927 Clouds 11 999 62 10000 5.1 130 13:40 22.11.2019
3928 Clouds 11 999 62 10000 5.1 130 13:20 22.11.2019
3929 Clouds 10 999 66 10000 5.1 130 12:59 22.11.2019
3930 Clouds 10 1000 66 10000 5.7 130 12:40 22.11.2019
3931 Clouds 9 1001 66 10000 4.6 140 12:20 22.11.2019
3932 Clouds 9 1001 70 10000 5.1 150 11:59 22.11.2019
3933 Clouds 8 1001 70 10000 5.1 150 11:38 22.11.2019
3934 Clouds 8 1002 75 10000 5.1 150 11:20 22.11.2019
3935 Clouds 7 1002 75 10000 5.1 150 10:58 22.11.2019
3936 Clouds 7 1002 81 10000 5.1 150 10:39 22.11.2019
3937 Clouds 6 1002 81 10000 4.1 160 10:21 22.11.2019
3938 Clouds 5 1002 81 10000 4.1 160 09:55 22.11.2019
3939 Clouds 5 1002 87 10000 4.6 150 09:37 22.11.2019
3940 Clouds 5 1002 93 10000 4.6 150 09:18 22.11.2019
3941 Clouds 5 1002 93 10000 4.1 150 08:44 22.11.2019
3942 Clouds 5 1002 87 10000 4.1 160 08:24 22.11.2019
3943 Clouds 5 1002 87 10000 4.6 160 07:44 22.11.2019
3944 Clouds 5 1002 87 10000 4.6 170 07:22 22.11.2019
3945 Clouds 5 1002 87 10000 5.1 170 06:49 22.11.2019
3946 Clouds 5 1002 87 10000 5.1 170 06:29 22.11.2019
3947 Clouds 6 1002 87 10000 5.7 160 05:45 22.11.2019
3948 Clouds 6 1002 81 10000 5.7 170 04:22 22.11.2019
3949 Clouds 7 1003 87 10000 6.2 170 02:52 22.11.2019
3950 Clouds 7 1002 87 10000 5.1 170 02:30 22.11.2019
3951 Clouds 7 1002 87 10000 5.7 160 01:45 22.11.2019
3952 Clouds 7 1002 87 10000 4.6 160 01:19 22.11.2019
3953 Clouds 7 1002 87 10000 4.6 150 00:50 22.11.2019
3954 Clouds 7 1002 87 10000 4.1 160 00:23 22.11.2019
3955 Drizzle 7 1003 87 10000 5.7 170 23:49 21.11.2019
3956 Drizzle 7 1003 87 10000 5.7 170 23:30 21.11.2019
3957 Clouds 7 1003 87 10000 4.6 150 22:59 21.11.2019
3958 Clouds 7 1003 87 10000 4.1 160 22:39 21.11.2019
3959 Clouds 7 1003 87 10000 3.6 160 22:21 21.11.2019
3960 Clouds 7 1003 87 10000 3.6 160 21:57 21.11.2019
3961 Clouds 7 1003 87 10000 4.1 160 21:37 21.11.2019
3962 Clouds 7 1003 87 10000 4.1 160 21:19 21.11.2019
3963 Clouds 7 1003 87 10000 5.1 170 20:58 21.11.2019
3964 Clouds 7 1002 93 10000 4.1 170 20:38 21.11.2019
3965 Clouds 8 1003 87 10000 4.1 160 20:19 21.11.2019
3966 Clouds 8 1003 87 10000 4.1 160 19:59 21.11.2019
3967 Clouds 8 1003 87 10000 4.1 160 19:59 21.11.2019
3968 Clouds 8 1003 87 10000 4.1 160 19:59 21.11.2019
3969 Rain 8 1003 81 10000 5.7 160 19:40 21.11.2019
3970 Rain 8 1003 81 10000 5.7 160 19:22 21.11.2019
3971 Clouds 8 1003 76 10000 7.7 170 18:57 21.11.2019
3972 Clouds 8 1003 71 10000 6.2 160 18:38 21.11.2019
3973 Clouds 8 1003 76 10000 3.6 130 18:19 21.11.2019
3974 Clouds 8 1003 76 10000 3.6 130 17:57 21.11.2019
3975 Clouds 9 1003 76 10000 3.6 130 17:38 21.11.2019
3976 Clouds 9 1003 71 10000 4.1 130 17:19 21.11.2019
3977 Clear 9 1003 66 10000 3.6 140 16:41 21.11.2019
3978 Clear 9 1003 66 10000 3.6 140 16:21 21.11.2019
3979 Clear 9 1003 66 10000 3.6 150 15:57 21.11.2019
3980 Clear 9 1003 66 10000 3.6 150 15:38 21.11.2019
3981 Clear 9 1003 66 10000 4.6 160 15:19 21.11.2019
3982 Clear 9 1003 66 10000 4.6 160 14:56 21.11.2019
3983 Clear 9 1003 66 10000 4.6 160 14:56 21.11.2019
3984 Clear 10 1003 66 10000 4.1 160 14:36 21.11.2019
3985 Clouds 10 1003 66 10000 3.6 140 14:18 21.11.2019
3986 Clouds 9 1004 70 10000 4.6 150 13:39 21.11.2019
3987 Clouds 9 1004 66 10000 4.1 140 13:20 21.11.2019
3988 Clouds 8 1004 66 10000 4.1 140 12:59 21.11.2019
3989 Clouds 8 1005 75 10000 3.1 130 12:38 21.11.2019
3990 Clouds 7 1005 75 10000 2.6 140 12:20 21.11.2019
3991 Clouds 6 1005 81 10000 2.1 120 11:41 21.11.2019
3992 Clouds 4 1005 93 9000 2.1 90 11:23 21.11.2019
3993 Clouds 4 1005 93 9000 2.1 90 10:59 21.11.2019
3994 Mist 3 1006 93 5000 2.1 50 10:41 21.11.2019
3995 Mist 2 1006 93 4700 2.6 60 10:23 21.11.2019
3996 Mist 2 1006 93 4700 2.6 60 09:57 21.11.2019
3997 Mist 1 1006 83 4600 2.1 70 09:39 21.11.2019
3998 Mist 1 1006 83 4300 2.1 80 09:20 21.11.2019
3999 Mist 1 1006 83 5000 2.6 70 08:42 21.11.2019
4000 Mist 0 1006 91 5000 2.1 60 08:21 21.11.2019
4001 Mist 0 1006 91 5000 2.6 70 07:43 21.11.2019
4002 Mist 0 1006 91 5000 2.1 70 07:19 21.11.2019
4003 Mist 0 1006 91 5000 2.1 70 06:58 21.11.2019
4004 Mist 0 1006 91 5000 2.1 40 06:34 21.11.2019
4005 Mist 0 1006 91 5000 2.6 50 05:39 21.11.2019
4006 Mist 0 1007 90 5000 2.1 50 03:35 21.11.2019
4007 Clouds 0 1007 90 6000 2.6 50 02:42 21.11.2019
4008 Clear 0 1007 90 6000 2.6 60 02:23 21.11.2019
4009 Clear 0 1008 90 6000 2.6 50 01:47 21.11.2019
4010 Clear 0 1008 88 6000 2.6 50 01:20 21.11.2019
4011 Clear 1 1008 88 6000 2.1 40 00:38 21.11.2019
4012 Clear 1 1008 88 6000 2.1 30 00:19 21.11.2019
4013 Clear 1 1009 88 6000 2.1 40 23:42 20.11.2019
4014 Clear 1 1009 85 6000 2.1 40 23:21 20.11.2019
4015 Clear 1 1009 85 6000 2.6 50 22:58 20.11.2019
4016 Clouds 1 1009 85 7000 2.6 60 22:38 20.11.2019
4017 Clouds 1 1009 85 8000 3.1 80 22:19 20.11.2019
4018 Clouds 2 1009 85 8000 3.1 80 21:58 20.11.2019
4019 Clouds 2 1009 85 9000 3.1 90 21:39 20.11.2019
4020 Clear 2 1009 93 9000 3.6 80 21:20 20.11.2019
4021 Clear 2 1009 93 9000 3.6 80 20:57 20.11.2019
4022 Clear 2 1009 85 10000 3.1 80 20:39 20.11.2019
4023 Clouds 2 1009 81 10000 3.1 80 20:20 20.11.2019
4024 Clouds 3 1010 81 10000 3.1 80 19:56 20.11.2019
4025 Clouds 3 1010 81 10000 3.1 80 19:37 20.11.2019
4026 Clouds 3 1010 86 10000 3.6 90 19:18 20.11.2019
4027 Clouds 3 1010 86 10000 3.6 90 18:58 20.11.2019
4028 Clouds 3 1010 86 10000 3.1 80 18:39 20.11.2019
4029 Clouds 4 1010 80 10000 3.6 80 18:20 20.11.2019
4030 Clouds 4 1010 80 10000 3.6 80 17:56 20.11.2019
4031 Clouds 4 1010 75 10000 4.6 90 17:38 20.11.2019
4032 Clouds 5 1010 70 10000 5.1 90 17:20 20.11.2019
4033 Clouds 5 1010 70 10000 5.1 90 16:56 20.11.2019
4034 Clouds 5 1010 65 10000 4.6 90 16:37 20.11.2019
4035 Clouds 6 1010 65 10000 5.7 90 16:18 20.11.2019
4036 Clouds 6 1011 65 10000 6.7 90 15:42 20.11.2019
4037 Clouds 6 1011 65 10000 6.7 90 15:22 20.11.2019
4038 Clouds 6 1011 65 10000 6.7 80 14:59 20.11.2019
4039 Clouds 6 1011 65 10000 5.7 80 14:40 20.11.2019
4040 Clouds 6 1011 65 10000 5.7 80 14:40 20.11.2019
4041 Clouds 6 1012 65 10000 5.1 90 14:22 20.11.2019
4042 Clouds 6 1012 65 10000 5.1 90 13:58 20.11.2019
4043 Clouds 6 1012 65 10000 4.6 90 13:39 20.11.2019
4044 Clouds 6 1013 70 10000 4.1 70 13:20 20.11.2019
4045 Clouds 6 1013 70 10000 4.1 70 12:55 20.11.2019
4046 Clouds 5 1013 70 10000 3.6 80 12:37 20.11.2019
4047 Clouds 5 1014 75 10000 3.6 70 12:19 20.11.2019
4048 Clouds 4 1014 80 10000 3.1 80 11:45 20.11.2019
4049 Clouds 3 1014 86 10000 3.1 100 11:22 20.11.2019
4050 Clouds 3 1014 86 10000 3.1 100 10:56 20.11.2019
4051 Clouds 2 1015 74 10000 3.1 70 10:38 20.11.2019
4052 Clouds 1 1015 86 10000 2.6 60 10:20 20.11.2019
4053 Clouds 1 1015 74 10000 2.1 60 09:44 20.11.2019
4054 -273 0 0 0 0 0 09:23 20.11.2019
4055 Clouds 0 1015 92 10000 2.1 40 08:59 20.11.2019
4056 Clouds 0 1015 92 10000 1.5 50 08:39 20.11.2019
4057 Clouds -1 1015 92 10000 1.5 70 08:21 20.11.2019
4058 Clouds -1 1015 92 10000 3.1 70 07:48 20.11.2019
4059 Clouds -1 1015 92 10000 2.6 70 07:28 20.11.2019
4060 Clouds -1 1015 92 10000 2.6 70 06:50 20.11.2019
4061 Clouds -1 1016 92 10000 2.1 60 06:22 20.11.2019
4062 Clouds -1 1016 92 10000 1.5 50 05:51 20.11.2019
4063 Clouds 0 1017 73 10000 1.5 40 03:52 20.11.2019
4064 Clouds 0 1017 86 10000 2.6 60 02:22 20.11.2019
4065 Clouds 1 1018 86 10000 1.5 30 01:34 20.11.2019
4066 Clouds 1 1018 75 10000 2.6 50 00:43 20.11.2019
4067 Clouds 1 1018 80 10000 3.1 70 23:59 19.11.2019
4068 Clouds 2 1018 75 10000 2.1 50 23:39 19.11.2019
4069 Clouds 2 1018 67 10000 1 20 23:20 19.11.2019
4070 Clouds 2 1018 80 10000 0.5 0 22:42 19.11.2019
4071 Clouds 3 1018 67 10000 2.6 130 22:19 19.11.2019
4072 Clouds 3 1018 67 10000 2.6 130 21:58 19.11.2019
4073 Clouds 3 1018 67 10000 2.6 130 21:38 19.11.2019
4074 Clouds 4 1018 75 10000 3.1 140 21:20 19.11.2019
4075 Clouds 4 1018 70 10000 2.1 120 20:58 19.11.2019
4076 Clouds 4 1018 70 10000 2.1 120 20:39 19.11.2019
4077 Clouds 5 1018 70 10000 2.6 130 20:21 19.11.2019
4078 Clouds 5 1018 70 10000 2.6 130 19:59 19.11.2019
4079 Clouds 5 1018 70 10000 1.5 150 19:41 19.11.2019
4080 Clouds 5 1018 70 10000 2.6 140 19:20 19.11.2019
4081 Clouds 5 1018 70 10000 2.6 140 18:57 19.11.2019
4082 Clouds 6 1018 70 10000 2.6 120 18:38 19.11.2019
4083 Clouds 6 1018 70 10000 2.1 120 18:18 19.11.2019
4084 Clouds 6 1018 70 10000 2.1 120 17:56 19.11.2019
4085 Clouds 6 1018 70 10000 2.1 120 17:56 19.11.2019
4086 Clouds 6 1018 64 10000 1 0 17:37 19.11.2019
4087 Clouds 7 1018 54 10000 0.5 10 17:19 19.11.2019
4088 Clear 7 1018 54 10000 1.5 350 16:57 19.11.2019
4089 Clear 8 1018 54 10000 1.5 350 16:38 19.11.2019
4090 Clear 8 1018 54 10000 1.5 40 16:18 19.11.2019
4091 Clouds 9 1018 54 10000 1 60 15:44 19.11.2019
4092 Clouds 9 1018 54 10000 1 0 15:25 19.11.2019
4093 Clouds 9 1018 54 10000 1 0 14:57 19.11.2019
4094 Clouds 9 1018 54 10000 1.5 0 14:39 19.11.2019
4095 Clouds 9 1018 46 10000 1.5 330 14:20 19.11.2019
4096 Clouds 9 1018 49 10000 1 0 13:42 19.11.2019
4097 Clouds 9 1018 57 10000 2.1 230 13:20 19.11.2019
4098 Clouds 8 1019 70 10000 1.5 0 12:42 19.11.2019
4099 Clouds 8 1019 70 10000 1.5 0 12:23 19.11.2019
4100 Clouds 7 1019 75 10000 1.5 150 11:59 19.11.2019
4101 Clouds 7 1019 81 10000 1 130 11:39 19.11.2019
4102 Clouds 6 1019 87 10000 2.1 140 11:20 19.11.2019
4103 Clouds 6 1019 87 10000 2.1 140 10:58 19.11.2019
4104 Clouds 6 1019 93 10000 1 0 10:40 19.11.2019
4105 Clouds 5 1018 93 10000 1.5 140 10:20 19.11.2019
4106 Clouds 5 1018 93 10000 0.5 0 09:43 19.11.2019
4107 Clouds 4 1018 93 10000 0.5 0 09:21 19.11.2019
4108 Clouds 4 1018 100 10000 1 0 08:57 19.11.2019
4109 Clouds 4 1018 93 10000 1.5 80 08:38 19.11.2019
4110 Clouds 4 1018 93 10000 1 90 08:20 19.11.2019
4111 Clouds 4 1018 93 10000 0.5 0 07:42 19.11.2019
4112 Clouds 4 1018 93 10000 0.5 0 07:23 19.11.2019
4113 Clouds 4 1017 100 9000 0.9 322 06:55 19.11.2019
4114 Clouds 4 1017 100 9000 0.9 322 06:36 19.11.2019
4115 Clouds 4 1017 100 7000 1 10 05:52 19.11.2019
4116 Clouds 4 1017 93 6000 1.88 308 05:18 19.11.2019
4117 Clouds 4 1017 93 9000 1.88 308 03:39 19.11.2019
4118 Clouds 4 1017 93 9000 1 0 03:19 19.11.2019
4119 Clouds 5 1017 93 10000 1.5 260 02:39 19.11.2019
4120 Clouds 5 1017 87 10000 1 0 01:48 19.11.2019
4121 Clouds 5 1017 87 10000 1.5 260 00:46 19.11.2019
4122 Clouds 5 1017 87 10000 1.5 280 00:19 19.11.2019
4123 Clouds 5 1017 93 10000 1.5 270 23:39 18.11.2019
4124 Clouds 6 1016 87 10000 1.5 0 23:19 18.11.2019
4125 Clouds 6 1016 93 10000 2.1 270 22:46 18.11.2019
4126 Clouds 6 1016 93 10000 1.5 260 22:24 18.11.2019
4127 Clouds 6 1016 93 10000 1.5 260 21:58 18.11.2019
4128 Clouds 6 1016 93 10000 1.5 270 21:40 18.11.2019
4129 Clouds 6 1015 87 10000 2.1 270 21:21 18.11.2019
4130 Clouds 6 1015 100 10000 3.1 300 20:59 18.11.2019
4131 Clouds 7 1015 93 7000 2.1 310 20:40 18.11.2019
4132 Rain 7 1015 93 7000 2.1 310 20:19 18.11.2019
4133 Rain 7 1015 93 7000 4.1 310 19:57 18.11.2019
4134 Drizzle 7 1015 93 8000 3.6 320 19:38 18.11.2019
4135 Rain 7 1015 87 10000 3.1 300 19:20 18.11.2019
4136 Rain 7 1015 87 10000 3.1 300 18:56 18.11.2019
4137 Rain 7 1014 87 10000 3.1 300 18:38 18.11.2019
4138 Rain 7 1014 87 10000 3.6 300 18:19 18.11.2019
4139 Rain 7 1014 87 10000 3.1 300 17:56 18.11.2019
4140 Rain 7 1014 87 10000 3.1 300 17:37 18.11.2019
4141 Rain 7 1013 87 10000 3.1 300 17:19 18.11.2019
4142 Clouds 7 1013 87 10000 3.1 300 16:42 18.11.2019
4143 Rain 8 1013 87 10000 3.1 290 16:24 18.11.2019
4144 Rain 8 1013 87 10000 3.1 290 15:58 18.11.2019
4145 Drizzle 8 1012 93 10000 3.6 290 15:39 18.11.2019
4146 Drizzle 8 1012 93 10000 3.6 290 15:20 18.11.2019
4147 Rain 8 1012 87 10000 3.6 280 14:58 18.11.2019
4148 Clouds 7 1012 87 10000 3.1 280 14:38 18.11.2019
4149 Clouds 7 1012 87 10000 4.1 270 14:18 18.11.2019
4150 Clouds 7 1012 93 10000 3.6 270 13:42 18.11.2019
4151 Rain 7 1012 93 10000 3.6 270 13:24 18.11.2019
4152 Rain 7 1012 93 4000 3.6 250 12:43 18.11.2019
4153 Rain 6 1012 87 5000 3.6 260 12:20 18.11.2019
4154 Rain 6 1012 87 5000 3.6 260 11:58 18.11.2019
4155 Drizzle 6 1012 81 10000 4.1 260 11:40 18.11.2019
4156 Clouds 6 1012 87 10000 3.1 270 11:22 18.11.2019
4157 Clouds 6 1012 87 10000 3.1 260 10:44 18.11.2019
4158 Clouds 5 1012 87 10000 3.1 260 10:26 18.11.2019
4159 Clouds 5 1012 87 10000 2.6 260 09:58 18.11.2019
4160 Clouds 5 1012 86 10000 3.1 260 09:38 18.11.2019
4161 Clouds 4 1012 86 10000 2.1 270 09:20 18.11.2019
4162 Clouds 4 1012 86 10000 1.5 240 08:57 18.11.2019
4163 Clouds 4 1012 86 10000 1.5 240 08:39 18.11.2019
4164 Clouds 4 1011 86 10000 2.1 270 08:19 18.11.2019
4165 Clouds 4 1011 80 10000 2.1 270 07:45 18.11.2019
4166 Clouds 4 1011 80 10000 2.1 270 07:25 18.11.2019
4167 Clouds 4 1011 80 10000 2.1 260 06:49 18.11.2019
4168 Clouds 4 1011 86 10000 1.5 260 06:28 18.11.2019
4169 Clouds 3 1011 86 10000 2.1 260 05:44 18.11.2019
4170 Clouds 3 1011 93 10000 2.1 260 04:28 18.11.2019
4171 Clouds 4 1010 80 10000 2.1 310 01:47 18.11.2019
4172 Clouds 4 1010 80 10000 2.1 320 01:25 18.11.2019
4173 Clouds 4 1010 80 10000 2.1 320 00:20 18.11.2019
4174 Clouds 4 1010 80 10000 2.1 320 23:41 17.11.2019
4175 Clouds 5 1010 80 10000 3.1 330 23:23 17.11.2019
4176 Clouds 5 1010 80 10000 3.1 330 22:57 17.11.2019
4177 Clouds 5 1011 80 10000 2.6 330 22:39 17.11.2019
4178 Clouds 5 1010 80 10000 2.1 340 22:21 17.11.2019
4179 Clouds 5 1010 80 10000 2.1 340 21:57 17.11.2019
4180 Clouds 5 1010 80 10000 2.1 340 21:57 17.11.2019
4181 Clouds 5 1010 81 10000 2.1 320 21:39 17.11.2019
4182 Clouds 5 1010 81 10000 2.1 320 21:18 17.11.2019
4183 Clouds 5 1010 81 10000 2.1 330 20:55 17.11.2019
4184 Clouds 5 1010 81 10000 2.1 330 20:37 17.11.2019
4185 Clouds 5 1010 81 10000 2.6 340 20:18 17.11.2019
4186 Clouds 5 1010 81 10000 2.6 340 19:55 17.11.2019
4187 Clouds 6 1010 81 10000 2.6 340 19:37 17.11.2019
4188 Clouds 6 1010 81 10000 2.6 340 19:37 17.11.2019
4189 Clouds 6 1010 75 10000 2.1 350 19:19 17.11.2019
4190 Clouds 6 1010 75 10000 1.5 0 18:54 17.11.2019
4191 Clouds 6 1010 75 10000 1.5 0 18:36 17.11.2019
4192 Clouds 6 1009 70 10000 2.1 360 18:18 17.11.2019
4193 Clouds 7 1009 70 10000 2.1 360 17:57 17.11.2019
4194 Clouds 7 1009 70 10000 2.6 10 17:38 17.11.2019
4195 Clouds 7 1009 70 10000 3.6 30 17:19 17.11.2019
4196 Clouds 7 1009 70 10000 3.6 30 17:19 17.11.2019
4197 Clouds 7 1009 70 10000 4.6 30 16:55 17.11.2019
4198 Clouds 7 1009 70 10000 4.6 30 16:37 17.11.2019
4199 Clouds 7 1009 70 10000 4.6 30 16:37 17.11.2019
4200 Clouds 8 1009 70 10000 3.1 40 16:19 17.11.2019
4201 Clouds 8 1009 66 10000 3.6 40 15:41 17.11.2019
4202 Clouds 8 1009 66 10000 3.6 40 15:41 17.11.2019
4203 Clouds 8 1009 66 10000 2.6 10 15:19 17.11.2019
4204 Clouds 8 1009 66 10000 2.6 10 14:58 17.11.2019
4205 Clouds 8 1009 66 10000 3.1 20 14:40 17.11.2019
4206 Clouds 8 1009 70 10000 3.6 20 14:21 17.11.2019
4207 Clouds 8 1009 70 10000 3.6 20 13:59 17.11.2019
4208 Clouds 8 1009 70 10000 3.1 10 13:40 17.11.2019
4209 Clouds 7 1009 70 10000 3.1 10 13:20 17.11.2019
4210 Clouds 7 1009 87 10000 1.5 10 12:55 17.11.2019
4211 Clouds 7 1009 87 10000 1.5 10 12:36 17.11.2019
4212 Clouds 6 1010 87 10000 1.5 0 12:18 17.11.2019
4213 Clouds 6 1010 87 10000 1.5 0 12:18 17.11.2019
4214 Clouds 6 1010 87 10000 1.5 0 11:54 17.11.2019
4215 Clouds 6 1010 93 10000 0.5 0 11:36 17.11.2019
4216 Clouds 5 1010 93 10000 1 0 11:18 17.11.2019
4217 Clouds 5 1010 93 10000 2.1 40 10:41 17.11.2019
4218 Clouds 5 1010 93 10000 1 0 10:22 17.11.2019
4219 Clouds 5 1010 93 10000 1 0 09:43 17.11.2019
4220 Clouds 5 1010 93 10000 1 0 09:24 17.11.2019
4221 Clouds 5 1010 93 10000 0.5 0 08:57 17.11.2019
4222 Clouds 5 1010 93 10000 1.5 360 08:37 17.11.2019
4223 Clouds 5 1010 93 10000 1 30 08:18 17.11.2019
4224 Clouds 5 1010 93 10000 2.1 50 07:42 17.11.2019
4225 Clouds 5 1010 93 10000 2.1 50 07:21 17.11.2019
4226 Clouds 5 1009 93 10000 2.1 60 06:55 17.11.2019
4227 Clouds 5 1009 93 10000 2.1 60 06:30 17.11.2019
4228 Clouds 5 1009 93 10000 2.1 60 06:30 17.11.2019
4229 Mist 5 1009 93 5000 1.5 0 05:39 17.11.2019
4230 Clouds 5 1009 93 10000 2.6 80 04:20 17.11.2019
4231 Clouds 5 1009 93 10000 2.1 80 03:40 17.11.2019
4232 Clouds 5 1009 93 10000 2.1 80 03:22 17.11.2019
4233 Clouds 5 1010 93 10000 1 0 02:19 17.11.2019
4234 Clouds 5 1010 93 10000 1.5 50 01:22 17.11.2019
4235 Clouds 5 1010 87 10000 1 0 00:43 17.11.2019
4236 Clouds 5 1010 87 10000 1 0 00:21 17.11.2019
4237 Clouds 5 1010 87 10000 2.1 80 23:43 16.11.2019
4238 Clouds 5 1009 87 10000 2.1 50 23:19 16.11.2019
4239 Clouds 5 1009 87 10000 2.1 50 22:58 16.11.2019
4240 Clouds 5 1009 87 10000 1.5 40 22:40 16.11.2019
4241 Clouds 5 1009 87 10000 2.1 50 22:18 16.11.2019
4242 Clouds 5 1009 87 10000 1.5 30 21:41 16.11.2019
4243 Clouds 5 1009 81 10000 1 90 21:23 16.11.2019
4244 Clouds 5 1009 81 10000 1 90 20:59 16.11.2019
4245 Clouds 5 1009 81 10000 2.1 130 20:41 16.11.2019
4246 Clouds 5 1009 81 10000 2.1 130 20:20 16.11.2019
4247 Clouds 6 1009 81 10000 2.6 130 19:57 16.11.2019
4248 Clouds 6 1009 81 10000 3.1 140 19:38 16.11.2019
4249 Clouds 6 1008 81 10000 3.6 140 19:20 16.11.2019
4250 Clouds 6 1008 81 10000 3.6 140 18:45 16.11.2019
4251 Clouds 6 1008 81 10000 3.6 140 18:27 16.11.2019
4252 Clouds 6 1008 81 10000 3.6 140 17:56 16.11.2019
4253 Clouds 6 1008 81 10000 3.6 140 17:56 16.11.2019
4254 Clouds 6 1007 81 10000 5.1 140 17:38 16.11.2019
4255 Clouds 6 1007 93 10000 3.1 150 17:19 16.11.2019
4256 Clouds 6 1007 81 10000 3.6 130 16:47 16.11.2019
4257 Clouds 6 1007 81 10000 3.6 130 16:29 16.11.2019
4258 Clouds 6 1007 81 10000 4.1 140 15:58 16.11.2019
4259 Clouds 6 1007 81 10000 4.6 160 15:39 16.11.2019
4260 Clouds 6 1006 87 10000 4.6 150 15:20 16.11.2019
4261 Clouds 6 1006 87 10000 4.6 150 15:20 16.11.2019
4262 Clouds 6 1006 87 10000 4.6 150 15:20 16.11.2019
4263 Clouds 6 1006 87 10000 4.6 150 14:57 16.11.2019
4264 Clouds 6 1006 87 10000 4.6 150 14:38 16.11.2019
4265 Clouds 6 1006 81 10000 5.7 140 14:19 16.11.2019
4266 Clouds 6 1006 81 10000 5.7 140 13:54 16.11.2019
4267 Clouds 6 1006 87 10000 6.2 150 13:54 16.11.2019
4268 Clouds 6 1006 87 10000 6.2 150 13:36 16.11.2019
4269 Clouds 6 1006 87 10000 6.2 140 13:18 16.11.2019
4270 Clouds 6 1006 87 10000 5.7 140 12:42 16.11.2019
4271 Clouds 6 1006 87 10000 5.7 140 12:22 16.11.2019
4272 Clouds 6 1006 87 10000 5.1 130 11:55 16.11.2019
4273 Clouds 5 1006 87 10000 5.7 120 11:37 16.11.2019
4274 Clouds 5 1005 87 10000 4.6 120 11:18 16.11.2019
4275 Clouds 5 1004 93 10000 3.1 140 10:42 16.11.2019
4276 Clouds 5 1004 93 10000 3.1 140 10:24 16.11.2019
4277 Clouds 5 1004 100 10000 3.6 140 09:58 16.11.2019
4278 Clouds 5 1004 93 10000 4.6 120 09:40 16.11.2019
4279 Clouds 5 1004 93 10000 4.6 120 09:19 16.11.2019
4280 Clouds 4 1003 93 10000 5.1 120 08:41 16.11.2019
4281 Clouds 4 1003 93 10000 5.1 120 08:20 16.11.2019
4282 Clouds 4 1003 93 10000 3.6 130 07:46 16.11.2019
4283 Clouds 4 1003 93 10000 3.6 130 07:22 16.11.2019
4284 Clouds 4 1002 93 10000 3.6 120 06:59 16.11.2019
4285 Clouds 4 1002 93 10000 3.6 120 06:59 16.11.2019
4286 Clouds 4 1002 93 10000 3.6 130 06:41 16.11.2019
4287 Clouds 4 1002 93 10000 3.1 130 06:20 16.11.2019
4288 Clouds 4 1001 100 9000 4.1 140 04:34 16.11.2019
4289 Rain 4 1001 93 9000 3.6 160 03:26 16.11.2019
4290 Clouds 4 1001 93 10000 5.1 140 02:36 16.11.2019
4291 Clouds 4 1001 93 10000 5.1 140 02:36 16.11.2019
4292 Clouds 4 1001 93 10000 5.7 150 01:38 16.11.2019
4293 Clouds 3 1001 93 10000 4.6 150 00:51 16.11.2019
4294 Clouds 3 1001 93 10000 4.6 150 00:31 16.11.2019
4295 Drizzle 3 1000 93 10000 5.1 160 23:58 15.11.2019
4296 Drizzle 3 1000 93 10000 5.1 160 23:38 15.11.2019
4297 Rain 3 1000 93 10000 5.7 160 23:20 15.11.2019
4298 Clouds 2 1000 93 10000 5.1 160 22:42 15.11.2019
4299 Drizzle 2 1000 93 10000 4.6 170 22:20 15.11.2019
4300 Drizzle 2 1000 93 10000 4.6 170 21:58 15.11.2019
4301 Drizzle 2 1000 93 9000 3.1 160 21:40 15.11.2019
4302 Rain 2 1000 100 7000 3.6 160 21:20 15.11.2019
4303 Rain 2 1000 100 7000 3.6 160 20:57 15.11.2019
4304 Rain 2 1000 93 8000 5.1 160 20:39 15.11.2019
4305 Rain 1 999 93 10000 4.1 160 20:20 15.11.2019
4306 Rain 1 999 93 10000 4.1 160 19:57 15.11.2019
4307 Rain 1 999 100 10000 4.1 160 19:39 15.11.2019
4308 Snow 1 999 88 6000 4.1 160 19:20 15.11.2019
4309 Snow 1 999 88 6000 4.1 160 18:56 15.11.2019
4310 Snow 1 998 100 7000 3.1 160 18:38 15.11.2019
4311 Snow 1 998 88 6000 4.1 150 18:20 15.11.2019
4312 Snow 1 998 100 7000 4.1 160 17:42 15.11.2019
4313 Snow 1 998 100 7000 4.1 160 17:42 15.11.2019
4314 Rain 1 998 93 7000 4.1 150 17:24 15.11.2019
4315 Rain 1 998 93 7000 4.1 150 16:56 15.11.2019
4316 Snow 1 997 93 5000 1 0 16:37 15.11.2019
4317 Snow 1 997 93 6000 1.37 172 16:19 15.11.2019
4318 Snow 1 997 93 6000 1.37 172 15:38 15.11.2019
4319 Snow 2 997 93 7000 0.5 60 15:20 15.11.2019
4320 Snow 2 997 93 7000 0.5 60 14:57 15.11.2019
4321 Rain 2 997 93 8000 1.5 60 14:38 15.11.2019
4322 Rain 2 998 93 8000 2.1 70 14:19 15.11.2019
4323 Rain 2 998 93 8000 2.1 70 13:58 15.11.2019
4324 Snow 3 997 93 3000 3.1 80 13:39 15.11.2019
4325 Clouds 3 998 93 5000 3.1 90 13:21 15.11.2019
4326 Rain 3 998 93 5000 3.1 90 12:59 15.11.2019
4327 Rain 3 998 86 4900 3.1 60 12:40 15.11.2019
4328 Rain 4 998 93 3800 2.6 360 12:20 15.11.2019
4329 Rain 4 998 93 3800 2.6 360 11:58 15.11.2019
4330 Rain 4 997 86 4700 2.6 340 11:39 15.11.2019
4331 Rain 4 997 93 5000 3.6 360 11:20 15.11.2019
4332 Rain 4 997 93 5000 3.6 360 10:56 15.11.2019
4333 Rain 4 997 86 4800 3.6 360 10:38 15.11.2019
4334 Rain 4 998 86 5000 3.1 360 10:18 15.11.2019
4335 Rain 4 998 86 5000 3.1 350 09:41 15.11.2019
4336 Rain 4 998 93 4000 4.6 20 09:20 15.11.2019
4337 Rain 4 998 86 7000 3.6 20 08:45 15.11.2019
4338 Rain 4 998 86 7000 3.6 20 08:25 15.11.2019
4339 Rain 4 997 93 6000 4.6 10 07:54 15.11.2019
4340 Rain 4 997 93 6000 4.6 10 07:36 15.11.2019
4341 Rain 4 997 93 6000 5.7 360 07:18 15.11.2019
4342 Rain 4 998 93 6000 3.6 360 06:34 15.11.2019
4343 Rain 4 998 93 7000 4.1 340 05:52 15.11.2019
4344 Rain 4 998 93 7000 4.1 340 05:52 15.11.2019
4345 Rain 4 998 93 7000 4.1 340 05:28 15.11.2019
4346 Rain 5 998 93 9000 3.1 340 04:42 15.11.2019
4347 Rain 5 999 93 8000 2.1 350 03:37 15.11.2019
4348 Rain 5 999 93 7000 2.6 360 02:32 15.11.2019
4349 Rain 5 999 93 10000 3.1 20 01:48 15.11.2019
4350 Rain 5 1000 93 10000 2.6 20 01:24 15.11.2019
4351 Rain 5 999 93 10000 3.1 20 01:24 15.11.2019
4352 Clouds 5 999 93 10000 3.1 20 00:40 15.11.2019
4353 Clouds 5 1000 93 10000 2.6 20 00:20 15.11.2019
4354 Clouds 5 1000 93 10000 3.6 30 23:45 14.11.2019
4355 Clouds 5 1000 87 10000 2.1 10 23:25 14.11.2019
4356 Clouds 5 1000 87 10000 3.1 40 22:41 14.11.2019
4357 Clouds 5 1000 87 10000 3.1 40 22:22 14.11.2019
4358 Clouds 5 1000 87 10000 1.5 0 21:58 14.11.2019
4359 Clouds 6 1000 87 10000 2.6 40 21:40 14.11.2019
4360 Clouds 6 1000 87 10000 2.1 90 21:21 14.11.2019
4361 Clouds 6 1000 87 10000 2.1 90 20:55 14.11.2019
4362 Clouds 5 1000 81 10000 1.5 20 20:37 14.11.2019
4363 Clouds 6 999 81 10000 2.1 30 20:18 14.11.2019
4364 Clouds 6 999 81 10000 2.1 30 19:55 14.11.2019
4365 Clouds 6 999 81 10000 1.5 50 19:36 14.11.2019
4366 Clouds 6 999 81 10000 2.1 110 19:18 14.11.2019
4367 Clouds 6 999 75 10000 1.5 130 18:42 14.11.2019
4368 Clouds 6 999 80 10000 2.1 110 18:23 14.11.2019
4369 Clouds 6 999 87 10000 1.5 70 17:57 14.11.2019
4370 Clouds 6 999 87 10000 1.5 70 17:38 14.11.2019
4371 Clouds 6 999 75 10000 3.1 140 17:20 14.11.2019
4372 Clouds 6 999 75 10000 3.1 140 16:58 14.11.2019
4373 Clouds 6 999 70 10000 3.1 150 16:37 14.11.2019
4374 Clouds 7 998 70 10000 3.1 150 16:19 14.11.2019
4375 Clouds 7 998 70 10000 3.1 150 15:58 14.11.2019
4376 Clouds 7 998 75 10000 3.6 160 15:38 14.11.2019
4377 Clouds 7 998 70 10000 3.6 160 15:20 14.11.2019
4378 Clouds 7 998 70 10000 3.6 160 14:57 14.11.2019
4379 Clouds 7 998 70 10000 4.6 150 14:38 14.11.2019
4380 Clouds 7 998 70 10000 3.6 160 14:20 14.11.2019
4381 Clouds 6 998 70 10000 3.6 190 13:42 14.11.2019
4382 Clouds 6 998 70 10000 3.6 190 13:23 14.11.2019
4383 Clouds 6 998 70 10000 4.1 180 12:57 14.11.2019
4384 Clouds 6 998 75 10000 4.1 190 12:39 14.11.2019
4385 Clouds 6 999 75 10000 3.6 180 12:21 14.11.2019
4386 Clouds 6 998 75 10000 3.1 190 11:55 14.11.2019
4387 Clouds 6 998 75 10000 3.1 190 11:37 14.11.2019
4388 Clouds 6 998 75 10000 3.1 190 11:37 14.11.2019
4389 Clouds 5 999 81 10000 5.7 170 11:18 14.11.2019
4390 Clouds 5 999 81 10000 5.7 170 10:56 14.11.2019
4391 Clouds 5 998 81 10000 4.1 180 10:37 14.11.2019
4392 Clouds 5 997 93 10000 3.6 180 10:19 14.11.2019
4393 Clouds 4 997 86 10000 6.2 190 09:42 14.11.2019
4394 Clouds 5 996 81 10000 3.1 180 09:24 14.11.2019
4395 Clouds 5 996 81 10000 3.1 180 08:59 14.11.2019
4396 Clouds 5 996 81 10000 3.1 180 08:40 14.11.2019
4397 Clouds 5 996 81 10000 4.1 190 08:22 14.11.2019
4398 Rain 5 995 81 10000 5.1 200 07:42 14.11.2019
4399 Clouds 5 995 87 10000 5.1 210 07:24 14.11.2019
4400 Clouds 5 995 87 10000 5.1 210 07:23 14.11.2019
4401 Clouds 5 994 86 10000 3.1 220 06:46 14.11.2019
4402 Clouds 5 993 93 10000 4.1 210 06:20 14.11.2019
4403 Clouds 5 993 87 10000 3.6 180 05:38 14.11.2019
4404 Rain 5 993 87 10000 7.2 160 04:38 14.11.2019
4405 Rain 5 994 87 10000 6.7 150 03:27 14.11.2019
4406 Rain 6 994 87 9000 6.7 150 02:35 14.11.2019
4407 Rain 6 995 75 10000 7.7 140 01:40 14.11.2019
4408 Clouds 6 995 75 10000 7.7 150 00:57 14.11.2019
4409 Clouds 6 995 75 10000 7.7 150 00:38 14.11.2019
4410 Clouds 6 996 81 10000 5.7 150 00:19 14.11.2019
4411 Clouds 6 997 81 10000 5.1 160 23:38 13.11.2019
4412 Clouds 6 997 81 10000 5.7 160 23:20 13.11.2019
4413 Clouds 6 997 81 10000 5.7 160 22:55 13.11.2019
4414 Clouds 6 998 75 10000 6.2 160 22:37 13.11.2019
4415 Clouds 6 999 81 10000 6.2 160 22:19 13.11.2019
4416 Clouds 6 999 81 10000 6.2 160 21:55 13.11.2019
4417 Clouds 6 999 81 10000 5.1 140 21:36 13.11.2019
4418 Clouds 7 999 81 10000 5.1 180 21:18 13.11.2019
4419 Clouds 7 1000 81 10000 4.6 180 20:55 13.11.2019
4420 Clouds 7 1000 81 10000 4.6 180 20:37 13.11.2019
4421 Rain 7 1000 81 10000 4.6 190 20:18 13.11.2019
4422 Rain 7 1001 75 10000 5.7 180 19:42 13.11.2019
4423 Clouds 7 1001 81 10000 3.6 200 19:19 13.11.2019
4424 Rain 7 1002 81 10000 3.1 200 18:56 13.11.2019
4425 Rain 7 1001 81 10000 3.6 200 18:56 13.11.2019
4426 Rain 7 1002 81 10000 3.1 200 18:38 13.11.2019
4427 Clouds 7 1002 75 10000 4.1 200 18:19 13.11.2019
4428 Clouds 7 1002 75 10000 4.1 200 18:19 13.11.2019
4429 Clouds 7 1002 75 10000 4.1 200 17:57 13.11.2019
4430 Clouds 8 1002 70 10000 4.1 210 17:38 13.11.2019
4431 Rain 8 1002 70 10000 5.7 210 17:19 13.11.2019
4432 Rain 8 1002 70 10000 5.7 210 16:58 13.11.2019
4433 Clouds 8 1002 81 10000 4.1 230 16:39 13.11.2019
4434 Rain 9 1002 66 10000 3.6 230 16:21 13.11.2019
4435 Rain 9 1003 71 10000 3.6 230 15:57 13.11.2019
4436 Rain 9 1003 71 10000 3.6 230 15:38 13.11.2019
4437 Clouds 9 1003 71 10000 3.6 230 15:20 13.11.2019
4438 Clouds 9 1003 71 10000 4.1 230 14:42 13.11.2019
4439 Clouds 9 1003 76 10000 4.1 240 14:21 13.11.2019
4440 Clouds 9 1003 76 10000 4.1 240 13:57 13.11.2019
4441 Clouds 9 1004 76 10000 3.6 240 13:36 13.11.2019
4442 Clouds 9 1004 76 10000 3.1 240 13:18 13.11.2019
4443 Clouds 8 1004 81 10000 4.1 240 12:43 13.11.2019
4444 Clouds 8 1004 81 10000 4.6 250 12:25 13.11.2019
4445 Clouds 8 1004 81 10000 4.1 240 12:25 13.11.2019
4446 Clouds 8 1004 87 10000 3.6 250 11:59 13.11.2019
4447 Clouds 7 1004 87 10000 3.6 250 11:39 13.11.2019
4448 Rain 7 1004 93 10000 2.6 230 11:19 13.11.2019
4449 Rain 7 1004 93 10000 2.6 230 11:19 13.11.2019
4450 Rain 7 1004 93 10000 2.6 230 10:57 13.11.2019
4451 Clouds 6 1004 93 10000 2.6 240 10:39 13.11.2019
4452 Clouds 6 1004 93 10000 3.6 230 10:19 13.11.2019
4453 Clouds 5 1004 93 10000 1 0 09:45 13.11.2019
4454 Clouds 5 1004 93 10000 1 0 09:22 13.11.2019
4455 Clouds 4 1004 93 10000 1 0 08:57 13.11.2019
4456 Clouds 4 1004 93 10000 3.1 230 08:36 13.11.2019
4457 Clouds 4 1003 93 10000 2.6 230 08:18 13.11.2019
4458 Clouds 4 1003 93 10000 2.6 250 07:42 13.11.2019
4459 Clouds 4 1003 93 10000 3.1 240 07:20 13.11.2019
4460 Clouds 4 1003 93 10000 2.6 250 06:46 13.11.2019
4461 Clouds 4 1003 93 10000 1.5 0 06:19 13.11.2019
4462 Clouds 4 1003 93 10000 2.6 250 06:19 13.11.2019
4463 Clouds 4 1003 93 10000 1.5 0 05:53 13.11.2019
4464 Clouds 4 1003 93 10000 1.5 0 05:31 13.11.2019
4465 Clouds 4 1002 93 10000 1.5 0 04:27 13.11.2019
4466 Clouds 4 1002 86 10000 4.1 250 02:19 13.11.2019
4467 Clouds 4 1002 86 10000 5.1 240 01:41 13.11.2019
4468 Clouds 4 1002 86 10000 4.1 230 00:44 13.11.2019
4469 Clouds 4 1002 86 10000 3.1 230 00:21 13.11.2019
4470 Clouds 4 1002 86 10000 3.1 220 23:42 12.11.2019
4471 Clouds 4 1002 86 10000 3.1 220 23:42 12.11.2019
4472 Clouds 4 1003 86 10000 3.1 220 23:21 12.11.2019
4473 Clouds 3 1003 86 10000 2.6 200 22:55 12.11.2019
4474 Clouds 3 1003 86 10000 2.6 200 22:37 12.11.2019
4475 Clouds 3 1003 93 10000 2.6 180 22:18 12.11.2019
4476 Clouds 3 1003 86 10000 2.6 210 21:43 12.11.2019
4477 Clouds 3 1003 86 10000 2.6 210 21:24 12.11.2019
4478 Rain 3 1003 86 10000 2.6 180 20:57 12.11.2019
4479 Rain 3 1003 86 10000 2.6 220 20:37 12.11.2019
4480 Rain 3 1003 86 10000 2.1 210 20:19 12.11.2019
4481 Clouds 3 1003 86 10000 2.1 210 19:57 12.11.2019
4482 Rain 3 1003 93 10000 3.1 200 19:39 12.11.2019
4483 Rain 3 1003 93 10000 3.1 200 19:39 12.11.2019
4484 Rain 3 1003 93 10000 1 220 19:19 12.11.2019
4485 Rain 4 1003 93 10000 1 220 18:59 12.11.2019
4486 Clouds 4 1003 93 10000 2.1 160 18:40 12.11.2019
4487 Clouds 4 1004 93 10000 2.6 140 18:22 12.11.2019
4488 Rain 4 1004 93 10000 2.6 140 17:57 12.11.2019
4489 Rain 5 1004 93 10000 2.1 180 17:39 12.11.2019
4490 Rain 5 1004 86 10000 2.1 160 17:21 12.11.2019
4491 Rain 5 1004 93 10000 2.1 180 17:21 12.11.2019
4492 Rain 6 1004 86 10000 2.1 160 16:57 12.11.2019
4493 Rain 6 1004 86 10000 1 0 16:39 12.11.2019
4494 Thunderstorm 6 1004 86 10000 1 0 16:20 12.11.2019
4495 Rain 7 1004 81 9000 2.1 280 15:41 12.11.2019
4496 Rain 7 1004 75 10000 4.1 240 15:21 12.11.2019
4497 Rain 7 1004 75 10000 4.1 240 14:56 12.11.2019
4498 Rain 7 1004 75 10000 3.6 230 14:37 12.11.2019
4499 Rain 7 1004 81 10000 4.6 230 14:19 12.11.2019
4500 Rain 8 1004 81 10000 4.6 230 13:56 12.11.2019
4501 Rain 8 1004 81 10000 3.6 280 13:37 12.11.2019
4502 Rain 7 1004 75 10000 3.1 270 13:18 12.11.2019
4503 Rain 7 1004 75 10000 4.6 250 12:42 12.11.2019
4504 Clouds 7 1004 87 10000 3.6 230 12:19 12.11.2019
4505 Clouds 7 1004 87 10000 3.6 230 11:59 12.11.2019
4506 Rain 7 1005 81 10000 4.6 250 11:40 12.11.2019
4507 Rain 7 1005 75 10000 7.2 240 11:21 12.11.2019
4508 Clouds 6 1005 81 10000 5.7 230 10:56 12.11.2019
4509 Clouds 6 1005 81 10000 5.7 230 10:37 12.11.2019
4510 Clouds 6 1004 87 10000 4.1 220 10:19 12.11.2019
4511 Drizzle 5 1005 87 10000 3.1 240 09:42 12.11.2019
4512 Rain 5 1004 87 10000 5.1 240 09:21 12.11.2019
4513 Clouds 4 1004 93 10000 4.1 230 08:54 12.11.2019
4514 Rain 5 1004 81 10000 6.2 240 08:36 12.11.2019
4515 Clouds 4 1004 93 10000 4.1 240 08:18 12.11.2019
4516 Rain 5 1004 87 10000 4.6 230 07:40 12.11.2019
4517 Rain 5 1004 87 10000 4.6 230 07:40 12.11.2019
4518 Rain 5 1004 87 10000 4.1 240 07:20 12.11.2019
4519 Clouds 5 1004 81 10000 4.6 220 06:42 12.11.2019
4520 Clouds 5 1004 93 10000 4.6 230 06:22 12.11.2019
4521 Rain 5 1005 93 10000 4.1 230 05:46 12.11.2019
4522 Clouds 5 1005 86 10000 4.1 210 04:46 12.11.2019
4523 Clouds 4 1006 86 10000 3.1 200 03:40 12.11.2019
4524 Clouds 4 1007 86 10000 2.6 200 01:47 12.11.2019
4525 Rain 4 1007 93 10000 3.6 220 01:22 12.11.2019
4526 Clouds 4 1007 93 10000 3.1 240 00:47 12.11.2019
4527 Clouds 4 1007 93 10000 2.6 240 00:24 12.11.2019
4528 Clouds 4 1007 93 10000 3.6 230 23:44 11.11.2019
4529 Clouds 4 1007 86 10000 2.1 240 23:23 11.11.2019
4530 Clouds 5 1007 86 10000 3.1 240 22:57 11.11.2019
4531 Clouds 5 1007 86 10000 3.1 240 22:36 11.11.2019
4532 Clouds 5 1007 86 10000 3.1 240 22:36 11.11.2019
4533 Clouds 5 1007 81 10000 3.6 250 22:18 11.11.2019
4534 Clouds 5 1007 81 10000 3.6 250 21:57 11.11.2019
4535 Clouds 5 1007 81 10000 4.1 250 21:38 11.11.2019
4536 Clouds 5 1007 81 10000 4.1 250 21:19 11.11.2019
4537 Clouds 5 1007 81 10000 3.6 230 20:42 11.11.2019
4538 Rain 5 1007 81 10000 4.6 240 20:20 11.11.2019
4539 Rain 5 1007 81 10000 4.6 240 19:59 11.11.2019
4540 Rain 5 1007 81 10000 3.1 250 19:41 11.11.2019
4541 Rain 5 1006 81 10000 3.6 240 19:19 11.11.2019
4542 Rain 5 1006 81 10000 3.6 250 18:56 11.11.2019
4543 Rain 5 1006 81 10000 3.6 250 18:38 11.11.2019
4544 Rain 6 1006 81 10000 3.6 250 18:19 11.11.2019
4545 Clouds 6 1005 75 10000 4.6 240 17:42 11.11.2019
4546 Clouds 7 1005 75 10000 4.6 240 17:24 11.11.2019
4547 Clouds 7 1005 81 10000 5.7 240 16:44 11.11.2019
4548 Clouds 7 1005 81 10000 5.7 240 16:24 11.11.2019
4549 Rain 8 1005 76 10000 5.1 260 15:59 11.11.2019
4550 Clouds 8 1004 81 10000 6.2 260 15:41 11.11.2019
4551 Rain 8 1004 81 10000 4.6 260 15:20 11.11.2019
4552 Rain 8 1004 87 10000 4.6 260 14:45 11.11.2019
4553 Rain 8 1004 87 10000 4.6 260 14:26 11.11.2019
4554 Rain 8 1004 87 6000 3.6 250 13:59 11.11.2019
4555 Rain 7 1005 93 10000 4.1 230 13:38 11.11.2019
4556 Rain 7 1005 93 10000 5.1 230 13:20 11.11.2019
4557 Rain 7 1005 93 10000 5.1 230 12:58 11.11.2019
4558 Rain 7 1005 93 10000 6.2 200 12:40 11.11.2019
4559 Rain 6 1006 87 6000 5.7 190 12:22 11.11.2019
4560 Rain 6 1006 93 10000 5.7 190 11:55 11.11.2019
4561 Rain 6 1006 93 10000 5.7 190 11:37 11.11.2019
4562 Rain 6 1006 93 10000 5.7 200 11:19 11.11.2019
4563 Rain 6 1007 93 10000 6.2 180 10:42 11.11.2019
4564 Rain 5 1007 87 10000 6.7 180 10:18 11.11.2019
4565 Clouds 5 1007 87 10000 7.2 180 09:56 11.11.2019
4566 Clouds 5 1007 87 10000 7.2 180 09:37 11.11.2019
4567 Clouds 5 1008 93 10000 5.1 190 09:18 11.11.2019
4568 Clouds 5 1008 93 10000 5.7 180 08:40 11.11.2019
4569 Clouds 5 1008 93 10000 5.7 180 08:40 11.11.2019
4570 Clouds 5 1008 93 10000 5.7 180 08:21 11.11.2019
4571 Clouds 5 1008 93 10000 5.7 180 07:56 11.11.2019
4572 Clouds 5 1009 93 10000 5.7 180 07:37 11.11.2019
4573 Clouds 5 1009 93 10000 5.1 180 07:18 11.11.2019
4574 Clouds 5 1009 93 10000 5.1 170 06:46 11.11.2019
4575 Clouds 5 1009 93 8000 6.2 180 06:22 11.11.2019
4576 Clouds 4 1010 93 10000 3.1 160 05:51 11.11.2019
4577 Clouds 4 1011 93 10000 3.6 150 04:29 11.11.2019
4578 Clouds 4 1012 93 10000 3.1 160 03:23 11.11.2019
4579 Clouds 4 1013 87 10000 3.1 170 02:24 11.11.2019
4580 Clouds 5 1013 93 10000 4.1 160 01:55 11.11.2019
4581 Clouds 5 1014 100 10000 1.5 0 01:34 11.11.2019
4582 Clouds 5 1013 87 10000 2.6 150 00:48 11.11.2019
4583 Clouds 5 1014 93 10000 3.1 170 00:20 11.11.2019
4584 Clouds 5 1013 87 10000 3.6 160 23:39 10.11.2019
4585 Clouds 5 1013 87 10000 3.6 160 23:39 10.11.2019
4586 Clouds 6 1014 93 10000 2.6 170 23:20 10.11.2019
4587 Clouds 6 1014 93 10000 2.6 170 22:58 10.11.2019
4588 Clouds 6 1013 93 10000 3.6 150 22:38 10.11.2019
4589 Clouds 6 1013 93 10000 2.6 160 22:20 10.11.2019
4590 Clouds 6 1013 93 10000 2.6 160 21:59 10.11.2019
4591 Clouds 6 1013 93 10000 3.6 150 21:40 10.11.2019
4592 Mist 6 1014 93 5000 1.5 130 21:21 10.11.2019
4593 Mist 6 1014 93 5000 1.5 130 20:58 10.11.2019
4594 Clouds 7 1014 100 8000 1 130 20:38 10.11.2019
4595 Clouds 7 1014 100 8000 1 130 20:20 10.11.2019
4596 Clouds 7 1014 100 7000 0.5 0 19:55 10.11.2019
4597 Clouds 7 1014 93 10000 1.5 170 19:37 10.11.2019
4598 Clouds 7 1014 93 10000 1.5 130 19:18 10.11.2019
4599 Clouds 7 1014 93 10000 1.5 130 19:18 10.11.2019
4600 Clouds 7 1014 93 10000 1.5 130 18:55 10.11.2019
4601 Clouds 7 1013 100 10000 1 0 18:37 10.11.2019
4602 Clouds 7 1013 100 9000 1 190 18:19 10.11.2019
4603 Clouds 7 1013 100 9000 1 190 18:19 10.11.2019
4604 Clouds 7 1013 87 10000 2.6 140 17:55 10.11.2019
4605 Rain 7 1013 87 10000 1.5 140 17:37 10.11.2019
4606 Rain 7 1012 87 10000 1.5 90 17:19 10.11.2019
4607 Rain 7 1012 87 10000 1.5 90 17:19 10.11.2019
4608 Clouds 7 1012 87 10000 1.5 100 16:44 10.11.2019
4609 Clouds 7 1012 87 10000 1.5 100 16:25 10.11.2019
4610 Clouds 7 1011 93 10000 1.5 70 15:57 10.11.2019
4611 Clouds 7 1011 93 10000 1 0 15:38 10.11.2019
4612 Clouds 7 1010 93 10000 3.1 80 15:19 10.11.2019
4613 Clouds 7 1010 93 10000 3.1 80 15:19 10.11.2019
4614 Clouds 7 1010 93 10000 3.1 80 14:59 10.11.2019
4615 Clouds 7 1010 93 10000 3.6 60 14:39 10.11.2019
4616 Clouds 7 1010 93 10000 3.1 40 14:21 10.11.2019
4617 Clouds 6 1010 93 10000 3.1 40 13:56 10.11.2019
4618 Mist 6 1010 93 4300 4.1 60 13:38 10.11.2019
4619 Mist 6 1009 93 3600 3.6 40 13:19 10.11.2019
4620 Mist 6 1009 93 3500 4.1 40 12:41 10.11.2019
4621 Clouds 6 1009 93 7000 4.1 30 12:20 10.11.2019
4622 Clouds 6 1009 93 7000 4.1 30 11:57 10.11.2019
4623 Rain 6 1009 93 6000 4.1 40 11:38 10.11.2019
4624 Rain 6 1008 93 4500 4.1 40 11:20 10.11.2019
4625 Rain 6 1008 93 4500 4.1 40 10:55 10.11.2019
4626 Clouds 6 1007 93 10000 3.6 40 10:37 10.11.2019
4627 Drizzle 5 1007 93 6000 2.6 60 10:18 10.11.2019
4628 Rain 5 1006 87 10000 4.1 60 09:41 10.11.2019
4629 Rain 5 1006 93 10000 2.6 60 09:22 10.11.2019
4630 Rain 5 1005 87 8000 3.6 40 08:40 10.11.2019
4631 Rain 5 1005 87 10000 2.6 30 08:21 10.11.2019
4632 Rain 5 1005 87 10000 2.6 30 07:58 10.11.2019
4633 Drizzle 5 1004 87 9000 3.1 50 07:38 10.11.2019
4634 Drizzle 5 1004 100 9000 2.1 70 07:18 10.11.2019
4635 Rain 5 1004 93 7000 2.6 50 06:25 10.11.2019
4636 Rain 5 1003 100 8000 4.1 70 04:46 10.11.2019
4637 Rain 5 1004 87 10000 2.6 80 02:59 10.11.2019
4638 Rain 5 1003 100 7000 1 0 01:43 10.11.2019
4639 Rain 6 1003 100 7000 2.1 150 01:19 10.11.2019
4640 Rain 6 1003 100 8000 2.6 170 00:39 10.11.2019
4641 Rain 6 1003 100 6000 3.1 150 23:43 09.11.2019
4642 Rain 6 1003 100 6000 2.6 140 23:21 09.11.2019
4643 Rain 6 1003 100 6000 2.6 140 22:59 09.11.2019
4644 Clouds 6 1004 81 10000 3.1 140 22:40 09.11.2019
4645 Clouds 6 1004 81 10000 3.1 140 22:19 09.11.2019
4646 Clouds 6 1004 81 10000 2.6 130 21:55 09.11.2019
4647 Rain 6 1004 87 10000 4.1 150 21:37 09.11.2019
4648 Rain 6 1004 87 10000 3.6 150 21:19 09.11.2019
4649 Clouds 6 1005 87 10000 4.6 150 20:41 09.11.2019
4650 Clouds 6 1005 87 10000 4.6 150 20:41 09.11.2019
4651 Clouds 6 1005 87 10000 4.6 150 20:22 09.11.2019
4652 Clouds 6 1005 81 10000 3.1 140 19:57 09.11.2019
4653 Clouds 6 1005 87 10000 4.1 150 19:38 09.11.2019
4654 Clouds 6 1006 75 10000 4.6 160 19:19 09.11.2019
4655 Clouds 6 1006 81 10000 4.6 150 18:40 09.11.2019
4656 Clouds 6 1006 75 10000 5.7 160 18:19 09.11.2019
4657 Clouds 6 1006 75 10000 5.7 160 17:58 09.11.2019
4658 Clouds 6 1006 75 10000 5.7 160 17:58 09.11.2019
4659 Clouds 6 1007 75 10000 5.7 170 17:40 09.11.2019
4660 Clouds 6 1007 81 10000 5.7 160 17:22 09.11.2019
4661 Clouds 7 1007 81 10000 6.2 170 16:42 09.11.2019
4662 Clouds 7 1007 81 10000 6.2 170 16:21 09.11.2019
4663 Clouds 7 1008 75 10000 6.2 170 15:57 09.11.2019
4664 Clouds 8 1008 70 10000 6.7 160 15:39 09.11.2019
4665 Clouds 8 1008 70 10000 6.7 160 15:20 09.11.2019
4666 Clouds 8 1009 61 10000 5.1 190 14:42 09.11.2019
4667 Clouds 8 1009 61 10000 5.1 190 14:42 09.11.2019
4668 Clouds 8 1009 61 10000 4.6 210 14:22 09.11.2019
4669 Clouds 8 1009 61 10000 4.6 210 13:57 09.11.2019
4670 Clouds 9 1009 57 10000 5.1 210 13:38 09.11.2019
4671 Clouds 8 1010 61 10000 4.6 210 13:19 09.11.2019
4672 Clouds 8 1010 76 10000 1.5 220 12:55 09.11.2019
4673 Clouds 8 1010 76 10000 1.5 220 12:37 09.11.2019
4674 Clouds 8 1011 70 10000 2.1 200 12:18 09.11.2019
4675 Clouds 7 1011 75 10000 3.1 220 11:44 09.11.2019
4676 Clouds 6 1011 87 10000 2.6 230 11:20 09.11.2019
4677 Clouds 5 1011 87 10000 3.1 230 10:42 09.11.2019
4678 Clouds 4 1011 100 6000 0.5 0 10:20 09.11.2019
4679 Clouds 4 1011 100 6000 0.5 0 10:00 09.11.2019
4680 Mist 4 1012 93 5000 2.74 257 09:41 09.11.2019
4681 Mist 3 1012 93 5000 2.74 257 09:20 09.11.2019
4682 Mist 3 1011 93 5000 1 0 08:43 09.11.2019
4683 Mist 3 1011 93 5000 1 0 08:25 09.11.2019
4684 Mist 3 1011 93 5000 2.1 220 07:55 09.11.2019
4685 Clouds 3 1011 100 6000 1.5 240 07:37 09.11.2019
4686 Clouds 3 1012 93 6000 1.5 240 07:19 09.11.2019
4687 Clouds 3 1011 100 6000 1.5 220 06:43 09.11.2019
4688 Clouds 3 1011 100 7000 1.5 220 06:25 09.11.2019
4689 Clouds 3 1011 93 6000 1.5 250 05:40 09.11.2019
4690 Mist 3 1011 100 5000 2.1 230 04:29 09.11.2019
4691 Mist 3 1011 93 5000 1.5 240 02:52 09.11.2019
4692 Mist 3 1011 93 5000 1.5 240 02:34 09.11.2019
4693 Clear 3 1011 93 6000 2.1 240 01:18 09.11.2019
4694 Mist 3 1011 100 5000 2.6 240 00:41 09.11.2019
4695 Clear 3 1011 100 6000 2.6 230 00:22 09.11.2019
4696 Clear 3 1011 93 7000 1.5 270 23:41 08.11.2019
4697 Clear 4 1010 93 8000 1.5 240 23:22 08.11.2019
4698 Clear 4 1010 93 8000 1.5 240 22:59 08.11.2019
4699 Clear 4 1010 93 10000 1.5 250 22:40 08.11.2019
4700 Clear 4 1010 86 10000 1 180 22:21 08.11.2019
4701 Clouds 5 1010 87 10000 1 260 21:42 08.11.2019
4702 Clouds 5 1009 87 10000 0.5 0 21:24 08.11.2019
4703 Clouds 5 1009 87 10000 0.5 0 20:58 08.11.2019
4704 Clouds 5 1009 87 10000 1.5 330 20:40 08.11.2019
4705 Clouds 5 1009 81 10000 1 0 20:20 08.11.2019
4706 Clouds 6 1009 81 10000 1.5 330 19:55 08.11.2019
4707 Clouds 6 1009 81 10000 1.5 330 19:37 08.11.2019
4708 Clouds 6 1009 81 10000 1.5 330 19:37 08.11.2019
4709 Clouds 6 1008 75 10000 1 280 19:18 08.11.2019
4710 Clouds 6 1008 75 10000 1 280 19:18 08.11.2019
4711 Clouds 6 1008 75 10000 0.5 340 18:55 08.11.2019
4712 Clouds 7 1008 75 10000 0.5 340 18:36 08.11.2019
4713 Clouds 7 1008 70 10000 1.5 30 18:18 08.11.2019
4714 Clouds 8 1008 70 10000 1.5 30 17:55 08.11.2019
4715 Clouds 8 1007 61 10000 1.59 348 17:36 08.11.2019
4716 Clouds 8 1007 66 10000 0.5 0 17:18 08.11.2019
4717 Clouds 9 1007 66 10000 0.5 0 16:57 08.11.2019
4718 Clear 9 1006 66 10000 1.5 60 16:38 08.11.2019
4719 Clear 10 1006 71 10000 1.5 70 16:18 08.11.2019
4720 Clouds 9 1006 66 10000 1.5 40 15:55 08.11.2019
4721 Clouds 9 1006 66 10000 1.5 40 15:36 08.11.2019
4722 Clouds 9 1006 66 10000 1.5 40 15:36 08.11.2019
4723 Clouds 9 1005 66 10000 2.1 40 15:18 08.11.2019
4724 Clouds 9 1005 66 10000 2.1 40 14:54 08.11.2019
4725 Clouds 9 1005 71 10000 2.1 40 14:36 08.11.2019
4726 Clouds 9 1005 71 10000 2.1 50 14:18 08.11.2019
4727 Clouds 9 1005 76 10000 2.1 40 13:42 08.11.2019
4728 Clouds 8 1005 75 10000 1.5 70 13:22 08.11.2019
4729 Clouds 8 1005 81 10000 2.1 50 12:49 08.11.2019
4730 Clouds 8 1005 81 10000 2.1 50 12:49 08.11.2019
4731 Clouds 7 1005 81 10000 1.5 50 12:29 08.11.2019
4732 Clouds 7 1005 81 10000 1.5 50 11:59 08.11.2019
4733 Clouds 7 1005 87 10000 1.5 60 11:41 08.11.2019
4734 Clouds 7 1005 87 10000 1.5 60 11:22 08.11.2019
4735 Clouds 6 1004 87 10000 1.5 40 10:59 08.11.2019
4736 Clouds 6 1004 87 10000 2.1 100 10:41 08.11.2019
4737 Clouds 5 1004 93 10000 2.1 60 10:22 08.11.2019
4738 Clouds 5 1004 93 10000 2.1 60 09:58 08.11.2019
4739 Clouds 4 1004 100 10000 1.5 70 09:39 08.11.2019
4740 Clouds 4 1003 93 10000 2.6 50 09:19 08.11.2019
4741 Clouds 4 1003 93 10000 3.1 50 08:46 08.11.2019
4742 Clouds 4 1003 93 10000 3.1 50 08:23 08.11.2019
4743 Clouds 3 1003 93 10000 2.1 60 07:56 08.11.2019
4744 Clouds 4 1002 93 10000 2.6 60 07:38 08.11.2019
4745 Clouds 4 1002 93 10000 1.5 60 07:19 08.11.2019
4746 Clouds 4 1002 93 10000 1.5 130 06:38 08.11.2019
4747 Clouds 4 1002 93 10000 2.1 120 06:20 08.11.2019
4748 Clouds 4 1001 100 10000 2.6 130 05:38 08.11.2019
4749 Clouds 4 1001 93 10000 1.5 110 04:43 08.11.2019
4750 Clouds 4 1001 86 10000 2.1 130 03:43 08.11.2019
4751 Clouds 4 1001 93 10000 2.6 130 03:19 08.11.2019
4752 Clouds 4 1001 93 10000 4.6 120 02:26 08.11.2019
4753 Clouds 4 1001 86 10000 2.6 80 01:46 08.11.2019
4754 Clear 5 1001 86 10000 3.6 170 00:59 08.11.2019
4755 Clear 5 1001 87 10000 4.1 170 00:24 08.11.2019
4756 Clear 5 1001 87 10000 4.1 170 23:55 07.11.2019
4757 Clear 5 1001 87 10000 4.6 160 23:36 07.11.2019
4758 Clouds 5 1001 87 10000 4.6 160 23:18 07.11.2019
4759 Clear 5 1001 87 10000 3.1 160 22:41 07.11.2019
4760 Clear 5 1001 87 10000 3.1 160 22:21 07.11.2019
4761 Clear 6 1001 81 10000 3.6 180 21:55 07.11.2019
4762 Clear 6 1000 93 10000 3.1 190 21:37 07.11.2019
4763 Rain 6 1001 81 10000 3.6 200 21:18 07.11.2019
4764 Rain 7 1001 81 10000 3.6 200 20:55 07.11.2019
4765 Clouds 7 1000 75 10000 3.1 200 20:37 07.11.2019
4766 Clouds 7 1000 75 10000 3.6 200 20:19 07.11.2019
4767 Clouds 7 1000 66 10000 6.2 180 19:42 07.11.2019
4768 Clouds 8 1000 66 10000 6.2 180 19:23 07.11.2019
4769 Clouds 8 1000 66 10000 5.1 180 18:59 07.11.2019
4770 Clouds 8 1000 70 10000 2.6 200 18:40 07.11.2019
4771 Clouds 8 1000 70 10000 3.1 200 18:20 07.11.2019
4772 Clouds 8 1000 70 10000 3.1 200 18:20 07.11.2019
4773 Clouds 8 1000 70 10000 3.1 200 18:20 07.11.2019
4774 Clouds 8 1000 57 10000 6.2 200 17:59 07.11.2019
4775 Clouds 9 1000 57 10000 5.7 210 17:39 07.11.2019
4776 Clouds 9 1000 57 10000 5.7 210 17:20 07.11.2019
4777 Clouds 10 1000 53 10000 6.7 210 16:58 07.11.2019
4778 Clouds 10 1000 53 10000 6.7 210 16:58 07.11.2019
4779 Clouds 10 1000 57 10000 8.2 200 16:39 07.11.2019
4780 Clouds 10 1000 57 10000 8.2 200 16:19 07.11.2019
4781 Clouds 10 1000 53 10000 7.7 210 15:57 07.11.2019
4782 Clouds 10 999 57 10000 7.2 210 15:37 07.11.2019
4783 Clouds 10 999 57 10000 7.2 210 15:18 07.11.2019
4784 Clouds 11 999 57 10000 6.7 240 14:44 07.11.2019
4785 Clouds 10 999 57 10000 6.7 230 14:26 07.11.2019
4786 Clouds 10 999 62 10000 6.7 230 13:57 07.11.2019
4787 Clouds 10 999 62 10000 6.7 240 13:38 07.11.2019
4788 Clouds 10 999 62 10000 6.7 240 13:20 07.11.2019
4789 Clouds 10 999 62 10000 6.7 230 12:58 07.11.2019
4790 Clouds 10 998 66 10000 8.2 230 12:40 07.11.2019
4791 Clouds 10 998 71 10000 6.2 230 12:21 07.11.2019
4792 Clouds 10 998 71 10000 6.2 230 11:58 07.11.2019
4793 Clouds 9 998 71 10000 6.7 240 11:39 07.11.2019
4794 Clouds 9 998 71 10000 6.7 240 11:20 07.11.2019
4795 Clouds 9 997 76 10000 6.2 250 10:40 07.11.2019
4796 Clouds 9 997 81 10000 6.7 240 10:19 07.11.2019
4797 Clouds 9 996 81 10000 6.7 240 09:44 07.11.2019
4798 Drizzle 8 995 87 10000 5.7 250 09:23 07.11.2019
4799 -273 0 0 0 0 0 08:57 07.11.2019
4800 Rain 8 995 87 10000 6.7 240 08:56 07.11.2019
4801 Drizzle 8 994 93 10000 6.7 240 08:37 07.11.2019
4802 Drizzle 8 994 93 10000 6.7 240 08:19 07.11.2019
4803 Drizzle 8 994 93 10000 6.7 240 08:19 07.11.2019
4804 Rain 8 993 93 10000 4.1 200 07:41 07.11.2019
4805 Rain 8 993 93 10000 4.1 200 07:22 07.11.2019
4806 Rain 8 993 93 10000 4.1 200 07:21 07.11.2019
4807 Rain 9 993 93 5000 3.1 200 06:46 07.11.2019
4808 Rain 9 993 93 5000 3.1 200 06:27 07.11.2019
4809 Rain 9 993 93 5000 3.1 200 06:27 07.11.2019
4810 Rain 9 994 93 7000 4.6 160 05:51 07.11.2019
4811 Rain 9 994 93 7000 5.1 140 05:32 07.11.2019
4812 Rain 9 994 93 7000 5.1 140 05:32 07.11.2019
4813 Rain 9 995 93 10000 5.7 150 04:53 07.11.2019
4814 Rain 9 996 93 6000 5.1 150 04:31 07.11.2019
4815 Clouds 8 999 93 10000 5.1 160 01:54 07.11.2019
4816 Clouds 9 1000 93 10000 3.6 160 00:46 07.11.2019
4817 Clouds 9 1000 93 10000 3.6 160 00:19 07.11.2019
4818 Clouds 9 1001 87 10000 3.6 170 23:47 06.11.2019
4819 Clouds 8 1001 100 10000 3.1 180 23:21 06.11.2019
4820 Clouds 9 1002 93 10000 2.6 190 22:56 06.11.2019
4821 Clouds 9 1002 93 10000 2.1 200 22:37 06.11.2019
4822 Clouds 9 1002 93 10000 2.1 200 22:18 06.11.2019
4823 Clouds 9 1003 87 10000 2.6 180 21:42 06.11.2019
4824 Rain 9 1003 87 10000 3.1 160 21:21 06.11.2019
4825 Rain 9 1003 87 10000 3.6 160 20:59 06.11.2019
4826 Rain 9 1003 87 10000 3.1 150 20:40 06.11.2019
4827 Rain 9 1003 87 10000 3.1 150 20:22 06.11.2019
4828 Clouds 9 1004 87 10000 3.6 160 19:59 06.11.2019
4829 Rain 9 1004 93 10000 1.5 180 19:40 06.11.2019
4830 Rain 9 1004 93 10000 1.5 180 19:21 06.11.2019
4831 Rain 10 1004 81 10000 3.6 180 18:58 06.11.2019
4832 Rain 10 1004 76 10000 1.5 220 18:39 06.11.2019
4833 Rain 10 1004 71 10000 2.1 220 18:19 06.11.2019
4834 Rain 10 1004 71 10000 2.1 220 17:58 06.11.2019
4835 Rain 10 1004 87 10000 2.6 210 17:40 06.11.2019
4836 Rain 11 1004 76 10000 2.6 230 17:21 06.11.2019
4837 Clouds 11 1005 76 10000 2.1 250 16:55 06.11.2019
4838 Rain 11 1004 76 10000 2.6 230 16:55 06.11.2019
4839 Clouds 11 1005 76 10000 2.1 250 16:37 06.11.2019
4840 Clouds 11 1005 71 10000 3.6 250 16:18 06.11.2019
4841 Clouds 11 1005 71 10000 3.6 250 15:56 06.11.2019
4842 Clouds 11 1005 66 10000 2.6 310 15:37 06.11.2019
4843 Clouds 12 1005 76 10000 4.1 280 15:18 06.11.2019
4844 Clouds 12 1005 62 10000 3.1 300 14:56 06.11.2019
4845 Clouds 12 1005 76 10000 2.6 280 14:38 06.11.2019
4846 Clouds 12 1005 66 10000 3.1 310 14:20 06.11.2019
4847 Clouds 12 1005 71 10000 2.1 290 13:41 06.11.2019
4848 Clouds 12 1005 71 10000 2.1 290 13:41 06.11.2019
4849 Clouds 12 1005 71 10000 2.1 290 13:22 06.11.2019
4850 Clouds 12 1005 71 10000 4.1 280 12:58 06.11.2019
4851 Clouds 12 1006 71 10000 4.6 270 12:40 06.11.2019
4852 Clouds 11 1006 76 10000 2.6 260 12:21 06.11.2019
4853 Clouds 11 1006 76 10000 2.6 260 12:21 06.11.2019
4854 Clouds 11 1006 76 10000 2.6 260 11:58 06.11.2019
4855 Clouds 11 1006 81 10000 3.1 260 11:38 06.11.2019
4856 Clouds 11 1006 81 10000 2.6 260 11:19 06.11.2019
4857 Clouds 10 1006 81 10000 2.6 260 10:57 06.11.2019
4858 Clouds 10 1006 81 10000 2.6 260 10:57 06.11.2019
4859 Clouds 10 1006 87 10000 3.6 260 10:39 06.11.2019
4860 Clouds 10 1006 87 10000 3.6 260 10:39 06.11.2019
4861 Clouds 10 1005 93 10000 3.1 270 10:20 06.11.2019
4862 Clouds 9 1005 93 10000 3.1 270 09:57 06.11.2019
4863 Clouds 9 1005 93 10000 2.6 250 09:38 06.11.2019
4864 Clouds 9 1005 93 10000 3.1 250 09:19 06.11.2019
4865 Clouds 9 1005 93 10000 3.1 250 08:55 06.11.2019
4866 Clouds 9 1005 93 10000 3.1 260 08:36 06.11.2019
4867 Clouds 9 1004 93 10000 2.6 250 08:18 06.11.2019
4868 Rain 9 1004 93 10000 2.1 280 07:41 06.11.2019
4869 Rain 9 1004 93 10000 2.6 260 07:22 06.11.2019
4870 Rain 9 1004 93 10000 2.6 250 06:47 06.11.2019
4871 Rain 9 1004 93 10000 2.6 250 06:28 06.11.2019
4872 Clouds 8 1004 93 10000 2.6 260 05:32 06.11.2019
4873 Clouds 8 1003 87 10000 2.1 250 02:54 06.11.2019
4874 Clouds 8 1003 87 10000 1.5 200 01:41 06.11.2019
4875 Clouds 8 1002 87 10000 2.1 240 00:46 06.11.2019
4876 Clouds 8 1002 87 10000 2.1 260 23:59 05.11.2019
4877 Clouds 8 1002 87 10000 1.5 240 23:40 05.11.2019
4878 Clouds 8 1001 93 10000 1.5 0 23:21 05.11.2019
4879 Clouds 8 1001 87 10000 1.5 240 22:57 05.11.2019
4880 Clouds 8 1001 87 10000 1.5 240 22:38 05.11.2019
4881 Clouds 8 1001 87 10000 1.73 334 22:18 05.11.2019
4882 Clouds 7 1000 93 10000 1 210 21:43 05.11.2019
4883 Clouds 7 1000 93 10000 1 210 21:22 05.11.2019
4884 Clouds 7 1000 87 9000 1 0 20:59 05.11.2019
4885 Clear 7 1000 93 10000 1.65 335 20:39 05.11.2019
4886 Clouds 8 1000 87 10000 1 320 20:21 05.11.2019
4887 Clouds 8 1000 87 10000 1 320 19:59 05.11.2019
4888 Clouds 8 999 81 10000 1 330 19:40 05.11.2019
4889 Clouds 8 999 81 10000 1 330 19:22 05.11.2019
4890 Clouds 8 999 81 10000 1 0 18:58 05.11.2019
4891 Clouds 9 998 81 10000 1.5 360 18:39 05.11.2019
4892 Clouds 10 998 76 10000 1 350 18:20 05.11.2019
4893 Clouds 10 998 76 10000 1 350 17:58 05.11.2019
4894 Clouds 10 998 76 10000 1.5 20 17:39 05.11.2019
4895 Rain 11 997 66 10000 2.1 360 17:19 05.11.2019
4896 Rain 11 997 66 10000 2.1 360 17:19 05.11.2019
4897 Rain 11 997 66 10000 2.1 360 16:56 05.11.2019
4898 Clouds 11 997 66 10000 1.5 350 16:38 05.11.2019
4899 Rain 12 997 62 10000 2.1 340 16:19 05.11.2019
4900 Rain 12 997 66 10000 0.5 0 15:39 05.11.2019
4901 Rain 12 997 66 10000 0.5 0 15:20 05.11.2019
4902 Clouds 11 996 66 10000 1 0 14:58 05.11.2019
4903 Clouds 12 996 66 10000 1 0 14:40 05.11.2019
4904 Clouds 11 996 71 10000 1.5 0 14:21 05.11.2019
4905 Clouds 11 996 71 10000 1.5 0 13:56 05.11.2019
4906 Rain 11 996 76 10000 1.5 140 13:38 05.11.2019
4907 Clouds 11 996 76 10000 3.1 150 13:20 05.11.2019
4908 Clouds 11 996 76 10000 3.1 150 12:40 05.11.2019
4909 Clouds 10 996 76 10000 3.1 160 12:21 05.11.2019
4910 Clouds 10 996 76 10000 3.1 160 12:21 05.11.2019
4911 Clouds 10 996 76 10000 3.1 160 11:56 05.11.2019
4912 Clouds 10 995 76 10000 1.5 260 11:37 05.11.2019
4913 Clouds 10 995 81 10000 2.6 220 11:19 05.11.2019
4914 Clouds 9 995 81 10000 2.6 200 10:45 05.11.2019
4915 Clouds 9 995 81 10000 2.6 200 10:27 05.11.2019
4916 Clouds 9 995 81 10000 2.1 190 09:59 05.11.2019
4917 Clouds 9 994 93 10000 2.1 200 09:41 05.11.2019
4918 Clouds 9 994 93 10000 1.5 210 09:20 05.11.2019
4919 Clouds 9 994 93 10000 1.5 210 08:56 05.11.2019
4920 Clouds 8 994 87 10000 4.1 190 08:37 05.11.2019
4921 Clouds 8 993 93 10000 2.6 210 08:18 05.11.2019
4922 Clouds 8 993 87 10000 3.6 190 07:45 05.11.2019
4923 Clouds 8 993 87 10000 3.6 190 07:26 05.11.2019
4924 Clouds 8 993 87 10000 5.1 170 06:52 05.11.2019
4925 Clouds 8 993 87 10000 4.6 180 06:30 05.11.2019
4926 Clouds 8 993 81 10000 5.1 180 05:44 05.11.2019
4927 Clouds 8 993 87 10000 3.6 190 05:20 05.11.2019
4928 Clouds 8 993 87 10000 4.6 210 04:22 05.11.2019
4929 Clouds 7 993 87 10000 4.1 170 03:31 05.11.2019
4930 Clouds 8 993 87 10000 4.1 200 02:43 05.11.2019
4931 Clouds 8 993 81 10000 5.1 190 01:55 05.11.2019
4932 Clouds 8 993 87 10000 4.1 200 00:48 05.11.2019
4933 Clouds 8 993 87 10000 4.1 200 00:27 05.11.2019
4934 Clouds 9 993 76 10000 6.2 200 23:43 04.11.2019
4935 Clouds 9 993 76 10000 6.2 200 23:43 04.11.2019
4936 Clouds 9 993 76 10000 4.6 200 23:19 04.11.2019
4937 Clouds 9 993 76 10000 4.6 200 22:58 04.11.2019
4938 Clouds 9 992 76 10000 6.7 210 22:40 04.11.2019
4939 Clouds 9 992 81 10000 5.1 220 22:20 04.11.2019
4940 Clouds 9 992 81 10000 5.1 220 21:55 04.11.2019
4941 Clouds 9 992 81 10000 5.1 220 21:55 04.11.2019
4942 Clouds 9 992 76 10000 5.1 220 21:37 04.11.2019
4943 Clouds 9 992 81 10000 6.2 230 21:18 04.11.2019
4944 Clouds 9 991 81 10000 6.2 230 20:56 04.11.2019
4945 Clouds 9 991 81 10000 6.2 230 20:37 04.11.2019
4946 Rain 10 991 76 10000 7.7 210 20:19 04.11.2019
4947 Rain 10 991 76 10000 7.7 210 19:57 04.11.2019
4948 Clouds 10 991 87 10000 5.7 230 19:39 04.11.2019
4949 Clouds 10 990 76 10000 6.2 210 19:21 04.11.2019
4950 Clouds 10 990 76 10000 6.2 210 18:56 04.11.2019
4951 Clouds 10 990 71 10000 6.2 210 18:37 04.11.2019
4952 Clouds 10 990 81 10000 4.1 220 18:18 04.11.2019
4953 Rain 11 990 71 10000 5.7 220 17:39 04.11.2019
4954 Rain 11 989 76 10000 5.1 220 17:21 04.11.2019
4955 Rain 11 989 66 10000 5.1 210 16:57 04.11.2019
4956 Rain 12 989 62 10000 7.2 220 16:39 04.11.2019
4957 Rain 12 989 62 10000 7.2 220 16:20 04.11.2019
4958 Clouds 12 989 62 10000 5.1 220 16:20 04.11.2019
4959 Clouds 13 989 62 10000 5.1 220 15:55 04.11.2019
4960 Clouds 14 989 62 10000 8.2 220 15:36 04.11.2019
4961 Clouds 14 988 58 10000 8.2 230 15:18 04.11.2019
4962 Clouds 14 988 58 10000 7.2 220 14:41 04.11.2019
4963 Rain 13 988 62 10000 6.7 230 14:21 04.11.2019
4964 Rain 14 988 62 10000 6.7 230 13:59 04.11.2019
4965 Rain 13 988 67 10000 8.7 200 13:40 04.11.2019
4966 Clouds 13 989 71 10000 7.2 200 13:21 04.11.2019
4967 Clouds 13 989 71 10000 7.2 200 13:21 04.11.2019
4968 Clouds 13 989 76 10000 6.2 210 12:58 04.11.2019
4969 Clouds 13 989 76 10000 6.2 210 12:40 04.11.2019
4970 Clouds 13 989 76 10000 6.7 210 12:21 04.11.2019
4971 Clouds 13 989 76 10000 6.7 210 11:56 04.11.2019
4972 Clouds 12 989 82 10000 7.2 210 11:38 04.11.2019
4973 Clouds 12 989 81 10000 5.1 200 11:19 04.11.2019
4974 Clouds 11 989 81 10000 5.1 200 10:42 04.11.2019
4975 Clouds 11 989 81 10000 5.1 200 10:24 04.11.2019
4976 Clouds 11 989 87 10000 5.1 210 09:47 04.11.2019
4977 Clouds 10 989 87 10000 5.1 210 09:28 04.11.2019
4978 Clouds 10 989 87 10000 5.1 200 08:59 04.11.2019
4979 Clouds 10 988 87 10000 4.1 220 08:40 04.11.2019
4980 Clouds 10 988 87 10000 5.1 230 08:21 04.11.2019
4981 Clouds 10 988 93 10000 5.1 230 07:45 04.11.2019
4982 Clouds 10 987 93 10000 5.1 210 07:24 04.11.2019
4983 Clouds 10 988 93 10000 5.1 230 07:24 04.11.2019
4984 Clouds 10 987 93 10000 5.1 210 06:58 04.11.2019
4985 Rain 10 987 93 3900 5.1 190 06:35 04.11.2019
4986 Rain 10 987 93 7000 5.1 160 05:59 04.11.2019
4987 Rain 10 988 93 7000 5.1 170 04:45 04.11.2019
4988 Rain 10 989 93 9000 5.1 170 04:23 04.11.2019
4989 Rain 10 990 93 10000 4.6 210 02:44 04.11.2019
4990 Clouds 10 990 87 10000 3.6 210 01:22 04.11.2019
4991 Clouds 10 990 81 10000 5.7 220 00:51 04.11.2019
4992 Clouds 10 991 81 10000 5.1 240 00:21 04.11.2019
4993 Clouds 10 991 81 10000 5.1 240 23:58 03.11.2019
4994 Clouds 10 991 87 10000 4.6 240 23:36 03.11.2019
4995 Clouds 11 991 87 10000 4.6 240 23:18 03.11.2019
4996 Clouds 11 991 81 10000 6.2 230 22:55 03.11.2019
4997 Clouds 11 991 93 10000 4.6 240 22:37 03.11.2019
4998 Clouds 11 990 87 10000 5.1 220 22:18 03.11.2019
4999 Rain 11 990 87 10000 5.7 230 21:42 03.11.2019
5000 Rain 11 990 87 10000 5.1 230 21:21 03.11.2019
5001 Clouds 11 989 87 10000 4.1 220 20:57 03.11.2019
5002 Clouds 11 989 87 10000 4.1 220 20:37 03.11.2019
5003 Clouds 11 989 87 10000 4.1 230 20:19 03.11.2019
5004 Clouds 11 989 87 10000 4.1 230 19:57 03.11.2019
5005 Clouds 11 989 87 10000 2.6 220 19:38 03.11.2019
5006 Clouds 11 989 87 10000 2.6 220 19:20 03.11.2019
5007 Clouds 11 988 87 10000 3.1 210 18:54 03.11.2019
5008 Clouds 11 988 87 10000 3.1 210 18:36 03.11.2019
5009 Clouds 11 988 87 10000 3.6 220 18:18 03.11.2019
5010 Rain 11 987 93 10000 2.6 240 17:42 03.11.2019
5011 Rain 11 987 93 10000 2.6 240 17:20 03.11.2019
5012 Rain 12 987 87 10000 3.1 220 16:56 03.11.2019
5013 Rain 12 987 87 10000 3.1 220 16:56 03.11.2019
5014 Clouds 12 986 87 10000 3.1 250 16:38 03.11.2019
5015 Rain 12 986 93 10000 3.6 250 16:20 03.11.2019
5016 Rain 11 985 87 10000 5.7 260 15:57 03.11.2019
5017 Rain 11 985 87 10000 5.7 260 15:39 03.11.2019
5018 Rain 11 984 93 10000 5.1 270 15:21 03.11.2019
5019 Rain 11 983 93 10000 5.1 290 14:42 03.11.2019
5020 Drizzle 11 983 93 10000 8.2 310 14:19 03.11.2019
5021 Drizzle 11 983 93 10000 8.2 310 13:58 03.11.2019
5022 Rain 12 982 82 10000 4.1 230 13:40 03.11.2019
5023 Rain 12 982 82 10000 3.6 240 13:18 03.11.2019
5024 Clouds 12 982 82 10000 2.6 240 12:39 03.11.2019
5025 Clouds 12 981 87 10000 3.6 210 12:20 03.11.2019
5026 Clouds 12 981 87 10000 3.6 210 12:20 03.11.2019
5027 Clouds 12 981 87 10000 3.1 190 11:59 03.11.2019
5028 Clouds 12 981 87 10000 3.1 190 11:41 03.11.2019
5029 Clouds 12 981 87 10000 3.1 190 11:41 03.11.2019
5030 Clouds 12 981 93 10000 3.1 170 11:20 03.11.2019
5031 Clouds 12 981 93 10000 3.1 170 10:55 03.11.2019
5032 Clouds 12 981 93 10000 3.1 170 10:37 03.11.2019
5033 Mist 12 980 93 5000 4.1 180 10:18 03.11.2019
5034 Mist 12 980 93 5000 4.1 180 10:18 03.11.2019
5035 Mist 12 980 93 5000 4.1 180 10:18 03.11.2019
5036 Drizzle 11 980 93 3900 5.1 160 09:43 03.11.2019
5037 Drizzle 11 980 93 3900 5.1 160 09:24 03.11.2019
5038 Rain 11 980 87 10000 5.7 140 08:56 03.11.2019
5039 Rain 11 980 87 10000 7.2 140 08:56 03.11.2019
5040 Rain 11 980 87 10000 5.7 140 08:36 03.11.2019
5041 Rain 11 980 100 10000 5.1 130 08:18 03.11.2019
5042 Rain 11 980 93 7000 5.1 140 07:44 03.11.2019
5043 Rain 11 981 93 10000 5.1 130 07:21 03.11.2019
5044 Drizzle 11 981 93 5000 4.1 120 06:39 03.11.2019
5045 Drizzle 11 981 93 5000 4.6 140 05:54 03.11.2019
5046 Clouds 11 982 93 10000 4.1 140 05:34 03.11.2019
5047 Clouds 11 983 87 10000 4.6 160 04:53 03.11.2019
5048 Clouds 11 984 87 10000 3.6 170 03:59 03.11.2019
5049 Clouds 10 985 81 10000 6.2 180 03:21 03.11.2019
5050 Clouds 10 986 81 10000 5.7 190 02:23 03.11.2019
5051 Clouds 10 986 93 10000 5.7 210 01:55 03.11.2019
5052 Clouds 10 986 93 10000 5.7 210 01:36 03.11.2019
5053 Clouds 10 986 93 10000 5.7 210 01:18 03.11.2019
5054 Clouds 10 987 81 10000 6.7 190 00:38 03.11.2019
5055 Clouds 10 987 81 10000 6.2 190 00:20 03.11.2019
5056 Clouds 10 987 87 10000 4.6 210 23:55 02.11.2019
5057 Clouds 10 987 87 10000 4.6 210 23:36 02.11.2019
5058 Drizzle 10 988 93 10000 5.1 210 23:18 02.11.2019
5059 Drizzle 11 988 93 10000 5.1 210 22:54 02.11.2019
5060 Drizzle 11 989 93 10000 5.7 210 22:36 02.11.2019
5061 Clouds 11 989 76 10000 7.7 190 22:18 02.11.2019
5062 Clouds 11 989 76 10000 6.7 190 21:55 02.11.2019
5063 Clouds 11 989 76 10000 6.7 190 21:36 02.11.2019
5064 Rain 11 989 81 10000 7.7 190 21:18 02.11.2019
5065 Clouds 11 990 76 10000 7.7 200 20:42 02.11.2019
5066 Clouds 11 990 76 10000 7.7 200 20:22 02.11.2019
5067 Clouds 11 990 87 10000 6.7 210 20:22 02.11.2019
5068 Clouds 11 990 87 10000 6.7 210 19:59 02.11.2019
5069 Clouds 12 990 87 10000 6.7 210 19:38 02.11.2019
5070 Clouds 12 990 76 10000 8.7 200 19:20 02.11.2019
5071 Clouds 12 990 76 10000 8.7 200 18:55 02.11.2019
5072 Clouds 12 991 87 10000 5.7 210 18:36 02.11.2019
5073 Clouds 12 991 71 10000 8.7 200 18:18 02.11.2019
5074 Clouds 12 991 71 10000 8.7 200 17:55 02.11.2019
5075 Clouds 12 991 71 10000 8.2 200 17:37 02.11.2019
5076 Clouds 12 991 71 10000 8.2 200 17:37 02.11.2019
5077 Clouds 12 991 71 10000 8.7 200 17:18 02.11.2019
5078 Clouds 12 991 71 10000 8.7 210 16:40 02.11.2019
5079 Clouds 12 991 71 10000 8.7 210 16:40 02.11.2019
5080 Clouds 12 992 76 10000 7.2 220 16:21 02.11.2019
5081 Clouds 13 991 67 10000 8.7 200 15:56 02.11.2019
5082 Clouds 13 991 67 10000 8.2 200 15:37 02.11.2019
5083 Clouds 13 992 67 10000 9.8 200 15:19 02.11.2019
5084 Clouds 13 992 67 10000 9.3 200 14:42 02.11.2019
5085 Clouds 13 992 67 10000 9.3 200 14:23 02.11.2019
5086 Clouds 13 992 67 10000 8.7 210 13:57 02.11.2019
5087 Clouds 13 993 67 10000 9.8 220 13:38 02.11.2019
5088 Clouds 13 993 76 10000 8.2 220 13:18 02.11.2019
5089 Clouds 13 994 76 10000 8.2 220 12:41 02.11.2019
5090 Clouds 13 994 71 10000 9.3 200 12:22 02.11.2019
5091 Rain 13 994 71 10000 9.3 200 11:57 02.11.2019
5092 Rain 13 994 71 10000 9.3 200 11:39 02.11.2019
5093 Clouds 13 994 71 10000 7.2 210 11:20 02.11.2019
5094 Clouds 13 994 71 10000 7.2 210 10:47 02.11.2019
5095 Clouds 13 994 71 10000 7.2 210 10:27 02.11.2019
5096 Clouds 13 994 71 10000 6.7 210 09:57 02.11.2019
5097 Clouds 13 994 71 10000 8.2 210 09:39 02.11.2019
5098 Clouds 13 994 76 10000 7.7 210 09:19 02.11.2019
5099 Clouds 13 994 76 10000 7.7 220 08:45 02.11.2019
5100 Clouds 13 994 76 10000 7.7 220 08:22 02.11.2019
5101 Clouds 13 995 76 10000 7.2 230 07:47 02.11.2019
5102 Clouds 14 995 76 10000 7.2 230 07:28 02.11.2019
5103 Clouds 14 994 72 10000 7.2 220 07:28 02.11.2019
5104 Clouds 14 994 72 10000 7.2 220 06:55 02.11.2019
5105 Clouds 14 994 72 10000 7.2 240 06:30 02.11.2019
5106 Clouds 14 994 87 10000 6.2 240 05:56 02.11.2019
5107 Clouds 14 994 87 10000 6.2 240 05:20 02.11.2019
5108 Clouds 15 994 87 10000 6.2 210 04:21 02.11.2019
5109 Clouds 15 994 87 10000 6.7 210 03:47 02.11.2019
5110 Clouds 15 995 87 10000 7.2 200 02:40 02.11.2019
5111 Rain 15 995 93 10000 5.1 190 01:43 02.11.2019
5112 Rain 15 996 87 10000 7.7 190 01:21 02.11.2019
5113 Clouds 16 996 87 10000 5.7 190 00:48 02.11.2019
5114 Clouds 16 996 87 10000 5.7 190 00:26 02.11.2019
5115 Clouds 16 997 87 10000 5.7 200 23:46 01.11.2019
5116 Clouds 16 997 87 10000 5.7 200 23:22 01.11.2019
5117 Clouds 16 998 93 10000 5.7 220 22:58 01.11.2019
5118 Clouds 16 997 87 10000 6.2 190 22:39 01.11.2019
5119 Clouds 16 998 93 10000 4.6 190 22:20 01.11.2019
5120 Clouds 16 998 93 10000 5.1 190 21:41 01.11.2019
5121 Clouds 16 998 93 10000 6.7 190 21:23 01.11.2019
5122 Clouds 16 998 93 10000 6.7 190 20:57 01.11.2019
5123 Drizzle 16 999 93 4900 5.1 210 20:39 01.11.2019
5124 Clouds 16 999 88 10000 6.2 190 20:19 01.11.2019
5125 Clouds 16 1000 93 10000 4.1 210 19:55 01.11.2019
5126 Clouds 16 1000 93 10000 4.1 210 19:37 01.11.2019
5127 Clouds 16 1000 93 10000 4.1 190 19:18 01.11.2019
5128 Clouds 16 1000 93 10000 3.6 180 18:39 01.11.2019
5129 Clouds 16 1000 93 10000 3.6 180 18:39 01.11.2019
5130 Clouds 16 1000 93 10000 3.6 180 18:20 01.11.2019
5131 Clouds 16 1000 93 10000 3.6 180 17:55 01.11.2019
5132 Clouds 16 1000 93 10000 3.6 180 17:37 01.11.2019
5133 Clouds 16 1000 93 10000 2.6 170 17:19 01.11.2019
5134 Clouds 16 1001 100 10000 3.1 180 16:38 01.11.2019
5135 Clouds 16 1001 100 10000 3.1 180 16:38 01.11.2019
5136 Clouds 16 1001 100 10000 3.1 180 16:38 01.11.2019
5137 Drizzle 15 1002 100 3400 4.1 190 16:19 01.11.2019
5138 Drizzle 15 1002 100 3400 4.1 190 15:54 01.11.2019
5139 Clouds 15 1002 93 10000 4.6 190 15:36 01.11.2019
5140 Drizzle 15 1003 93 10000 4.1 190 15:18 01.11.2019
5141 Drizzle 15 1003 93 3500 6.2 180 14:41 01.11.2019
5142 Clouds 14 1003 93 10000 5.1 180 14:23 01.11.2019
5143 Clouds 14 1004 93 9000 5.7 180 13:57 01.11.2019
5144 Clouds 14 1004 93 9000 5.7 180 13:38 01.11.2019
5145 Drizzle 14 1005 100 5000 6.2 170 13:19 01.11.2019
5146 Drizzle 13 1005 93 10000 5.7 180 12:43 01.11.2019
5147 Rain 13 1006 93 8000 6.2 170 12:25 01.11.2019
5148 Rain 13 1006 93 8000 6.2 170 11:59 01.11.2019
5149 Drizzle 13 1006 93 9000 7.2 160 11:40 01.11.2019
5150 Drizzle 12 1007 100 2800 4.1 180 11:22 01.11.2019
5151 Clouds 12 1008 93 10000 6.7 170 10:42 01.11.2019
5152 Rain 12 1008 100 10000 6.2 180 10:22 01.11.2019
5153 Rain 12 1008 100 10000 6.2 180 09:57 01.11.2019
5154 Rain 12 1008 100 10000 6.2 180 09:57 01.11.2019
5155 Rain 12 1009 93 6000 6.2 180 09:38 01.11.2019
5156 Rain 12 1009 93 7000 5.1 170 09:19 01.11.2019
5157 Rain 12 1010 93 9000 4.1 170 08:43 01.11.2019
5158 Rain 11 1010 93 7000 4.6 180 08:22 01.11.2019
5159 Rain 11 1010 93 7000 4.6 180 07:56 01.11.2019
5160 Rain 11 1011 100 6000 3.6 180 07:37 01.11.2019
5161 Rain 11 1011 93 7000 3.6 170 07:18 01.11.2019
5162 Rain 11 1012 93 5000 2.6 160 06:41 01.11.2019
5163 Rain 11 1012 87 6000 1 150 06:22 01.11.2019
5164 Clouds 10 1013 93 7000 1 150 05:43 01.11.2019
5165 Clouds 10 1014 87 7000 0.5 0 03:57 01.11.2019
5166 Clouds 10 1015 87 8000 1.93 176 02:49 01.11.2019
5167 Clouds 10 1015 87 9000 1.25 161 01:31 01.11.2019
5168 Clouds 10 1016 87 9000 1.57 179 00:40 01.11.2019
5169 Clouds 10 1016 87 9000 1 0 00:18 01.11.2019
5170 Clouds 10 1016 87 9000 1 360 23:43 31.10.2019
5171 Clouds 10 1016 87 9000 1.5 0 23:23 31.10.2019
5172 Clouds 10 1017 87 9000 1.5 20 22:56 31.10.2019
5173 Clouds 10 1017 87 9000 1.5 20 22:38 31.10.2019
5174 Clouds 10 1017 87 9000 2.1 20 22:19 31.10.2019
5175 Clouds 10 1017 87 10000 2.6 20 21:43 31.10.2019
5176 Clouds 10 1017 87 10000 2.1 10 21:20 31.10.2019
5177 Clouds 10 1017 87 10000 2.1 10 20:57 31.10.2019
5178 Clouds 10 1017 81 10000 2.6 30 20:39 31.10.2019
5179 Clouds 11 1017 81 10000 2.6 30 20:20 31.10.2019
5180 Clouds 11 1017 81 10000 3.1 40 19:42 31.10.2019
5181 Clouds 11 1017 81 10000 3.1 40 19:22 31.10.2019
5182 Clouds 11 1017 81 10000 3.1 50 18:57 31.10.2019
5183 Clouds 11 1017 81 10000 3.1 50 18:57 31.10.2019
5184 Clouds 11 1017 81 10000 3.6 40 18:39 31.10.2019
5185 Clouds 11 1017 81 10000 4.1 30 18:19 31.10.2019
5186 Clouds 11 1017 76 10000 4.1 30 17:42 31.10.2019
5187 Clouds 11 1017 81 10000 4.6 20 17:22 31.10.2019
5188 Clouds 11 1017 81 10000 4.6 20 16:59 31.10.2019
5189 Clouds 12 1017 81 10000 4.1 40 16:40 31.10.2019
5190 Clouds 12 1016 76 10000 4.1 70 16:20 31.10.2019
5191 Clouds 12 1016 76 10000 4.1 70 15:56 31.10.2019
5192 Clouds 12 1016 81 10000 3.6 50 15:38 31.10.2019
5193 Clouds 12 1016 81 10000 4.6 60 15:19 31.10.2019
5194 Clouds 12 1016 81 10000 4.1 50 14:56 31.10.2019
5195 Clouds 12 1016 81 10000 4.1 50 14:38 31.10.2019
5196 Clouds 11 1017 81 9000 4.1 60 14:19 31.10.2019
5197 Clouds 11 1017 81 9000 4.1 60 13:55 31.10.2019
5198 Clouds 11 1017 87 8000 4.1 60 13:37 31.10.2019
5199 Drizzle 11 1017 87 7000 4.6 70 13:19 31.10.2019
5200 Clouds 11 1017 87 8000 4.6 70 12:43 31.10.2019
5201 Clouds 10 1018 87 7000 4.1 70 12:23 31.10.2019
5202 Clouds 10 1018 87 7000 4.1 70 11:57 31.10.2019
5203 Clouds 10 1018 87 7000 4.6 70 11:38 31.10.2019
5204 Clouds 10 1018 87 6000 5.1 70 11:18 31.10.2019
5205 Clouds 10 1018 87 6000 5.1 70 10:57 31.10.2019
5206 Clouds 10 1017 87 6000 4.6 80 10:38 31.10.2019
5207 Mist 9 1017 93 5000 4.1 70 10:19 31.10.2019
5208 Mist 9 1017 93 5000 4.6 70 09:42 31.10.2019
5209 Mist 9 1017 93 5000 3.6 70 09:18 31.10.2019
5210 Mist 9 1017 93 5000 3.6 70 09:18 31.10.2019
5211 Mist 9 1017 87 5000 2.6 80 08:49 31.10.2019
5212 Mist 9 1017 87 5000 2.6 80 08:31 31.10.2019
5213 Mist 8 1017 93 5000 3.1 80 07:58 31.10.2019
5214 Mist 8 1017 93 5000 3.1 70 07:39 31.10.2019
5215 Mist 8 1017 93 5000 3.1 80 07:21 31.10.2019
5216 Rain 8 1018 93 5000 2.6 70 06:38 31.10.2019
5217 Rain 8 1018 93 5000 2.6 70 06:19 31.10.2019
5218 Drizzle 8 1019 93 6000 2.6 80 04:35 31.10.2019
5219 Clouds 8 1020 93 6000 3.1 70 02:45 31.10.2019
5220 Drizzle 8 1020 93 6000 2.6 80 01:53 31.10.2019
5221 Rain 9 1020 87 7000 3.6 80 00:40 31.10.2019
5222 Clouds 9 1021 81 10000 3.6 80 00:22 31.10.2019
5223 Clouds 9 1021 81 10000 4.1 70 23:33 30.10.2019
5224 Clouds 9 1021 81 10000 2.6 70 22:56 30.10.2019
5225 Clouds 9 1021 81 10000 2.6 70 22:38 30.10.2019
5226 Clouds 9 1021 81 9000 2.6 60 22:18 30.10.2019
5227 Clouds 9 1021 81 9000 2.6 60 21:54 30.10.2019
5228 Clouds 9 1021 81 10000 3.6 70 21:36 30.10.2019
5229 Clouds 9 1021 81 10000 3.6 70 21:36 30.10.2019
5230 Clouds 9 1021 87 10000 3.6 70 21:18 30.10.2019
5231 Clouds 9 1021 87 10000 3.6 70 20:56 30.10.2019
5232 Clouds 9 1021 87 10000 3.6 70 20:56 30.10.2019
5233 Clouds 9 1021 87 10000 3.6 70 20:36 30.10.2019
5234 Clouds 9 1021 87 10000 3.6 70 20:36 30.10.2019
5235 Clouds 9 1021 81 10000 2.6 40 20:18 30.10.2019
5236 Clouds 9 1021 81 10000 2.6 40 20:18 30.10.2019
5237 Clouds 9 1021 81 10000 3.1 60 19:40 30.10.2019
5238 Clouds 9 1021 81 10000 3.1 60 19:40 30.10.2019
5239 Clouds 10 1021 81 10000 3.6 60 19:22 30.10.2019
5240 Clouds 9 1021 81 10000 3.6 60 18:59 30.10.2019
5241 Clouds 10 1021 81 10000 3.6 60 18:38 30.10.2019
5242 Clouds 10 1021 81 10000 3.1 60 18:19 30.10.2019
5243 Clouds 10 1021 81 10000 3.1 60 18:19 30.10.2019
5244 Clouds 10 1021 81 10000 3.1 60 17:55 30.10.2019
5245 Clouds 10 1021 81 10000 3.1 70 17:37 30.10.2019
5246 Clouds 10 1021 81 10000 4.1 50 17:18 30.10.2019
5247 Clouds 10 1021 81 10000 4.6 50 16:42 30.10.2019
5248 Clouds 10 1021 81 10000 4.6 50 16:24 30.10.2019
5249 Clouds 10 1021 81 10000 4.6 50 15:59 30.10.2019
5250 Rain 10 1021 81 10000 3.6 40 15:39 30.10.2019
5251 Rain 10 1021 81 10000 3.6 40 15:20 30.10.2019
5252 Clouds 10 1022 81 10000 3.6 40 14:59 30.10.2019
5253 Clouds 10 1022 81 10000 3.6 50 14:40 30.10.2019
5254 Clouds 10 1022 81 10000 3.6 50 14:21 30.10.2019
5255 Clouds 9 1022 76 10000 3.1 60 13:55 30.10.2019
5256 Rain 9 1022 76 10000 4.1 60 13:37 30.10.2019
5257 Rain 9 1022 76 10000 4.1 60 13:37 30.10.2019
5258 Rain 9 1022 81 10000 4.1 60 13:19 30.10.2019
5259 Rain 9 1022 81 10000 4.1 70 12:45 30.10.2019
5260 Rain 9 1022 81 10000 4.1 70 12:27 30.10.2019
5261 Rain 9 1023 81 10000 4.1 70 11:59 30.10.2019
5262 Rain 9 1022 81 10000 4.6 70 11:41 30.10.2019
5263 Rain 8 1022 87 10000 4.1 50 11:21 30.10.2019
5264 Clouds 8 1022 87 10000 3.6 40 10:43 30.10.2019
5265 Clouds 8 1022 87 10000 3.6 40 10:23 30.10.2019
5266 Clouds 8 1023 87 10000 3.1 50 09:43 30.10.2019
5267 Clouds 8 1022 87 10000 3.6 60 09:24 30.10.2019
5268 Clouds 8 1022 87 10000 3.6 60 08:58 30.10.2019
5269 Rain 8 1022 87 10000 2.6 70 08:40 30.10.2019
5270 Clouds 8 1022 87 10000 2.6 70 08:20 30.10.2019
5271 Clouds 8 1022 87 10000 4.1 70 07:46 30.10.2019
5272 Clouds 8 1022 87 10000 4.1 70 07:28 30.10.2019
5273 Clouds 8 1021 87 10000 3.6 50 06:43 30.10.2019
5274 Clouds 8 1021 87 10000 4.1 50 06:21 30.10.2019
5275 Clouds 8 1022 87 10000 3.6 40 05:46 30.10.2019
5276 Rain 8 1022 87 10000 3.1 40 05:24 30.10.2019
5277 Rain 8 1022 87 9000 3.1 70 03:46 30.10.2019
5278 Rain 8 1022 87 10000 5.7 80 03:18 30.10.2019
5279 Drizzle 8 1022 87 10000 4.1 90 02:19 30.10.2019
5280 Rain 8 1023 81 10000 3.6 60 01:34 30.10.2019
5281 Rain 9 1023 81 10000 3.6 70 00:31 30.10.2019
5282 Clouds 9 1023 81 10000 3.1 60 23:46 29.10.2019
5283 Clouds 9 1023 81 10000 3.1 60 23:27 29.10.2019
5284 Clouds 9 1022 81 10000 3.6 60 22:55 29.10.2019
5285 Clouds 9 1022 81 10000 4.1 70 22:37 29.10.2019
5286 Clouds 9 1022 81 10000 4.1 70 22:37 29.10.2019
5287 Clouds 9 1022 81 10000 4.1 70 22:18 29.10.2019
5288 Clouds 9 1022 81 10000 3.6 60 21:54 29.10.2019
5289 Clouds 9 1022 81 10000 3.6 60 21:36 29.10.2019
5290 Rain 9 1022 81 10000 3.6 60 21:18 29.10.2019
5291 Rain 9 1022 76 10000 3.6 60 20:41 29.10.2019
5292 Rain 10 1022 76 10000 4.1 50 20:21 29.10.2019
5293 Rain 10 1022 76 10000 4.1 50 19:57 29.10.2019
5294 Clouds 10 1022 76 10000 4.1 30 19:38 29.10.2019
5295 Rain 10 1022 76 10000 4.6 40 19:20 29.10.2019
5296 Rain 10 1022 76 10000 4.6 40 18:57 29.10.2019
5297 Clouds 10 1022 66 10000 3.6 50 18:37 29.10.2019
5298 Clouds 10 1022 66 10000 4.6 50 18:19 29.10.2019
5299 Clouds 10 1022 66 10000 4.6 50 18:19 29.10.2019
5300 Clouds 10 1022 66 10000 4.6 50 17:55 29.10.2019
5301 Clouds 10 1022 66 10000 4.6 50 17:55 29.10.2019
5302 Clouds 11 1021 66 10000 4.1 50 17:37 29.10.2019
5303 Clouds 11 1021 66 10000 4.6 70 17:18 29.10.2019
5304 Clouds 11 1021 62 10000 5.1 60 16:40 29.10.2019
5305 Clouds 11 1021 62 10000 5.1 60 16:21 29.10.2019
5306 Clouds 11 1021 66 10000 5.1 60 15:57 29.10.2019
5307 Rain 11 1021 58 10000 6.7 60 15:39 29.10.2019
5308 Rain 11 1021 58 10000 6.7 60 15:20 29.10.2019
5309 Clouds 11 1021 66 10000 5.1 60 14:56 29.10.2019
5310 Clouds 11 1021 62 10000 5.7 70 14:37 29.10.2019
5311 Clouds 10 1021 66 10000 5.7 80 14:19 29.10.2019
5312 Clouds 10 1021 71 10000 6.2 60 13:40 29.10.2019
5313 Clouds 10 1021 71 10000 6.2 60 13:40 29.10.2019
5314 Clouds 10 1022 66 10000 6.2 70 13:22 29.10.2019
5315 Clouds 10 1022 66 10000 6.2 70 13:22 29.10.2019
5316 Clouds 10 1022 66 10000 6.2 70 12:55 29.10.2019
5317 Clouds 10 1022 71 10000 5.7 60 12:37 29.10.2019
5318 Clouds 10 1021 71 10000 6.2 60 12:19 29.10.2019
5319 Clouds 10 1021 71 10000 5.7 50 11:42 29.10.2019
5320 Clouds 10 1021 71 10000 5.7 50 11:42 29.10.2019
5321 Clouds 9 1021 71 10000 5.7 50 11:22 29.10.2019
5322 Clouds 9 1021 71 10000 6.2 50 10:58 29.10.2019
5323 Clouds 9 1021 76 10000 5.1 50 10:40 29.10.2019
5324 Clouds 9 1021 76 10000 5.1 50 10:20 29.10.2019
5325 Clouds 8 1021 76 10000 5.1 60 09:59 29.10.2019
5326 Rain 8 1021 76 10000 4.6 40 09:41 29.10.2019
5327 Clouds 8 1020 81 10000 6.2 60 09:22 29.10.2019
5328 Rain 8 1021 81 10000 4.1 40 08:54 29.10.2019
5329 Rain 8 1021 81 10000 3.6 40 08:36 29.10.2019
5330 Rain 8 1020 81 10000 3.6 30 08:18 29.10.2019
5331 Rain 8 1020 81 10000 4.1 30 07:44 29.10.2019
5332 Rain 8 1020 81 10000 4.1 30 07:19 29.10.2019
5333 Rain 8 1020 81 10000 4.1 30 06:46 29.10.2019
5334 Rain 8 1020 81 10000 4.1 30 06:26 29.10.2019
5335 Rain 8 1020 81 10000 4.6 20 05:52 29.10.2019
5336 Rain 8 1020 81 10000 4.6 20 05:34 29.10.2019
5337 Clouds 8 1019 76 10000 3.6 30 04:32 29.10.2019
5338 Clouds 9 1019 76 10000 4.6 30 02:34 29.10.2019
5339 Clouds 9 1019 76 10000 4.6 30 01:54 29.10.2019
5340 Clouds 9 1020 76 10000 5.1 40 01:23 29.10.2019
5341 Clouds 9 1019 76 10000 5.1 50 00:50 29.10.2019
5342 Clouds 9 1020 76 10000 4.1 50 23:58 28.10.2019
5343 Clouds 9 1020 76 10000 4.1 50 23:36 28.10.2019
5344 Clouds 9 1020 81 10000 4.1 40 23:18 28.10.2019
5345 Clouds 9 1020 76 10000 3.1 40 22:39 28.10.2019
5346 Clouds 9 1020 76 10000 4.1 50 22:19 28.10.2019
5347 Clouds 9 1020 76 10000 4.1 50 21:56 28.10.2019
5348 Clouds 9 1020 76 10000 4.1 50 21:56 28.10.2019
5349 Clouds 9 1020 76 10000 3.6 30 21:38 28.10.2019
5350 Clouds 9 1020 76 10000 4.1 30 21:20 28.10.2019
5351 Clouds 9 1020 76 10000 4.1 30 20:57 28.10.2019
5352 Clouds 10 1020 76 10000 4.1 30 20:38 28.10.2019
5353 Clouds 10 1021 71 10000 3.6 20 20:20 28.10.2019
5354 Clouds 10 1021 71 10000 3.6 20 19:54 28.10.2019
5355 Clouds 10 1021 71 10000 3.6 20 19:54 28.10.2019
5356 Clouds 10 1021 71 10000 3.1 20 19:36 28.10.2019
5357 Clouds 10 1020 71 10000 3.6 30 19:18 28.10.2019
5358 Clouds 10 1020 71 10000 3.6 30 19:18 28.10.2019
5359 Clouds 10 1020 71 10000 3.6 30 18:54 28.10.2019
5360 Clouds 10 1020 71 10000 3.6 30 18:36 28.10.2019
5361 Clouds 10 1020 71 10000 4.1 40 18:18 28.10.2019
5362 Clouds 10 1020 71 10000 4.1 40 17:54 28.10.2019
5363 Clouds 10 1020 66 10000 4.6 30 17:36 28.10.2019
5364 Clouds 10 1020 66 10000 4.6 30 17:18 28.10.2019
5365 Clouds 11 1020 66 10000 4.6 40 16:44 28.10.2019
5366 Clouds 11 1020 66 10000 4.6 40 16:24 28.10.2019
5367 Clouds 11 1020 62 10000 5.7 40 15:59 28.10.2019
5368 Clouds 11 1020 62 10000 5.1 40 15:40 28.10.2019
5369 Clouds 11 1020 62 10000 5.1 40 15:22 28.10.2019
5370 Clouds 11 1021 62 10000 5.7 40 14:59 28.10.2019
5371 Clouds 12 1021 57 10000 6.7 40 14:40 28.10.2019
5372 Clouds 12 1021 58 10000 5.1 50 14:19 28.10.2019
5373 Clouds 12 1021 58 10000 5.1 50 13:59 28.10.2019
5374 Clouds 11 1021 66 10000 5.7 30 13:41 28.10.2019
5375 Clouds 11 1021 71 10000 5.7 50 13:18 28.10.2019
5376 Clouds 10 1022 71 10000 5.1 50 12:43 28.10.2019
5377 Clouds 10 1022 71 10000 4.6 40 12:22 28.10.2019
5378 Clouds 10 1022 71 10000 4.6 40 11:59 28.10.2019
5379 Clouds 9 1022 76 10000 4.1 40 11:37 28.10.2019
5380 Clouds 9 1023 81 10000 4.1 40 11:19 28.10.2019
5381 Clouds 8 1023 75 10000 5.1 40 10:41 28.10.2019
5382 Clouds 8 1023 81 10000 3.6 50 10:22 28.10.2019
5383 Clouds 7 1023 81 10000 3.6 50 09:58 28.10.2019
5384 Clouds 7 1023 81 10000 4.6 40 09:39 28.10.2019
5385 Clouds 7 1022 87 10000 3.6 30 09:20 28.10.2019
5386 Clouds 7 1022 87 10000 3.6 30 08:57 28.10.2019
5387 Clouds 7 1022 87 10000 3.6 30 08:39 28.10.2019
5388 Clouds 7 1022 87 10000 3.6 30 08:19 28.10.2019
5389 Clouds 7 1022 87 10000 3.6 30 07:57 28.10.2019
5390 Clouds 7 1022 87 10000 4.1 30 07:38 28.10.2019
5391 Clouds 7 1022 81 10000 3.6 20 07:19 28.10.2019
5392 Clouds 7 1022 87 10000 3.6 30 06:40 28.10.2019
5393 Clouds 8 1023 81 10000 3.6 40 05:57 28.10.2019
5394 Clouds 8 1023 81 10000 4.6 20 04:25 28.10.2019
5395 Clouds 8 1023 81 10000 4.1 30 03:40 28.10.2019
5396 Clouds 8 1023 81 10000 3.6 20 02:45 28.10.2019
5397 Clouds 9 1023 81 10000 3.6 30 01:27 28.10.2019
5398 Clouds 9 1023 81 10000 4.1 20 00:46 28.10.2019
5399 Clouds 9 1024 81 10000 3.6 20 00:22 28.10.2019
5400 Clouds 9 1024 81 10000 3.1 20 23:43 27.10.2019
5401 Clouds 9 1024 81 10000 3.1 20 23:21 27.10.2019
5402 Clouds 9 1024 81 10000 3.1 20 22:55 27.10.2019
5403 Clouds 9 1024 81 10000 3.1 20 22:36 27.10.2019
5404 Clouds 9 1024 81 10000 3.1 20 22:36 27.10.2019
5405 Clouds 9 1024 81 10000 2.6 10 22:18 27.10.2019
5406 Clouds 9 1024 81 10000 2.6 10 21:40 27.10.2019
5407 Clouds 9 1024 81 10000 2.6 10 21:22 27.10.2019
5408 Clouds 9 1023 81 10000 5.1 40 20:59 27.10.2019
5409 Clouds 9 1023 81 10000 5.1 40 20:40 27.10.2019
5410 Clouds 9 1023 81 10000 4.6 40 20:22 27.10.2019
5411 Clouds 9 1023 81 10000 5.1 50 19:57 27.10.2019
5412 Clouds 9 1023 81 10000 5.1 50 19:37 27.10.2019
5413 Clouds 9 1023 81 10000 4.6 50 19:19 27.10.2019
5414 Clouds 9 1023 81 10000 2.6 20 18:56 27.10.2019
5415 Clouds 9 1023 81 10000 2.6 20 18:38 27.10.2019
5416 Clouds 9 1023 81 10000 2.6 20 18:19 27.10.2019
5417 Clouds 9 1023 81 10000 2.6 20 18:19 27.10.2019
5418 Clouds 9 1023 81 10000 2.6 20 17:54 27.10.2019
5419 Clouds 9 1023 76 10000 3.1 20 17:36 27.10.2019
5420 Clouds 9 1023 76 10000 4.1 30 17:18 27.10.2019
5421 Clouds 9 1023 76 10000 4.1 30 16:55 27.10.2019
5422 Clouds 9 1023 81 10000 3.6 20 16:37 27.10.2019
5423 Clouds 9 1023 81 10000 3.6 20 16:18 27.10.2019
5424 Clouds 9 1023 81 10000 3.1 20 15:54 27.10.2019
5425 Clouds 9 1023 81 10000 3.1 20 15:36 27.10.2019
5426 Clouds 9 1022 81 10000 3.6 20 15:18 27.10.2019
5427 Clouds 9 1022 81 10000 3.6 10 14:41 27.10.2019
5428 Clouds 9 1022 81 10000 4.6 30 14:19 27.10.2019
5429 Drizzle 8 1023 93 10000 3.1 20 13:55 27.10.2019
5430 Drizzle 8 1023 93 10000 3.1 20 13:36 27.10.2019
5431 Rain 8 1023 87 10000 3.6 30 13:18 27.10.2019
5432 Rain 8 1023 87 9000 2.1 30 12:42 27.10.2019
5433 Rain 8 1023 87 9000 2.1 30 12:23 27.10.2019
5434 Rain 8 1023 93 9000 2.6 30 11:55 27.10.2019
5435 Rain 8 1022 87 7000 4.6 30 11:37 27.10.2019
5436 Rain 8 1022 93 7000 3.6 10 11:18 27.10.2019
5437 Rain 8 1022 93 8000 3.6 20 10:41 27.10.2019
5438 Rain 8 1022 87 10000 5.1 20 10:22 27.10.2019
5439 Rain 8 1021 93 8000 4.6 360 09:44 27.10.2019
5440 Rain 9 1021 87 4200 4.1 10 09:19 27.10.2019
5441 Rain 9 1021 87 4200 4.1 10 09:19 27.10.2019
5442 Rain 9 1021 87 4200 4.1 10 08:59 27.10.2019
5443 Rain 9 1020 87 9000 4.6 360 08:40 27.10.2019
5444 Rain 10 1020 87 9000 6.2 360 08:20 27.10.2019
5445 Rain 11 1019 93 10000 5.7 340 07:50 27.10.2019
5446 Rain 11 1019 93 10000 5.7 340 07:29 27.10.2019
5447 Rain 12 1018 93 7000 4.1 350 06:56 27.10.2019
5448 Rain 12 1018 93 5000 4.6 350 06:37 27.10.2019
5449 Rain 13 1018 87 10000 1.5 0 06:18 27.10.2019
5450 Rain 14 1017 87 10000 1.5 240 05:38 27.10.2019
5451 Rain 14 1017 87 10000 2.6 210 04:35 27.10.2019
5452 Clouds 15 1017 82 10000 3.6 230 02:42 27.10.2019
5453 Clouds 15 1016 67 10000 4.6 190 01:36 27.10.2019
5454 Clouds 15 1016 67 10000 5.7 190 01:18 27.10.2019
5455 Clouds 15 1016 67 10000 6.2 210 00:42 27.10.2019
5456 Clouds 15 1015 67 10000 7.2 200 23:59 26.10.2019
5457 Clouds 15 1015 67 10000 7.2 200 23:40 26.10.2019
5458 Clouds 16 1015 67 10000 6.7 200 23:22 26.10.2019
5459 Clouds 16 1015 67 10000 6.7 200 22:59 26.10.2019
5460 Clouds 16 1015 67 10000 6.7 190 22:40 26.10.2019
5461 Clouds 16 1015 67 10000 7.7 190 22:20 26.10.2019
5462 Clouds 16 1015 67 10000 7.7 190 21:59 26.10.2019
5463 Clouds 16 1015 67 10000 7.2 190 21:41 26.10.2019
5464 Clouds 16 1015 67 10000 7.2 190 21:20 26.10.2019
5465 Clouds 16 1015 72 10000 3.6 200 20:45 26.10.2019
5466 Clouds 16 1014 63 10000 6.2 190 20:20 26.10.2019
5467 Clouds 16 1014 63 10000 6.2 190 20:20 26.10.2019
5468 Clouds 16 1014 63 10000 6.2 190 19:59 26.10.2019
5469 Clouds 17 1014 63 10000 6.7 190 19:40 26.10.2019
5470 Clouds 17 1014 59 10000 6.2 180 19:20 26.10.2019
5471 Clouds 17 1014 59 10000 6.2 180 18:56 26.10.2019
5472 Clouds 18 1014 59 10000 5.1 190 18:37 26.10.2019
5473 Clouds 18 1014 59 10000 6.2 190 18:18 26.10.2019
5474 Clouds 19 1014 56 10000 6.2 180 17:56 26.10.2019
5475 Clouds 19 1014 56 10000 6.2 180 17:36 26.10.2019
5476 Clouds 19 1014 56 10000 7.2 190 17:18 26.10.2019
5477 Clouds 20 1014 52 10000 6.7 190 16:43 26.10.2019
5478 Clouds 20 1014 52 10000 6.7 190 16:24 26.10.2019
5479 Clouds 20 1014 52 10000 6.7 190 16:24 26.10.2019
5480 Clouds 19 1015 52 10000 8.2 190 15:43 26.10.2019
5481 Clouds 19 1015 60 10000 6.2 190 15:21 26.10.2019
5482 Clouds 19 1015 60 10000 6.2 190 14:58 26.10.2019
5483 Clouds 19 1015 63 10000 5.1 190 14:37 26.10.2019
5484 Clouds 19 1016 53 0 5.88 197 14:18 26.10.2019
5485 Clouds 19 1016 53 0 5.88 197 13:42 26.10.2019
5486 Clouds 17 1017 72 10000 6.2 180 13:22 26.10.2019
5487 Clouds 16 1016 77 10000 6.2 170 12:49 26.10.2019
5488 Clouds 16 1016 77 10000 6.2 170 12:26 26.10.2019
5489 Clouds 14 1016 82 10000 4.1 170 11:57 26.10.2019
5490 Clouds 14 1016 82 10000 4.1 170 11:38 26.10.2019
5491 Clouds 13 1016 82 10000 3.6 150 11:20 26.10.2019
5492 Clouds 12 1016 87 10000 3.6 140 10:45 26.10.2019
5493 Clouds 12 1016 87 10000 3.6 140 10:24 26.10.2019
5494 Clouds 11 1017 87 10000 2.6 130 09:48 26.10.2019
5495 Clouds 11 1017 87 10000 2.6 130 09:28 26.10.2019
5496 Clouds 11 1017 87 10000 2.6 170 08:47 26.10.2019
5497 Clouds 11 1017 93 10000 3.1 180 08:26 26.10.2019
5498 Clouds 12 1017 87 10000 3.1 170 07:57 26.10.2019
5499 Clouds 12 1017 87 10000 3.1 170 07:33 26.10.2019
5500 Clouds 12 1017 87 10000 3.6 170 06:56 26.10.2019
5501 Clouds 12 1017 93 10000 4.1 180 06:38 26.10.2019
5502 Clouds 13 1017 87 10000 4.6 160 05:24 26.10.2019
5503 Clouds 13 1018 87 10000 3.6 180 04:59 26.10.2019
5504 Clouds 13 1019 87 10000 3.1 170 03:31 26.10.2019
5505 Clouds 13 1019 93 10000 3.6 180 02:28 26.10.2019
5506 Clouds 13 1019 93 10000 4.1 180 01:45 26.10.2019
5507 Clouds 13 1019 87 10000 5.1 170 00:50 26.10.2019
5508 Clouds 13 1020 87 10000 5.7 180 23:48 25.10.2019
5509 Clouds 14 1019 93 10000 5.1 180 23:22 25.10.2019
5510 Clouds 13 1019 93 10000 5.1 180 22:58 25.10.2019
5511 Clouds 14 1019 87 10000 5.7 180 22:39 25.10.2019
5512 Clouds 14 1019 87 10000 5.1 180 22:21 25.10.2019
5513 Clouds 14 1019 87 10000 5.1 180 21:55 25.10.2019
5514 Clouds 14 1019 87 10000 5.7 190 21:37 25.10.2019
5515 Clouds 14 1020 87 10000 5.1 190 21:19 25.10.2019
5516 Clouds 14 1020 82 10000 5.1 180 20:43 25.10.2019
5517 Clouds 15 1019 82 10000 5.7 180 20:19 25.10.2019
5518 Clouds 15 1019 82 10000 5.7 180 19:47 25.10.2019
5519 Clouds 15 1019 82 10000 5.7 180 19:47 25.10.2019
5520 Clouds 15 1019 82 10000 5.7 180 19:29 25.10.2019
5521 Clouds 16 1019 82 10000 5.7 180 18:58 25.10.2019
5522 Clouds 16 1019 77 10000 6.7 180 18:40 25.10.2019
5523 Clouds 16 1019 77 10000 5.7 180 18:20 25.10.2019
5524 Clouds 16 1019 77 10000 6.2 180 17:40 25.10.2019
5525 Clouds 16 1020 77 10000 5.7 180 17:20 25.10.2019
5526 Clouds 16 1020 82 10000 6.2 190 16:47 25.10.2019
5527 Clouds 16 1020 82 10000 6.2 190 16:23 25.10.2019
5528 Clouds 16 1020 82 10000 5.7 180 15:57 25.10.2019
5529 Clouds 15 1020 87 10000 6.2 190 15:39 25.10.2019
5530 Clouds 15 1020 93 10000 5.7 180 15:21 25.10.2019
5531 Clouds 14 1020 87 10000 7.2 170 14:43 25.10.2019
5532 Clouds 14 1020 87 10000 7.2 170 14:23 25.10.2019
5533 Clouds 14 1021 87 10000 6.7 170 13:59 25.10.2019
5534 Clouds 14 1021 87 10000 7.7 170 13:41 25.10.2019
5535 Clouds 14 1021 87 10000 6.2 170 13:22 25.10.2019
5536 Clouds 14 1021 82 10000 5.7 170 12:55 25.10.2019
5537 Clouds 13 1021 82 10000 5.7 170 12:37 25.10.2019
5538 Clouds 13 1021 82 10000 5.1 170 12:18 25.10.2019
5539 Clouds 13 1021 87 10000 4.1 170 11:40 25.10.2019
5540 Clouds 12 1021 87 10000 3.6 170 11:22 25.10.2019
5541 Clouds 12 1021 87 10000 3.6 170 10:55 25.10.2019
5542 Clouds 11 1021 93 10000 3.6 150 10:36 25.10.2019
5543 Clouds 11 1021 93 10000 3.6 160 10:18 25.10.2019
5544 Clouds 10 1020 93 10000 3.6 160 09:41 25.10.2019
5545 Clouds 10 1020 93 10000 3.6 160 09:20 25.10.2019
5546 Clouds 10 1020 93 10000 3.6 160 08:56 25.10.2019
5547 Clouds 10 1020 93 10000 2.6 180 08:38 25.10.2019
5548 Clouds 10 1020 87 10000 2.1 170 08:19 25.10.2019
5549 Clouds 10 1019 93 10000 2.6 180 07:44 25.10.2019
5550 Clouds 10 1019 93 10000 2.6 180 07:26 25.10.2019
5551 Clouds 10 1019 93 10000 3.1 230 06:37 25.10.2019
5552 Clouds 10 1018 93 10000 3.1 170 05:48 25.10.2019
5553 Clouds 10 1019 93 10000 1.5 200 05:28 25.10.2019
5554 Clouds 10 1017 93 10000 1.5 220 04:19 25.10.2019
5555 Clouds 11 1016 87 10000 2.1 230 02:35 25.10.2019
5556 Clouds 12 1016 82 10000 3.6 240 01:52 25.10.2019
5557 Clouds 12 1015 87 10000 4.1 220 00:34 25.10.2019
5558 Clouds 13 1015 93 10000 3.1 230 23:43 24.10.2019
5559 Clouds 13 1014 87 10000 4.1 210 23:24 24.10.2019
5560 Clouds 13 1014 82 10000 4.1 220 22:59 24.10.2019
5561 Clouds 13 1014 93 10000 4.1 230 22:39 24.10.2019
5562 Clouds 13 1014 93 10000 3.1 220 22:19 24.10.2019
5563 Clouds 13 1013 93 10000 2.6 230 21:58 24.10.2019
5564 Clouds 13 1013 93 10000 2.6 230 21:40 24.10.2019
5565 Clouds 13 1013 93 10000 2.6 220 21:20 24.10.2019
5566 Clouds 13 1013 93 10000 2.6 220 20:59 24.10.2019
5567 Clouds 13 1012 93 10000 2.6 220 20:39 24.10.2019
5568 Clouds 13 1012 93 10000 2.6 220 20:21 24.10.2019
5569 Clouds 14 1011 77 10000 4.1 220 19:57 24.10.2019
5570 Clouds 14 1010 77 10000 5.1 200 19:38 24.10.2019
5571 Clouds 14 1011 87 10000 3.6 220 19:20 24.10.2019
5572 Clouds 14 1010 77 10000 5.1 220 18:56 24.10.2019
5573 Clouds 14 1010 77 10000 5.1 220 18:38 24.10.2019
5574 Clouds 15 1009 85 0 0.45 143 18:18 24.10.2019
5575 Clouds 15 1009 72 10000 6.7 220 17:42 24.10.2019
5576 Clouds 15 1009 67 10000 6.7 210 17:20 24.10.2019
5577 Clouds 15 1009 67 10000 6.7 210 16:58 24.10.2019
5578 Clouds 15 1009 72 10000 7.2 200 16:40 24.10.2019
5579 Clouds 16 1009 67 10000 7.2 200 16:22 24.10.2019
5580 Clouds 16 1009 67 10000 7.2 200 15:58 24.10.2019
5581 Clouds 16 1009 67 10000 7.2 200 15:58 24.10.2019
5582 Clouds 16 1009 67 10000 8.7 200 15:40 24.10.2019
5583 Clouds 16 1009 67 10000 7.7 190 15:22 24.10.2019
5584 Clouds 16 1009 67 10000 7.7 190 15:22 24.10.2019
5585 Clouds 16 1009 67 10000 7.7 190 14:58 24.10.2019
5586 Clouds 16 1009 72 10000 7.7 200 14:40 24.10.2019
5587 Clouds 16 1008 72 10000 6.7 190 14:20 24.10.2019
5588 Clouds 16 1008 77 10000 6.7 180 13:42 24.10.2019
5589 Clouds 16 1008 72 10000 6.2 190 13:20 24.10.2019
5590 Clouds 16 1008 72 10000 6.2 190 12:58 24.10.2019
5591 Clouds 15 1008 72 10000 7.2 190 12:40 24.10.2019
5592 Clouds 15 1008 87 10000 5.1 200 12:20 24.10.2019
5593 Clouds 15 1008 87 10000 5.1 200 11:57 24.10.2019
5594 Clouds 15 1007 77 10000 6.2 200 11:39 24.10.2019
5595 Clouds 14 1007 82 10000 6.2 180 11:20 24.10.2019
5596 Clouds 14 1007 82 10000 6.2 180 10:59 24.10.2019
5597 Clouds 14 1006 87 10000 4.1 160 10:41 24.10.2019
5598 Clouds 14 1006 87 10000 4.1 160 10:41 24.10.2019
5599 Clouds 13 1006 87 10000 3.6 170 10:22 24.10.2019
5600 Clouds 12 1006 87 10000 4.1 160 09:39 24.10.2019
5601 Clouds 12 1006 87 10000 4.1 160 09:19 24.10.2019
5602 Clouds 12 1006 87 10000 2.6 170 08:56 24.10.2019
5603 Clouds 12 1006 87 10000 2.6 170 08:38 24.10.2019
5604 Clouds 12 1006 87 10000 3.1 160 08:18 24.10.2019
5605 Clouds 12 1006 87 10000 3.1 160 08:18 24.10.2019
5606 Clouds 12 1006 93 10000 3.1 170 07:46 24.10.2019
5607 Clouds 12 1006 87 10000 3.1 160 07:23 24.10.2019
5608 Clouds 12 1006 87 10000 3.6 150 06:50 24.10.2019
5609 Clouds 12 1006 87 10000 3.6 150 06:32 24.10.2019
5610 Clouds 12 1006 87 10000 3.6 150 06:32 24.10.2019
5611 Clouds 12 1006 93 10000 3.45 192 05:53 24.10.2019
5612 Clouds 12 1006 93 10000 3.45 192 05:30 24.10.2019
5613 Clouds 12 1006 93 10000 2.1 130 04:22 24.10.2019
5614 Clouds 12 1006 93 6000 1.5 110 03:29 24.10.2019
5615 Clouds 12 1007 93 6000 2.1 80 02:35 24.10.2019
5616 Clouds 12 1007 93 7000 1.5 0 01:59 24.10.2019
5617 Clouds 12 1007 100 6000 1 0 01:30 24.10.2019
5618 Mist 12 1007 100 5000 2.6 60 00:53 24.10.2019
5619 Clouds 12 1007 100 6000 2.6 70 00:23 24.10.2019
5620 Clouds 13 1008 93 6000 2.1 80 23:44 23.10.2019
5621 Clouds 13 1008 100 6000 1.5 90 23:25 23.10.2019
5622 Clouds 13 1008 100 6000 1.5 90 22:58 23.10.2019
5623 Clouds 13 1008 93 6000 3.6 80 22:39 23.10.2019
5624 Clouds 13 1008 93 6000 3.6 80 22:39 23.10.2019
5625 Clouds 13 1008 93 6000 3.6 80 22:19 23.10.2019
5626 Mist 13 1008 100 4800 3.1 100 21:58 23.10.2019
5627 Mist 13 1008 93 4900 1.5 0 21:40 23.10.2019
5628 Mist 13 1008 93 4900 1.5 0 21:40 23.10.2019
5629 Mist 13 1008 93 4900 1.5 0 21:40 23.10.2019
5630 Mist 13 1008 93 5000 2.6 30 21:21 23.10.2019
5631 Mist 13 1008 93 5000 2.6 30 20:59 23.10.2019
5632 Clouds 13 1008 87 7000 2.1 340 20:40 23.10.2019
5633 Clouds 13 1008 87 7000 2.1 340 20:40 23.10.2019
5634 Clouds 13 1008 87 7000 2.1 340 20:21 23.10.2019
5635 Clouds 13 1008 87 7000 2.1 340 20:21 23.10.2019
5636 Clouds 13 1009 87 7000 1.5 30 19:59 23.10.2019
5637 Clouds 14 1009 87 8000 1.5 90 19:41 23.10.2019
5638 Clouds 14 1009 87 9000 2.1 120 19:19 23.10.2019
5639 Clouds 14 1009 87 9000 2.1 90 18:57 23.10.2019
5640 Clouds 14 1009 87 9000 2.1 90 18:38 23.10.2019
5641 Clouds 14 1009 87 10000 3.1 70 18:19 23.10.2019
5642 Clouds 14 1009 87 10000 3.1 70 18:19 23.10.2019
5643 Rain 14 1009 82 10000 2.1 90 17:45 23.10.2019
5644 Rain 15 1009 82 10000 2.1 90 17:21 23.10.2019
5645 Clouds 14 1009 82 10000 2.1 120 16:58 23.10.2019
5646 Clouds 14 1010 82 10000 2.6 140 16:40 23.10.2019
5647 Clouds 14 1010 82 10000 2.6 100 16:20 23.10.2019
5648 Clouds 14 1010 82 10000 2.6 100 15:56 23.10.2019
5649 Clouds 14 1010 82 10000 2.6 100 15:37 23.10.2019
5650 Clouds 14 1011 82 10000 3.1 120 15:18 23.10.2019
5651 Clouds 14 1011 82 10000 3.6 140 14:55 23.10.2019
5652 Clouds 14 1011 82 10000 3.6 140 14:37 23.10.2019
5653 Clouds 13 1011 82 10000 2.6 110 14:18 23.10.2019
5654 Clouds 13 1011 82 10000 2.6 110 14:18 23.10.2019
5655 Clouds 13 1012 82 10000 4.1 110 13:42 23.10.2019
5656 Clouds 13 1012 82 10000 4.1 110 13:24 23.10.2019
5657 Clouds 13 1012 82 10000 3.6 80 12:57 23.10.2019
5658 Clouds 13 1013 87 10000 3.1 110 12:38 23.10.2019
5659 Clouds 12 1013 82 10000 4.1 80 12:19 23.10.2019
5660 Clouds 12 1013 82 10000 4.1 80 11:57 23.10.2019
5661 Clouds 12 1013 93 10000 3.1 100 11:39 23.10.2019
5662 Clouds 12 1013 93 10000 5.1 80 11:20 23.10.2019
5663 Clouds 12 1013 87 10000 2.1 40 10:46 23.10.2019
5664 Clouds 12 1013 87 10000 2.1 40 10:46 23.10.2019
5665 Clouds 11 1014 87 10000 3.1 50 10:26 23.10.2019
5666 Clouds 11 1014 93 10000 4.1 80 09:58 23.10.2019
5667 Clouds 11 1014 87 10000 2.6 50 09:39 23.10.2019
5668 Rain 11 1014 87 10000 3.6 30 09:21 23.10.2019
5669 Rain 11 1014 87 10000 3.1 40 08:43 23.10.2019
5670 Rain 11 1014 87 10000 3.1 40 08:43 23.10.2019
5671 Rain 11 1014 87 10000 3.1 40 08:25 23.10.2019
5672 Rain 10 1014 87 10000 3.6 20 07:58 23.10.2019
5673 Rain 10 1015 87 10000 3.1 20 07:39 23.10.2019
5674 Rain 11 1014 87 10000 3.6 20 07:18 23.10.2019
5675 Rain 11 1016 87 10000 2.1 20 06:41 23.10.2019
5676 Clouds 11 1016 87 10000 3.1 20 06:18 23.10.2019
5677 Clouds 11 1017 87 10000 2.1 30 05:18 23.10.2019
5678 Clouds 11 1018 87 10000 2.6 40 03:46 23.10.2019
5679 Rain 11 1018 87 10000 3.1 20 02:43 23.10.2019
5680 Rain 11 1019 87 10000 2.6 20 01:40 23.10.2019
5681 Rain 11 1020 87 10000 2.1 10 01:18 23.10.2019
5682 Clouds 10 1020 87 10000 1.5 340 00:34 23.10.2019
5683 Clouds 10 1021 87 10000 2.1 20 23:55 22.10.2019
5684 Clouds 10 1021 87 10000 2.1 30 23:37 22.10.2019
5685 Clouds 10 1020 93 10000 5.1 40 23:18 22.10.2019
5686 Clouds 10 1021 87 10000 3.1 30 23:18 22.10.2019
5687 Clouds 10 1021 87 10000 4.1 40 22:40 22.10.2019
5688 Clouds 10 1022 87 10000 3.6 30 22:22 22.10.2019
5689 Clouds 11 1022 87 10000 3.6 40 21:57 22.10.2019
5690 Clouds 11 1022 87 10000 3.6 40 21:39 22.10.2019
5691 Clouds 11 1022 87 10000 3.1 30 21:19 22.10.2019
5692 Clouds 11 1022 87 10000 3.1 30 20:59 22.10.2019
5693 Clouds 11 1022 87 10000 3.6 40 20:40 22.10.2019
5694 Clouds 11 1023 87 10000 3.1 40 20:22 22.10.2019
5695 Clouds 11 1022 93 10000 2.6 10 19:59 22.10.2019
5696 Clouds 11 1022 93 10000 2.6 10 19:41 22.10.2019
5697 Clouds 11 1022 87 10000 2.6 10 19:22 22.10.2019
5698 Clouds 11 1023 81 10000 3.1 10 18:56 22.10.2019
5699 Clouds 11 1023 81 10000 3.1 10 18:38 22.10.2019
5700 Clouds 11 1023 81 10000 2.6 10 18:20 22.10.2019
5701 Clouds 12 1023 81 10000 2.6 40 17:55 22.10.2019
5702 Clouds 12 1023 81 10000 2.6 40 17:37 22.10.2019
5703 Clouds 12 1023 87 10000 2.6 30 17:18 22.10.2019
5704 Clouds 12 1023 87 10000 2.1 10 16:55 22.10.2019
5705 Clouds 12 1023 87 10000 2.1 10 16:36 22.10.2019
5706 Clouds 12 1024 87 10000 1.5 60 16:18 22.10.2019
5707 Clouds 11 1024 93 10000 2.6 40 15:42 22.10.2019
5708 Clouds 11 1024 93 10000 2.1 20 15:20 22.10.2019
5709 Clouds 11 1024 100 7000 2.1 360 14:47 22.10.2019
5710 Mist 10 1024 100 3900 2.1 50 14:22 22.10.2019
5711 Mist 10 1024 100 3900 2.1 50 13:59 22.10.2019
5712 Mist 10 1025 100 2200 1 0 13:41 22.10.2019
5713 Mist 10 1025 93 1000 1 0 13:18 22.10.2019
5714 Mist 10 1025 93 1000 1 0 12:55 22.10.2019
5715 Fog 9 1025 100 650 1 0 12:37 22.10.2019
5716 Fog 9 1025 100 750 0.5 0 12:19 22.10.2019
5717 Fog 8 1025 100 750 1.5 70 11:40 22.10.2019
5718 Fog 8 1025 100 750 1.5 70 11:22 22.10.2019
5719 Fog 8 1025 100 500 1.5 110 10:59 22.10.2019
5720 Fog 8 1025 100 500 1 0 10:38 22.10.2019
5721 Fog 8 1025 100 500 1 0 10:38 22.10.2019
5722 Fog 8 1024 93 500 1 0 10:19 22.10.2019
5723 Fog 8 1024 93 500 1 0 10:19 22.10.2019
5724 Fog 8 1024 93 500 1 0 09:58 22.10.2019
5725 Fog 7 1024 100 450 0.5 0 09:40 22.10.2019
5726 Mist 7 1024 93 2300 0.5 210 09:21 22.10.2019
5727 Mist 7 1024 93 2300 0.5 210 08:55 22.10.2019
5728 Mist 7 1024 100 4800 1 0 08:36 22.10.2019
5729 Fog 7 1023 100 1000 1 90 08:18 22.10.2019
5730 Fog 7 1023 100 1000 1 90 08:18 22.10.2019
5731 Mist 7 1023 100 3400 1 0 07:41 22.10.2019
5732 Mist 6 1023 93 2000 1 0 07:22 22.10.2019
5733 Clouds 6 1023 100 6000 1 40 06:40 22.10.2019
5734 Clouds 6 1023 100 7000 1.5 0 06:20 22.10.2019
5735 Clear 6 1023 93 6000 1.5 360 05:27 22.10.2019
5736 Mist 6 1023 93 4400 1 50 04:22 22.10.2019
5737 Clouds 7 1023 93 10000 1 20 02:30 22.10.2019
5738 Clouds 8 1023 93 10000 0.5 90 01:38 22.10.2019
5739 Clouds 8 1023 87 10000 1 0 01:18 22.10.2019
5740 Clouds 9 1022 93 10000 0.5 50 00:42 22.10.2019
5741 Clouds 8 1022 87 10000 0.5 0 00:24 22.10.2019
5742 Clouds 9 1022 87 10000 0.5 0 23:59 21.10.2019
5743 Clouds 9 1022 93 10000 1.5 200 23:38 21.10.2019
5744 Clouds 9 1022 87 10000 1.5 220 23:19 21.10.2019
5745 Clouds 9 1022 87 10000 1.5 220 22:58 21.10.2019
5746 Clouds 10 1022 87 10000 2.1 200 22:39 21.10.2019
5747 Clouds 10 1022 87 10000 2.1 200 22:39 21.10.2019
5748 Clouds 10 1022 81 10000 1.5 220 22:20 21.10.2019
5749 Clouds 10 1022 87 10000 2.1 200 22:20 21.10.2019
5750 Clouds 11 1022 81 10000 1.5 220 21:57 21.10.2019
5751 Clouds 11 1021 81 10000 2.1 240 21:38 21.10.2019
5752 Rain 11 1021 76 10000 1.5 270 21:19 21.10.2019
5753 Rain 11 1021 76 10000 1.5 270 20:57 21.10.2019
5754 Clouds 12 1021 76 10000 1.5 270 20:38 21.10.2019
5755 Clouds 12 1021 76 10000 1.5 270 20:20 21.10.2019
5756 Clouds 12 1021 76 10000 1.5 240 19:55 21.10.2019
5757 Clouds 13 1021 71 10000 3.1 240 19:37 21.10.2019
5758 Rain 13 1020 71 10000 3.6 230 19:18 21.10.2019
5759 Rain 13 1020 71 10000 5.1 230 18:55 21.10.2019
5760 Rain 13 1020 71 10000 5.1 230 18:36 21.10.2019
5761 Rain 13 1020 71 10000 5.1 230 18:36 21.10.2019
5762 Clouds 14 1019 71 10000 5.1 240 18:18 21.10.2019
5763 Clouds 14 1019 71 10000 5.1 240 18:18 21.10.2019
5764 Clouds 14 1019 71 10000 5.1 240 18:18 21.10.2019
5765 Clouds 14 1019 71 10000 4.6 230 17:39 21.10.2019
5766 Clouds 14 1019 71 10000 4.6 220 17:20 21.10.2019
5767 Clouds 14 1019 71 10000 4.6 220 16:58 21.10.2019
5768 Clouds 14 1019 71 10000 4.6 240 16:40 21.10.2019
5769 Clouds 14 1018 71 10000 4.6 250 16:22 21.10.2019
5770 Clouds 14 1018 71 10000 5.7 230 15:58 21.10.2019
5771 Clouds 14 1018 71 10000 5.7 230 15:39 21.10.2019
5772 Clouds 14 1018 72 10000 4.6 240 15:19 21.10.2019
5773 Clouds 14 1018 72 10000 5.1 230 14:55 21.10.2019
5774 Clouds 14 1018 72 10000 5.1 230 14:36 21.10.2019
5775 Clouds 14 1018 71 10000 5.1 220 14:18 21.10.2019
5776 Clouds 13 1018 76 10000 4.6 230 13:42 21.10.2019
5777 Clouds 12 1018 76 10000 5.1 230 13:20 21.10.2019
5778 Clouds 13 1018 76 10000 5.1 230 12:59 21.10.2019
5779 Clouds 12 1017 82 10000 5.7 230 12:40 21.10.2019
5780 Clouds 12 1017 82 10000 5.7 230 12:21 21.10.2019
5781 Clouds 11 1016 81 10000 6.2 230 11:55 21.10.2019
5782 Clouds 11 1016 87 10000 4.6 230 11:37 21.10.2019
5783 Clouds 11 1015 87 10000 5.1 220 11:18 21.10.2019
5784 Clouds 11 1015 87 10000 5.1 220 10:55 21.10.2019
5785 Clouds 10 1015 87 10000 6.2 230 10:37 21.10.2019
5786 Clouds 10 1014 93 10000 5.1 210 10:18 21.10.2019
5787 Drizzle 10 1014 93 10000 4.6 210 09:43 21.10.2019
5788 Drizzle 10 1013 93 10000 4.1 210 09:23 21.10.2019
5789 Drizzle 10 1013 100 10000 4.1 230 08:43 21.10.2019
5790 Drizzle 10 1013 100 10000 4.1 230 08:23 21.10.2019
5791 Drizzle 10 1012 100 7000 3.6 230 07:59 21.10.2019
5792 Rain 10 1012 93 10000 3.6 250 07:37 21.10.2019
5793 Drizzle 10 1011 93 6000 4.6 240 07:19 21.10.2019
5794 Mist 10 1010 100 9000 4.6 250 06:53 21.10.2019
5795 Mist 10 1010 100 9000 4.6 250 06:33 21.10.2019
5796 Mist 10 1009 93 4500 3.1 220 05:50 21.10.2019
5797 Rain 10 1008 93 10000 1 0 04:44 21.10.2019
5798 Rain 10 1007 93 10000 3.6 340 02:50 21.10.2019
5799 Rain 10 1007 93 10000 3.6 340 02:23 21.10.2019
5800 Rain 10 1007 93 4900 3.1 340 01:55 21.10.2019
5801 Rain 10 1007 93 5000 1.5 330 01:23 21.10.2019
5802 Rain 10 1007 93 6000 3.1 360 01:23 21.10.2019
5803 Rain 10 1007 93 7000 2.6 10 00:46 21.10.2019
5804 Rain 10 1007 93 7000 2.6 10 00:25 21.10.2019
5805 Rain 11 1007 93 7000 4.1 20 23:42 20.10.2019
5806 Rain 11 1007 93 4900 4.1 20 23:22 20.10.2019
5807 Rain 11 1007 93 4900 4.1 20 22:56 20.10.2019
5808 Rain 11 1007 93 10000 4.1 20 22:37 20.10.2019
5809 Rain 11 1007 93 10000 4.6 10 22:18 20.10.2019
5810 Drizzle 11 1007 93 10000 4.6 10 21:57 20.10.2019
5811 Mist 11 1006 93 10000 5.7 10 21:38 20.10.2019
5812 Mist 11 1006 93 10000 5.7 10 21:20 20.10.2019
5813 Drizzle 11 1006 93 10000 5.1 10 20:41 20.10.2019
5814 Drizzle 11 1006 93 7000 4.6 10 20:19 20.10.2019
5815 Drizzle 11 1006 93 7000 4.6 10 20:19 20.10.2019
5816 Drizzle 11 1006 93 7000 4.6 10 19:57 20.10.2019
5817 Drizzle 11 1006 93 7000 4.6 10 19:57 20.10.2019
5818 Drizzle 11 1006 93 4200 5.7 30 19:38 20.10.2019
5819 Mist 11 1006 87 10000 3.6 20 19:20 20.10.2019
5820 Mist 11 1006 87 10000 3.6 20 18:55 20.10.2019
5821 Drizzle 11 1006 93 2700 4.1 20 18:37 20.10.2019
5822 Drizzle 11 1006 93 4900 3.6 20 18:19 20.10.2019
5823 Rain 12 1006 82 10000 3.6 20 17:54 20.10.2019
5824 Rain 12 1006 82 10000 3.6 20 17:36 20.10.2019
5825 Mist 12 1006 76 10000 3.6 360 17:18 20.10.2019
5826 Drizzle 12 1006 76 10000 3.6 10 16:41 20.10.2019
5827 Drizzle 12 1006 76 10000 3.6 10 16:23 20.10.2019
5828 Clouds 12 1006 76 10000 3.6 10 15:57 20.10.2019
5829 Clouds 12 1006 76 10000 4.6 20 15:38 20.10.2019
5830 Clouds 12 1006 76 10000 4.6 20 15:19 20.10.2019
5831 Clouds 12 1006 76 10000 4.6 20 14:57 20.10.2019
5832 Clouds 12 1006 82 10000 4.6 10 14:37 20.10.2019
5833 Rain 12 1006 87 10000 4.1 10 14:19 20.10.2019
5834 Rain 12 1006 87 10000 4.1 10 13:55 20.10.2019
5835 Rain 12 1006 87 10000 3.6 10 13:36 20.10.2019
5836 Rain 12 1007 87 10000 1.5 350 13:18 20.10.2019
5837 Rain 11 1006 93 10000 1.5 10 12:56 20.10.2019
5838 Rain 11 1006 93 10000 1.5 10 12:37 20.10.2019
5839 Rain 11 1006 93 10000 2.6 360 12:19 20.10.2019
5840 Rain 11 1006 93 10000 2.6 360 11:54 20.10.2019
5841 Rain 11 1005 93 10000 4.1 20 11:36 20.10.2019
5842 Rain 11 1006 87 10000 3.6 20 11:18 20.10.2019
5843 Rain 11 1006 87 10000 2.6 20 10:40 20.10.2019
5844 Rain 11 1006 87 10000 2.6 20 10:22 20.10.2019
5845 Rain 11 1005 87 10000 3.6 10 09:57 20.10.2019
5846 Rain 11 1006 93 8000 2.6 10 09:39 20.10.2019
5847 Rain 11 1006 93 9000 2.1 10 09:20 20.10.2019
5848 Rain 11 1005 93 10000 2.6 360 08:45 20.10.2019
5849 Rain 11 1005 93 10000 2.6 360 08:22 20.10.2019
5850 Rain 11 1006 100 8000 3.1 360 07:50 20.10.2019
5851 Rain 11 1006 100 7000 2.1 340 07:30 20.10.2019
5852 Rain 11 1005 100 7000 1.5 350 06:35 20.10.2019
5853 Rain 11 1006 93 5000 1 0 05:59 20.10.2019
5854 Mist 11 1006 93 5000 1.5 60 04:27 20.10.2019
5855 Mist 11 1006 100 5000 0.5 110 03:43 20.10.2019
5856 Mist 11 1006 93 4700 1.5 50 03:20 20.10.2019
5857 Mist 11 1006 93 5000 1.5 360 02:40 20.10.2019
5858 Mist 11 1006 93 5000 1.5 100 01:58 20.10.2019
5859 Rain 11 1007 93 10000 1 140 01:23 20.10.2019
5860 Rain 12 1007 93 10000 1 140 00:57 20.10.2019
5861 Rain 12 1006 93 8000 1.5 140 00:39 20.10.2019
5862 Rain 12 1007 87 10000 2.6 150 00:19 20.10.2019
5863 Rain 12 1007 87 10000 2.6 140 23:42 19.10.2019
5864 Rain 12 1006 93 10000 2.1 140 23:22 19.10.2019
5865 Rain 12 1006 93 10000 2.1 140 22:56 19.10.2019
5866 Rain 12 1006 93 10000 1.5 140 22:38 19.10.2019
5867 Rain 12 1006 93 10000 1.5 120 22:20 19.10.2019
5868 Clear 12 1005 87 10000 2.6 80 21:46 19.10.2019
5869 Clear 11 1005 87 10000 1.5 0 21:23 19.10.2019
5870 Clear 12 1005 87 10000 1.5 0 20:54 19.10.2019
5871 Clear 12 1005 81 10000 1 0 20:36 19.10.2019
5872 Clear 12 1005 76 10000 2.8 188.804 20:18 19.10.2019
5873 Clear 12 1005 76 10000 1 210 19:40 19.10.2019
5874 Clouds 13 1005 71 10000 1.5 210 19:22 19.10.2019
5875 Clouds 14 1005 71 10000 1.5 210 18:43 19.10.2019
5876 Clouds 14 1005 67 10000 2.1 210 18:24 19.10.2019
5877 Clouds 14 1005 71 10000 1.5 210 18:24 19.10.2019
5878 Clouds 14 1005 67 10000 2.1 210 17:59 19.10.2019
5879 Clouds 14 1005 67 10000 2.6 200 17:37 19.10.2019
5880 Clouds 15 1005 67 10000 2.6 200 17:19 19.10.2019
5881 Clouds 15 1005 67 10000 2.6 200 16:40 19.10.2019
5882 Clouds 15 1005 76 10000 3.1 210 16:20 19.10.2019
5883 Clouds 15 1005 76 10000 3.1 210 15:59 19.10.2019
5884 Clouds 14 1005 76 10000 3.1 220 15:39 19.10.2019
5885 Rain 14 1005 76 10000 3.1 210 15:21 19.10.2019
5886 Rain 13 1005 87 10000 3.6 200 14:38 19.10.2019
5887 Rain 13 1005 87 10000 3.6 200 14:38 19.10.2019
5888 Rain 13 1005 82 10000 4.6 190 14:20 19.10.2019
5889 Rain 13 1005 82 10000 4.6 190 13:56 19.10.2019
5890 Drizzle 13 1005 87 10000 3.6 200 13:38 19.10.2019
5891 Rain 13 1005 87 10000 2.6 200 13:18 19.10.2019
5892 Rain 13 1005 82 10000 3.6 210 12:42 19.10.2019
5893 Rain 12 1005 82 10000 5.1 220 12:23 19.10.2019
5894 Rain 12 1005 82 10000 5.1 220 11:59 19.10.2019
5895 Rain 12 1005 87 10000 4.1 210 11:40 19.10.2019
5896 Rain 12 1005 87 10000 4.1 210 11:22 19.10.2019
5897 Clouds 12 1005 82 10000 3.6 200 10:55 19.10.2019
5898 Clouds 12 1005 87 10000 2.1 200 10:37 19.10.2019
5899 Clouds 12 1005 87 10000 2.1 200 10:19 19.10.2019
5900 Clouds 12 1005 87 10000 2.6 200 09:42 19.10.2019
5901 Rain 11 1004 87 10000 2.1 220 09:23 19.10.2019
5902 Rain 11 1004 87 10000 2.6 210 08:58 19.10.2019
5903 Rain 11 1004 87 10000 2.6 210 08:58 19.10.2019
5904 Rain 11 1004 87 10000 2.6 210 08:39 19.10.2019
5905 Rain 11 1004 87 10000 3.1 200 08:21 19.10.2019
5906 Drizzle 12 1004 93 10000 4.1 210 07:44 19.10.2019
5907 Rain 12 1004 87 10000 7.2 190 07:24 19.10.2019
5908 Rain 12 1004 87 10000 7.2 190 07:24 19.10.2019
5909 Rain 12 1004 87 10000 7.2 190 07:24 19.10.2019
5910 Rain 12 1004 87 10000 4.6 190 06:46 19.10.2019
5911 Clouds 12 1005 87 10000 5.1 190 05:57 19.10.2019
5912 Rain 12 1005 87 10000 4.6 180 05:28 19.10.2019
5913 Drizzle 12 1006 87 10000 4.1 180 03:59 19.10.2019
5914 Rain 13 1006 87 10000 5.1 180 02:44 19.10.2019
5915 Rain 13 1006 76 10000 4.1 170 01:53 19.10.2019
5916 Clouds 13 1007 82 10000 3.1 200 01:20 19.10.2019
5917 Clear 13 1007 76 10000 5.1 190 00:47 19.10.2019
5918 Clear 13 1007 76 10000 5.1 190 00:25 19.10.2019
5919 Clear 13 1007 71 10000 5.1 180 23:43 18.10.2019
5920 Clear 13 1007 71 10000 5.1 180 23:25 18.10.2019
5921 Clear 13 1007 71 10000 5.1 180 22:57 18.10.2019
5922 Clouds 13 1008 71 10000 5.1 180 22:39 18.10.2019
5923 Clouds 13 1008 67 10000 5.1 180 22:20 18.10.2019
5924 Clouds 13 1008 71 10000 5.1 180 22:20 18.10.2019
5925 Clouds 13 1008 67 10000 5.1 180 21:58 18.10.2019
5926 Clear 13 1008 67 10000 5.1 190 21:39 18.10.2019
5927 Clear 13 1008 67 10000 5.7 190 21:20 18.10.2019
5928 Clear 13 1008 67 10000 5.7 190 20:56 18.10.2019
5929 Clear 13 1008 62 10000 4.6 180 20:38 18.10.2019
5930 Clear 13 1009 66 10000 3.1 190 20:20 18.10.2019
5931 Clear 13 1009 58 10000 5.7 190 19:55 18.10.2019
5932 Clear 13 1009 66 10000 3.1 190 19:55 18.10.2019
5933 Clear 14 1009 58 10000 5.7 190 19:37 18.10.2019
5934 Clear 14 1009 58 10000 5.7 190 19:37 18.10.2019
5935 Clear 14 1009 58 10000 5.7 190 19:37 18.10.2019
5936 Clear 14 1009 54 10000 6.2 200 19:19 18.10.2019
5937 Clear 14 1009 54 10000 6.2 200 18:55 18.10.2019
5938 Clear 14 1009 54 10000 6.2 200 18:37 18.10.2019
5939 Clouds 15 1009 54 10000 6.7 200 18:19 18.10.2019
5940 Clouds 15 1009 51 10000 7.7 210 17:39 18.10.2019
5941 Clouds 15 1009 51 10000 7.7 210 17:39 18.10.2019
5942 Clouds 15 1009 51 10000 8.2 210 17:20 18.10.2019
5943 Clouds 15 1009 51 10000 8.2 210 16:58 18.10.2019
5944 Clouds 16 1009 51 10000 7.2 230 16:37 18.10.2019
5945 Clouds 16 1009 55 10000 6.7 230 16:19 18.10.2019
5946 Clear 16 1009 51 10000 7.7 230 15:41 18.10.2019
5947 Clouds 16 1009 48 10000 8.2 210 15:21 18.10.2019
5948 Clouds 16 1009 48 10000 8.2 210 14:59 18.10.2019
5949 Clouds 16 1009 48 10000 8.2 220 14:41 18.10.2019
5950 Clouds 16 1009 51 10000 8.7 220 14:22 18.10.2019
5951 Clouds 15 1009 51 10000 8.7 220 13:59 18.10.2019
5952 Clouds 15 1009 58 10000 7.7 220 13:41 18.10.2019
5953 Clouds 15 1009 58 10000 7.7 220 13:23 18.10.2019
5954 Clouds 14 1009 62 10000 8.2 230 12:57 18.10.2019
5955 Clouds 14 1009 62 10000 8.7 240 12:39 18.10.2019
5956 Clouds 14 1009 62 10000 8.7 230 12:20 18.10.2019
5957 Clouds 13 1009 62 10000 8.7 230 11:56 18.10.2019
5958 Clouds 13 1008 66 10000 8.2 220 11:38 18.10.2019
5959 Clouds 13 1008 66 10000 8.2 220 11:19 18.10.2019
5960 Clouds 12 1008 66 10000 6.2 220 10:56 18.10.2019
5961 Clouds 12 1008 66 10000 6.2 220 10:55 18.10.2019
5962 -273 0 0 0 0 0 10:55 18.10.2019
5963 Clouds 12 1008 66 10000 6.2 220 10:55 18.10.2019
5964 Clear 11 1008 71 10000 6.2 210 10:36 18.10.2019
5965 Clear 11 1007 66 10000 6.2 220 10:18 18.10.2019
5966 Clear 11 1007 66 10000 6.2 220 09:54 18.10.2019
5967 Rain 11 1007 81 10000 4.1 220 09:36 18.10.2019
5968 Rain 10 1007 71 10000 5.7 220 09:18 18.10.2019
5969 Rain 10 1006 71 10000 10.8 240 08:42 18.10.2019
5970 Rain 11 1006 82 10000 8.7 200 08:21 18.10.2019
5971 Rain 12 1006 72 10000 8.7 200 07:43 18.10.2019
5972 Rain 13 1006 87 6000 7.2 220 07:25 18.10.2019
5973 Rain 13 1006 82 10000 7.2 180 06:40 18.10.2019
5974 Rain 13 1006 82 10000 7.2 180 06:22 18.10.2019
5975 Rain 13 1006 82 10000 7.2 180 06:22 18.10.2019
5976 Clouds 13 1006 82 10000 7.2 180 05:57 18.10.2019
5977 Clouds 13 1006 82 10000 7.2 180 05:24 18.10.2019
5978 Clouds 13 1007 82 10000 6.7 190 04:47 18.10.2019
5979 Clouds 13 1008 87 10000 5.1 200 03:33 18.10.2019
5980 Clouds 13 1008 87 10000 4.1 200 02:35 18.10.2019
5981 Clouds 14 1009 82 10000 5.1 190 01:55 18.10.2019
5982 Clouds 14 1009 82 10000 5.1 190 01:30 18.10.2019
5983 Clouds 14 1009 87 10000 6.2 190 00:46 18.10.2019
5984 Clouds 14 1009 87 10000 5.1 190 00:21 18.10.2019
5985 Clouds 14 1009 87 10000 5.1 190 00:21 18.10.2019
5986 Clouds 14 1009 87 10000 7.2 180 23:57 17.10.2019
5987 Clouds 14 1009 87 10000 7.2 180 23:38 17.10.2019
5988 Rain 14 1009 87 10000 5.1 170 23:19 17.10.2019
5989 Rain 14 1009 87 10000 5.1 170 22:55 17.10.2019
5990 Rain 14 1009 87 10000 4.6 170 22:37 17.10.2019
5991 Rain 14 1009 87 10000 4.6 170 22:37 17.10.2019
5992 Clouds 14 1009 82 10000 4.1 160 22:18 17.10.2019
5993 Clouds 14 1010 82 10000 5.1 180 21:56 17.10.2019
5994 Clouds 14 1010 82 10000 5.1 180 21:37 17.10.2019
5995 Clouds 14 1010 82 10000 5.1 180 21:37 17.10.2019
5996 Clouds 14 1010 82 10000 5.7 170 21:19 17.10.2019
5997 -273 0 0 0 0 0 20:56 17.10.2019
5998 Drizzle 14 1010 93 10000 4.1 180 20:38 17.10.2019
5999 Clouds 14 1010 87 10000 3.6 180 20:18 17.10.2019
6000 Clouds 15 1010 87 10000 3.6 180 19:55 17.10.2019
6001 Rain 15 1010 72 10000 5.7 200 19:37 17.10.2019
6002 Clouds 15 1010 72 10000 6.7 190 19:18 17.10.2019
6003 Clouds 15 1010 72 10000 6.7 190 19:18 17.10.2019
6004 Clouds 16 1010 77 10000 4.6 210 18:39 17.10.2019
6005 Clouds 16 1009 67 10000 5.7 190 18:21 17.10.2019
6006 Clouds 16 1009 67 10000 5.7 190 17:55 17.10.2019
6007 Clouds 16 1009 77 10000 4.1 190 17:37 17.10.2019
6008 Clouds 16 1009 72 10000 5.7 180 17:19 17.10.2019
6009 Clouds 17 1010 77 10000 4.6 200 16:42 17.10.2019
6010 Clouds 17 1010 77 10000 4.6 200 16:42 17.10.2019
6011 Clouds 17 1010 77 10000 4.6 200 16:42 17.10.2019
6012 Clouds 16 1010 82 10000 4.6 190 16:19 17.10.2019
6013 Clouds 16 1010 82 10000 4.6 190 15:59 17.10.2019
6014 Clouds 16 1010 82 10000 4.6 180 15:41 17.10.2019
6015 Clouds 15 1010 82 10000 4.6 180 15:20 17.10.2019
6016 Clouds 15 1010 82 10000 3.6 160 14:58 17.10.2019
6017 Clouds 15 1010 82 10000 3.1 160 14:39 17.10.2019
6018 Clouds 15 1010 87 10000 4.1 150 14:21 17.10.2019
6019 Clouds 14 1011 82 10000 4.1 140 13:42 17.10.2019
6020 Clouds 14 1011 82 10000 4.1 140 13:21 17.10.2019
6021 Rain 13 1011 82 10000 4.1 170 12:58 17.10.2019
6022 Rain 13 1011 82 10000 3.1 170 12:40 17.10.2019
6023 Rain 13 1011 87 10000 3.6 190 12:20 17.10.2019
6024 Rain 13 1011 87 10000 3.6 190 12:20 17.10.2019
6025 Clouds 13 1011 82 10000 4.1 190 11:57 17.10.2019
6026 Rain 13 1011 93 10000 2.6 190 11:39 17.10.2019
6027 Clouds 13 1011 93 10000 2.1 200 11:18 17.10.2019
6028 Clouds 13 1011 93 10000 2.6 200 10:42 17.10.2019
6029 Clouds 12 1011 93 10000 2.1 160 10:21 17.10.2019
6030 Clouds 12 1011 93 10000 2.1 160 10:21 17.10.2019
6031 Clouds 12 1011 93 10000 2.1 160 09:59 17.10.2019
6032 Clouds 12 1011 100 10000 2.1 150 09:41 17.10.2019
6033 Clouds 12 1011 100 10000 2.1 150 09:41 17.10.2019
6034 Clouds 12 1011 93 10000 1 0 09:21 17.10.2019
6035 Clouds 12 1011 93 10000 1 0 08:58 17.10.2019
6036 Clouds 12 1011 93 10000 1 350 08:39 17.10.2019
6037 Clouds 12 1010 93 10000 1 350 08:21 17.10.2019
6038 Clouds 12 1010 93 10000 0.704 186 07:55 17.10.2019
6039 Clouds 12 1010 93 10000 0.704 186 07:36 17.10.2019
6040 Rain 11 1010 93 10000 0.704 186 07:18 17.10.2019
6041 Rain 11 1010 93 10000 0.5 0 06:39 17.10.2019
6042 Clouds 11 1010 93 10000 1 320 06:20 17.10.2019
6043 Clouds 12 1010 87 10000 2.1 190 05:52 17.10.2019
6044 Clouds 12 1010 87 10000 2.1 190 05:32 17.10.2019
6045 Clouds 12 1010 93 10000 2.1 240 04:53 17.10.2019
6046 Rain 12 1010 93 10000 3.6 240 03:55 17.10.2019
6047 Rain 14 1009 87 10000 6.7 200 02:36 17.10.2019
6048 Clouds 14 1008 87 10000 6.7 200 01:27 17.10.2019
6049 Clouds 14 1008 87 10000 7.2 190 00:38 17.10.2019
6050 Clouds 14 1008 87 10000 6.2 190 00:19 17.10.2019
6051 Rain 14 1008 93 10000 5.1 190 23:42 16.10.2019
6052 Rain 14 1008 93 10000 5.1 190 23:21 16.10.2019
6053 Rain 14 1008 93 10000 5.1 190 23:21 16.10.2019
6054 Rain 14 1008 93 10000 6.7 180 22:56 16.10.2019
6055 Rain 14 1008 93 10000 6.7 180 22:37 16.10.2019
6056 Rain 14 1008 87 10000 7.2 180 22:18 16.10.2019
6057 Rain 14 1008 87 10000 7.7 180 21:56 16.10.2019
6058 Rain 14 1008 87 10000 7.7 180 21:37 16.10.2019
6059 Rain 14 1008 87 10000 8.2 180 21:19 16.10.2019
6060 Rain 14 1008 87 10000 8.2 180 20:57 16.10.2019
6061 Rain 14 1008 87 5000 8.7 180 20:38 16.10.2019
6062 Clouds 14 1008 93 6000 6.2 200 20:20 16.10.2019
6063 Clouds 14 1008 93 6000 6.2 200 19:58 16.10.2019
6064 Clouds 14 1008 87 10000 6.7 190 19:38 16.10.2019
6065 Clouds 14 1008 87 10000 6.7 190 19:20 16.10.2019
6066 Clouds 14 1008 87 10000 6.7 190 19:20 16.10.2019
6067 Rain 14 1008 87 10000 7.2 180 18:39 16.10.2019
6068 Rain 14 1009 87 5000 8.2 180 18:20 16.10.2019
6069 Rain 14 1009 87 5000 8.2 180 17:58 16.10.2019
6070 Drizzle 14 1009 87 10000 7.2 170 17:39 16.10.2019
6071 Rain 14 1009 87 9000 8.7 180 17:21 16.10.2019
6072 Rain 15 1009 87 9000 8.7 180 16:59 16.10.2019
6073 Rain 15 1009 87 7000 7.2 180 16:41 16.10.2019
6074 Rain 15 1009 87 7000 7.2 180 16:21 16.10.2019
6075 Rain 15 1009 82 10000 9.3 190 15:57 16.10.2019
6076 Clouds 15 1009 77 10000 10.3 190 15:38 16.10.2019
6077 Clouds 16 1009 77 10000 8.7 190 15:18 16.10.2019
6078 Clouds 16 1009 77 10000 8.7 190 14:56 16.10.2019
6079 Clouds 16 1009 77 10000 8.7 190 14:38 16.10.2019
6080 Clouds 16 1009 77 10000 8.7 190 14:18 16.10.2019
6081 Rain 16 1009 77 10000 7.7 200 13:56 16.10.2019
6082 Rain 16 1009 77 10000 7.7 200 13:56 16.10.2019
6083 Rain 16 1009 77 10000 7.7 200 13:56 16.10.2019
6084 Clouds 15 1009 77 10000 8.2 190 13:37 16.10.2019
6085 Clouds 15 1009 77 10000 8.2 190 13:19 16.10.2019
6086 Clouds 15 1009 77 10000 7.7 190 12:41 16.10.2019
6087 Clouds 15 1009 77 10000 8.2 190 12:19 16.10.2019
6088 Rain 14 1009 77 10000 7.7 190 11:44 16.10.2019
6089 Rain 14 1009 77 10000 7.2 190 11:18 16.10.2019
6090 Rain 14 1009 77 10000 7.2 190 10:41 16.10.2019
6091 Clouds 14 1009 82 10000 6.7 200 10:22 16.10.2019
6092 Rain 14 1009 87 10000 6.2 200 09:58 16.10.2019
6093 Clouds 14 1009 82 10000 8.2 190 09:39 16.10.2019
6094 Clouds 13 1009 82 10000 8.2 190 09:20 16.10.2019
6095 Clouds 13 1009 87 10000 8.2 190 08:44 16.10.2019
6096 Rain 13 1009 87 10000 7.2 180 08:25 16.10.2019
6097 Clouds 13 1009 93 10000 6.2 180 07:56 16.10.2019
6098 Rain 13 1009 87 10000 7.2 170 07:38 16.10.2019
6099 Rain 13 1009 87 10000 7.2 170 07:20 16.10.2019
6100 Rain 12 1009 93 10000 5.7 170 06:40 16.10.2019
6101 Rain 12 1009 93 10000 5.7 170 06:19 16.10.2019
6102 Rain 11 1011 87 10000 4.6 170 03:46 16.10.2019
6103 Clouds 11 1011 76 10000 4.1 180 02:50 16.10.2019
6104 Clouds 11 1012 81 10000 3.6 190 01:20 16.10.2019
6105 Clouds 11 1011 81 10000 3.6 210 00:57 16.10.2019
6106 Clouds 11 1012 87 10000 3.1 230 00:37 16.10.2019
6107 Clouds 11 1012 87 10000 4.1 230 23:42 15.10.2019
6108 Clouds 11 1011 76 10000 3.1 200 23:23 15.10.2019
6109 Clouds 12 1011 76 10000 3.6 200 22:58 15.10.2019
6110 Clouds 12 1011 76 10000 5.1 220 22:40 15.10.2019
6111 Clouds 12 1011 76 10000 5.1 220 22:21 15.10.2019
6112 Clouds 12 1011 87 10000 4.1 230 21:57 15.10.2019
6113 Clouds 12 1011 87 10000 3.6 230 21:38 15.10.2019
6114 Clouds 12 1010 71 10000 5.7 230 21:20 15.10.2019
6115 Clouds 12 1010 71 10000 5.7 230 21:20 15.10.2019
6116 Clouds 13 1010 71 10000 5.1 230 20:58 15.10.2019
6117 Clouds 13 1010 67 10000 6.2 250 20:40 15.10.2019
6118 Clouds 13 1010 67 10000 6.2 250 20:22 15.10.2019
6119 Clouds 13 1009 62 10000 5.7 220 19:59 15.10.2019
6120 Clouds 13 1009 67 10000 7.7 210 19:41 15.10.2019
6121 Clouds 14 1009 67 10000 7.7 210 19:20 15.10.2019
6122 Clouds 14 1009 62 10000 6.2 240 18:57 15.10.2019
6123 Clouds 14 1009 62 10000 6.2 240 18:57 15.10.2019
6124 Clouds 15 1008 59 10000 6.2 200 18:39 15.10.2019
6125 Clouds 15 1008 59 10000 6.2 200 18:20 15.10.2019
6126 Clouds 16 1008 63 10000 5.7 200 17:42 15.10.2019
6127 Clouds 16 1008 63 10000 5.7 200 17:42 15.10.2019
6128 Clouds 16 1008 63 10000 5.1 220 17:21 15.10.2019
6129 Clouds 16 1008 59 10000 5.1 220 16:59 15.10.2019
6130 Clouds 16 1008 59 10000 5.1 220 16:41 15.10.2019
6131 Clouds 15 1008 59 10000 5.1 230 16:21 15.10.2019
6132 Clouds 15 1008 63 10000 5.7 240 15:55 15.10.2019
6133 Clouds 15 1008 63 10000 5.1 230 15:37 15.10.2019
6134 Clouds 15 1008 63 10000 5.1 230 15:19 15.10.2019
6135 Clouds 15 1007 63 10000 6.2 230 14:55 15.10.2019
6136 Clouds 15 1008 67 10000 5.1 240 14:36 15.10.2019
6137 Clouds 15 1008 63 10000 6.2 230 14:18 15.10.2019
6138 Clouds 15 1008 67 10000 4.1 240 13:43 15.10.2019
6139 Clouds 15 1008 67 10000 4.1 240 13:20 15.10.2019
6140 Clouds 14 1008 76 10000 4.6 230 12:46 15.10.2019
6141 Clouds 14 1008 76 10000 4.6 230 12:23 15.10.2019
6142 Clouds 14 1008 76 10000 4.6 250 11:59 15.10.2019
6143 Clouds 14 1008 82 10000 4.6 250 11:41 15.10.2019
6144 Clouds 13 1008 82 10000 4.6 250 11:20 15.10.2019
6145 Clouds 13 1008 82 10000 4.6 250 11:20 15.10.2019
6146 Clouds 13 1007 82 10000 4.6 250 10:55 15.10.2019
6147 Clouds 13 1007 82 10000 4.6 230 10:37 15.10.2019
6148 Clouds 13 1007 82 10000 4.6 230 10:18 15.10.2019
6149 Rain 13 1006 87 10000 2.6 210 09:40 15.10.2019
6150 Rain 13 1006 87 10000 2.6 210 09:40 15.10.2019
6151 Clouds 13 1006 87 10000 2.6 210 09:21 15.10.2019
6152 Clouds 13 1006 87 10000 2.6 200 08:58 15.10.2019
6153 Clouds 13 1006 87 10000 2.6 200 08:58 15.10.2019
6154 Rain 13 1006 87 10000 3.1 230 08:40 15.10.2019
6155 Rain 13 1006 87 10000 3.1 230 08:20 15.10.2019
6156 Rain 13 1006 87 10000 2.6 180 07:44 15.10.2019
6157 Rain 13 1006 87 10000 2.6 180 07:23 15.10.2019
6158 Rain 13 1006 87 10000 2.6 200 06:58 15.10.2019
6159 Rain 13 1006 87 10000 3.1 200 06:39 15.10.2019
6160 Rain 13 1006 87 10000 2.6 210 05:58 15.10.2019
6161 Rain 13 1006 93 10000 2.1 200 05:37 15.10.2019
6162 Rain 13 1006 93 10000 2.6 200 04:53 15.10.2019
6163 Rain 14 1006 93 10000 2.6 210 04:19 15.10.2019
6164 Rain 14 1006 93 10000 1 0 03:35 15.10.2019
6165 Rain 14 1007 93 10000 3.6 200 01:59 15.10.2019
6166 Rain 14 1007 87 10000 4.6 180 01:40 15.10.2019
6167 Rain 15 1007 87 10000 4.6 180 01:18 15.10.2019
6168 Rain 15 1007 87 10000 4.1 180 00:26 15.10.2019
6169 Rain 15 1007 87 10000 4.6 190 23:59 14.10.2019
6170 Rain 15 1006 82 10000 5.7 210 23:38 14.10.2019
6171 Rain 15 1006 82 10000 5.7 210 23:19 14.10.2019
6172 Rain 15 1006 82 10000 5.7 210 23:19 14.10.2019
6173 Rain 16 1006 87 10000 5.1 210 22:40 14.10.2019
6174 Rain 16 1006 87 10000 5.1 210 22:40 14.10.2019
6175 Rain 16 1005 68 10000 7.2 210 22:21 14.10.2019
6176 Rain 16 1006 68 10000 8.7 200 21:59 14.10.2019
6177 Rain 16 1005 68 10000 4.1 200 21:40 14.10.2019
6178 Rain 16 1005 68 10000 4.1 200 21:40 14.10.2019
6179 Rain 16 1005 68 10000 4.1 200 21:21 14.10.2019
6180 Rain 17 1006 72 10000 6.7 230 21:21 14.10.2019
6181 Rain 17 1006 72 10000 6.7 230 20:58 14.10.2019
6182 Rain 17 1006 63 10000 9.3 230 20:38 14.10.2019
6183 Rain 17 1006 63 10000 9.3 230 20:20 14.10.2019
6184 Rain 18 1007 77 8000 9.3 240 19:58 14.10.2019
6185 Rain 19 1004 56 10000 5.7 150 19:39 14.10.2019
6186 Rain 19 1004 56 10000 5.7 150 19:39 14.10.2019
6187 Rain 21 1004 56 10000 5.7 150 19:21 14.10.2019
6188 Rain 23 1003 56 10000 5.1 140 18:57 14.10.2019
6189 Rain 23 1004 56 10000 5.1 150 18:38 14.10.2019
6190 Clouds 23 1004 56 10000 5.1 150 18:18 14.10.2019
6191 Clear 23 1004 53 10000 6.2 130 17:44 14.10.2019
6192 Clear 23 1004 53 10000 6.2 130 17:25 14.10.2019
6193 Clear 24 1004 53 10000 6.2 130 16:58 14.10.2019
6194 Clear 24 1004 50 10000 6.2 140 16:40 14.10.2019
6195 Clear 24 1005 53 10000 5.1 120 16:20 14.10.2019
6196 Clear 23 1005 53 10000 5.1 130 15:41 14.10.2019
6197 Clear 23 1006 53 10000 4.6 150 15:22 14.10.2019
6198 Clear 23 1006 53 10000 5.1 170 14:46 14.10.2019
6199 Clear 23 1007 56 10000 5.7 160 14:26 14.10.2019
6200 Clear 23 1007 56 10000 5.7 160 13:59 14.10.2019
6201 Clear 22 1007 60 10000 6.7 160 13:41 14.10.2019
6202 Clear 22 1008 60 10000 5.7 160 13:21 14.10.2019
6203 Clear 21 1008 60 10000 5.7 160 12:54 14.10.2019
6204 Clear 21 1008 60 10000 6.7 150 12:36 14.10.2019
6205 Clear 20 1008 64 10000 6.2 140 12:18 14.10.2019
6206 Clear 19 1008 64 10000 5.1 150 11:43 14.10.2019
6207 Clear 18 1008 68 10000 6.2 150 11:24 14.10.2019
6208 Clear 18 1008 68 10000 6.2 150 10:55 14.10.2019
6209 Clear 17 1008 77 10000 5.1 140 10:37 14.10.2019
6210 Clear 16 1009 82 10000 4.6 150 10:18 14.10.2019
6211 Clear 15 1009 87 10000 2.1 0 09:41 14.10.2019
6212 Clear 14 1009 87 10000 2.1 0 09:21 14.10.2019
6213 Clear 14 1009 87 10000 2.1 100 08:50 14.10.2019
6214 Clear 14 1009 87 10000 2.1 100 08:50 14.10.2019
6215 Clear 14 1009 93 10000 2.1 90 08:23 14.10.2019
6216 Clear 14 1009 87 10000 2.1 80 07:47 14.10.2019
6217 Clear 14 1010 87 10000 1.5 60 07:25 14.10.2019
6218 Clouds 14 1010 87 10000 3.1 60 06:59 14.10.2019
6219 Clouds 14 1010 87 10000 3.1 60 06:28 14.10.2019
6220 Clouds 14 1011 87 10000 2.6 50 05:57 14.10.2019
6221 Clouds 14 1011 87 10000 3.6 90 05:26 14.10.2019
6222 Clouds 14 1012 87 10000 1.5 0 03:50 14.10.2019
6223 Clouds 14 1012 87 10000 1.5 0 03:26 14.10.2019
6224 Clouds 14 1013 87 10000 1.5 40 02:32 14.10.2019
6225 Clouds 14 1013 87 10000 1.5 30 01:21 14.10.2019
6226 Rain 15 1013 82 10000 1.5 80 00:44 14.10.2019
6227 Clouds 15 1013 77 10000 1.5 40 00:19 14.10.2019
6228 Clouds 16 1012 82 10000 2.1 340 23:43 13.10.2019
6229 Clear 16 1012 72 10000 3.6 310 23:20 13.10.2019
6230 Clear 16 1012 72 10000 3.6 310 22:58 13.10.2019
6231 Clouds 16 1012 77 10000 4.1 330 22:40 13.10.2019
6232 Clear 17 1012 72 10000 4.1 260 22:21 13.10.2019
6233 Clear 17 1011 72 10000 5.1 240 21:58 13.10.2019
6234 Clear 17 1011 72 10000 5.1 240 21:37 13.10.2019
6235 Clouds 18 1011 64 10000 6.7 240 21:18 13.10.2019
6236 Clouds 18 1011 64 10000 6.7 240 21:18 13.10.2019
6237 -273 0 0 0 0 0 20:57 13.10.2019
6238 Clear 19 1011 64 10000 4.6 240 20:38 13.10.2019
6239 Clouds 19 1010 56 10000 7.2 230 20:19 13.10.2019
6240 Clouds 19 1010 56 10000 7.2 230 19:57 13.10.2019
6241 Clear 20 1010 60 10000 6.2 240 19:57 13.10.2019
6242 -273 0 0 0 0 0 19:57 13.10.2019
6243 Clear 20 1010 60 10000 6.2 240 19:39 13.10.2019
6244 Clear 20 1010 68 10000 3.1 230 19:20 13.10.2019
6245 -273 0 0 0 0 0 18:55 13.10.2019
6246 Rain 21 1009 60 10000 6.2 210 18:55 13.10.2019
6247 Rain 21 1009 60 10000 6.2 210 18:54 13.10.2019
6248 Rain 21 1009 60 10000 6.2 210 18:36 13.10.2019
6249 Rain 21 1008 56 10000 7.2 230 18:18 13.10.2019
6250 Rain 21 1008 56 10000 7.2 230 18:18 13.10.2019
6251 Clear 23 1008 53 10000 7.7 210 17:42 13.10.2019
6252 Clear 23 1008 53 10000 7.7 210 17:24 13.10.2019
6253 Clear 24 1008 50 10000 8.2 220 16:54 13.10.2019
6254 Clear 24 1008 50 10000 7.7 210 16:36 13.10.2019
6255 Clear 24 1008 53 10000 6.2 220 16:18 13.10.2019
6256 Clear 24 1007 53 10000 7.2 200 15:54 13.10.2019
6257 Clear 24 1007 53 10000 7.2 200 15:36 13.10.2019
6258 Clear 24 1007 53 10000 8.7 210 15:18 13.10.2019
6259 Clear 24 1007 53 10000 7.7 210 14:40 13.10.2019
6260 Clear 24 1007 50 10000 7.7 210 14:22 13.10.2019
6261 Clear 24 1007 50 10000 7.7 210 13:59 13.10.2019
6262 Clear 24 1007 53 10000 8.2 200 13:39 13.10.2019
6263 Clear 24 1007 53 10000 8.2 200 13:21 13.10.2019
6264 Clear 23 1007 56 10000 7.7 190 12:57 13.10.2019
6265 Clear 23 1007 56 10000 7.7 190 12:38 13.10.2019
6266 Clear 23 1007 56 10000 7.7 190 12:38 13.10.2019
6267 Clear 22 1007 60 10000 7.7 180 12:19 13.10.2019
6268 Clear 22 1007 60 10000 7.7 180 11:58 13.10.2019
6269 Clear 21 1007 72 10000 5.1 160 11:38 13.10.2019
6270 Clear 20 1007 72 10000 5.1 160 11:38 13.10.2019
6271 Clear 20 1008 72 10000 5.1 170 11:19 13.10.2019
6272 Clear 18 1008 77 10000 4.6 170 10:42 13.10.2019
6273 Clear 18 1008 77 10000 4.6 170 10:23 13.10.2019
6274 Clear 17 1008 82 10000 2.1 160 09:58 13.10.2019
6275 Clear 17 1008 82 10000 2.1 160 09:58 13.10.2019
6276 Clear 16 1007 87 10000 1 0 09:39 13.10.2019
6277 Clear 16 1007 87 10000 1 0 09:20 13.10.2019
6278 Clear 16 1008 87 10000 2.6 160 08:43 13.10.2019
6279 Clear 16 1008 87 10000 2.6 160 08:43 13.10.2019
6280 Clear 16 1008 87 10000 3.6 160 08:23 13.10.2019
6281 Clear 15 1008 87 10000 3.6 160 08:23 13.10.2019
6282 Clear 16 1008 87 10000 3.6 160 07:50 13.10.2019
6283 Clear 16 1008 87 10000 3.6 160 07:30 13.10.2019
6284 Clear 16 1008 93 10000 2.6 150 06:49 13.10.2019
6285 Clear 16 1009 100 10000 3.6 160 05:59 13.10.2019
6286 Rain 16 1009 93 9000 2.6 150 04:59 13.10.2019
6287 Clear 16 1009 93 10000 4.1 150 04:33 13.10.2019
6288 Fog 15 1009 100 9000 3.6 140 02:50 13.10.2019
6289 Fog 15 1009 100 9000 3.6 140 02:27 13.10.2019
6290 Clear 15 1010 93 8000 3.07 188.048 01:34 13.10.2019
6291 Clear 15 1010 93 8000 0.5 0 00:53 13.10.2019
6292 Clouds 15 1010 93 10000 0.5 0 00:23 13.10.2019
6293 Clouds 15 1010 87 10000 1 140 23:59 12.10.2019
6294 Clouds 15 1010 87 10000 1 140 23:41 12.10.2019
6295 Clouds 16 1010 82 10000 2.6 140 23:22 12.10.2019
6296 Clouds 16 1010 88 10000 1.5 140 22:58 12.10.2019
6297 Clouds 16 1010 88 10000 1.5 140 22:40 12.10.2019
6298 Clouds 16 1010 88 10000 2.6 130 22:22 12.10.2019
6299 Clouds 16 1010 88 10000 1.5 140 22:22 12.10.2019
6300 Clouds 16 1010 88 10000 2.6 130 21:58 12.10.2019
6301 Clear 16 1010 82 10000 1.68 191.25 21:39 12.10.2019
6302 Clear 16 1010 77 10000 2.1 180 21:21 12.10.2019
6303 Clear 17 1010 77 10000 3.6 180 20:46 12.10.2019
6304 Clear 17 1010 77 10000 3.6 180 20:46 12.10.2019
6305 Clear 17 1010 77 10000 3.6 180 20:28 12.10.2019
6306 Clear 17 1010 72 10000 4.1 180 19:57 12.10.2019
6307 Clouds 18 1010 72 10000 5.7 180 19:36 12.10.2019
6308 Clear 19 1010 72 10000 4.6 180 19:18 12.10.2019
6309 Clear 20 1010 72 10000 5.1 190 18:42 12.10.2019
6310 Clouds 20 1010 68 10000 5.1 180 18:24 12.10.2019
6311 Clouds 20 1010 64 10000 4.6 180 17:46 12.10.2019
6312 Clouds 21 1010 64 10000 4.6 190 17:21 12.10.2019
6313 Clouds 20 1010 64 10000 4.6 190 16:59 12.10.2019
6314 Clouds 20 1010 68 10000 4.1 190 16:40 12.10.2019
6315 Clouds 19 1010 68 10000 2.6 160 16:21 12.10.2019
6316 Clouds 19 1010 68 10000 2.6 160 15:56 12.10.2019
6317 Clouds 19 1011 68 10000 2.6 180 15:37 12.10.2019
6318 Clouds 19 1012 72 10000 3.6 180 15:18 12.10.2019
6319 Clouds 18 1012 77 10000 4.1 190 14:40 12.10.2019
6320 Clouds 17 1012 77 10000 4.6 180 14:20 12.10.2019
6321 Clouds 17 1012 77 10000 4.6 180 13:51 12.10.2019
6322 Clouds 17 1012 82 10000 4.6 180 13:32 12.10.2019
6323 Clouds 15 1012 82 10000 3.6 180 12:56 12.10.2019
6324 Clouds 15 1012 82 10000 3.6 180 12:38 12.10.2019
6325 Clouds 15 1013 82 10000 4.6 180 12:20 12.10.2019
6326 Mist 14 1013 82 10000 4.6 180 11:43 12.10.2019
6327 -273 0 0 0 0 0 11:24 12.10.2019
6328 Mist 14 1013 93 3000 3.1 190 10:58 12.10.2019
6329 Mist 14 1013 93 3000 3.1 190 10:39 12.10.2019
6330 Clear 13 1012 87 10000 2.6 190 10:20 12.10.2019
6331 Clear 13 1012 87 10000 2.6 190 09:57 12.10.2019
6332 Clear 13 1012 87 10000 2.6 190 09:57 12.10.2019
6333 Clouds 12 1012 100 8000 3.6 190 09:38 12.10.2019
6334 Clear 12 1012 87 10000 3.6 190 09:19 12.10.2019
6335 Clear 12 1012 87 10000 3.6 190 09:19 12.10.2019
6336 Clear 12 1012 93 10000 2.6 170 08:44 12.10.2019
6337 Clear 12 1012 93 10000 2.6 170 08:24 12.10.2019
6338 Clouds 12 1012 87 10000 3.6 170 07:50 12.10.2019
6339 Clouds 12 1012 87 10000 3.6 170 07:30 12.10.2019
6340 Clouds 12 1012 82 10000 3.6 200 06:28 12.10.2019
6341 Clouds 12 1012 87 10000 3.1 190 05:43 12.10.2019
6342 Clouds 12 1012 87 10000 2.1 160 04:34 12.10.2019
6343 Clouds 13 1012 82 10000 1.5 160 03:54 12.10.2019
6344 Clear 13 1011 76 10000 4.1 180 02:50 12.10.2019
6345 Clear 14 1011 82 10000 3.6 190 01:33 12.10.2019
6346 Clear 14 1012 82 10000 2.6 180 00:56 12.10.2019
6347 Clear 14 1012 82 10000 2.6 180 00:38 12.10.2019
6348 Clear 14 1012 82 10000 0.5 0 23:55 11.10.2019
6349 Clear 14 1012 82 10000 0.5 0 23:36 11.10.2019
6350 Clear 14 1012 76 10000 0.5 0 23:18 11.10.2019
6351 Clear 14 1012 72 10000 1.5 0 22:38 11.10.2019
6352 Clear 14 1012 72 10000 1.5 0 22:38 11.10.2019
6353 Clear 14 1012 72 10000 2.6 190 22:19 11.10.2019
6354 Clear 15 1012 67 10000 2.1 170 21:44 11.10.2019
6355 Clear 15 1012 67 10000 2.1 170 21:22 11.10.2019
6356 Clear 16 1012 67 10000 3.1 180 20:59 11.10.2019
6357 Clear 16 1012 67 10000 3.1 180 20:59 11.10.2019
6358 Clear 16 1012 67 10000 3.1 180 20:41 11.10.2019
6359 Clear 16 1012 67 10000 3.1 180 20:23 11.10.2019
6360 Clear 17 1012 59 10000 4.1 210 19:56 11.10.2019
6361 Clear 17 1012 59 10000 4.1 210 19:38 11.10.2019
6362 Clear 18 1012 56 10000 5.7 210 19:18 11.10.2019
6363 Clouds 19 1013 60 10000 5.7 210 18:56 11.10.2019
6364 Clouds 19 1013 60 10000 5.7 210 18:56 11.10.2019
6365 Clouds 19 1013 60 10000 5.7 210 18:37 11.10.2019
6366 Clouds 19 1013 60 10000 5.1 220 18:18 11.10.2019
6367 Clouds 20 1013 60 10000 5.1 220 17:57 11.10.2019
6368 Clouds 19 1013 63 10000 6.2 200 17:37 11.10.2019
6369 Clouds 19 1013 63 10000 7.7 210 17:18 11.10.2019
6370 Clouds 19 1013 63 10000 7.7 210 16:54 11.10.2019
6371 -273 0 0 0 0 0 16:54 11.10.2019
6372 Clouds 19 1014 63 10000 6.2 210 16:36 11.10.2019
6373 Clouds 19 1014 63 10000 6.2 200 16:18 11.10.2019
6374 Clouds 19 1014 59 10000 7.2 200 15:39 11.10.2019
6375 Clouds 19 1015 63 10000 6.7 200 15:19 11.10.2019
6376 Clouds 18 1015 63 10000 6.2 210 14:49 11.10.2019
6377 Clouds 18 1015 63 10000 6.2 210 14:30 11.10.2019
6378 Clouds 17 1016 72 10000 5.7 200 13:58 11.10.2019
6379 Clouds 17 1016 77 10000 5.7 220 13:40 11.10.2019
6380 Clouds 16 1016 77 10000 5.7 220 13:21 11.10.2019
6381 Clouds 16 1016 82 10000 7.2 220 12:56 11.10.2019
6382 Clouds 15 1016 82 10000 7.2 220 12:38 11.10.2019
6383 Clouds 15 1017 82 10000 7.2 210 12:19 11.10.2019
6384 Drizzle 14 1017 82 10000 5.7 200 11:55 11.10.2019
6385 Drizzle 14 1017 82 10000 5.7 200 11:36 11.10.2019
6386 Drizzle 13 1017 87 10000 6.2 200 11:18 11.10.2019
6387 Mist 13 1017 87 10000 4.6 200 10:41 11.10.2019
6388 Mist 13 1017 87 10000 4.6 200 10:23 11.10.2019
6389 Mist 12 1017 87 10000 4.6 200 09:57 11.10.2019
6390 Clouds 12 1016 87 10000 4.6 190 09:38 11.10.2019
6391 Clouds 12 1017 87 10000 3.6 190 09:20 11.10.2019
6392 Clouds 11 1017 87 10000 3.6 190 08:55 11.10.2019
6393 Clouds 11 1017 87 10000 4.6 190 08:37 11.10.2019
6394 Clouds 11 1017 87 10000 3.6 190 08:19 11.10.2019
6395 Clear 11 1016 93 10000 4.1 160 07:45 11.10.2019
6396 Clear 11 1016 93 10000 4.1 160 07:27 11.10.2019
6397 Clear 11 1017 87 10000 3.1 160 06:49 11.10.2019
6398 Clear 11 1017 87 10000 3.6 180 06:24 11.10.2019
6399 Clear 11 1017 87 10000 3.1 200 05:41 11.10.2019
6400 Clear 11 1017 93 10000 3.6 190 05:20 11.10.2019
6401 Clear 12 1017 87 10000 3.6 140 04:28 11.10.2019
6402 Clear 12 1018 87 10000 2.1 170 02:47 11.10.2019
6403 Clouds 12 1018 76 10000 1 0 00:52 11.10.2019
6404 Clouds 12 1018 76 10000 1 0 00:30 11.10.2019
6405 Clear 12 1018 71 10000 3.06 219.978 23:50 10.10.2019
6406 Clear 12 1018 71 10000 3.06 219.978 23:24 10.10.2019
6407 Clear 12 1019 71 10000 2.1 180 22:59 10.10.2019
6408 Clear 12 1018 71 10000 2.1 170 22:40 10.10.2019
6409 Clear 11 1018 67 10000 2.6 170 22:21 10.10.2019
6410 Clear 12 1018 67 10000 2.6 170 21:59 10.10.2019
6411 Clear 12 1019 71 10000 2.6 200 21:40 10.10.2019
6412 Clear 12 1019 71 10000 2.6 200 21:22 10.10.2019
6413 Clear 12 1018 62 10000 3.1 210 20:57 10.10.2019
6414 Clear 12 1019 67 10000 2.1 200 20:39 10.10.2019
6415 Clouds 13 1018 58 10000 3.1 210 20:19 10.10.2019
6416 Clouds 13 1018 58 10000 3.1 210 20:19 10.10.2019
6417 Clouds 14 1018 58 10000 3.1 210 19:55 10.10.2019
6418 Clouds 14 1018 59 10000 2.6 220 19:37 10.10.2019
6419 Clouds 15 1018 51 10000 4.6 240 19:19 10.10.2019
6420 Clouds 16 1018 51 10000 4.6 230 18:42 10.10.2019
6421 Clouds 17 1018 51 10000 5.1 230 18:20 10.10.2019
6422 Clouds 17 1018 51 10000 5.1 230 17:58 10.10.2019
6423 Clouds 17 1018 51 10000 4.6 230 17:39 10.10.2019
6424 Clouds 17 1018 51 10000 5.7 240 17:18 10.10.2019
6425 Clouds 17 1018 51 10000 5.7 240 17:18 10.10.2019
6426 Clouds 17 1018 51 10000 5.7 240 16:55 10.10.2019
6427 Clouds 18 1018 48 10000 6.2 230 16:37 10.10.2019
6428 Clouds 17 1018 55 10000 5.7 240 16:18 10.10.2019
6429 Clouds 17 1018 59 10000 5.7 240 15:40 10.10.2019
6430 Clouds 17 1018 55 10000 6.2 240 15:22 10.10.2019
6431 Clouds 17 1019 63 10000 5.1 250 14:57 10.10.2019
6432 Clouds 17 1018 59 10000 5.7 240 14:37 10.10.2019
6433 Clouds 17 1018 63 10000 6.7 240 14:19 10.10.2019
6434 Clouds 16 1018 67 10000 4.6 250 13:57 10.10.2019
6435 Clouds 16 1018 67 10000 4.6 250 13:39 10.10.2019
6436 Clouds 16 1018 63 10000 6.2 250 13:18 10.10.2019
6437 Clouds 15 1018 67 10000 7.2 240 12:42 10.10.2019
6438 Clouds 15 1018 72 10000 6.2 250 12:21 10.10.2019
6439 Clouds 14 1018 76 10000 6.7 240 11:58 10.10.2019
6440 Clouds 14 1018 76 10000 6.7 240 11:40 10.10.2019
6441 Clouds 14 1017 76 10000 6.2 240 11:19 10.10.2019
6442 Clouds 13 1017 82 10000 5.7 240 10:47 10.10.2019
6443 Clouds 12 1017 93 10000 4.1 240 10:28 10.10.2019
6444 Clouds 11 1016 81 10000 4.1 240 09:59 10.10.2019
6445 Clouds 11 1016 81 10000 4.1 240 09:41 10.10.2019
6446 Clouds 11 1016 87 10000 3.6 240 09:23 10.10.2019
6447 Clouds 11 1016 87 10000 3.6 240 08:59 10.10.2019
6448 Clear 10 1016 93 10000 3.6 250 08:40 10.10.2019
6449 Clouds 10 1015 93 10000 3.6 250 08:21 10.10.2019
6450 Clouds 11 1015 93 10000 2.6 240 07:48 10.10.2019
6451 Clouds 11 1014 81 10000 4.6 240 07:26 10.10.2019
6452 Clouds 11 1014 81 10000 4.6 240 06:56 10.10.2019
6453 Clouds 11 1014 87 10000 3.1 240 06:38 10.10.2019
6454 Clouds 11 1014 81 10000 4.1 230 05:56 10.10.2019
6455 Clouds 11 1014 81 10000 4.1 230 05:21 10.10.2019
6456 Rain 11 1013 76 10000 5.7 240 04:36 10.10.2019
6457 Rain 11 1012 87 10000 6.2 220 02:46 10.10.2019
6458 Rain 11 1012 81 10000 6.2 230 01:39 10.10.2019
6459 Rain 11 1012 81 10000 6.2 210 01:21 10.10.2019
6460 Rain 11 1012 81 10000 5.7 220 00:41 10.10.2019
6461 Rain 11 1012 81 10000 6.2 210 00:19 10.10.2019
6462 Rain 11 1012 81 10000 5.1 210 23:38 09.10.2019
6463 Clouds 11 1012 81 10000 4.6 210 23:19 09.10.2019
6464 Clouds 11 1012 81 10000 4.6 210 23:19 09.10.2019
6465 Clouds 11 1012 81 10000 4.1 210 22:42 09.10.2019
6466 Clouds 11 1012 81 10000 3.6 210 22:24 09.10.2019
6467 Clouds 11 1012 81 10000 3.6 210 21:59 09.10.2019
6468 Rain 11 1012 81 10000 2.6 190 21:39 09.10.2019
6469 Clouds 11 1013 87 10000 3.6 240 21:20 09.10.2019
6470 Rain 11 1012 93 10000 4.6 230 20:56 09.10.2019
6471 Rain 11 1012 76 10000 3.6 220 20:37 09.10.2019
6472 Clear 11 1012 81 10000 3.1 220 20:18 09.10.2019
6473 Clear 11 1012 81 10000 3.1 220 20:18 09.10.2019
6474 Rain 12 1012 81 10000 4.6 240 19:45 09.10.2019
6475 Rain 12 1012 81 10000 4.6 240 19:24 09.10.2019
6476 Rain 12 1012 76 10000 2.6 240 18:58 09.10.2019
6477 Rain 13 1012 76 10000 4.1 250 18:38 09.10.2019
6478 Rain 13 1011 81 10000 5.1 240 18:18 09.10.2019
6479 Rain 13 1011 76 10000 8.2 270 17:56 09.10.2019
6480 Rain 13 1011 76 10000 8.2 270 17:37 09.10.2019
6481 Rain 14 1011 55 10000 7.2 250 17:18 09.10.2019
6482 Clouds 15 1011 59 10000 7.2 250 16:42 09.10.2019
6483 Rain 15 1011 58 10000 8.7 240 16:23 09.10.2019
6484 Rain 15 1011 58 10000 8.7 240 15:58 09.10.2019
6485 Clouds 15 1010 55 10000 9.3 240 15:39 09.10.2019
6486 Clouds 15 1010 55 10000 9.3 240 15:20 09.10.2019
6487 Clouds 15 1010 59 10000 8.2 230 14:59 09.10.2019
6488 Clouds 15 1010 58 10000 9.3 240 14:41 09.10.2019
6489 Clouds 15 1011 62 10000 8.7 260 14:18 09.10.2019
6490 Clouds 15 1011 62 10000 8.7 260 14:18 09.10.2019
6491 Clouds 15 1010 72 10000 8.2 240 13:40 09.10.2019
6492 Rain 14 1010 76 10000 8.7 240 13:22 09.10.2019
6493 Rain 14 1010 72 10000 8.7 210 12:59 09.10.2019
6494 Rain 14 1010 72 10000 8.7 210 12:59 09.10.2019
6495 Rain 14 1010 72 10000 8.7 210 12:41 09.10.2019
6496 Clouds 13 1011 82 10000 6.2 230 12:22 09.10.2019
6497 Clouds 13 1011 82 10000 6.2 230 12:22 09.10.2019
6498 Clouds 13 1010 82 10000 7.2 220 11:56 09.10.2019
6499 Clouds 13 1010 82 10000 7.2 220 11:37 09.10.2019
6500 Clouds 13 1010 82 10000 7.2 220 11:37 09.10.2019
6501 Rain 13 1010 87 10000 5.1 210 11:19 09.10.2019
6502 Rain 12 1010 93 10000 4.1 210 10:44 09.10.2019
6503 Rain 12 1010 93 10000 5.1 180 10:22 09.10.2019
6504 Rain 11 1010 93 10000 5.1 180 09:59 09.10.2019
6505 Rain 11 1010 93 6000 3.6 170 09:41 09.10.2019
6506 Rain 11 1011 93 7000 4.6 210 09:19 09.10.2019
6507 Rain 11 1011 93 7000 4.6 210 08:55 09.10.2019
6508 Rain 11 1011 87 10000 3.6 190 08:37 09.10.2019
6509 Clouds 11 1011 93 10000 3.6 220 08:18 09.10.2019
6510 Clear 11 1011 87 10000 2.6 190 07:42 09.10.2019
6511 Clear 11 1011 93 10000 4.1 190 07:22 09.10.2019
6512 Clouds 11 1011 87 10000 1 0 06:52 09.10.2019
6513 Clouds 11 1011 87 10000 1 0 06:52 09.10.2019
6514 Clouds 10 1012 93 10000 2.1 220 06:20 09.10.2019
6515 Clouds 10 1012 93 10000 4.6 230 05:46 09.10.2019
6516 Clear 11 1012 87 10000 1.5 210 04:27 09.10.2019
6517 Mist 12 1012 87 10000 2.1 190 02:54 09.10.2019
6518 Clear 12 1013 93 10000 2.6 220 01:44 09.10.2019
6519 Clear 12 1013 93 10000 2.6 220 01:21 09.10.2019
6520 Clear 12 1013 93 10000 2.6 220 01:21 09.10.2019
6521 Clear 12 1013 93 10000 2.6 220 01:21 09.10.2019
6522 Clear 12 1013 87 10000 3.6 220 00:57 09.10.2019
6523 Clear 12 1013 93 10000 3.1 220 00:39 09.10.2019
6524 Mist 12 1013 93 10000 3.1 220 00:20 09.10.2019
6525 Clear 12 1012 93 10000 4.6 220 23:57 08.10.2019
6526 Clear 12 1012 93 10000 4.6 220 23:36 08.10.2019
6527 Clouds 12 1012 93 10000 4.6 220 23:18 08.10.2019
6528 Clear 12 1012 93 10000 3.1 210 22:39 08.10.2019
6529 Clear 13 1012 87 10000 2.1 220 22:20 08.10.2019
6530 Clear 13 1012 87 10000 2.1 220 22:20 08.10.2019
6531 Clear 13 1012 87 10000 2.1 220 22:20 08.10.2019
6532 Clear 13 1012 87 10000 2.1 220 21:58 08.10.2019
6533 Clear 13 1012 93 10000 3.1 230 21:39 08.10.2019
6534 Clear 13 1011 87 10000 2.1 230 21:19 08.10.2019
6535 Clear 13 1011 87 10000 2.1 230 20:57 08.10.2019
6536 Clear 13 1011 87 10000 2.1 230 20:57 08.10.2019
6537 Clear 13 1011 87 10000 2.1 230 20:57 08.10.2019
6538 Clear 13 1011 93 10000 3.1 220 20:39 08.10.2019
6539 Clear 14 1011 93 10000 3.1 220 20:21 08.10.2019
6540 Drizzle 14 1011 93 9000 1.5 250 19:58 08.10.2019
6541 Drizzle 14 1011 93 9000 1.5 250 19:58 08.10.2019
6542 Drizzle 14 1011 93 9000 1.5 250 19:40 08.10.2019
6543 Rain 14 1011 87 10000 3.6 220 19:22 08.10.2019
6544 Rain 14 1011 87 10000 3.6 220 18:55 08.10.2019
6545 Rain 14 1010 87 10000 3.1 230 18:37 08.10.2019
6546 Rain 14 1010 87 10000 3.6 230 18:19 08.10.2019
6547 Rain 14 1010 87 10000 3.6 230 17:55 08.10.2019
6548 Rain 14 1010 87 10000 3.6 230 17:55 08.10.2019
6549 Rain 14 1010 87 10000 2.1 230 17:36 08.10.2019
6550 Rain 14 1011 93 10000 3.1 240 17:18 08.10.2019
6551 Rain 14 1011 93 10000 3.6 240 16:40 08.10.2019
6552 Rain 14 1011 93 10000 3.6 240 16:22 08.10.2019
6553 Rain 14 1010 87 10000 3.6 270 15:57 08.10.2019
6554 Rain 14 1011 93 5000 3.1 250 15:37 08.10.2019
6555 Rain 14 1010 93 9000 2.6 280 15:19 08.10.2019
6556 Rain 14 1011 93 10000 3.1 260 14:42 08.10.2019
6557 Rain 14 1011 93 4600 3.6 260 14:21 08.10.2019
6558 Rain 14 1011 93 10000 1.5 270 13:58 08.10.2019
6559 Rain 14 1011 93 10000 1.5 270 13:39 08.10.2019
6560 Rain 14 1011 93 10000 1.5 270 13:39 08.10.2019
6561 Rain 14 1011 93 6000 2.1 300 13:20 08.10.2019
6562 Rain 14 1011 93 6000 2.1 300 12:59 08.10.2019
6563 Rain 14 1011 93 10000 3.6 310 12:39 08.10.2019
6564 Rain 14 1011 100 2300 3.6 240 12:20 08.10.2019
6565 Rain 14 1011 100 1800 2.6 230 11:56 08.10.2019
6566 Rain 14 1011 100 1800 2.6 230 11:37 08.10.2019
6567 Drizzle 14 1011 100 10000 3.6 210 11:19 08.10.2019
6568 Drizzle 14 1011 93 7000 3.6 200 10:40 08.10.2019
6569 Rain 14 1011 93 7000 3.6 200 10:22 08.10.2019
6570 Rain 14 1011 93 2600 3.1 200 09:58 08.10.2019
6571 Rain 14 1011 100 4800 3.1 200 09:40 08.10.2019
6572 Drizzle 14 1011 100 3300 3.1 190 09:21 08.10.2019
6573 Drizzle 14 1011 100 7000 3.1 200 08:45 08.10.2019
6574 Rain 14 1011 93 4700 4.6 200 08:25 08.10.2019
6575 Rain 14 1011 93 5000 3.6 200 07:47 08.10.2019
6576 Rain 14 1011 93 5000 3.6 200 07:23 08.10.2019
6577 Rain 14 1012 93 7000 4.1 200 06:59 08.10.2019
6578 Rain 13 1012 93 4200 5.1 200 06:39 08.10.2019
6579 Drizzle 13 1012 93 10000 5.1 210 06:21 08.10.2019
6580 Rain 13 1012 100 10000 4.6 190 05:43 08.10.2019
6581 Rain 13 1013 93 3400 3.6 190 05:19 08.10.2019
6582 Rain 13 1014 93 4600 5.1 190 03:31 08.10.2019
6583 Drizzle 12 1015 93 5000 4.6 200 02:42 08.10.2019
6584 Drizzle 12 1015 87 7000 5.1 200 01:58 08.10.2019
6585 Clouds 12 1015 93 10000 5.7 210 01:40 08.10.2019
6586 Clouds 13 1016 76 10000 5.7 200 00:55 08.10.2019
6587 Clouds 13 1016 71 10000 4.6 200 00:23 08.10.2019
6588 Clouds 13 1016 71 10000 5.7 200 23:56 07.10.2019
6589 Clouds 13 1016 71 10000 5.7 200 23:37 07.10.2019
6590 Rain 13 1017 76 10000 4.6 210 23:19 07.10.2019
6591 Rain 13 1017 71 10000 6.2 220 22:54 07.10.2019
6592 Rain 13 1017 71 10000 6.2 220 22:36 07.10.2019
6593 Clouds 13 1017 76 10000 6.2 230 22:18 07.10.2019
6594 Clouds 14 1017 62 10000 5.7 210 21:54 07.10.2019
6595 Clouds 14 1017 62 10000 5.7 210 21:36 07.10.2019
6596 Rain 14 1017 62 10000 6.7 210 21:18 07.10.2019
6597 Rain 14 1017 62 10000 6.7 210 20:54 07.10.2019
6598 Clouds 14 1017 62 10000 4.6 220 20:36 07.10.2019
6599 Clouds 14 1018 62 10000 4.6 230 20:18 07.10.2019
6600 Clear 15 1017 59 10000 5.7 220 19:41 07.10.2019
6601 Clouds 15 1018 58 10000 4.6 240 19:20 07.10.2019
6602 Clouds 16 1017 55 10000 4.6 210 18:59 07.10.2019
6603 Clouds 16 1017 55 10000 4.6 210 18:59 07.10.2019
6604 Clouds 16 1017 55 10000 3.1 210 18:40 07.10.2019
6605 Clouds 16 1017 55 10000 3.6 220 18:19 07.10.2019
6606 Clouds 17 1017 55 10000 3.6 220 17:56 07.10.2019
6607 Clouds 17 1018 52 10000 4.6 230 17:38 07.10.2019
6608 Clouds 17 1018 55 10000 3.1 250 17:18 07.10.2019
6609 Clouds 17 1018 59 10000 4.1 250 16:44 07.10.2019
6610 Clouds 17 1018 59 10000 3.6 270 16:25 07.10.2019
6611 Clouds 17 1018 59 10000 3.6 270 15:57 07.10.2019
6612 Clouds 17 1018 63 10000 4.1 230 15:38 07.10.2019
6613 Clouds 17 1018 59 10000 3.6 280 15:20 07.10.2019
6614 Clouds 16 1018 67 10000 4.1 260 14:41 07.10.2019
6615 Clouds 16 1019 67 10000 3.6 260 14:23 07.10.2019
6616 Clouds 16 1019 67 10000 5.1 260 13:45 07.10.2019
6617 Clouds 16 1019 72 10000 3.6 250 13:21 07.10.2019
6618 Clouds 16 1019 72 10000 3.6 250 12:58 07.10.2019
6619 Clouds 16 1019 72 10000 3.6 250 12:58 07.10.2019
6620 Clouds 15 1019 72 10000 3.6 270 12:40 07.10.2019
6621 Clouds 14 1018 77 10000 3.1 250 12:21 07.10.2019
6622 Clouds 14 1018 77 10000 3.1 250 11:59 07.10.2019
6623 Clouds 14 1019 76 10000 2.6 270 11:40 07.10.2019
6624 Clouds 13 1018 82 10000 3.1 250 11:21 07.10.2019
6625 Clouds 13 1018 82 10000 3.1 250 10:57 07.10.2019
6626 Clouds 13 1018 82 10000 3.1 250 10:39 07.10.2019
6627 Clouds 12 1018 82 10000 3.1 250 10:20 07.10.2019
6628 Clouds 11 1018 87 10000 3.1 260 09:39 07.10.2019
6629 Clouds 11 1018 87 10000 3.1 260 09:39 07.10.2019
6630 Clouds 11 1017 87 10000 3.6 250 09:21 07.10.2019
6631 Clouds 11 1017 81 10000 3.1 250 08:44 07.10.2019
6632 Clouds 11 1016 81 10000 2.6 250 08:21 07.10.2019
6633 Clouds 11 1017 76 10000 2.6 260 07:56 07.10.2019
6634 Clouds 11 1017 76 10000 2.6 260 07:38 07.10.2019
6635 Clouds 11 1016 76 10000 4.1 260 07:19 07.10.2019
6636 Clouds 11 1016 76 10000 3.1 270 06:43 07.10.2019
6637 Clouds 11 1016 76 10000 3.1 270 06:22 07.10.2019
6638 Clouds 11 1016 76 10000 3.6 270 05:27 07.10.2019
6639 Clouds 11 1015 76 10000 3.1 270 04:56 07.10.2019
6640 Clear 11 1015 76 10000 5.1 250 04:19 07.10.2019
6641 Clear 12 1015 76 10000 5.1 250 03:39 07.10.2019
6642 Clear 12 1015 76 10000 5.1 250 03:39 07.10.2019
6643 Rain 12 1015 76 10000 4.1 270 03:18 07.10.2019
6644 Clear 12 1015 76 10000 5.1 260 02:20 07.10.2019
6645 Clear 12 1015 76 10000 4.1 260 01:42 07.10.2019
6646 Clear 12 1015 76 10000 4.6 260 01:18 07.10.2019
6647 Clear 12 1015 76 10000 6.2 250 00:38 07.10.2019
6648 Clouds 12 1015 76 10000 5.1 270 00:19 07.10.2019
6649 Clear 12 1014 76 10000 5.1 250 23:42 06.10.2019
6650 Clear 12 1014 76 10000 5.1 250 23:21 06.10.2019
6651 Clear 12 1014 76 10000 5.1 260 22:59 06.10.2019
6652 Clear 12 1014 76 10000 5.1 260 22:40 06.10.2019
6653 Clear 12 1014 76 10000 5.7 270 22:21 06.10.2019
6654 Clear 12 1014 76 10000 5.7 270 22:21 06.10.2019
6655 Clear 13 1014 71 10000 6.2 270 21:57 06.10.2019
6656 Clear 13 1014 71 10000 6.2 270 21:37 06.10.2019
6657 Clear 13 1014 76 10000 4.6 260 21:19 06.10.2019
6658 Clear 13 1014 71 10000 4.1 280 20:57 06.10.2019
6659 Clear 13 1014 71 10000 4.1 280 20:39 06.10.2019
6660 Clear 14 1013 71 10000 5.1 280 20:20 06.10.2019
6661 Clear 14 1013 71 10000 5.1 280 19:57 06.10.2019
6662 Clear 14 1013 71 10000 5.1 280 19:57 06.10.2019
6663 Clear 14 1013 71 10000 4.6 280 19:37 06.10.2019
6664 Rain 15 1013 67 10000 6.7 290 19:19 06.10.2019
6665 Rain 15 1013 67 10000 6.7 290 18:56 06.10.2019
6666 Clouds 16 1012 59 10000 6.2 290 18:38 06.10.2019
6667 Clouds 16 1012 55 10000 6.7 290 18:19 06.10.2019
6668 Clouds 17 1012 55 10000 6.7 290 17:57 06.10.2019
6669 Clouds 17 1012 59 10000 7.7 280 17:38 06.10.2019
6670 Clouds 17 1012 59 10000 7.7 280 17:18 06.10.2019
6671 Clouds 17 1012 59 10000 8.2 280 16:42 06.10.2019
6672 Clouds 17 1012 63 10000 5.1 280 16:23 06.10.2019
6673 Rain 17 1012 72 10000 6.7 300 15:45 06.10.2019
6674 Rain 17 1012 72 10000 6.7 300 15:23 06.10.2019
6675 Rain 17 1011 59 10000 6.7 260 14:59 06.10.2019
6676 Rain 18 1012 68 10000 6.7 260 14:41 06.10.2019
6677 Rain 18 1012 68 10000 6.7 260 14:23 06.10.2019
6678 Clouds 17 1012 77 10000 5.7 250 13:56 06.10.2019
6679 Clouds 17 1012 77 10000 5.7 250 13:56 06.10.2019
6680 Clouds 17 1012 77 10000 5.7 250 13:37 06.10.2019
6681 Clouds 16 1012 82 10000 5.1 240 13:19 06.10.2019
6682 Clouds 16 1012 82 10000 5.1 240 12:56 06.10.2019
6683 Drizzle 16 1012 87 10000 5.1 220 12:37 06.10.2019
6684 Rain 15 1012 87 10000 5.1 200 12:19 06.10.2019
6685 Drizzle 15 1012 93 10000 5.1 200 11:55 06.10.2019
6686 Drizzle 14 1012 93 10000 5.1 200 11:36 06.10.2019
6687 Drizzle 14 1012 93 10000 5.1 200 11:36 06.10.2019
6688 Rain 14 1013 93 3300 4.6 200 11:18 06.10.2019
6689 Rain 14 1013 93 6000 4.1 190 10:42 06.10.2019
6690 Rain 14 1013 93 6000 4.1 190 10:24 06.10.2019
6691 Rain 14 1013 93 10000 4.1 190 09:42 06.10.2019
6692 Rain 14 1013 93 10000 3.6 190 09:22 06.10.2019
6693 Rain 14 1013 93 10000 3.6 190 09:22 06.10.2019
6694 Rain 14 1013 93 10000 3.6 190 09:22 06.10.2019
6695 Rain 13 1013 87 10000 3.6 220 08:59 06.10.2019
6696 Rain 13 1013 87 10000 3.6 220 08:40 06.10.2019
6697 Rain 13 1013 93 10000 1.5 190 08:20 06.10.2019
6698 Rain 13 1013 87 10000 2.1 190 07:44 06.10.2019
6699 Clouds 13 1013 93 10000 2.1 190 07:18 06.10.2019
6700 Clouds 13 1014 93 10000 2.6 170 06:20 06.10.2019
6701 Rain 13 1014 93 10000 3.86 232.681 05:28 06.10.2019
6702 Clouds 13 1015 87 10000 3.86 232.681 03:35 06.10.2019
6703 Rain 14 1015 93 10000 4.6 250 02:42 06.10.2019
6704 Rain 14 1015 82 10000 2.6 240 02:20 06.10.2019
6705 Clouds 14 1015 82 10000 3.1 250 01:40 06.10.2019
6706 Clouds 14 1015 87 10000 2.6 230 01:21 06.10.2019
6707 Rain 14 1015 87 10000 2.6 240 00:46 06.10.2019
6708 Rain 14 1015 87 10000 2.6 240 00:25 06.10.2019
6709 Clouds 14 1015 87 10000 2.1 230 23:44 05.10.2019
6710 Clouds 14 1015 87 10000 1.5 220 23:22 05.10.2019
6711 Clouds 14 1015 87 10000 1.5 220 22:58 05.10.2019
6712 Clouds 15 1015 87 10000 2.1 230 22:40 05.10.2019
6713 Clouds 15 1015 82 10000 2.1 240 22:20 05.10.2019